<?xml version="1.0" encoding="UTF-8" standalone="no" ?>
<gpx xmlns="http://www.topografix.com/GPX/1/1" xmlns:xsi="http://www.w3.org/2001/XMLSchema-instance" xsi:schemaLocation="http://www.topografix.com/GPX/1/1 http://www.topografix.com/GPX/1/1/gpx.xsd" version="1.1" creator="VisuGPX - https://www.visugpx.com">
  <metadata>
    <name>Champagnat Cyclisme sur route</name>
  </metadata>
  <trk>
    <name><![CDATA[Champagnat Cyclisme sur route_1]]></name>
    <trkseg>
      <trkpt lat="46.48261" lon="5.36833">
        <ele>273.2</ele>
        <time>2022-02-12T11:38:05Z</time>
      </trkpt>
      <trkpt lat="46.48244" lon="5.36815">
        <ele>271.6</ele>
        <time>2022-02-12T11:38:07Z</time>
      </trkpt>
      <trkpt lat="46.48226" lon="5.36799">
        <ele>270.4</ele>
        <time>2022-02-12T11:38:09Z</time>
      </trkpt>
      <trkpt lat="46.48208" lon="5.36784">
        <ele>269</ele>
        <time>2022-02-12T11:38:11Z</time>
      </trkpt>
      <trkpt lat="46.4819" lon="5.36769">
        <ele>267.6</ele>
        <time>2022-02-12T11:38:13Z</time>
      </trkpt>
      <trkpt lat="46.48172" lon="5.36754">
        <ele>266.6</ele>
        <time>2022-02-12T11:38:15Z</time>
      </trkpt>
      <trkpt lat="46.48163" lon="5.36746">
        <ele>265.6</ele>
        <time>2022-02-12T11:38:16Z</time>
      </trkpt>
      <trkpt lat="46.48146" lon="5.36731">
        <ele>264.8</ele>
        <time>2022-02-12T11:38:18Z</time>
      </trkpt>
      <trkpt lat="46.48122" lon="5.36712">
        <ele>263</ele>
        <time>2022-02-12T11:38:21Z</time>
      </trkpt>
      <trkpt lat="46.4811" lon="5.36701">
        <ele>262</ele>
        <time>2022-02-12T11:38:23Z</time>
      </trkpt>
      <trkpt lat="46.48107" lon="5.36694">
        <ele>261.6</ele>
        <time>2022-02-12T11:38:24Z</time>
      </trkpt>
      <trkpt lat="46.48109" lon="5.36677">
        <ele>260.8</ele>
        <time>2022-02-12T11:38:26Z</time>
      </trkpt>
      <trkpt lat="46.48113" lon="5.3667">
        <ele>260</ele>
        <time>2022-02-12T11:38:27Z</time>
      </trkpt>
      <trkpt lat="46.48119" lon="5.36664">
        <ele>259.8</ele>
        <time>2022-02-12T11:38:28Z</time>
      </trkpt>
      <trkpt lat="46.48132" lon="5.36651">
        <ele>258.2</ele>
        <time>2022-02-12T11:38:30Z</time>
      </trkpt>
      <trkpt lat="46.4814" lon="5.36647">
        <ele>257.8</ele>
        <time>2022-02-12T11:38:31Z</time>
      </trkpt>
      <trkpt lat="46.48181" lon="5.36617">
        <ele>255.4</ele>
        <time>2022-02-12T11:38:36Z</time>
      </trkpt>
      <trkpt lat="46.48189" lon="5.3661">
        <ele>255.2</ele>
        <time>2022-02-12T11:38:37Z</time>
      </trkpt>
      <trkpt lat="46.48206" lon="5.36603">
        <ele>255</ele>
        <time>2022-02-12T11:38:39Z</time>
      </trkpt>
      <trkpt lat="46.4822" lon="5.36594">
        <ele>255</ele>
        <time>2022-02-12T11:38:41Z</time>
      </trkpt>
      <trkpt lat="46.48223" lon="5.36585">
        <ele>255</ele>
        <time>2022-02-12T11:38:42Z</time>
      </trkpt>
      <trkpt lat="46.48229" lon="5.36563">
        <ele>254.8</ele>
        <time>2022-02-12T11:38:44Z</time>
      </trkpt>
      <trkpt lat="46.48241" lon="5.36546">
        <ele>254.6</ele>
        <time>2022-02-12T11:38:46Z</time>
      </trkpt>
      <trkpt lat="46.48283" lon="5.365">
        <ele>253.8</ele>
        <time>2022-02-12T11:38:52Z</time>
      </trkpt>
      <trkpt lat="46.4829" lon="5.36492">
        <ele>253.4</ele>
        <time>2022-02-12T11:38:53Z</time>
      </trkpt>
      <trkpt lat="46.48319" lon="5.3646">
        <ele>252.4</ele>
        <time>2022-02-12T11:38:57Z</time>
      </trkpt>
      <trkpt lat="46.48355" lon="5.3642">
        <ele>251.4</ele>
        <time>2022-02-12T11:39:02Z</time>
      </trkpt>
      <trkpt lat="46.48377" lon="5.36395">
        <ele>250.6</ele>
        <time>2022-02-12T11:39:05Z</time>
      </trkpt>
      <trkpt lat="46.48392" lon="5.36379">
        <ele>250.4</ele>
        <time>2022-02-12T11:39:07Z</time>
      </trkpt>
      <trkpt lat="46.48416" lon="5.3636">
        <ele>249.6</ele>
        <time>2022-02-12T11:39:10Z</time>
      </trkpt>
      <trkpt lat="46.48424" lon="5.36355">
        <ele>249</ele>
        <time>2022-02-12T11:39:11Z</time>
      </trkpt>
      <trkpt lat="46.4845" lon="5.36348">
        <ele>248.6</ele>
        <time>2022-02-12T11:39:14Z</time>
      </trkpt>
      <trkpt lat="46.48499" lon="5.3634">
        <ele>248</ele>
        <time>2022-02-12T11:39:20Z</time>
      </trkpt>
      <trkpt lat="46.48515" lon="5.36337">
        <ele>247.8</ele>
        <time>2022-02-12T11:39:22Z</time>
      </trkpt>
      <trkpt lat="46.48571" lon="5.36327">
        <ele>247.6</ele>
        <time>2022-02-12T11:39:29Z</time>
      </trkpt>
      <trkpt lat="46.48579" lon="5.36326">
        <ele>247.6</ele>
        <time>2022-02-12T11:39:30Z</time>
      </trkpt>
      <trkpt lat="46.48604" lon="5.36322">
        <ele>247.2</ele>
        <time>2022-02-12T11:39:33Z</time>
      </trkpt>
      <trkpt lat="46.48612" lon="5.36318">
        <ele>246.8</ele>
        <time>2022-02-12T11:39:34Z</time>
      </trkpt>
      <trkpt lat="46.48619" lon="5.36312">
        <ele>246.6</ele>
        <time>2022-02-12T11:39:35Z</time>
      </trkpt>
      <trkpt lat="46.48626" lon="5.36304">
        <ele>246</ele>
        <time>2022-02-12T11:39:36Z</time>
      </trkpt>
      <trkpt lat="46.48636" lon="5.36282">
        <ele>245.4</ele>
        <time>2022-02-12T11:39:38Z</time>
      </trkpt>
      <trkpt lat="46.48638" lon="5.3627">
        <ele>245.2</ele>
        <time>2022-02-12T11:39:39Z</time>
      </trkpt>
      <trkpt lat="46.48639" lon="5.36256">
        <ele>244.4</ele>
        <time>2022-02-12T11:39:40Z</time>
      </trkpt>
      <trkpt lat="46.48641" lon="5.3623">
        <ele>243.4</ele>
        <time>2022-02-12T11:39:42Z</time>
      </trkpt>
      <trkpt lat="46.48645" lon="5.36192">
        <ele>241.6</ele>
        <time>2022-02-12T11:39:45Z</time>
      </trkpt>
      <trkpt lat="46.48649" lon="5.36141">
        <ele>240.4</ele>
        <time>2022-02-12T11:39:49Z</time>
      </trkpt>
      <trkpt lat="46.48663" lon="5.36072">
        <ele>239.6</ele>
        <time>2022-02-12T11:39:55Z</time>
      </trkpt>
      <trkpt lat="46.48675" lon="5.36013">
        <ele>239.8</ele>
        <time>2022-02-12T11:40:01Z</time>
      </trkpt>
      <trkpt lat="46.48678" lon="5.35997">
        <ele>240.2</ele>
        <time>2022-02-12T11:40:03Z</time>
      </trkpt>
      <trkpt lat="46.48681" lon="5.35971">
        <ele>240.6</ele>
        <time>2022-02-12T11:40:06Z</time>
      </trkpt>
      <trkpt lat="46.48689" lon="5.35917">
        <ele>241.2</ele>
        <time>2022-02-12T11:40:12Z</time>
      </trkpt>
      <trkpt lat="46.48691" lon="5.35908">
        <ele>241.2</ele>
        <time>2022-02-12T11:40:13Z</time>
      </trkpt>
      <trkpt lat="46.48706" lon="5.3587">
        <ele>241.2</ele>
        <time>2022-02-12T11:40:17Z</time>
      </trkpt>
      <trkpt lat="46.48734" lon="5.35803">
        <ele>240.2</ele>
        <time>2022-02-12T11:40:24Z</time>
      </trkpt>
      <trkpt lat="46.48738" lon="5.35794">
        <ele>240</ele>
        <time>2022-02-12T11:40:25Z</time>
      </trkpt>
      <trkpt lat="46.48746" lon="5.35775">
        <ele>239.6</ele>
        <time>2022-02-12T11:40:27Z</time>
      </trkpt>
      <trkpt lat="46.48771" lon="5.35719">
        <ele>238.8</ele>
        <time>2022-02-12T11:40:33Z</time>
      </trkpt>
      <trkpt lat="46.48779" lon="5.35701">
        <ele>238.6</ele>
        <time>2022-02-12T11:40:35Z</time>
      </trkpt>
      <trkpt lat="46.48805" lon="5.35642">
        <ele>238.6</ele>
        <time>2022-02-12T11:40:42Z</time>
      </trkpt>
      <trkpt lat="46.48823" lon="5.356">
        <ele>238.6</ele>
        <time>2022-02-12T11:40:47Z</time>
      </trkpt>
      <trkpt lat="46.48848" lon="5.35544">
        <ele>238.6</ele>
        <time>2022-02-12T11:40:54Z</time>
      </trkpt>
      <trkpt lat="46.4888" lon="5.35472">
        <ele>239</ele>
        <time>2022-02-12T11:41:03Z</time>
      </trkpt>
      <trkpt lat="46.48912" lon="5.35397">
        <ele>238.4</ele>
        <time>2022-02-12T11:41:12Z</time>
      </trkpt>
      <trkpt lat="46.4892" lon="5.35379">
        <ele>238.2</ele>
        <time>2022-02-12T11:41:14Z</time>
      </trkpt>
      <trkpt lat="46.48929" lon="5.35362">
        <ele>238.2</ele>
        <time>2022-02-12T11:41:16Z</time>
      </trkpt>
      <trkpt lat="46.48951" lon="5.35311">
        <ele>237.6</ele>
        <time>2022-02-12T11:41:22Z</time>
      </trkpt>
      <trkpt lat="46.48976" lon="5.35256">
        <ele>237.4</ele>
        <time>2022-02-12T11:41:29Z</time>
      </trkpt>
      <trkpt lat="46.49001" lon="5.352">
        <ele>237.8</ele>
        <time>2022-02-12T11:41:37Z</time>
      </trkpt>
      <trkpt lat="46.49017" lon="5.35161">
        <ele>238.2</ele>
        <time>2022-02-12T11:41:43Z</time>
      </trkpt>
      <trkpt lat="46.49034" lon="5.35116">
        <ele>238.8</ele>
        <time>2022-02-12T11:41:49Z</time>
      </trkpt>
      <trkpt lat="46.49036" lon="5.35107">
        <ele>238.8</ele>
        <time>2022-02-12T11:41:50Z</time>
      </trkpt>
      <trkpt lat="46.49049" lon="5.35051">
        <ele>239</ele>
        <time>2022-02-12T11:41:56Z</time>
      </trkpt>
      <trkpt lat="46.49059" lon="5.34999">
        <ele>238.8</ele>
        <time>2022-02-12T11:42:01Z</time>
      </trkpt>
      <trkpt lat="46.49072" lon="5.3493">
        <ele>237.8</ele>
        <time>2022-02-12T11:42:07Z</time>
      </trkpt>
      <trkpt lat="46.49083" lon="5.34875">
        <ele>236.8</ele>
        <time>2022-02-12T11:42:12Z</time>
      </trkpt>
      <trkpt lat="46.49085" lon="5.34863">
        <ele>236.6</ele>
        <time>2022-02-12T11:42:13Z</time>
      </trkpt>
      <trkpt lat="46.49097" lon="5.34806">
        <ele>235.8</ele>
        <time>2022-02-12T11:42:18Z</time>
      </trkpt>
      <trkpt lat="46.49099" lon="5.34795">
        <ele>235.6</ele>
        <time>2022-02-12T11:42:19Z</time>
      </trkpt>
      <trkpt lat="46.49109" lon="5.34738">
        <ele>234.6</ele>
        <time>2022-02-12T11:42:24Z</time>
      </trkpt>
      <trkpt lat="46.49116" lon="5.34703">
        <ele>234</ele>
        <time>2022-02-12T11:42:27Z</time>
      </trkpt>
      <trkpt lat="46.4912" lon="5.34681">
        <ele>233.6</ele>
        <time>2022-02-12T11:42:29Z</time>
      </trkpt>
      <trkpt lat="46.49132" lon="5.34622">
        <ele>233</ele>
        <time>2022-02-12T11:42:35Z</time>
      </trkpt>
      <trkpt lat="46.49141" lon="5.34573">
        <ele>233.2</ele>
        <time>2022-02-12T11:42:41Z</time>
      </trkpt>
      <trkpt lat="46.49154" lon="5.34508">
        <ele>233.2</ele>
        <time>2022-02-12T11:42:48Z</time>
      </trkpt>
      <trkpt lat="46.49167" lon="5.34437">
        <ele>232.6</ele>
        <time>2022-02-12T11:42:55Z</time>
      </trkpt>
      <trkpt lat="46.49179" lon="5.34373">
        <ele>232.4</ele>
        <time>2022-02-12T11:43:02Z</time>
      </trkpt>
      <trkpt lat="46.49184" lon="5.34335">
        <ele>233</ele>
        <time>2022-02-12T11:43:07Z</time>
      </trkpt>
      <trkpt lat="46.49186" lon="5.34327">
        <ele>233</ele>
        <time>2022-02-12T11:43:08Z</time>
      </trkpt>
      <trkpt lat="46.49196" lon="5.34277">
        <ele>233.4</ele>
        <time>2022-02-12T11:43:13Z</time>
      </trkpt>
      <trkpt lat="46.49199" lon="5.34256">
        <ele>233.4</ele>
        <time>2022-02-12T11:43:15Z</time>
      </trkpt>
      <trkpt lat="46.49211" lon="5.34192">
        <ele>233.2</ele>
        <time>2022-02-12T11:43:21Z</time>
      </trkpt>
      <trkpt lat="46.49227" lon="5.34115">
        <ele>232.8</ele>
        <time>2022-02-12T11:43:29Z</time>
      </trkpt>
      <trkpt lat="46.49228" lon="5.34106">
        <ele>232.8</ele>
        <time>2022-02-12T11:43:30Z</time>
      </trkpt>
      <trkpt lat="46.49236" lon="5.34071">
        <ele>233.4</ele>
        <time>2022-02-12T11:43:35Z</time>
      </trkpt>
      <trkpt lat="46.49237" lon="5.34064">
        <ele>233.6</ele>
        <time>2022-02-12T11:43:36Z</time>
      </trkpt>
      <trkpt lat="46.49245" lon="5.3403">
        <ele>234.6</ele>
        <time>2022-02-12T11:43:41Z</time>
      </trkpt>
      <trkpt lat="46.49246" lon="5.34022">
        <ele>234.8</ele>
        <time>2022-02-12T11:43:42Z</time>
      </trkpt>
      <trkpt lat="46.49257" lon="5.33964">
        <ele>235.8</ele>
        <time>2022-02-12T11:43:49Z</time>
      </trkpt>
      <trkpt lat="46.49258" lon="5.33956">
        <ele>236</ele>
        <time>2022-02-12T11:43:50Z</time>
      </trkpt>
      <trkpt lat="46.49267" lon="5.33913">
        <ele>236</ele>
        <time>2022-02-12T11:43:55Z</time>
      </trkpt>
      <trkpt lat="46.49276" lon="5.33869">
        <ele>236</ele>
        <time>2022-02-12T11:44:00Z</time>
      </trkpt>
      <trkpt lat="46.49291" lon="5.33791">
        <ele>236</ele>
        <time>2022-02-12T11:44:09Z</time>
      </trkpt>
      <trkpt lat="46.49302" lon="5.33714">
        <ele>235.8</ele>
        <time>2022-02-12T11:44:17Z</time>
      </trkpt>
      <trkpt lat="46.49304" lon="5.33643">
        <ele>235.4</ele>
        <time>2022-02-12T11:44:24Z</time>
      </trkpt>
      <trkpt lat="46.49311" lon="5.33594">
        <ele>234.8</ele>
        <time>2022-02-12T11:44:29Z</time>
      </trkpt>
      <trkpt lat="46.49313" lon="5.33584">
        <ele>234.8</ele>
        <time>2022-02-12T11:44:30Z</time>
      </trkpt>
      <trkpt lat="46.49317" lon="5.33555">
        <ele>234.6</ele>
        <time>2022-02-12T11:44:33Z</time>
      </trkpt>
      <trkpt lat="46.49317" lon="5.33536">
        <ele>234.4</ele>
        <time>2022-02-12T11:44:35Z</time>
      </trkpt>
      <trkpt lat="46.49309" lon="5.33469">
        <ele>234</ele>
        <time>2022-02-12T11:44:42Z</time>
      </trkpt>
      <trkpt lat="46.49295" lon="5.33384">
        <ele>234</ele>
        <time>2022-02-12T11:44:51Z</time>
      </trkpt>
      <trkpt lat="46.49291" lon="5.33364">
        <ele>233.8</ele>
        <time>2022-02-12T11:44:53Z</time>
      </trkpt>
      <trkpt lat="46.49277" lon="5.33293">
        <ele>233</ele>
        <time>2022-02-12T11:45:00Z</time>
      </trkpt>
      <trkpt lat="46.4926" lon="5.33225">
        <ele>231.8</ele>
        <time>2022-02-12T11:45:07Z</time>
      </trkpt>
      <trkpt lat="46.49257" lon="5.33216">
        <ele>231.8</ele>
        <time>2022-02-12T11:45:08Z</time>
      </trkpt>
      <trkpt lat="46.49247" lon="5.332">
        <ele>231.6</ele>
        <time>2022-02-12T11:45:10Z</time>
      </trkpt>
      <trkpt lat="46.49242" lon="5.33194">
        <ele>231.6</ele>
        <time>2022-02-12T11:45:11Z</time>
      </trkpt>
      <trkpt lat="46.49236" lon="5.33188">
        <ele>231.4</ele>
        <time>2022-02-12T11:45:12Z</time>
      </trkpt>
      <trkpt lat="46.49209" lon="5.33169">
        <ele>230.8</ele>
        <time>2022-02-12T11:45:16Z</time>
      </trkpt>
      <trkpt lat="46.49196" lon="5.33158">
        <ele>230.4</ele>
        <time>2022-02-12T11:45:18Z</time>
      </trkpt>
      <trkpt lat="46.49171" lon="5.33134">
        <ele>229.8</ele>
        <time>2022-02-12T11:45:22Z</time>
      </trkpt>
      <trkpt lat="46.49166" lon="5.33126">
        <ele>229.6</ele>
        <time>2022-02-12T11:45:23Z</time>
      </trkpt>
      <trkpt lat="46.49156" lon="5.3311">
        <ele>229.4</ele>
        <time>2022-02-12T11:45:25Z</time>
      </trkpt>
      <trkpt lat="46.49152" lon="5.33101">
        <ele>229.4</ele>
        <time>2022-02-12T11:45:26Z</time>
      </trkpt>
      <trkpt lat="46.49139" lon="5.33056">
        <ele>229.2</ele>
        <time>2022-02-12T11:45:31Z</time>
      </trkpt>
      <trkpt lat="46.49129" lon="5.32999">
        <ele>229.2</ele>
        <time>2022-02-12T11:45:37Z</time>
      </trkpt>
      <trkpt lat="46.49124" lon="5.32956">
        <ele>229</ele>
        <time>2022-02-12T11:45:41Z</time>
      </trkpt>
      <trkpt lat="46.49123" lon="5.32913">
        <ele>228.4</ele>
        <time>2022-02-12T11:45:45Z</time>
      </trkpt>
      <trkpt lat="46.49124" lon="5.32892">
        <ele>228</ele>
        <time>2022-02-12T11:45:47Z</time>
      </trkpt>
      <trkpt lat="46.49134" lon="5.32854">
        <ele>227.6</ele>
        <time>2022-02-12T11:45:51Z</time>
      </trkpt>
      <trkpt lat="46.4914" lon="5.32826">
        <ele>227.6</ele>
        <time>2022-02-12T11:45:54Z</time>
      </trkpt>
      <trkpt lat="46.49141" lon="5.32807">
        <ele>227.4</ele>
        <time>2022-02-12T11:45:56Z</time>
      </trkpt>
      <trkpt lat="46.49139" lon="5.32789">
        <ele>227.6</ele>
        <time>2022-02-12T11:45:58Z</time>
      </trkpt>
      <trkpt lat="46.49134" lon="5.32755">
        <ele>227.8</ele>
        <time>2022-02-12T11:46:02Z</time>
      </trkpt>
      <trkpt lat="46.49124" lon="5.3272">
        <ele>228.4</ele>
        <time>2022-02-12T11:46:06Z</time>
      </trkpt>
      <trkpt lat="46.4912" lon="5.32712">
        <ele>228.4</ele>
        <time>2022-02-12T11:46:07Z</time>
      </trkpt>
      <trkpt lat="46.49115" lon="5.32705">
        <ele>228.4</ele>
        <time>2022-02-12T11:46:08Z</time>
      </trkpt>
      <trkpt lat="46.49104" lon="5.32696">
        <ele>228.2</ele>
        <time>2022-02-12T11:46:10Z</time>
      </trkpt>
      <trkpt lat="46.49091" lon="5.32694">
        <ele>228</ele>
        <time>2022-02-12T11:46:12Z</time>
      </trkpt>
      <trkpt lat="46.49084" lon="5.32695">
        <ele>227.8</ele>
        <time>2022-02-12T11:46:13Z</time>
      </trkpt>
      <trkpt lat="46.49078" lon="5.32696">
        <ele>227.4</ele>
        <time>2022-02-12T11:46:14Z</time>
      </trkpt>
      <trkpt lat="46.49038" lon="5.32704">
        <ele>226.2</ele>
        <time>2022-02-12T11:46:19Z</time>
      </trkpt>
      <trkpt lat="46.4903" lon="5.32706">
        <ele>226</ele>
        <time>2022-02-12T11:46:20Z</time>
      </trkpt>
      <trkpt lat="46.49011" lon="5.32708">
        <ele>225.2</ele>
        <time>2022-02-12T11:46:22Z</time>
      </trkpt>
      <trkpt lat="46.48985" lon="5.32709">
        <ele>224</ele>
        <time>2022-02-12T11:46:25Z</time>
      </trkpt>
      <trkpt lat="46.48974" lon="5.32708">
        <ele>223.6</ele>
        <time>2022-02-12T11:46:26Z</time>
      </trkpt>
      <trkpt lat="46.48965" lon="5.32705">
        <ele>222.8</ele>
        <time>2022-02-12T11:46:27Z</time>
      </trkpt>
      <trkpt lat="46.48955" lon="5.327">
        <ele>222</ele>
        <time>2022-02-12T11:46:28Z</time>
      </trkpt>
      <trkpt lat="46.48947" lon="5.32694">
        <ele>221.6</ele>
        <time>2022-02-12T11:46:29Z</time>
      </trkpt>
      <trkpt lat="46.48932" lon="5.32677">
        <ele>220.2</ele>
        <time>2022-02-12T11:46:31Z</time>
      </trkpt>
      <trkpt lat="46.48913" lon="5.32643">
        <ele>219.4</ele>
        <time>2022-02-12T11:46:34Z</time>
      </trkpt>
      <trkpt lat="46.48911" lon="5.32632">
        <ele>218.6</ele>
        <time>2022-02-12T11:46:35Z</time>
      </trkpt>
      <trkpt lat="46.48913" lon="5.3262">
        <ele>218</ele>
        <time>2022-02-12T11:46:36Z</time>
      </trkpt>
      <trkpt lat="46.48919" lon="5.32606">
        <ele>217.2</ele>
        <time>2022-02-12T11:46:37Z</time>
      </trkpt>
      <trkpt lat="46.48926" lon="5.32595">
        <ele>216.8</ele>
        <time>2022-02-12T11:46:38Z</time>
      </trkpt>
      <trkpt lat="46.48933" lon="5.32585">
        <ele>215.8</ele>
        <time>2022-02-12T11:46:39Z</time>
      </trkpt>
      <trkpt lat="46.48941" lon="5.32574">
        <ele>215</ele>
        <time>2022-02-12T11:46:40Z</time>
      </trkpt>
      <trkpt lat="46.48946" lon="5.32564">
        <ele>214.8</ele>
        <time>2022-02-12T11:46:41Z</time>
      </trkpt>
      <trkpt lat="46.4895" lon="5.32552">
        <ele>214</ele>
        <time>2022-02-12T11:46:42Z</time>
      </trkpt>
      <trkpt lat="46.48953" lon="5.32535">
        <ele>213.6</ele>
        <time>2022-02-12T11:46:43Z</time>
      </trkpt>
      <trkpt lat="46.48953" lon="5.32521">
        <ele>213.2</ele>
        <time>2022-02-12T11:46:44Z</time>
      </trkpt>
      <trkpt lat="46.48946" lon="5.32494">
        <ele>212.2</ele>
        <time>2022-02-12T11:46:46Z</time>
      </trkpt>
      <trkpt lat="46.48943" lon="5.32482">
        <ele>211.8</ele>
        <time>2022-02-12T11:46:47Z</time>
      </trkpt>
      <trkpt lat="46.48937" lon="5.32459">
        <ele>211.2</ele>
        <time>2022-02-12T11:46:49Z</time>
      </trkpt>
      <trkpt lat="46.48924" lon="5.32414">
        <ele>210.8</ele>
        <time>2022-02-12T11:46:53Z</time>
      </trkpt>
      <trkpt lat="46.48909" lon="5.3236">
        <ele>210.6</ele>
        <time>2022-02-12T11:46:58Z</time>
      </trkpt>
      <trkpt lat="46.48899" lon="5.32335">
        <ele>210.4</ele>
        <time>2022-02-12T11:47:01Z</time>
      </trkpt>
      <trkpt lat="46.4889" lon="5.32321">
        <ele>210.6</ele>
        <time>2022-02-12T11:47:03Z</time>
      </trkpt>
      <trkpt lat="46.48872" lon="5.32295">
        <ele>211.2</ele>
        <time>2022-02-12T11:47:08Z</time>
      </trkpt>
      <trkpt lat="46.48857" lon="5.32274">
        <ele>212.4</ele>
        <time>2022-02-12T11:47:13Z</time>
      </trkpt>
      <trkpt lat="46.48854" lon="5.3227">
        <ele>213</ele>
        <time>2022-02-12T11:47:14Z</time>
      </trkpt>
      <trkpt lat="46.48849" lon="5.32262">
        <ele>213.6</ele>
        <time>2022-02-12T11:47:16Z</time>
      </trkpt>
      <trkpt lat="46.48841" lon="5.32248">
        <ele>214.6</ele>
        <time>2022-02-12T11:47:19Z</time>
      </trkpt>
      <trkpt lat="46.48834" lon="5.32234">
        <ele>215.6</ele>
        <time>2022-02-12T11:47:22Z</time>
      </trkpt>
      <trkpt lat="46.48831" lon="5.32229">
        <ele>216.2</ele>
        <time>2022-02-12T11:47:23Z</time>
      </trkpt>
      <trkpt lat="46.48827" lon="5.32208">
        <ele>216.6</ele>
        <time>2022-02-12T11:47:26Z</time>
      </trkpt>
      <trkpt lat="46.48825" lon="5.322">
        <ele>216.8</ele>
        <time>2022-02-12T11:47:27Z</time>
      </trkpt>
      <trkpt lat="46.48821" lon="5.32158">
        <ele>217</ele>
        <time>2022-02-12T11:47:32Z</time>
      </trkpt>
      <trkpt lat="46.48823" lon="5.32117">
        <ele>216.2</ele>
        <time>2022-02-12T11:47:36Z</time>
      </trkpt>
      <trkpt lat="46.48829" lon="5.32087">
        <ele>215.8</ele>
        <time>2022-02-12T11:47:39Z</time>
      </trkpt>
      <trkpt lat="46.48838" lon="5.32038">
        <ele>215.2</ele>
        <time>2022-02-12T11:47:44Z</time>
      </trkpt>
      <trkpt lat="46.48844" lon="5.31999">
        <ele>214.8</ele>
        <time>2022-02-12T11:47:48Z</time>
      </trkpt>
      <trkpt lat="46.48845" lon="5.31979">
        <ele>214.6</ele>
        <time>2022-02-12T11:47:50Z</time>
      </trkpt>
      <trkpt lat="46.48841" lon="5.31915">
        <ele>213.8</ele>
        <time>2022-02-12T11:47:56Z</time>
      </trkpt>
      <trkpt lat="46.4884" lon="5.31905">
        <ele>213.6</ele>
        <time>2022-02-12T11:47:57Z</time>
      </trkpt>
      <trkpt lat="46.48837" lon="5.31884">
        <ele>213.4</ele>
        <time>2022-02-12T11:47:59Z</time>
      </trkpt>
      <trkpt lat="46.48829" lon="5.31865">
        <ele>213</ele>
        <time>2022-02-12T11:48:01Z</time>
      </trkpt>
      <trkpt lat="46.48818" lon="5.31852">
        <ele>212.6</ele>
        <time>2022-02-12T11:48:03Z</time>
      </trkpt>
      <trkpt lat="46.48811" lon="5.31848">
        <ele>212.4</ele>
        <time>2022-02-12T11:48:04Z</time>
      </trkpt>
      <trkpt lat="46.48798" lon="5.31842">
        <ele>212.2</ele>
        <time>2022-02-12T11:48:06Z</time>
      </trkpt>
      <trkpt lat="46.48786" lon="5.31832">
        <ele>212</ele>
        <time>2022-02-12T11:48:08Z</time>
      </trkpt>
      <trkpt lat="46.4878" lon="5.31814">
        <ele>212</ele>
        <time>2022-02-12T11:48:10Z</time>
      </trkpt>
      <trkpt lat="46.48779" lon="5.31805">
        <ele>212</ele>
        <time>2022-02-12T11:48:11Z</time>
      </trkpt>
      <trkpt lat="46.48775" lon="5.3174">
        <ele>211.8</ele>
        <time>2022-02-12T11:48:18Z</time>
      </trkpt>
      <trkpt lat="46.48774" lon="5.31732">
        <ele>211.8</ele>
        <time>2022-02-12T11:48:19Z</time>
      </trkpt>
      <trkpt lat="46.48769" lon="5.31716">
        <ele>211.8</ele>
        <time>2022-02-12T11:48:21Z</time>
      </trkpt>
      <trkpt lat="46.48766" lon="5.31709">
        <ele>212</ele>
        <time>2022-02-12T11:48:22Z</time>
      </trkpt>
      <trkpt lat="46.48762" lon="5.31703">
        <ele>212</ele>
        <time>2022-02-12T11:48:23Z</time>
      </trkpt>
      <trkpt lat="46.48751" lon="5.31686">
        <ele>212.4</ele>
        <time>2022-02-12T11:48:26Z</time>
      </trkpt>
      <trkpt lat="46.48719" lon="5.31648">
        <ele>212.8</ele>
        <time>2022-02-12T11:48:33Z</time>
      </trkpt>
      <trkpt lat="46.48683" lon="5.31601">
        <ele>212.8</ele>
        <time>2022-02-12T11:48:41Z</time>
      </trkpt>
      <trkpt lat="46.48667" lon="5.3158">
        <ele>212.8</ele>
        <time>2022-02-12T11:48:44Z</time>
      </trkpt>
      <trkpt lat="46.48658" lon="5.31568">
        <ele>212.8</ele>
        <time>2022-02-12T11:48:46Z</time>
      </trkpt>
      <trkpt lat="46.48639" lon="5.31545">
        <ele>212.8</ele>
        <time>2022-02-12T11:48:50Z</time>
      </trkpt>
      <trkpt lat="46.4863" lon="5.31534">
        <ele>212.8</ele>
        <time>2022-02-12T11:48:52Z</time>
      </trkpt>
      <trkpt lat="46.48622" lon="5.31525">
        <ele>212.8</ele>
        <time>2022-02-12T11:48:54Z</time>
      </trkpt>
      <trkpt lat="46.48615" lon="5.31512">
        <ele>213</ele>
        <time>2022-02-12T11:48:56Z</time>
      </trkpt>
      <trkpt lat="46.48606" lon="5.31487">
        <ele>213</ele>
        <time>2022-02-12T11:48:59Z</time>
      </trkpt>
      <trkpt lat="46.48605" lon="5.31478">
        <ele>213</ele>
        <time>2022-02-12T11:49:00Z</time>
      </trkpt>
      <trkpt lat="46.48604" lon="5.31433">
        <ele>212.6</ele>
        <time>2022-02-12T11:49:05Z</time>
      </trkpt>
      <trkpt lat="46.48603" lon="5.31427">
        <ele>212.6</ele>
        <time>2022-02-12T11:49:06Z</time>
      </trkpt>
      <trkpt lat="46.48601" lon="5.31418">
        <ele>212.6</ele>
        <time>2022-02-12T11:49:07Z</time>
      </trkpt>
      <trkpt lat="46.48592" lon="5.31402">
        <ele>212.8</ele>
        <time>2022-02-12T11:49:10Z</time>
      </trkpt>
      <trkpt lat="46.48582" lon="5.31392">
        <ele>213.2</ele>
        <time>2022-02-12T11:49:13Z</time>
      </trkpt>
      <trkpt lat="46.48572" lon="5.3138">
        <ele>213.6</ele>
        <time>2022-02-12T11:49:16Z</time>
      </trkpt>
      <trkpt lat="46.48569" lon="5.31376">
        <ele>213.8</ele>
        <time>2022-02-12T11:49:17Z</time>
      </trkpt>
      <trkpt lat="46.48559" lon="5.31357">
        <ele>214.8</ele>
        <time>2022-02-12T11:49:21Z</time>
      </trkpt>
      <trkpt lat="46.48558" lon="5.31352">
        <ele>215</ele>
        <time>2022-02-12T11:49:22Z</time>
      </trkpt>
      <trkpt lat="46.48556" lon="5.31332">
        <ele>216</ele>
        <time>2022-02-12T11:49:26Z</time>
      </trkpt>
      <trkpt lat="46.48555" lon="5.31327">
        <ele>216.2</ele>
        <time>2022-02-12T11:49:27Z</time>
      </trkpt>
      <trkpt lat="46.48554" lon="5.3131">
        <ele>217.2</ele>
        <time>2022-02-12T11:49:30Z</time>
      </trkpt>
      <trkpt lat="46.48552" lon="5.31292">
        <ele>217.6</ele>
        <time>2022-02-12T11:49:33Z</time>
      </trkpt>
      <trkpt lat="46.48551" lon="5.31265">
        <ele>218.2</ele>
        <time>2022-02-12T11:49:37Z</time>
      </trkpt>
      <trkpt lat="46.48551" lon="5.31257">
        <ele>218.2</ele>
        <time>2022-02-12T11:49:38Z</time>
      </trkpt>
      <trkpt lat="46.48551" lon="5.31252">
        <ele>218.6</ele>
        <time>2022-02-12T11:49:39Z</time>
      </trkpt>
      <trkpt lat="46.48552" lon="5.31244">
        <ele>218.6</ele>
        <time>2022-02-12T11:49:40Z</time>
      </trkpt>
      <trkpt lat="46.48555" lon="5.31232">
        <ele>219</ele>
        <time>2022-02-12T11:49:42Z</time>
      </trkpt>
      <trkpt lat="46.4856" lon="5.31219">
        <ele>219.4</ele>
        <time>2022-02-12T11:49:44Z</time>
      </trkpt>
      <trkpt lat="46.4858" lon="5.31179">
        <ele>220.6</ele>
        <time>2022-02-12T11:49:52Z</time>
      </trkpt>
      <trkpt lat="46.48586" lon="5.31167">
        <ele>220.8</ele>
        <time>2022-02-12T11:49:54Z</time>
      </trkpt>
      <trkpt lat="46.48603" lon="5.31132">
        <ele>221.6</ele>
        <time>2022-02-12T11:50:01Z</time>
      </trkpt>
      <trkpt lat="46.48619" lon="5.31101">
        <ele>222.6</ele>
        <time>2022-02-12T11:50:07Z</time>
      </trkpt>
      <trkpt lat="46.48621" lon="5.31096">
        <ele>222.8</ele>
        <time>2022-02-12T11:50:08Z</time>
      </trkpt>
      <trkpt lat="46.48641" lon="5.31055">
        <ele>223.8</ele>
        <time>2022-02-12T11:50:16Z</time>
      </trkpt>
      <trkpt lat="46.48659" lon="5.31019">
        <ele>225</ele>
        <time>2022-02-12T11:50:23Z</time>
      </trkpt>
      <trkpt lat="46.48667" lon="5.31003">
        <ele>225.6</ele>
        <time>2022-02-12T11:50:26Z</time>
      </trkpt>
      <trkpt lat="46.48677" lon="5.30981">
        <ele>226</ele>
        <time>2022-02-12T11:50:30Z</time>
      </trkpt>
      <trkpt lat="46.48689" lon="5.30957">
        <ele>226.6</ele>
        <time>2022-02-12T11:50:34Z</time>
      </trkpt>
      <trkpt lat="46.48708" lon="5.30923">
        <ele>226.4</ele>
        <time>2022-02-12T11:50:39Z</time>
      </trkpt>
      <trkpt lat="46.48718" lon="5.30908">
        <ele>226.2</ele>
        <time>2022-02-12T11:50:41Z</time>
      </trkpt>
      <trkpt lat="46.48721" lon="5.30898">
        <ele>226</ele>
        <time>2022-02-12T11:50:42Z</time>
      </trkpt>
      <trkpt lat="46.48722" lon="5.30887">
        <ele>225.8</ele>
        <time>2022-02-12T11:50:43Z</time>
      </trkpt>
      <trkpt lat="46.4872" lon="5.30876">
        <ele>225.4</ele>
        <time>2022-02-12T11:50:44Z</time>
      </trkpt>
      <trkpt lat="46.48718" lon="5.30865">
        <ele>225.2</ele>
        <time>2022-02-12T11:50:45Z</time>
      </trkpt>
      <trkpt lat="46.48714" lon="5.30856">
        <ele>224.8</ele>
        <time>2022-02-12T11:50:46Z</time>
      </trkpt>
      <trkpt lat="46.48708" lon="5.30848">
        <ele>224</ele>
        <time>2022-02-12T11:50:47Z</time>
      </trkpt>
      <trkpt lat="46.48703" lon="5.30843">
        <ele>223.8</ele>
        <time>2022-02-12T11:50:48Z</time>
      </trkpt>
      <trkpt lat="46.48696" lon="5.30838">
        <ele>223.2</ele>
        <time>2022-02-12T11:50:49Z</time>
      </trkpt>
      <trkpt lat="46.48682" lon="5.3083">
        <ele>223</ele>
        <time>2022-02-12T11:50:51Z</time>
      </trkpt>
      <trkpt lat="46.4866" lon="5.30817">
        <ele>222.6</ele>
        <time>2022-02-12T11:50:54Z</time>
      </trkpt>
      <trkpt lat="46.48623" lon="5.30794">
        <ele>221.6</ele>
        <time>2022-02-12T11:50:59Z</time>
      </trkpt>
      <trkpt lat="46.48585" lon="5.30764">
        <ele>220.8</ele>
        <time>2022-02-12T11:51:05Z</time>
      </trkpt>
      <trkpt lat="46.48566" lon="5.30745">
        <ele>221.2</ele>
        <time>2022-02-12T11:51:09Z</time>
      </trkpt>
      <trkpt lat="46.48562" lon="5.30739">
        <ele>221.2</ele>
        <time>2022-02-12T11:51:10Z</time>
      </trkpt>
      <trkpt lat="46.48548" lon="5.30709">
        <ele>222.2</ele>
        <time>2022-02-12T11:51:15Z</time>
      </trkpt>
      <trkpt lat="46.48543" lon="5.30689">
        <ele>222.8</ele>
        <time>2022-02-12T11:51:18Z</time>
      </trkpt>
      <trkpt lat="46.48543" lon="5.30683">
        <ele>222.8</ele>
        <time>2022-02-12T11:51:19Z</time>
      </trkpt>
      <trkpt lat="46.48542" lon="5.30676">
        <ele>223</ele>
        <time>2022-02-12T11:51:20Z</time>
      </trkpt>
      <trkpt lat="46.48544" lon="5.30637">
        <ele>223.6</ele>
        <time>2022-02-12T11:51:26Z</time>
      </trkpt>
      <trkpt lat="46.48544" lon="5.30631">
        <ele>224</ele>
        <time>2022-02-12T11:51:27Z</time>
      </trkpt>
      <trkpt lat="46.48548" lon="5.30599">
        <ele>225.4</ele>
        <time>2022-02-12T11:51:32Z</time>
      </trkpt>
      <trkpt lat="46.48549" lon="5.30587">
        <ele>225.6</ele>
        <time>2022-02-12T11:51:34Z</time>
      </trkpt>
      <trkpt lat="46.4855" lon="5.30569">
        <ele>226.4</ele>
        <time>2022-02-12T11:51:37Z</time>
      </trkpt>
      <trkpt lat="46.48552" lon="5.30558">
        <ele>226.6</ele>
        <time>2022-02-12T11:51:39Z</time>
      </trkpt>
      <trkpt lat="46.48556" lon="5.30525">
        <ele>227.4</ele>
        <time>2022-02-12T11:51:44Z</time>
      </trkpt>
      <trkpt lat="46.48557" lon="5.30513">
        <ele>227.8</ele>
        <time>2022-02-12T11:51:46Z</time>
      </trkpt>
      <trkpt lat="46.48556" lon="5.30508">
        <ele>228</ele>
        <time>2022-02-12T11:51:47Z</time>
      </trkpt>
      <trkpt lat="46.48554" lon="5.30504">
        <ele>228.2</ele>
        <time>2022-02-12T11:51:48Z</time>
      </trkpt>
      <trkpt lat="46.48548" lon="5.30498">
        <ele>228.4</ele>
        <time>2022-02-12T11:51:50Z</time>
      </trkpt>
      <trkpt lat="46.48539" lon="5.30499">
        <ele>228.4</ele>
        <time>2022-02-12T11:51:52Z</time>
      </trkpt>
      <trkpt lat="46.48536" lon="5.30501">
        <ele>228.4</ele>
        <time>2022-02-12T11:51:53Z</time>
      </trkpt>
      <trkpt lat="46.48532" lon="5.30504">
        <ele>228.4</ele>
        <time>2022-02-12T11:51:54Z</time>
      </trkpt>
      <trkpt lat="46.48508" lon="5.3052">
        <ele>228.8</ele>
        <time>2022-02-12T11:51:59Z</time>
      </trkpt>
      <trkpt lat="46.48469" lon="5.30554">
        <ele>229</ele>
        <time>2022-02-12T11:52:07Z</time>
      </trkpt>
      <trkpt lat="46.4844" lon="5.30582">
        <ele>228.8</ele>
        <time>2022-02-12T11:52:13Z</time>
      </trkpt>
      <trkpt lat="46.48429" lon="5.30594">
        <ele>228.8</ele>
        <time>2022-02-12T11:52:15Z</time>
      </trkpt>
      <trkpt lat="46.48397" lon="5.30623">
        <ele>228.4</ele>
        <time>2022-02-12T11:52:21Z</time>
      </trkpt>
      <trkpt lat="46.48348" lon="5.3067">
        <ele>227.8</ele>
        <time>2022-02-12T11:52:30Z</time>
      </trkpt>
      <trkpt lat="46.48342" lon="5.30675">
        <ele>227.8</ele>
        <time>2022-02-12T11:52:31Z</time>
      </trkpt>
      <trkpt lat="46.48318" lon="5.30691">
        <ele>227.4</ele>
        <time>2022-02-12T11:52:35Z</time>
      </trkpt>
      <trkpt lat="46.48312" lon="5.30693">
        <ele>227.2</ele>
        <time>2022-02-12T11:52:36Z</time>
      </trkpt>
      <trkpt lat="46.48305" lon="5.30694">
        <ele>227.2</ele>
        <time>2022-02-12T11:52:37Z</time>
      </trkpt>
      <trkpt lat="46.48298" lon="5.30695">
        <ele>227</ele>
        <time>2022-02-12T11:52:38Z</time>
      </trkpt>
      <trkpt lat="46.48278" lon="5.30694">
        <ele>226.8</ele>
        <time>2022-02-12T11:52:41Z</time>
      </trkpt>
      <trkpt lat="46.48237" lon="5.30683">
        <ele>227</ele>
        <time>2022-02-12T11:52:48Z</time>
      </trkpt>
      <trkpt lat="46.48216" lon="5.30679">
        <ele>227.4</ele>
        <time>2022-02-12T11:52:52Z</time>
      </trkpt>
      <trkpt lat="46.48206" lon="5.30681">
        <ele>227.6</ele>
        <time>2022-02-12T11:52:54Z</time>
      </trkpt>
      <trkpt lat="46.48176" lon="5.30695">
        <ele>228.4</ele>
        <time>2022-02-12T11:53:00Z</time>
      </trkpt>
      <trkpt lat="46.48143" lon="5.30713">
        <ele>229.6</ele>
        <time>2022-02-12T11:53:07Z</time>
      </trkpt>
      <trkpt lat="46.48133" lon="5.30719">
        <ele>229.8</ele>
        <time>2022-02-12T11:53:09Z</time>
      </trkpt>
      <trkpt lat="46.48112" lon="5.30731">
        <ele>230.6</ele>
        <time>2022-02-12T11:53:13Z</time>
      </trkpt>
      <trkpt lat="46.48093" lon="5.30742">
        <ele>231</ele>
        <time>2022-02-12T11:53:17Z</time>
      </trkpt>
      <trkpt lat="46.48064" lon="5.30759">
        <ele>231.8</ele>
        <time>2022-02-12T11:53:23Z</time>
      </trkpt>
      <trkpt lat="46.48047" lon="5.30768">
        <ele>232</ele>
        <time>2022-02-12T11:53:26Z</time>
      </trkpt>
      <trkpt lat="46.48" lon="5.30794">
        <ele>232</ele>
        <time>2022-02-12T11:53:34Z</time>
      </trkpt>
      <trkpt lat="46.47954" lon="5.30815">
        <ele>230.8</ele>
        <time>2022-02-12T11:53:41Z</time>
      </trkpt>
      <trkpt lat="46.47922" lon="5.30814">
        <ele>230.2</ele>
        <time>2022-02-12T11:53:46Z</time>
      </trkpt>
      <trkpt lat="46.479" lon="5.30806">
        <ele>230.4</ele>
        <time>2022-02-12T11:53:51Z</time>
      </trkpt>
      <trkpt lat="46.4788" lon="5.30798">
        <ele>231.6</ele>
        <time>2022-02-12T11:53:56Z</time>
      </trkpt>
      <trkpt lat="46.47876" lon="5.30797">
        <ele>232</ele>
        <time>2022-02-12T11:53:57Z</time>
      </trkpt>
      <trkpt lat="46.47873" lon="5.30796">
        <ele>232</ele>
        <time>2022-02-12T11:53:58Z</time>
      </trkpt>
      <trkpt lat="46.47861" lon="5.30796">
        <ele>233.4</ele>
        <time>2022-02-12T11:54:01Z</time>
      </trkpt>
      <trkpt lat="46.47845" lon="5.30798">
        <ele>234.2</ele>
        <time>2022-02-12T11:54:05Z</time>
      </trkpt>
      <trkpt lat="46.47842" lon="5.308">
        <ele>234.4</ele>
        <time>2022-02-12T11:54:06Z</time>
      </trkpt>
      <trkpt lat="46.4783" lon="5.30807">
        <ele>236</ele>
        <time>2022-02-12T11:54:09Z</time>
      </trkpt>
      <trkpt lat="46.47819" lon="5.30816">
        <ele>236.6</ele>
        <time>2022-02-12T11:54:12Z</time>
      </trkpt>
      <trkpt lat="46.47813" lon="5.30824">
        <ele>236.8</ele>
        <time>2022-02-12T11:54:14Z</time>
      </trkpt>
      <trkpt lat="46.4781" lon="5.30828">
        <ele>237.2</ele>
        <time>2022-02-12T11:54:15Z</time>
      </trkpt>
      <trkpt lat="46.47805" lon="5.30838">
        <ele>237.6</ele>
        <time>2022-02-12T11:54:17Z</time>
      </trkpt>
      <trkpt lat="46.47796" lon="5.30851">
        <ele>238.2</ele>
        <time>2022-02-12T11:54:20Z</time>
      </trkpt>
      <trkpt lat="46.47779" lon="5.30876">
        <ele>238.6</ele>
        <time>2022-02-12T11:54:25Z</time>
      </trkpt>
      <trkpt lat="46.47766" lon="5.30891">
        <ele>238.6</ele>
        <time>2022-02-12T11:54:28Z</time>
      </trkpt>
      <trkpt lat="46.47755" lon="5.30898">
        <ele>238.6</ele>
        <time>2022-02-12T11:54:30Z</time>
      </trkpt>
      <trkpt lat="46.47749" lon="5.30901">
        <ele>238.6</ele>
        <time>2022-02-12T11:54:31Z</time>
      </trkpt>
      <trkpt lat="46.47734" lon="5.30905">
        <ele>238.4</ele>
        <time>2022-02-12T11:54:33Z</time>
      </trkpt>
      <trkpt lat="46.47728" lon="5.30905">
        <ele>238.4</ele>
        <time>2022-02-12T11:54:34Z</time>
      </trkpt>
      <trkpt lat="46.4772" lon="5.30904">
        <ele>238.2</ele>
        <time>2022-02-12T11:54:35Z</time>
      </trkpt>
      <trkpt lat="46.47696" lon="5.30896">
        <ele>237.2</ele>
        <time>2022-02-12T11:54:38Z</time>
      </trkpt>
      <trkpt lat="46.47673" lon="5.30889">
        <ele>236</ele>
        <time>2022-02-12T11:54:41Z</time>
      </trkpt>
      <trkpt lat="46.47664" lon="5.30887">
        <ele>235.8</ele>
        <time>2022-02-12T11:54:42Z</time>
      </trkpt>
      <trkpt lat="46.47658" lon="5.30887">
        <ele>235.4</ele>
        <time>2022-02-12T11:54:43Z</time>
      </trkpt>
      <trkpt lat="46.47642" lon="5.3089">
        <ele>234.8</ele>
        <time>2022-02-12T11:54:45Z</time>
      </trkpt>
      <trkpt lat="46.47626" lon="5.30896">
        <ele>234.2</ele>
        <time>2022-02-12T11:54:47Z</time>
      </trkpt>
      <trkpt lat="46.4761" lon="5.30903">
        <ele>233.8</ele>
        <time>2022-02-12T11:54:49Z</time>
      </trkpt>
      <trkpt lat="46.47588" lon="5.30913">
        <ele>232.8</ele>
        <time>2022-02-12T11:54:52Z</time>
      </trkpt>
      <trkpt lat="46.47541" lon="5.30937">
        <ele>231.6</ele>
        <time>2022-02-12T11:54:58Z</time>
      </trkpt>
      <trkpt lat="46.47534" lon="5.30942">
        <ele>231.6</ele>
        <time>2022-02-12T11:54:59Z</time>
      </trkpt>
      <trkpt lat="46.47504" lon="5.30961">
        <ele>230.6</ele>
        <time>2022-02-12T11:55:03Z</time>
      </trkpt>
      <trkpt lat="46.47497" lon="5.30966">
        <ele>230.4</ele>
        <time>2022-02-12T11:55:04Z</time>
      </trkpt>
      <trkpt lat="46.47469" lon="5.30983">
        <ele>229.4</ele>
        <time>2022-02-12T11:55:08Z</time>
      </trkpt>
      <trkpt lat="46.47463" lon="5.30988">
        <ele>229.4</ele>
        <time>2022-02-12T11:55:09Z</time>
      </trkpt>
      <trkpt lat="46.47421" lon="5.31016">
        <ele>229.4</ele>
        <time>2022-02-12T11:55:16Z</time>
      </trkpt>
      <trkpt lat="46.4739" lon="5.31038">
        <ele>230.8</ele>
        <time>2022-02-12T11:55:23Z</time>
      </trkpt>
      <trkpt lat="46.4736" lon="5.31057">
        <ele>232</ele>
        <time>2022-02-12T11:55:30Z</time>
      </trkpt>
      <trkpt lat="46.47352" lon="5.31063">
        <ele>232.4</ele>
        <time>2022-02-12T11:55:32Z</time>
      </trkpt>
      <trkpt lat="46.47338" lon="5.31076">
        <ele>232.8</ele>
        <time>2022-02-12T11:55:36Z</time>
      </trkpt>
      <trkpt lat="46.47334" lon="5.3108">
        <ele>233.2</ele>
        <time>2022-02-12T11:55:37Z</time>
      </trkpt>
      <trkpt lat="46.47326" lon="5.31087">
        <ele>233.6</ele>
        <time>2022-02-12T11:55:39Z</time>
      </trkpt>
      <trkpt lat="46.47317" lon="5.31095">
        <ele>233.8</ele>
        <time>2022-02-12T11:55:41Z</time>
      </trkpt>
      <trkpt lat="46.47313" lon="5.31101">
        <ele>234.2</ele>
        <time>2022-02-12T11:55:42Z</time>
      </trkpt>
      <trkpt lat="46.47309" lon="5.31106">
        <ele>234.2</ele>
        <time>2022-02-12T11:55:43Z</time>
      </trkpt>
      <trkpt lat="46.47305" lon="5.31111">
        <ele>234.4</ele>
        <time>2022-02-12T11:55:44Z</time>
      </trkpt>
      <trkpt lat="46.47292" lon="5.31127">
        <ele>234.6</ele>
        <time>2022-02-12T11:55:47Z</time>
      </trkpt>
      <trkpt lat="46.47285" lon="5.31138">
        <ele>234.8</ele>
        <time>2022-02-12T11:55:49Z</time>
      </trkpt>
      <trkpt lat="46.47269" lon="5.3116">
        <ele>235.2</ele>
        <time>2022-02-12T11:55:53Z</time>
      </trkpt>
      <trkpt lat="46.47231" lon="5.31222">
        <ele>235.6</ele>
        <time>2022-02-12T11:56:03Z</time>
      </trkpt>
      <trkpt lat="46.47227" lon="5.31228">
        <ele>235.8</ele>
        <time>2022-02-12T11:56:04Z</time>
      </trkpt>
      <trkpt lat="46.47221" lon="5.31237">
        <ele>236</ele>
        <time>2022-02-12T11:56:06Z</time>
      </trkpt>
      <trkpt lat="46.47218" lon="5.31243">
        <ele>236</ele>
        <time>2022-02-12T11:56:07Z</time>
      </trkpt>
      <trkpt lat="46.47214" lon="5.31248">
        <ele>236.2</ele>
        <time>2022-02-12T11:56:08Z</time>
      </trkpt>
      <trkpt lat="46.472" lon="5.31272">
        <ele>236.4</ele>
        <time>2022-02-12T11:56:12Z</time>
      </trkpt>
      <trkpt lat="46.47197" lon="5.31278">
        <ele>236.4</ele>
        <time>2022-02-12T11:56:13Z</time>
      </trkpt>
      <trkpt lat="46.47171" lon="5.3132">
        <ele>237</ele>
        <time>2022-02-12T11:56:20Z</time>
      </trkpt>
      <trkpt lat="46.47164" lon="5.3133">
        <ele>237</ele>
        <time>2022-02-12T11:56:22Z</time>
      </trkpt>
      <trkpt lat="46.47152" lon="5.31348">
        <ele>237.2</ele>
        <time>2022-02-12T11:56:25Z</time>
      </trkpt>
      <trkpt lat="46.47148" lon="5.31352">
        <ele>237.2</ele>
        <time>2022-02-12T11:56:26Z</time>
      </trkpt>
      <trkpt lat="46.47144" lon="5.31356">
        <ele>237.4</ele>
        <time>2022-02-12T11:56:27Z</time>
      </trkpt>
      <trkpt lat="46.47128" lon="5.31374">
        <ele>237.6</ele>
        <time>2022-02-12T11:56:31Z</time>
      </trkpt>
      <trkpt lat="46.47108" lon="5.31402">
        <ele>237.6</ele>
        <time>2022-02-12T11:56:36Z</time>
      </trkpt>
      <trkpt lat="46.471" lon="5.31412">
        <ele>237.6</ele>
        <time>2022-02-12T11:56:38Z</time>
      </trkpt>
      <trkpt lat="46.47073" lon="5.31448">
        <ele>237.8</ele>
        <time>2022-02-12T11:56:44Z</time>
      </trkpt>
      <trkpt lat="46.47062" lon="5.31461">
        <ele>237.8</ele>
        <time>2022-02-12T11:56:46Z</time>
      </trkpt>
      <trkpt lat="46.47053" lon="5.3147">
        <ele>237.8</ele>
        <time>2022-02-12T11:56:48Z</time>
      </trkpt>
      <trkpt lat="46.47024" lon="5.31502">
        <ele>238</ele>
        <time>2022-02-12T11:56:54Z</time>
      </trkpt>
      <trkpt lat="46.46992" lon="5.31543">
        <ele>238.4</ele>
        <time>2022-02-12T11:57:02Z</time>
      </trkpt>
      <trkpt lat="46.46988" lon="5.31548">
        <ele>238.4</ele>
        <time>2022-02-12T11:57:03Z</time>
      </trkpt>
      <trkpt lat="46.46975" lon="5.31566">
        <ele>239</ele>
        <time>2022-02-12T11:57:08Z</time>
      </trkpt>
      <trkpt lat="46.46945" lon="5.31592">
        <ele>239.4</ele>
        <time>2022-02-12T11:57:14Z</time>
      </trkpt>
      <trkpt lat="46.46931" lon="5.31606">
        <ele>239.6</ele>
        <time>2022-02-12T11:57:17Z</time>
      </trkpt>
      <trkpt lat="46.46927" lon="5.31611">
        <ele>239.6</ele>
        <time>2022-02-12T11:57:18Z</time>
      </trkpt>
      <trkpt lat="46.46923" lon="5.31613">
        <ele>239.6</ele>
        <time>2022-02-12T11:57:19Z</time>
      </trkpt>
      <trkpt lat="46.46916" lon="5.31622">
        <ele>239.6</ele>
        <time>2022-02-12T11:57:21Z</time>
      </trkpt>
      <trkpt lat="46.46911" lon="5.31629">
        <ele>239.6</ele>
        <time>2022-02-12T11:57:22Z</time>
      </trkpt>
      <trkpt lat="46.46885" lon="5.31662">
        <ele>239.6</ele>
        <time>2022-02-12T11:57:27Z</time>
      </trkpt>
      <trkpt lat="46.46881" lon="5.31666">
        <ele>239.6</ele>
        <time>2022-02-12T11:57:28Z</time>
      </trkpt>
      <trkpt lat="46.46857" lon="5.31701">
        <ele>239.6</ele>
        <time>2022-02-12T11:57:33Z</time>
      </trkpt>
      <trkpt lat="46.46829" lon="5.31743">
        <ele>239.2</ele>
        <time>2022-02-12T11:57:38Z</time>
      </trkpt>
      <trkpt lat="46.46798" lon="5.31781">
        <ele>238.4</ele>
        <time>2022-02-12T11:57:44Z</time>
      </trkpt>
      <trkpt lat="46.46783" lon="5.31801">
        <ele>238.2</ele>
        <time>2022-02-12T11:57:47Z</time>
      </trkpt>
      <trkpt lat="46.46735" lon="5.31856">
        <ele>238</ele>
        <time>2022-02-12T11:57:56Z</time>
      </trkpt>
      <trkpt lat="46.46731" lon="5.3186">
        <ele>238</ele>
        <time>2022-02-12T11:57:57Z</time>
      </trkpt>
      <trkpt lat="46.46683" lon="5.31898">
        <ele>237.8</ele>
        <time>2022-02-12T11:58:05Z</time>
      </trkpt>
      <trkpt lat="46.46654" lon="5.31925">
        <ele>238</ele>
        <time>2022-02-12T11:58:11Z</time>
      </trkpt>
      <trkpt lat="46.46625" lon="5.31963">
        <ele>238.6</ele>
        <time>2022-02-12T11:58:18Z</time>
      </trkpt>
      <trkpt lat="46.4659" lon="5.32024">
        <ele>239.4</ele>
        <time>2022-02-12T11:58:27Z</time>
      </trkpt>
      <trkpt lat="46.46582" lon="5.32038">
        <ele>239.4</ele>
        <time>2022-02-12T11:58:29Z</time>
      </trkpt>
      <trkpt lat="46.46574" lon="5.32053">
        <ele>239.6</ele>
        <time>2022-02-12T11:58:31Z</time>
      </trkpt>
      <trkpt lat="46.46546" lon="5.32104">
        <ele>239.4</ele>
        <time>2022-02-12T11:58:38Z</time>
      </trkpt>
      <trkpt lat="46.46542" lon="5.3211">
        <ele>239.4</ele>
        <time>2022-02-12T11:58:39Z</time>
      </trkpt>
      <trkpt lat="46.46526" lon="5.32135">
        <ele>239.4</ele>
        <time>2022-02-12T11:58:43Z</time>
      </trkpt>
      <trkpt lat="46.46522" lon="5.32142">
        <ele>239.6</ele>
        <time>2022-02-12T11:58:44Z</time>
      </trkpt>
      <trkpt lat="46.46509" lon="5.32163">
        <ele>240</ele>
        <time>2022-02-12T11:58:47Z</time>
      </trkpt>
      <trkpt lat="46.46506" lon="5.32169">
        <ele>240</ele>
        <time>2022-02-12T11:58:48Z</time>
      </trkpt>
      <trkpt lat="46.46479" lon="5.32218">
        <ele>240.2</ele>
        <time>2022-02-12T11:58:55Z</time>
      </trkpt>
      <trkpt lat="46.46451" lon="5.32266">
        <ele>240.6</ele>
        <time>2022-02-12T11:59:02Z</time>
      </trkpt>
      <trkpt lat="46.46429" lon="5.32311">
        <ele>240.6</ele>
        <time>2022-02-12T11:59:08Z</time>
      </trkpt>
      <trkpt lat="46.46399" lon="5.3237">
        <ele>240.6</ele>
        <time>2022-02-12T11:59:16Z</time>
      </trkpt>
      <trkpt lat="46.46376" lon="5.32422">
        <ele>240.8</ele>
        <time>2022-02-12T11:59:23Z</time>
      </trkpt>
      <trkpt lat="46.46359" lon="5.32473">
        <ele>240.8</ele>
        <time>2022-02-12T11:59:29Z</time>
      </trkpt>
      <trkpt lat="46.4633" lon="5.32545">
        <ele>240.4</ele>
        <time>2022-02-12T11:59:38Z</time>
      </trkpt>
      <trkpt lat="46.46327" lon="5.32554">
        <ele>240.4</ele>
        <time>2022-02-12T11:59:39Z</time>
      </trkpt>
      <trkpt lat="46.46322" lon="5.32581">
        <ele>240.4</ele>
        <time>2022-02-12T11:59:42Z</time>
      </trkpt>
      <trkpt lat="46.46321" lon="5.32591">
        <ele>240.4</ele>
        <time>2022-02-12T11:59:43Z</time>
      </trkpt>
      <trkpt lat="46.46318" lon="5.32631">
        <ele>240.2</ele>
        <time>2022-02-12T11:59:47Z</time>
      </trkpt>
      <trkpt lat="46.46318" lon="5.32709">
        <ele>240</ele>
        <time>2022-02-12T11:59:55Z</time>
      </trkpt>
      <trkpt lat="46.46318" lon="5.32728">
        <ele>240</ele>
        <time>2022-02-12T11:59:57Z</time>
      </trkpt>
      <trkpt lat="46.46317" lon="5.32747">
        <ele>240</ele>
        <time>2022-02-12T11:59:59Z</time>
      </trkpt>
      <trkpt lat="46.46313" lon="5.32765">
        <ele>240</ele>
        <time>2022-02-12T12:00:01Z</time>
      </trkpt>
      <trkpt lat="46.46311" lon="5.32774">
        <ele>240.2</ele>
        <time>2022-02-12T12:00:02Z</time>
      </trkpt>
      <trkpt lat="46.46301" lon="5.32798">
        <ele>240.2</ele>
        <time>2022-02-12T12:00:05Z</time>
      </trkpt>
      <trkpt lat="46.46293" lon="5.32812">
        <ele>240.2</ele>
        <time>2022-02-12T12:00:07Z</time>
      </trkpt>
      <trkpt lat="46.46255" lon="5.32863">
        <ele>240.8</ele>
        <time>2022-02-12T12:00:15Z</time>
      </trkpt>
      <trkpt lat="46.46208" lon="5.32932">
        <ele>240.6</ele>
        <time>2022-02-12T12:00:25Z</time>
      </trkpt>
      <trkpt lat="46.46176" lon="5.32963">
        <ele>240.4</ele>
        <time>2022-02-12T12:00:31Z</time>
      </trkpt>
      <trkpt lat="46.46148" lon="5.3298">
        <ele>240.4</ele>
        <time>2022-02-12T12:00:36Z</time>
      </trkpt>
      <trkpt lat="46.46137" lon="5.32986">
        <ele>240.4</ele>
        <time>2022-02-12T12:00:38Z</time>
      </trkpt>
      <trkpt lat="46.46123" lon="5.32996">
        <ele>241</ele>
        <time>2022-02-12T12:00:41Z</time>
      </trkpt>
      <trkpt lat="46.46107" lon="5.33006">
        <ele>241.2</ele>
        <time>2022-02-12T12:00:44Z</time>
      </trkpt>
      <trkpt lat="46.46101" lon="5.33009">
        <ele>241.4</ele>
        <time>2022-02-12T12:00:45Z</time>
      </trkpt>
      <trkpt lat="46.46072" lon="5.33027">
        <ele>241.6</ele>
        <time>2022-02-12T12:00:50Z</time>
      </trkpt>
      <trkpt lat="46.46067" lon="5.33032">
        <ele>241.8</ele>
        <time>2022-02-12T12:00:51Z</time>
      </trkpt>
      <trkpt lat="46.46034" lon="5.33062">
        <ele>242.2</ele>
        <time>2022-02-12T12:00:57Z</time>
      </trkpt>
      <trkpt lat="46.45987" lon="5.33109">
        <ele>242.4</ele>
        <time>2022-02-12T12:01:06Z</time>
      </trkpt>
      <trkpt lat="46.45941" lon="5.33159">
        <ele>242.8</ele>
        <time>2022-02-12T12:01:16Z</time>
      </trkpt>
      <trkpt lat="46.45932" lon="5.33168">
        <ele>242.8</ele>
        <time>2022-02-12T12:01:18Z</time>
      </trkpt>
      <trkpt lat="46.45905" lon="5.33197">
        <ele>243.2</ele>
        <time>2022-02-12T12:01:24Z</time>
      </trkpt>
      <trkpt lat="46.45896" lon="5.33207">
        <ele>243.2</ele>
        <time>2022-02-12T12:01:26Z</time>
      </trkpt>
      <trkpt lat="46.45861" lon="5.33247">
        <ele>243.6</ele>
        <time>2022-02-12T12:01:34Z</time>
      </trkpt>
      <trkpt lat="46.45836" lon="5.33289">
        <ele>244</ele>
        <time>2022-02-12T12:01:41Z</time>
      </trkpt>
      <trkpt lat="46.45826" lon="5.33309">
        <ele>244.2</ele>
        <time>2022-02-12T12:01:44Z</time>
      </trkpt>
      <trkpt lat="46.45805" lon="5.33351">
        <ele>244.6</ele>
        <time>2022-02-12T12:01:50Z</time>
      </trkpt>
      <trkpt lat="46.45773" lon="5.33415">
        <ele>244.8</ele>
        <time>2022-02-12T12:01:59Z</time>
      </trkpt>
      <trkpt lat="46.45765" lon="5.33433">
        <ele>244.8</ele>
        <time>2022-02-12T12:02:02Z</time>
      </trkpt>
      <trkpt lat="46.45762" lon="5.3344">
        <ele>245</ele>
        <time>2022-02-12T12:02:03Z</time>
      </trkpt>
      <trkpt lat="46.45743" lon="5.33483">
        <ele>245.4</ele>
        <time>2022-02-12T12:02:09Z</time>
      </trkpt>
      <trkpt lat="46.45736" lon="5.33497">
        <ele>245.6</ele>
        <time>2022-02-12T12:02:11Z</time>
      </trkpt>
      <trkpt lat="46.45728" lon="5.33517">
        <ele>245.8</ele>
        <time>2022-02-12T12:02:14Z</time>
      </trkpt>
      <trkpt lat="46.45723" lon="5.3353">
        <ele>246</ele>
        <time>2022-02-12T12:02:16Z</time>
      </trkpt>
      <trkpt lat="46.45718" lon="5.33543">
        <ele>246</ele>
        <time>2022-02-12T12:02:18Z</time>
      </trkpt>
      <trkpt lat="46.45712" lon="5.33564">
        <ele>246.6</ele>
        <time>2022-02-12T12:02:21Z</time>
      </trkpt>
      <trkpt lat="46.45689" lon="5.33611">
        <ele>247.4</ele>
        <time>2022-02-12T12:02:28Z</time>
      </trkpt>
      <trkpt lat="46.45684" lon="5.33625">
        <ele>247.8</ele>
        <time>2022-02-12T12:02:30Z</time>
      </trkpt>
      <trkpt lat="46.45674" lon="5.33651">
        <ele>248.2</ele>
        <time>2022-02-12T12:02:34Z</time>
      </trkpt>
      <trkpt lat="46.45673" lon="5.33658">
        <ele>248.4</ele>
        <time>2022-02-12T12:02:35Z</time>
      </trkpt>
      <trkpt lat="46.45665" lon="5.33677">
        <ele>248.6</ele>
        <time>2022-02-12T12:02:38Z</time>
      </trkpt>
      <trkpt lat="46.45659" lon="5.33689">
        <ele>249</ele>
        <time>2022-02-12T12:02:40Z</time>
      </trkpt>
      <trkpt lat="46.45639" lon="5.33734">
        <ele>250</ele>
        <time>2022-02-12T12:02:48Z</time>
      </trkpt>
      <trkpt lat="46.45634" lon="5.33747">
        <ele>250</ele>
        <time>2022-02-12T12:02:50Z</time>
      </trkpt>
      <trkpt lat="46.45627" lon="5.33764">
        <ele>250.4</ele>
        <time>2022-02-12T12:02:53Z</time>
      </trkpt>
      <trkpt lat="46.45625" lon="5.33771">
        <ele>250.4</ele>
        <time>2022-02-12T12:02:54Z</time>
      </trkpt>
      <trkpt lat="46.45622" lon="5.33777">
        <ele>250.6</ele>
        <time>2022-02-12T12:02:55Z</time>
      </trkpt>
      <trkpt lat="46.45612" lon="5.33803">
        <ele>251</ele>
        <time>2022-02-12T12:02:59Z</time>
      </trkpt>
      <trkpt lat="46.45609" lon="5.33809">
        <ele>251.2</ele>
        <time>2022-02-12T12:03:00Z</time>
      </trkpt>
      <trkpt lat="46.45596" lon="5.33831">
        <ele>251.4</ele>
        <time>2022-02-12T12:03:04Z</time>
      </trkpt>
      <trkpt lat="46.45587" lon="5.33858">
        <ele>252.2</ele>
        <time>2022-02-12T12:03:08Z</time>
      </trkpt>
      <trkpt lat="46.45584" lon="5.33865">
        <ele>252.4</ele>
        <time>2022-02-12T12:03:09Z</time>
      </trkpt>
      <trkpt lat="46.45572" lon="5.33896">
        <ele>253.2</ele>
        <time>2022-02-12T12:03:14Z</time>
      </trkpt>
      <trkpt lat="46.45557" lon="5.33923">
        <ele>254</ele>
        <time>2022-02-12T12:03:19Z</time>
      </trkpt>
      <trkpt lat="46.45555" lon="5.33928">
        <ele>254.4</ele>
        <time>2022-02-12T12:03:20Z</time>
      </trkpt>
      <trkpt lat="46.45547" lon="5.33942">
        <ele>255.2</ele>
        <time>2022-02-12T12:03:24Z</time>
      </trkpt>
      <trkpt lat="46.45545" lon="5.33946">
        <ele>255.6</ele>
        <time>2022-02-12T12:03:25Z</time>
      </trkpt>
      <trkpt lat="46.45532" lon="5.33966">
        <ele>256.4</ele>
        <time>2022-02-12T12:03:30Z</time>
      </trkpt>
      <trkpt lat="46.45529" lon="5.3397">
        <ele>256.6</ele>
        <time>2022-02-12T12:03:31Z</time>
      </trkpt>
      <trkpt lat="46.45513" lon="5.33989">
        <ele>257.8</ele>
        <time>2022-02-12T12:03:36Z</time>
      </trkpt>
      <trkpt lat="46.45509" lon="5.33992">
        <ele>258</ele>
        <time>2022-02-12T12:03:37Z</time>
      </trkpt>
      <trkpt lat="46.45491" lon="5.34007">
        <ele>259</ele>
        <time>2022-02-12T12:03:42Z</time>
      </trkpt>
      <trkpt lat="46.45476" lon="5.34016">
        <ele>259.6</ele>
        <time>2022-02-12T12:03:46Z</time>
      </trkpt>
      <trkpt lat="46.45465" lon="5.34022">
        <ele>260</ele>
        <time>2022-02-12T12:03:49Z</time>
      </trkpt>
      <trkpt lat="46.45453" lon="5.34027">
        <ele>260.6</ele>
        <time>2022-02-12T12:03:52Z</time>
      </trkpt>
      <trkpt lat="46.4544" lon="5.34032">
        <ele>261.2</ele>
        <time>2022-02-12T12:03:55Z</time>
      </trkpt>
      <trkpt lat="46.45415" lon="5.34038">
        <ele>262.2</ele>
        <time>2022-02-12T12:04:00Z</time>
      </trkpt>
      <trkpt lat="46.45411" lon="5.34039">
        <ele>262.4</ele>
        <time>2022-02-12T12:04:01Z</time>
      </trkpt>
      <trkpt lat="46.45395" lon="5.34045">
        <ele>263</ele>
        <time>2022-02-12T12:04:05Z</time>
      </trkpt>
      <trkpt lat="46.45383" lon="5.34049">
        <ele>263.6</ele>
        <time>2022-02-12T12:04:08Z</time>
      </trkpt>
      <trkpt lat="46.45368" lon="5.34051">
        <ele>264</ele>
        <time>2022-02-12T12:04:12Z</time>
      </trkpt>
      <trkpt lat="46.4535" lon="5.34056">
        <ele>264.6</ele>
        <time>2022-02-12T12:04:17Z</time>
      </trkpt>
      <trkpt lat="46.45346" lon="5.34057">
        <ele>264.6</ele>
        <time>2022-02-12T12:04:18Z</time>
      </trkpt>
      <trkpt lat="46.45314" lon="5.34065">
        <ele>265.6</ele>
        <time>2022-02-12T12:04:26Z</time>
      </trkpt>
      <trkpt lat="46.45309" lon="5.34066">
        <ele>265.6</ele>
        <time>2022-02-12T12:04:27Z</time>
      </trkpt>
      <trkpt lat="46.4529" lon="5.34071">
        <ele>266</ele>
        <time>2022-02-12T12:04:31Z</time>
      </trkpt>
      <trkpt lat="46.45261" lon="5.34076">
        <ele>266.4</ele>
        <time>2022-02-12T12:04:37Z</time>
      </trkpt>
      <trkpt lat="46.45238" lon="5.34081">
        <ele>266.8</ele>
        <time>2022-02-12T12:04:42Z</time>
      </trkpt>
      <trkpt lat="46.45205" lon="5.34087">
        <ele>267.4</ele>
        <time>2022-02-12T12:04:49Z</time>
      </trkpt>
      <trkpt lat="46.45187" lon="5.34091">
        <ele>267.8</ele>
        <time>2022-02-12T12:04:53Z</time>
      </trkpt>
      <trkpt lat="46.45168" lon="5.34096">
        <ele>268.4</ele>
        <time>2022-02-12T12:04:57Z</time>
      </trkpt>
      <trkpt lat="46.45149" lon="5.34099">
        <ele>268.8</ele>
        <time>2022-02-12T12:05:01Z</time>
      </trkpt>
      <trkpt lat="46.45098" lon="5.3411">
        <ele>269.6</ele>
        <time>2022-02-12T12:05:11Z</time>
      </trkpt>
      <trkpt lat="46.45051" lon="5.34117">
        <ele>269.6</ele>
        <time>2022-02-12T12:05:19Z</time>
      </trkpt>
      <trkpt lat="46.45002" lon="5.34116">
        <ele>268</ele>
        <time>2022-02-12T12:05:26Z</time>
      </trkpt>
      <trkpt lat="46.44972" lon="5.34109">
        <ele>266.8</ele>
        <time>2022-02-12T12:05:30Z</time>
      </trkpt>
      <trkpt lat="46.44941" lon="5.341">
        <ele>265.6</ele>
        <time>2022-02-12T12:05:34Z</time>
      </trkpt>
      <trkpt lat="46.44909" lon="5.34091">
        <ele>264.4</ele>
        <time>2022-02-12T12:05:38Z</time>
      </trkpt>
      <trkpt lat="46.44884" lon="5.34086">
        <ele>263</ele>
        <time>2022-02-12T12:05:41Z</time>
      </trkpt>
      <trkpt lat="46.44869" lon="5.34085">
        <ele>262.4</ele>
        <time>2022-02-12T12:05:43Z</time>
      </trkpt>
      <trkpt lat="46.44852" lon="5.3409">
        <ele>262</ele>
        <time>2022-02-12T12:05:45Z</time>
      </trkpt>
      <trkpt lat="46.44843" lon="5.34095">
        <ele>261.6</ele>
        <time>2022-02-12T12:05:46Z</time>
      </trkpt>
      <trkpt lat="46.44828" lon="5.34107">
        <ele>261.4</ele>
        <time>2022-02-12T12:05:48Z</time>
      </trkpt>
      <trkpt lat="46.44822" lon="5.34115">
        <ele>261</ele>
        <time>2022-02-12T12:05:49Z</time>
      </trkpt>
      <trkpt lat="46.4481" lon="5.34129">
        <ele>260.2</ele>
        <time>2022-02-12T12:05:51Z</time>
      </trkpt>
      <trkpt lat="46.44803" lon="5.34132">
        <ele>259.8</ele>
        <time>2022-02-12T12:05:52Z</time>
      </trkpt>
      <trkpt lat="46.44797" lon="5.34131">
        <ele>259.4</ele>
        <time>2022-02-12T12:05:53Z</time>
      </trkpt>
      <trkpt lat="46.44794" lon="5.34126">
        <ele>258.8</ele>
        <time>2022-02-12T12:05:54Z</time>
      </trkpt>
      <trkpt lat="46.44792" lon="5.34118">
        <ele>258.2</ele>
        <time>2022-02-12T12:05:55Z</time>
      </trkpt>
      <trkpt lat="46.44791" lon="5.34102">
        <ele>258</ele>
        <time>2022-02-12T12:05:57Z</time>
      </trkpt>
      <trkpt lat="46.44785" lon="5.3405">
        <ele>258.2</ele>
        <time>2022-02-12T12:06:04Z</time>
      </trkpt>
      <trkpt lat="46.44781" lon="5.34023">
        <ele>259.4</ele>
        <time>2022-02-12T12:06:08Z</time>
      </trkpt>
      <trkpt lat="46.44778" lon="5.34005">
        <ele>260.6</ele>
        <time>2022-02-12T12:06:11Z</time>
      </trkpt>
      <trkpt lat="46.44777" lon="5.33998">
        <ele>260.8</ele>
        <time>2022-02-12T12:06:12Z</time>
      </trkpt>
      <trkpt lat="46.44775" lon="5.33981">
        <ele>261.6</ele>
        <time>2022-02-12T12:06:15Z</time>
      </trkpt>
      <trkpt lat="46.44772" lon="5.33957">
        <ele>262.6</ele>
        <time>2022-02-12T12:06:19Z</time>
      </trkpt>
      <trkpt lat="46.44767" lon="5.33927">
        <ele>264</ele>
        <time>2022-02-12T12:06:24Z</time>
      </trkpt>
      <trkpt lat="46.44766" lon="5.33901">
        <ele>264.4</ele>
        <time>2022-02-12T12:06:28Z</time>
      </trkpt>
      <trkpt lat="46.44773" lon="5.33854">
        <ele>264.2</ele>
        <time>2022-02-12T12:06:35Z</time>
      </trkpt>
      <trkpt lat="46.44779" lon="5.33839">
        <ele>258</ele>
        <time>2022-02-12T12:06:39Z</time>
      </trkpt>
      <trkpt lat="46.44779" lon="5.33837">
        <ele>263.4</ele>
        <time>2022-02-12T12:06:40Z</time>
      </trkpt>
      <trkpt lat="46.4478" lon="5.33837">
        <ele>263.2</ele>
        <time>2022-02-12T12:06:43Z</time>
      </trkpt>
      <trkpt lat="46.4478" lon="5.33837">
        <ele>263</ele>
        <time>2022-02-12T12:06:44Z</time>
      </trkpt>
      <trkpt lat="46.44779" lon="5.3384">
        <ele>263</ele>
        <time>2022-02-12T12:07:35Z</time>
      </trkpt>
      <trkpt lat="46.44778" lon="5.33843">
        <ele>263</ele>
        <time>2022-02-12T12:07:37Z</time>
      </trkpt>
      <trkpt lat="46.44778" lon="5.33843">
        <ele>263</ele>
        <time>2022-02-12T12:07:39Z</time>
      </trkpt>
      <trkpt lat="46.44776" lon="5.33849">
        <ele>263.4</ele>
        <time>2022-02-12T12:08:59Z</time>
      </trkpt>
      <trkpt lat="46.44774" lon="5.33853">
        <ele>263.4</ele>
        <time>2022-02-12T12:09:00Z</time>
      </trkpt>
      <trkpt lat="46.44769" lon="5.3387">
        <ele>263.4</ele>
        <time>2022-02-12T12:09:03Z</time>
      </trkpt>
      <trkpt lat="46.44766" lon="5.33875">
        <ele>263.4</ele>
        <time>2022-02-12T12:09:04Z</time>
      </trkpt>
      <trkpt lat="46.44762" lon="5.33878">
        <ele>263.6</ele>
        <time>2022-02-12T12:09:05Z</time>
      </trkpt>
      <trkpt lat="46.44752" lon="5.33877">
        <ele>263.6</ele>
        <time>2022-02-12T12:09:07Z</time>
      </trkpt>
      <trkpt lat="46.44727" lon="5.33867">
        <ele>263.4</ele>
        <time>2022-02-12T12:09:11Z</time>
      </trkpt>
      <trkpt lat="46.4468" lon="5.33845">
        <ele>263.2</ele>
        <time>2022-02-12T12:09:18Z</time>
      </trkpt>
      <trkpt lat="46.44674" lon="5.33842">
        <ele>263</ele>
        <time>2022-02-12T12:09:19Z</time>
      </trkpt>
      <trkpt lat="46.44664" lon="5.33832">
        <ele>263</ele>
        <time>2022-02-12T12:09:21Z</time>
      </trkpt>
      <trkpt lat="46.44659" lon="5.33824">
        <ele>262.8</ele>
        <time>2022-02-12T12:09:22Z</time>
      </trkpt>
      <trkpt lat="46.44641" lon="5.33781">
        <ele>262.2</ele>
        <time>2022-02-12T12:09:27Z</time>
      </trkpt>
      <trkpt lat="46.44637" lon="5.33771">
        <ele>262</ele>
        <time>2022-02-12T12:09:28Z</time>
      </trkpt>
      <trkpt lat="46.44615" lon="5.3371">
        <ele>261</ele>
        <time>2022-02-12T12:09:34Z</time>
      </trkpt>
      <trkpt lat="46.44602" lon="5.33676">
        <ele>259.2</ele>
        <time>2022-02-12T12:09:37Z</time>
      </trkpt>
      <trkpt lat="46.44593" lon="5.33653">
        <ele>258.2</ele>
        <time>2022-02-12T12:09:39Z</time>
      </trkpt>
      <trkpt lat="46.44584" lon="5.33629">
        <ele>257.4</ele>
        <time>2022-02-12T12:09:41Z</time>
      </trkpt>
      <trkpt lat="46.4458" lon="5.33617">
        <ele>256.6</ele>
        <time>2022-02-12T12:09:42Z</time>
      </trkpt>
      <trkpt lat="46.44567" lon="5.33582">
        <ele>255.6</ele>
        <time>2022-02-12T12:09:45Z</time>
      </trkpt>
      <trkpt lat="46.44558" lon="5.33559">
        <ele>254.2</ele>
        <time>2022-02-12T12:09:47Z</time>
      </trkpt>
      <trkpt lat="46.4455" lon="5.33538">
        <ele>253.4</ele>
        <time>2022-02-12T12:09:49Z</time>
      </trkpt>
      <trkpt lat="46.44543" lon="5.33518">
        <ele>253.2</ele>
        <time>2022-02-12T12:09:51Z</time>
      </trkpt>
      <trkpt lat="46.44525" lon="5.33471">
        <ele>252.6</ele>
        <time>2022-02-12T12:09:56Z</time>
      </trkpt>
      <trkpt lat="46.44496" lon="5.33397">
        <ele>252.2</ele>
        <time>2022-02-12T12:10:04Z</time>
      </trkpt>
      <trkpt lat="46.44484" lon="5.33369">
        <ele>252.2</ele>
        <time>2022-02-12T12:10:07Z</time>
      </trkpt>
      <trkpt lat="46.44476" lon="5.33354">
        <ele>252</ele>
        <time>2022-02-12T12:10:09Z</time>
      </trkpt>
      <trkpt lat="46.44471" lon="5.33347">
        <ele>252</ele>
        <time>2022-02-12T12:10:10Z</time>
      </trkpt>
      <trkpt lat="46.44439" lon="5.33313">
        <ele>252</ele>
        <time>2022-02-12T12:10:16Z</time>
      </trkpt>
      <trkpt lat="46.44391" lon="5.33261">
        <ele>251.6</ele>
        <time>2022-02-12T12:10:25Z</time>
      </trkpt>
      <trkpt lat="46.44386" lon="5.33255">
        <ele>251.6</ele>
        <time>2022-02-12T12:10:26Z</time>
      </trkpt>
      <trkpt lat="46.44353" lon="5.33219">
        <ele>251</ele>
        <time>2022-02-12T12:10:32Z</time>
      </trkpt>
      <trkpt lat="46.44327" lon="5.33194">
        <ele>250.6</ele>
        <time>2022-02-12T12:10:36Z</time>
      </trkpt>
      <trkpt lat="46.4432" lon="5.33189">
        <ele>250.4</ele>
        <time>2022-02-12T12:10:37Z</time>
      </trkpt>
      <trkpt lat="46.44304" lon="5.33182">
        <ele>249.6</ele>
        <time>2022-02-12T12:10:39Z</time>
      </trkpt>
      <trkpt lat="46.44296" lon="5.3318">
        <ele>249.2</ele>
        <time>2022-02-12T12:10:40Z</time>
      </trkpt>
      <trkpt lat="46.44265" lon="5.3318">
        <ele>248.4</ele>
        <time>2022-02-12T12:10:44Z</time>
      </trkpt>
      <trkpt lat="46.44258" lon="5.3318">
        <ele>248.2</ele>
        <time>2022-02-12T12:10:45Z</time>
      </trkpt>
      <trkpt lat="46.44221" lon="5.33185">
        <ele>247.6</ele>
        <time>2022-02-12T12:10:50Z</time>
      </trkpt>
      <trkpt lat="46.44215" lon="5.33188">
        <ele>247.6</ele>
        <time>2022-02-12T12:10:51Z</time>
      </trkpt>
      <trkpt lat="46.44208" lon="5.33191">
        <ele>247.4</ele>
        <time>2022-02-12T12:10:52Z</time>
      </trkpt>
      <trkpt lat="46.44196" lon="5.33199">
        <ele>247.4</ele>
        <time>2022-02-12T12:10:54Z</time>
      </trkpt>
      <trkpt lat="46.44191" lon="5.33203">
        <ele>247.4</ele>
        <time>2022-02-12T12:10:55Z</time>
      </trkpt>
      <trkpt lat="46.44163" lon="5.33226">
        <ele>247.4</ele>
        <time>2022-02-12T12:11:01Z</time>
      </trkpt>
      <trkpt lat="46.44146" lon="5.33234">
        <ele>247.8</ele>
        <time>2022-02-12T12:11:06Z</time>
      </trkpt>
      <trkpt lat="46.44138" lon="5.3324">
        <ele>248</ele>
        <time>2022-02-12T12:11:10Z</time>
      </trkpt>
      <trkpt lat="46.44143" lon="5.33256">
        <ele>248.4</ele>
        <time>2022-02-12T12:11:13Z</time>
      </trkpt>
      <trkpt lat="46.44157" lon="5.33284">
        <ele>248.6</ele>
        <time>2022-02-12T12:11:17Z</time>
      </trkpt>
      <trkpt lat="46.44161" lon="5.33292">
        <ele>248.6</ele>
        <time>2022-02-12T12:11:18Z</time>
      </trkpt>
      <trkpt lat="46.44176" lon="5.33312">
        <ele>248.6</ele>
        <time>2022-02-12T12:11:21Z</time>
      </trkpt>
      <trkpt lat="46.44188" lon="5.33325">
        <ele>248.6</ele>
        <time>2022-02-12T12:11:23Z</time>
      </trkpt>
      <trkpt lat="46.44236" lon="5.33368">
        <ele>247.6</ele>
        <time>2022-02-12T12:11:30Z</time>
      </trkpt>
      <trkpt lat="46.44242" lon="5.33376">
        <ele>247.4</ele>
        <time>2022-02-12T12:11:31Z</time>
      </trkpt>
      <trkpt lat="46.44267" lon="5.33408">
        <ele>246.4</ele>
        <time>2022-02-12T12:11:35Z</time>
      </trkpt>
      <trkpt lat="46.4428" lon="5.33424">
        <ele>246</ele>
        <time>2022-02-12T12:11:37Z</time>
      </trkpt>
      <trkpt lat="46.443" lon="5.33449">
        <ele>245</ele>
        <time>2022-02-12T12:11:40Z</time>
      </trkpt>
      <trkpt lat="46.44324" lon="5.33487">
        <ele>244.4</ele>
        <time>2022-02-12T12:11:44Z</time>
      </trkpt>
      <trkpt lat="46.44328" lon="5.33498">
        <ele>243.8</ele>
        <time>2022-02-12T12:11:45Z</time>
      </trkpt>
      <trkpt lat="46.44336" lon="5.33522">
        <ele>243.2</ele>
        <time>2022-02-12T12:11:47Z</time>
      </trkpt>
      <trkpt lat="46.44339" lon="5.33535">
        <ele>243</ele>
        <time>2022-02-12T12:11:48Z</time>
      </trkpt>
      <trkpt lat="46.4434" lon="5.33548">
        <ele>242.6</ele>
        <time>2022-02-12T12:11:49Z</time>
      </trkpt>
      <trkpt lat="46.44341" lon="5.33588">
        <ele>241.8</ele>
        <time>2022-02-12T12:11:52Z</time>
      </trkpt>
      <trkpt lat="46.4434" lon="5.33602">
        <ele>241.6</ele>
        <time>2022-02-12T12:11:53Z</time>
      </trkpt>
      <trkpt lat="46.44338" lon="5.33615">
        <ele>241.2</ele>
        <time>2022-02-12T12:11:54Z</time>
      </trkpt>
      <trkpt lat="46.44332" lon="5.3364">
        <ele>240.6</ele>
        <time>2022-02-12T12:11:56Z</time>
      </trkpt>
      <trkpt lat="46.44327" lon="5.33651">
        <ele>240.6</ele>
        <time>2022-02-12T12:11:57Z</time>
      </trkpt>
      <trkpt lat="46.44312" lon="5.33682">
        <ele>240</ele>
        <time>2022-02-12T12:12:00Z</time>
      </trkpt>
      <trkpt lat="46.44294" lon="5.33711">
        <ele>239.2</ele>
        <time>2022-02-12T12:12:03Z</time>
      </trkpt>
      <trkpt lat="46.44283" lon="5.33728">
        <ele>238.6</ele>
        <time>2022-02-12T12:12:05Z</time>
      </trkpt>
      <trkpt lat="46.44265" lon="5.33749">
        <ele>238</ele>
        <time>2022-02-12T12:12:08Z</time>
      </trkpt>
      <trkpt lat="46.44255" lon="5.33757">
        <ele>237.8</ele>
        <time>2022-02-12T12:12:10Z</time>
      </trkpt>
      <trkpt lat="46.44251" lon="5.3376">
        <ele>237.8</ele>
        <time>2022-02-12T12:12:11Z</time>
      </trkpt>
      <trkpt lat="46.44243" lon="5.33761">
        <ele>237.4</ele>
        <time>2022-02-12T12:12:13Z</time>
      </trkpt>
      <trkpt lat="46.44235" lon="5.33757">
        <ele>237.2</ele>
        <time>2022-02-12T12:12:15Z</time>
      </trkpt>
      <trkpt lat="46.44225" lon="5.33749">
        <ele>237</ele>
        <time>2022-02-12T12:12:17Z</time>
      </trkpt>
      <trkpt lat="46.44219" lon="5.33744">
        <ele>237</ele>
        <time>2022-02-12T12:12:18Z</time>
      </trkpt>
      <trkpt lat="46.44196" lon="5.33725">
        <ele>236.8</ele>
        <time>2022-02-12T12:12:22Z</time>
      </trkpt>
      <trkpt lat="46.44153" lon="5.33679">
        <ele>237</ele>
        <time>2022-02-12T12:12:30Z</time>
      </trkpt>
      <trkpt lat="46.44109" lon="5.33632">
        <ele>237.2</ele>
        <time>2022-02-12T12:12:38Z</time>
      </trkpt>
      <trkpt lat="46.44081" lon="5.33593">
        <ele>237</ele>
        <time>2022-02-12T12:12:44Z</time>
      </trkpt>
      <trkpt lat="46.44078" lon="5.33585">
        <ele>237</ele>
        <time>2022-02-12T12:12:45Z</time>
      </trkpt>
      <trkpt lat="46.44069" lon="5.33551">
        <ele>236.8</ele>
        <time>2022-02-12T12:12:49Z</time>
      </trkpt>
      <trkpt lat="46.44068" lon="5.33542">
        <ele>236.8</ele>
        <time>2022-02-12T12:12:50Z</time>
      </trkpt>
      <trkpt lat="46.44065" lon="5.33534">
        <ele>236.8</ele>
        <time>2022-02-12T12:12:51Z</time>
      </trkpt>
      <trkpt lat="46.44056" lon="5.33522">
        <ele>236.6</ele>
        <time>2022-02-12T12:12:53Z</time>
      </trkpt>
      <trkpt lat="46.44024" lon="5.33509">
        <ele>236.2</ele>
        <time>2022-02-12T12:12:58Z</time>
      </trkpt>
      <trkpt lat="46.44011" lon="5.33505">
        <ele>236</ele>
        <time>2022-02-12T12:13:00Z</time>
      </trkpt>
      <trkpt lat="46.4398" lon="5.33491">
        <ele>235.6</ele>
        <time>2022-02-12T12:13:05Z</time>
      </trkpt>
      <trkpt lat="46.43939" lon="5.33463">
        <ele>235.2</ele>
        <time>2022-02-12T12:13:12Z</time>
      </trkpt>
      <trkpt lat="46.43928" lon="5.33457">
        <ele>235.2</ele>
        <time>2022-02-12T12:13:14Z</time>
      </trkpt>
      <trkpt lat="46.43889" lon="5.3344">
        <ele>234.8</ele>
        <time>2022-02-12T12:13:20Z</time>
      </trkpt>
      <trkpt lat="46.43828" lon="5.3343">
        <ele>234.4</ele>
        <time>2022-02-12T12:13:29Z</time>
      </trkpt>
      <trkpt lat="46.43803" lon="5.33432">
        <ele>234.2</ele>
        <time>2022-02-12T12:13:33Z</time>
      </trkpt>
      <trkpt lat="46.43762" lon="5.33438">
        <ele>233.8</ele>
        <time>2022-02-12T12:13:39Z</time>
      </trkpt>
      <trkpt lat="46.43702" lon="5.33445">
        <ele>233.6</ele>
        <time>2022-02-12T12:13:48Z</time>
      </trkpt>
      <trkpt lat="46.43643" lon="5.33448">
        <ele>233.4</ele>
        <time>2022-02-12T12:13:57Z</time>
      </trkpt>
      <trkpt lat="46.43637" lon="5.33448">
        <ele>233.4</ele>
        <time>2022-02-12T12:13:58Z</time>
      </trkpt>
      <trkpt lat="46.43591" lon="5.33448">
        <ele>233.6</ele>
        <time>2022-02-12T12:14:06Z</time>
      </trkpt>
      <trkpt lat="46.43546" lon="5.33445">
        <ele>234.2</ele>
        <time>2022-02-12T12:14:14Z</time>
      </trkpt>
      <trkpt lat="46.43535" lon="5.3345">
        <ele>234.2</ele>
        <time>2022-02-12T12:14:16Z</time>
      </trkpt>
      <trkpt lat="46.43526" lon="5.33459">
        <ele>234</ele>
        <time>2022-02-12T12:14:18Z</time>
      </trkpt>
      <trkpt lat="46.43494" lon="5.33498">
        <ele>234</ele>
        <time>2022-02-12T12:14:25Z</time>
      </trkpt>
      <trkpt lat="46.43467" lon="5.33542">
        <ele>234.2</ele>
        <time>2022-02-12T12:14:32Z</time>
      </trkpt>
      <trkpt lat="46.43462" lon="5.33556">
        <ele>234.2</ele>
        <time>2022-02-12T12:14:34Z</time>
      </trkpt>
      <trkpt lat="46.43457" lon="5.33578">
        <ele>234.4</ele>
        <time>2022-02-12T12:14:37Z</time>
      </trkpt>
      <trkpt lat="46.43457" lon="5.33585">
        <ele>234.6</ele>
        <time>2022-02-12T12:14:38Z</time>
      </trkpt>
      <trkpt lat="46.43456" lon="5.33605">
        <ele>235</ele>
        <time>2022-02-12T12:14:41Z</time>
      </trkpt>
      <trkpt lat="46.43457" lon="5.33623">
        <ele>235.4</ele>
        <time>2022-02-12T12:14:44Z</time>
      </trkpt>
      <trkpt lat="46.43457" lon="5.33634">
        <ele>235.8</ele>
        <time>2022-02-12T12:14:46Z</time>
      </trkpt>
      <trkpt lat="46.43462" lon="5.33655">
        <ele>236.6</ele>
        <time>2022-02-12T12:14:50Z</time>
      </trkpt>
      <trkpt lat="46.43465" lon="5.33665">
        <ele>237</ele>
        <time>2022-02-12T12:14:52Z</time>
      </trkpt>
      <trkpt lat="46.43472" lon="5.33685">
        <ele>237.6</ele>
        <time>2022-02-12T12:14:56Z</time>
      </trkpt>
      <trkpt lat="46.4348" lon="5.33704">
        <ele>238.6</ele>
        <time>2022-02-12T12:15:00Z</time>
      </trkpt>
      <trkpt lat="46.43485" lon="5.33713">
        <ele>238.8</ele>
        <time>2022-02-12T12:15:02Z</time>
      </trkpt>
      <trkpt lat="46.435" lon="5.33739">
        <ele>239.8</ele>
        <time>2022-02-12T12:15:08Z</time>
      </trkpt>
      <trkpt lat="46.43501" lon="5.33746">
        <ele>240.6</ele>
        <time>2022-02-12T12:15:09Z</time>
      </trkpt>
      <trkpt lat="46.43503" lon="5.33771">
        <ele>241.4</ele>
        <time>2022-02-12T12:15:13Z</time>
      </trkpt>
      <trkpt lat="46.43502" lon="5.33784">
        <ele>241.6</ele>
        <time>2022-02-12T12:15:15Z</time>
      </trkpt>
      <trkpt lat="46.43502" lon="5.33806">
        <ele>242.2</ele>
        <time>2022-02-12T12:15:19Z</time>
      </trkpt>
      <trkpt lat="46.43501" lon="5.33817">
        <ele>242.6</ele>
        <time>2022-02-12T12:15:21Z</time>
      </trkpt>
      <trkpt lat="46.43498" lon="5.33853">
        <ele>243.4</ele>
        <time>2022-02-12T12:15:27Z</time>
      </trkpt>
      <trkpt lat="46.43496" lon="5.33866">
        <ele>244</ele>
        <time>2022-02-12T12:15:30Z</time>
      </trkpt>
      <trkpt lat="46.43495" lon="5.33875">
        <ele>244.4</ele>
        <time>2022-02-12T12:15:32Z</time>
      </trkpt>
      <trkpt lat="46.43494" lon="5.33886">
        <ele>245</ele>
        <time>2022-02-12T12:15:35Z</time>
      </trkpt>
      <trkpt lat="46.43494" lon="5.33891">
        <ele>245.4</ele>
        <time>2022-02-12T12:15:36Z</time>
      </trkpt>
      <trkpt lat="46.43493" lon="5.33899">
        <ele>246</ele>
        <time>2022-02-12T12:15:38Z</time>
      </trkpt>
      <trkpt lat="46.43491" lon="5.33917">
        <ele>247</ele>
        <time>2022-02-12T12:15:42Z</time>
      </trkpt>
      <trkpt lat="46.43489" lon="5.33947">
        <ele>248.2</ele>
        <time>2022-02-12T12:15:47Z</time>
      </trkpt>
      <trkpt lat="46.43489" lon="5.33957">
        <ele>248.8</ele>
        <time>2022-02-12T12:15:49Z</time>
      </trkpt>
      <trkpt lat="46.43489" lon="5.33971">
        <ele>249.4</ele>
        <time>2022-02-12T12:15:52Z</time>
      </trkpt>
      <trkpt lat="46.43486" lon="5.33999">
        <ele>250.2</ele>
        <time>2022-02-12T12:15:57Z</time>
      </trkpt>
      <trkpt lat="46.43485" lon="5.34003">
        <ele>250.4</ele>
        <time>2022-02-12T12:15:58Z</time>
      </trkpt>
      <trkpt lat="46.43482" lon="5.34036">
        <ele>251.4</ele>
        <time>2022-02-12T12:16:04Z</time>
      </trkpt>
      <trkpt lat="46.43478" lon="5.3408">
        <ele>252.2</ele>
        <time>2022-02-12T12:16:11Z</time>
      </trkpt>
      <trkpt lat="46.43476" lon="5.34095">
        <ele>252.4</ele>
        <time>2022-02-12T12:16:13Z</time>
      </trkpt>
      <trkpt lat="46.43475" lon="5.34113">
        <ele>252.6</ele>
        <time>2022-02-12T12:16:16Z</time>
      </trkpt>
      <trkpt lat="46.43468" lon="5.34168">
        <ele>253.4</ele>
        <time>2022-02-12T12:16:24Z</time>
      </trkpt>
      <trkpt lat="46.43466" lon="5.34179">
        <ele>253.6</ele>
        <time>2022-02-12T12:16:26Z</time>
      </trkpt>
      <trkpt lat="46.43456" lon="5.34217">
        <ele>254.2</ele>
        <time>2022-02-12T12:16:32Z</time>
      </trkpt>
      <trkpt lat="46.43454" lon="5.34225">
        <ele>254.4</ele>
        <time>2022-02-12T12:16:33Z</time>
      </trkpt>
      <trkpt lat="46.43452" lon="5.34245">
        <ele>254.4</ele>
        <time>2022-02-12T12:16:36Z</time>
      </trkpt>
      <trkpt lat="46.43453" lon="5.34256">
        <ele>254.4</ele>
        <time>2022-02-12T12:16:38Z</time>
      </trkpt>
      <trkpt lat="46.43452" lon="5.34262">
        <ele>254.4</ele>
        <time>2022-02-12T12:16:39Z</time>
      </trkpt>
      <trkpt lat="46.43449" lon="5.34269">
        <ele>254.4</ele>
        <time>2022-02-12T12:16:41Z</time>
      </trkpt>
      <trkpt lat="46.4343" lon="5.34264">
        <ele>254.4</ele>
        <time>2022-02-12T12:16:44Z</time>
      </trkpt>
      <trkpt lat="46.43386" lon="5.34252">
        <ele>252.8</ele>
        <time>2022-02-12T12:16:49Z</time>
      </trkpt>
      <trkpt lat="46.43376" lon="5.34249">
        <ele>252.4</ele>
        <time>2022-02-12T12:16:50Z</time>
      </trkpt>
      <trkpt lat="46.43354" lon="5.34241">
        <ele>251</ele>
        <time>2022-02-12T12:16:52Z</time>
      </trkpt>
      <trkpt lat="46.43337" lon="5.34233">
        <ele>249.6</ele>
        <time>2022-02-12T12:16:54Z</time>
      </trkpt>
      <trkpt lat="46.43316" lon="5.34221">
        <ele>248.2</ele>
        <time>2022-02-12T12:16:56Z</time>
      </trkpt>
      <trkpt lat="46.433" lon="5.3421">
        <ele>246.8</ele>
        <time>2022-02-12T12:16:58Z</time>
      </trkpt>
      <trkpt lat="46.43283" lon="5.34197">
        <ele>245.8</ele>
        <time>2022-02-12T12:17:00Z</time>
      </trkpt>
      <trkpt lat="46.43265" lon="5.34183">
        <ele>244.6</ele>
        <time>2022-02-12T12:17:02Z</time>
      </trkpt>
      <trkpt lat="46.43241" lon="5.34161">
        <ele>243.2</ele>
        <time>2022-02-12T12:17:05Z</time>
      </trkpt>
      <trkpt lat="46.43218" lon="5.34141">
        <ele>242.4</ele>
        <time>2022-02-12T12:17:08Z</time>
      </trkpt>
      <trkpt lat="46.43198" lon="5.3412">
        <ele>241.4</ele>
        <time>2022-02-12T12:17:11Z</time>
      </trkpt>
      <trkpt lat="46.43184" lon="5.34105">
        <ele>240.8</ele>
        <time>2022-02-12T12:17:13Z</time>
      </trkpt>
      <trkpt lat="46.43155" lon="5.34064">
        <ele>240.6</ele>
        <time>2022-02-12T12:17:19Z</time>
      </trkpt>
      <trkpt lat="46.43133" lon="5.34026">
        <ele>242</ele>
        <time>2022-02-12T12:17:25Z</time>
      </trkpt>
      <trkpt lat="46.43112" lon="5.33995">
        <ele>242.4</ele>
        <time>2022-02-12T12:17:30Z</time>
      </trkpt>
      <trkpt lat="46.43103" lon="5.33984">
        <ele>242.6</ele>
        <time>2022-02-12T12:17:32Z</time>
      </trkpt>
      <trkpt lat="46.43065" lon="5.33948">
        <ele>242.8</ele>
        <time>2022-02-12T12:17:39Z</time>
      </trkpt>
      <trkpt lat="46.43015" lon="5.33902">
        <ele>242.8</ele>
        <time>2022-02-12T12:17:48Z</time>
      </trkpt>
      <trkpt lat="46.42967" lon="5.33866">
        <ele>242.6</ele>
        <time>2022-02-12T12:17:56Z</time>
      </trkpt>
      <trkpt lat="46.42961" lon="5.33863">
        <ele>242.4</ele>
        <time>2022-02-12T12:17:57Z</time>
      </trkpt>
      <trkpt lat="46.42922" lon="5.33843">
        <ele>242</ele>
        <time>2022-02-12T12:18:03Z</time>
      </trkpt>
      <trkpt lat="46.42915" lon="5.33841">
        <ele>242</ele>
        <time>2022-02-12T12:18:04Z</time>
      </trkpt>
      <trkpt lat="46.42865" lon="5.33837">
        <ele>241.4</ele>
        <time>2022-02-12T12:18:11Z</time>
      </trkpt>
      <trkpt lat="46.42807" lon="5.33832">
        <ele>240.6</ele>
        <time>2022-02-12T12:18:19Z</time>
      </trkpt>
      <trkpt lat="46.428" lon="5.3383">
        <ele>240.6</ele>
        <time>2022-02-12T12:18:20Z</time>
      </trkpt>
      <trkpt lat="46.42775" lon="5.33825">
        <ele>241</ele>
        <time>2022-02-12T12:18:25Z</time>
      </trkpt>
      <trkpt lat="46.4275" lon="5.33813">
        <ele>242.8</ele>
        <time>2022-02-12T12:18:31Z</time>
      </trkpt>
      <trkpt lat="46.42746" lon="5.33811">
        <ele>243</ele>
        <time>2022-02-12T12:18:32Z</time>
      </trkpt>
      <trkpt lat="46.42723" lon="5.338">
        <ele>244</ele>
        <time>2022-02-12T12:18:38Z</time>
      </trkpt>
      <trkpt lat="46.42715" lon="5.33798">
        <ele>244.6</ele>
        <time>2022-02-12T12:18:40Z</time>
      </trkpt>
      <trkpt lat="46.42698" lon="5.33795">
        <ele>245.2</ele>
        <time>2022-02-12T12:18:44Z</time>
      </trkpt>
      <trkpt lat="46.42681" lon="5.33794">
        <ele>245.6</ele>
        <time>2022-02-12T12:18:48Z</time>
      </trkpt>
      <trkpt lat="46.42672" lon="5.33794">
        <ele>246.2</ele>
        <time>2022-02-12T12:18:50Z</time>
      </trkpt>
      <trkpt lat="46.4264" lon="5.33798">
        <ele>247.4</ele>
        <time>2022-02-12T12:18:57Z</time>
      </trkpt>
      <trkpt lat="46.42631" lon="5.338">
        <ele>247.4</ele>
        <time>2022-02-12T12:18:59Z</time>
      </trkpt>
      <trkpt lat="46.42592" lon="5.33798">
        <ele>247.6</ele>
        <time>2022-02-12T12:19:07Z</time>
      </trkpt>
      <trkpt lat="46.42558" lon="5.33784">
        <ele>248.2</ele>
        <time>2022-02-12T12:19:15Z</time>
      </trkpt>
      <trkpt lat="46.42555" lon="5.33782">
        <ele>248.6</ele>
        <time>2022-02-12T12:19:16Z</time>
      </trkpt>
      <trkpt lat="46.42525" lon="5.33764">
        <ele>249.8</ele>
        <time>2022-02-12T12:19:24Z</time>
      </trkpt>
      <trkpt lat="46.42513" lon="5.33754">
        <ele>250.8</ele>
        <time>2022-02-12T12:19:28Z</time>
      </trkpt>
      <trkpt lat="46.42501" lon="5.33746">
        <ele>252</ele>
        <time>2022-02-12T12:19:32Z</time>
      </trkpt>
      <trkpt lat="46.42491" lon="5.33739">
        <ele>253</ele>
        <time>2022-02-12T12:19:35Z</time>
      </trkpt>
      <trkpt lat="46.42474" lon="5.33726">
        <ele>253.8</ele>
        <time>2022-02-12T12:19:40Z</time>
      </trkpt>
      <trkpt lat="46.42463" lon="5.33717">
        <ele>254.6</ele>
        <time>2022-02-12T12:19:43Z</time>
      </trkpt>
      <trkpt lat="46.4245" lon="5.33707">
        <ele>255</ele>
        <time>2022-02-12T12:19:46Z</time>
      </trkpt>
      <trkpt lat="46.42442" lon="5.33703">
        <ele>255.4</ele>
        <time>2022-02-12T12:19:48Z</time>
      </trkpt>
      <trkpt lat="46.42432" lon="5.33695">
        <ele>255.6</ele>
        <time>2022-02-12T12:19:50Z</time>
      </trkpt>
      <trkpt lat="46.42427" lon="5.33692">
        <ele>255.6</ele>
        <time>2022-02-12T12:19:51Z</time>
      </trkpt>
      <trkpt lat="46.424" lon="5.33679">
        <ele>256</ele>
        <time>2022-02-12T12:19:57Z</time>
      </trkpt>
      <trkpt lat="46.4239" lon="5.33678">
        <ele>256.2</ele>
        <time>2022-02-12T12:19:59Z</time>
      </trkpt>
      <trkpt lat="46.42385" lon="5.33678">
        <ele>256.2</ele>
        <time>2022-02-12T12:20:00Z</time>
      </trkpt>
      <trkpt lat="46.42376" lon="5.3368">
        <ele>256.4</ele>
        <time>2022-02-12T12:20:02Z</time>
      </trkpt>
      <trkpt lat="46.42368" lon="5.33684">
        <ele>256.6</ele>
        <time>2022-02-12T12:20:04Z</time>
      </trkpt>
      <trkpt lat="46.42364" lon="5.33687">
        <ele>256.6</ele>
        <time>2022-02-12T12:20:05Z</time>
      </trkpt>
      <trkpt lat="46.42361" lon="5.3369">
        <ele>256.6</ele>
        <time>2022-02-12T12:20:06Z</time>
      </trkpt>
      <trkpt lat="46.42351" lon="5.33697">
        <ele>257.8</ele>
        <time>2022-02-12T12:20:09Z</time>
      </trkpt>
      <trkpt lat="46.42346" lon="5.337">
        <ele>258</ele>
        <time>2022-02-12T12:20:10Z</time>
      </trkpt>
      <trkpt lat="46.42332" lon="5.33711">
        <ele>259</ele>
        <time>2022-02-12T12:20:15Z</time>
      </trkpt>
      <trkpt lat="46.42324" lon="5.33717">
        <ele>259.8</ele>
        <time>2022-02-12T12:20:18Z</time>
      </trkpt>
      <trkpt lat="46.42319" lon="5.33721">
        <ele>260.2</ele>
        <time>2022-02-12T12:20:20Z</time>
      </trkpt>
      <trkpt lat="46.42311" lon="5.3373">
        <ele>261.2</ele>
        <time>2022-02-12T12:20:24Z</time>
      </trkpt>
      <trkpt lat="46.42308" lon="5.33734">
        <ele>261.4</ele>
        <time>2022-02-12T12:20:25Z</time>
      </trkpt>
      <trkpt lat="46.42297" lon="5.33752">
        <ele>262.4</ele>
        <time>2022-02-12T12:20:30Z</time>
      </trkpt>
      <trkpt lat="46.42289" lon="5.33766">
        <ele>263.6</ele>
        <time>2022-02-12T12:20:34Z</time>
      </trkpt>
      <trkpt lat="46.42279" lon="5.33784">
        <ele>264.4</ele>
        <time>2022-02-12T12:20:38Z</time>
      </trkpt>
      <trkpt lat="46.42267" lon="5.33805">
        <ele>264.8</ele>
        <time>2022-02-12T12:20:42Z</time>
      </trkpt>
      <trkpt lat="46.42249" lon="5.33835">
        <ele>265.8</ele>
        <time>2022-02-12T12:20:48Z</time>
      </trkpt>
      <trkpt lat="46.42246" lon="5.33841">
        <ele>266</ele>
        <time>2022-02-12T12:20:49Z</time>
      </trkpt>
      <trkpt lat="46.42228" lon="5.33876">
        <ele>267</ele>
        <time>2022-02-12T12:20:56Z</time>
      </trkpt>
      <trkpt lat="46.42225" lon="5.33881">
        <ele>267.2</ele>
        <time>2022-02-12T12:20:57Z</time>
      </trkpt>
      <trkpt lat="46.42211" lon="5.33906">
        <ele>268.2</ele>
        <time>2022-02-12T12:21:03Z</time>
      </trkpt>
      <trkpt lat="46.42202" lon="5.33922">
        <ele>268.6</ele>
        <time>2022-02-12T12:21:07Z</time>
      </trkpt>
      <trkpt lat="46.42194" lon="5.33931">
        <ele>269.2</ele>
        <time>2022-02-12T12:21:10Z</time>
      </trkpt>
      <trkpt lat="46.42185" lon="5.33937">
        <ele>269.8</ele>
        <time>2022-02-12T12:21:13Z</time>
      </trkpt>
      <trkpt lat="46.42178" lon="5.33939">
        <ele>270.2</ele>
        <time>2022-02-12T12:21:15Z</time>
      </trkpt>
      <trkpt lat="46.42161" lon="5.33939">
        <ele>271.4</ele>
        <time>2022-02-12T12:21:20Z</time>
      </trkpt>
      <trkpt lat="46.42158" lon="5.33938">
        <ele>271.6</ele>
        <time>2022-02-12T12:21:21Z</time>
      </trkpt>
      <trkpt lat="46.42142" lon="5.3393">
        <ele>272.4</ele>
        <time>2022-02-12T12:21:26Z</time>
      </trkpt>
      <trkpt lat="46.42133" lon="5.33926">
        <ele>272.8</ele>
        <time>2022-02-12T12:21:28Z</time>
      </trkpt>
      <trkpt lat="46.42116" lon="5.33918">
        <ele>273.8</ele>
        <time>2022-02-12T12:21:32Z</time>
      </trkpt>
      <trkpt lat="46.42111" lon="5.33915">
        <ele>274</ele>
        <time>2022-02-12T12:21:33Z</time>
      </trkpt>
      <trkpt lat="46.42083" lon="5.33903">
        <ele>274.2</ele>
        <time>2022-02-12T12:21:39Z</time>
      </trkpt>
      <trkpt lat="46.42045" lon="5.33902">
        <ele>274.2</ele>
        <time>2022-02-12T12:21:46Z</time>
      </trkpt>
      <trkpt lat="46.42005" lon="5.339">
        <ele>274</ele>
        <time>2022-02-12T12:21:53Z</time>
      </trkpt>
      <trkpt lat="46.41992" lon="5.33895">
        <ele>273.8</ele>
        <time>2022-02-12T12:21:55Z</time>
      </trkpt>
      <trkpt lat="46.41979" lon="5.33886">
        <ele>273.4</ele>
        <time>2022-02-12T12:21:57Z</time>
      </trkpt>
      <trkpt lat="46.41966" lon="5.33877">
        <ele>272.8</ele>
        <time>2022-02-12T12:21:59Z</time>
      </trkpt>
      <trkpt lat="46.4196" lon="5.33874">
        <ele>272.4</ele>
        <time>2022-02-12T12:22:00Z</time>
      </trkpt>
      <trkpt lat="46.41952" lon="5.33872">
        <ele>272.4</ele>
        <time>2022-02-12T12:22:01Z</time>
      </trkpt>
      <trkpt lat="46.41933" lon="5.33869">
        <ele>271.4</ele>
        <time>2022-02-12T12:22:03Z</time>
      </trkpt>
      <trkpt lat="46.41925" lon="5.3387">
        <ele>270.8</ele>
        <time>2022-02-12T12:22:04Z</time>
      </trkpt>
      <trkpt lat="46.41916" lon="5.33871">
        <ele>270.4</ele>
        <time>2022-02-12T12:22:05Z</time>
      </trkpt>
      <trkpt lat="46.4191" lon="5.33873">
        <ele>269.6</ele>
        <time>2022-02-12T12:22:06Z</time>
      </trkpt>
      <trkpt lat="46.41891" lon="5.33877">
        <ele>268.6</ele>
        <time>2022-02-12T12:22:08Z</time>
      </trkpt>
      <trkpt lat="46.41867" lon="5.33879">
        <ele>267.4</ele>
        <time>2022-02-12T12:22:11Z</time>
      </trkpt>
      <trkpt lat="46.4184" lon="5.33879">
        <ele>267.2</ele>
        <time>2022-02-12T12:22:15Z</time>
      </trkpt>
      <trkpt lat="46.41835" lon="5.33878">
        <ele>267.2</ele>
        <time>2022-02-12T12:22:16Z</time>
      </trkpt>
      <trkpt lat="46.41804" lon="5.33872">
        <ele>268</ele>
        <time>2022-02-12T12:22:22Z</time>
      </trkpt>
      <trkpt lat="46.41791" lon="5.33868">
        <ele>269</ele>
        <time>2022-02-12T12:22:25Z</time>
      </trkpt>
      <trkpt lat="46.4178" lon="5.33866">
        <ele>269.6</ele>
        <time>2022-02-12T12:22:28Z</time>
      </trkpt>
      <trkpt lat="46.41771" lon="5.33864">
        <ele>270.2</ele>
        <time>2022-02-12T12:22:30Z</time>
      </trkpt>
      <trkpt lat="46.41756" lon="5.33861">
        <ele>271.4</ele>
        <time>2022-02-12T12:22:34Z</time>
      </trkpt>
      <trkpt lat="46.41752" lon="5.33862">
        <ele>271.6</ele>
        <time>2022-02-12T12:22:35Z</time>
      </trkpt>
      <trkpt lat="46.41738" lon="5.33866">
        <ele>272.6</ele>
        <time>2022-02-12T12:22:39Z</time>
      </trkpt>
      <trkpt lat="46.41729" lon="5.33869">
        <ele>273.4</ele>
        <time>2022-02-12T12:22:42Z</time>
      </trkpt>
      <trkpt lat="46.41726" lon="5.3387">
        <ele>273.8</ele>
        <time>2022-02-12T12:22:43Z</time>
      </trkpt>
      <trkpt lat="46.41709" lon="5.33877">
        <ele>275.2</ele>
        <time>2022-02-12T12:22:49Z</time>
      </trkpt>
      <trkpt lat="46.417" lon="5.3388">
        <ele>276.2</ele>
        <time>2022-02-12T12:22:52Z</time>
      </trkpt>
      <trkpt lat="46.41684" lon="5.33881">
        <ele>277.2</ele>
        <time>2022-02-12T12:22:57Z</time>
      </trkpt>
      <trkpt lat="46.41681" lon="5.33882">
        <ele>277.4</ele>
        <time>2022-02-12T12:22:58Z</time>
      </trkpt>
      <trkpt lat="46.41665" lon="5.33882">
        <ele>278.6</ele>
        <time>2022-02-12T12:23:02Z</time>
      </trkpt>
      <trkpt lat="46.41655" lon="5.3388">
        <ele>279.2</ele>
        <time>2022-02-12T12:23:05Z</time>
      </trkpt>
      <trkpt lat="46.41644" lon="5.33879">
        <ele>279.8</ele>
        <time>2022-02-12T12:23:08Z</time>
      </trkpt>
      <trkpt lat="46.41626" lon="5.33883">
        <ele>280.4</ele>
        <time>2022-02-12T12:23:13Z</time>
      </trkpt>
      <trkpt lat="46.41619" lon="5.33884">
        <ele>280.8</ele>
        <time>2022-02-12T12:23:15Z</time>
      </trkpt>
      <trkpt lat="46.41586" lon="5.33887">
        <ele>281.6</ele>
        <time>2022-02-12T12:23:23Z</time>
      </trkpt>
      <trkpt lat="46.41567" lon="5.33884">
        <ele>282</ele>
        <time>2022-02-12T12:23:27Z</time>
      </trkpt>
      <trkpt lat="46.41553" lon="5.33881">
        <ele>282</ele>
        <time>2022-02-12T12:23:31Z</time>
      </trkpt>
      <trkpt lat="46.41513" lon="5.33872">
        <ele>281.6</ele>
        <time>2022-02-12T12:23:37Z</time>
      </trkpt>
      <trkpt lat="46.415" lon="5.33868">
        <ele>281.2</ele>
        <time>2022-02-12T12:23:39Z</time>
      </trkpt>
      <trkpt lat="46.41484" lon="5.33856">
        <ele>280.8</ele>
        <time>2022-02-12T12:23:42Z</time>
      </trkpt>
      <trkpt lat="46.41452" lon="5.33834">
        <ele>279.8</ele>
        <time>2022-02-12T12:23:47Z</time>
      </trkpt>
      <trkpt lat="46.41414" lon="5.33821">
        <ele>278.8</ele>
        <time>2022-02-12T12:23:52Z</time>
      </trkpt>
      <trkpt lat="46.41388" lon="5.33814">
        <ele>277.6</ele>
        <time>2022-02-12T12:23:55Z</time>
      </trkpt>
      <trkpt lat="46.41357" lon="5.33805">
        <ele>276.6</ele>
        <time>2022-02-12T12:23:59Z</time>
      </trkpt>
      <trkpt lat="46.41334" lon="5.33799">
        <ele>275.6</ele>
        <time>2022-02-12T12:24:02Z</time>
      </trkpt>
      <trkpt lat="46.4132" lon="5.33792">
        <ele>275</ele>
        <time>2022-02-12T12:24:04Z</time>
      </trkpt>
      <trkpt lat="46.41304" lon="5.33778">
        <ele>274.6</ele>
        <time>2022-02-12T12:24:06Z</time>
      </trkpt>
      <trkpt lat="46.41297" lon="5.3377">
        <ele>274</ele>
        <time>2022-02-12T12:24:07Z</time>
      </trkpt>
      <trkpt lat="46.41277" lon="5.33748">
        <ele>272.8</ele>
        <time>2022-02-12T12:24:10Z</time>
      </trkpt>
      <trkpt lat="46.41258" lon="5.33729">
        <ele>271.6</ele>
        <time>2022-02-12T12:24:13Z</time>
      </trkpt>
      <trkpt lat="46.41229" lon="5.33702">
        <ele>270.4</ele>
        <time>2022-02-12T12:24:17Z</time>
      </trkpt>
      <trkpt lat="46.41195" lon="5.33671">
        <ele>269.4</ele>
        <time>2022-02-12T12:24:22Z</time>
      </trkpt>
      <trkpt lat="46.41188" lon="5.33665">
        <ele>269.2</ele>
        <time>2022-02-12T12:24:23Z</time>
      </trkpt>
      <trkpt lat="46.41156" lon="5.33634">
        <ele>268.2</ele>
        <time>2022-02-12T12:24:28Z</time>
      </trkpt>
      <trkpt lat="46.4113" lon="5.33612">
        <ele>267.6</ele>
        <time>2022-02-12T12:24:32Z</time>
      </trkpt>
      <trkpt lat="46.41093" lon="5.33588">
        <ele>267.4</ele>
        <time>2022-02-12T12:24:38Z</time>
      </trkpt>
      <trkpt lat="46.41042" lon="5.33564">
        <ele>268</ele>
        <time>2022-02-12T12:24:47Z</time>
      </trkpt>
      <trkpt lat="46.41002" lon="5.33551">
        <ele>269.6</ele>
        <time>2022-02-12T12:24:55Z</time>
      </trkpt>
      <trkpt lat="46.40979" lon="5.33547">
        <ele>270.6</ele>
        <time>2022-02-12T12:25:00Z</time>
      </trkpt>
      <trkpt lat="46.40974" lon="5.33547">
        <ele>270.8</ele>
        <time>2022-02-12T12:25:01Z</time>
      </trkpt>
      <trkpt lat="46.40965" lon="5.33544">
        <ele>271</ele>
        <time>2022-02-12T12:25:03Z</time>
      </trkpt>
      <trkpt lat="46.40937" lon="5.33535">
        <ele>271.8</ele>
        <time>2022-02-12T12:25:09Z</time>
      </trkpt>
      <trkpt lat="46.40932" lon="5.33534">
        <ele>271.8</ele>
        <time>2022-02-12T12:25:10Z</time>
      </trkpt>
      <trkpt lat="46.40899" lon="5.33525">
        <ele>272.8</ele>
        <time>2022-02-12T12:25:17Z</time>
      </trkpt>
      <trkpt lat="46.40859" lon="5.33515">
        <ele>272.6</ele>
        <time>2022-02-12T12:25:22Z</time>
      </trkpt>
      <trkpt lat="46.40818" lon="5.33504">
        <ele>271.2</ele>
        <time>2022-02-12T12:25:29Z</time>
      </trkpt>
      <trkpt lat="46.40795" lon="5.33498">
        <ele>270.8</ele>
        <time>2022-02-12T12:25:31Z</time>
      </trkpt>
      <trkpt lat="46.40773" lon="5.3349">
        <ele>269.6</ele>
        <time>2022-02-12T12:25:35Z</time>
      </trkpt>
      <trkpt lat="46.40758" lon="5.33483">
        <ele>269.2</ele>
        <time>2022-02-12T12:25:36Z</time>
      </trkpt>
      <trkpt lat="46.40729" lon="5.33467">
        <ele>268.2</ele>
        <time>2022-02-12T12:25:40Z</time>
      </trkpt>
      <trkpt lat="46.40707" lon="5.33453">
        <ele>267</ele>
        <time>2022-02-12T12:25:44Z</time>
      </trkpt>
      <trkpt lat="46.40692" lon="5.33444">
        <ele>266.6</ele>
        <time>2022-02-12T12:25:46Z</time>
      </trkpt>
      <trkpt lat="46.4067" lon="5.33431">
        <ele>265.8</ele>
        <time>2022-02-12T12:25:49Z</time>
      </trkpt>
      <trkpt lat="46.4064" lon="5.33412">
        <ele>264.8</ele>
        <time>2022-02-12T12:25:52Z</time>
      </trkpt>
      <trkpt lat="46.40598" lon="5.33387">
        <ele>263.6</ele>
        <time>2022-02-12T12:25:57Z</time>
      </trkpt>
      <trkpt lat="46.4059" lon="5.33382">
        <ele>263.2</ele>
        <time>2022-02-12T12:25:58Z</time>
      </trkpt>
      <trkpt lat="46.40573" lon="5.33372">
        <ele>262.2</ele>
        <time>2022-02-12T12:26:00Z</time>
      </trkpt>
      <trkpt lat="46.40547" lon="5.33356">
        <ele>260.8</ele>
        <time>2022-02-12T12:26:03Z</time>
      </trkpt>
      <trkpt lat="46.4053" lon="5.33345">
        <ele>259.8</ele>
        <time>2022-02-12T12:26:05Z</time>
      </trkpt>
      <trkpt lat="46.40521" lon="5.33339">
        <ele>259.4</ele>
        <time>2022-02-12T12:26:06Z</time>
      </trkpt>
      <trkpt lat="46.40514" lon="5.33331">
        <ele>259</ele>
        <time>2022-02-12T12:26:07Z</time>
      </trkpt>
      <trkpt lat="46.40499" lon="5.33314">
        <ele>258</ele>
        <time>2022-02-12T12:26:09Z</time>
      </trkpt>
      <trkpt lat="46.40492" lon="5.33307">
        <ele>257.4</ele>
        <time>2022-02-12T12:26:10Z</time>
      </trkpt>
      <trkpt lat="46.40476" lon="5.33297">
        <ele>257</ele>
        <time>2022-02-12T12:26:12Z</time>
      </trkpt>
      <trkpt lat="46.40468" lon="5.33293">
        <ele>256.8</ele>
        <time>2022-02-12T12:26:13Z</time>
      </trkpt>
      <trkpt lat="46.40444" lon="5.33281">
        <ele>256.2</ele>
        <time>2022-02-12T12:26:16Z</time>
      </trkpt>
      <trkpt lat="46.4043" lon="5.3327">
        <ele>255.6</ele>
        <time>2022-02-12T12:26:18Z</time>
      </trkpt>
      <trkpt lat="46.40389" lon="5.33227">
        <ele>254.8</ele>
        <time>2022-02-12T12:26:25Z</time>
      </trkpt>
      <trkpt lat="46.40357" lon="5.33182">
        <ele>255.4</ele>
        <time>2022-02-12T12:26:32Z</time>
      </trkpt>
      <trkpt lat="46.40323" lon="5.33135">
        <ele>256.8</ele>
        <time>2022-02-12T12:26:40Z</time>
      </trkpt>
      <trkpt lat="46.40294" lon="5.33091">
        <ele>257.8</ele>
        <time>2022-02-12T12:26:48Z</time>
      </trkpt>
      <trkpt lat="46.40256" lon="5.33036">
        <ele>258.4</ele>
        <time>2022-02-12T12:26:58Z</time>
      </trkpt>
      <trkpt lat="46.40248" lon="5.33025">
        <ele>258.4</ele>
        <time>2022-02-12T12:27:00Z</time>
      </trkpt>
      <trkpt lat="46.40206" lon="5.32963">
        <ele>258</ele>
        <time>2022-02-12T12:27:10Z</time>
      </trkpt>
      <trkpt lat="46.40171" lon="5.329">
        <ele>257.4</ele>
        <time>2022-02-12T12:27:20Z</time>
      </trkpt>
      <trkpt lat="46.40141" lon="5.32833">
        <ele>257.6</ele>
        <time>2022-02-12T12:27:30Z</time>
      </trkpt>
      <trkpt lat="46.40138" lon="5.32826">
        <ele>257.6</ele>
        <time>2022-02-12T12:27:31Z</time>
      </trkpt>
      <trkpt lat="46.40107" lon="5.32753">
        <ele>257.6</ele>
        <time>2022-02-12T12:27:41Z</time>
      </trkpt>
      <trkpt lat="46.40104" lon="5.32745">
        <ele>257.6</ele>
        <time>2022-02-12T12:27:42Z</time>
      </trkpt>
      <trkpt lat="46.40079" lon="5.32681">
        <ele>257.2</ele>
        <time>2022-02-12T12:27:50Z</time>
      </trkpt>
      <trkpt lat="46.40071" lon="5.32645">
        <ele>257</ele>
        <time>2022-02-12T12:27:54Z</time>
      </trkpt>
      <trkpt lat="46.40069" lon="5.32637">
        <ele>256.8</ele>
        <time>2022-02-12T12:27:55Z</time>
      </trkpt>
      <trkpt lat="46.40065" lon="5.3263">
        <ele>256.8</ele>
        <time>2022-02-12T12:27:56Z</time>
      </trkpt>
      <trkpt lat="46.40061" lon="5.32624">
        <ele>256.8</ele>
        <time>2022-02-12T12:27:57Z</time>
      </trkpt>
      <trkpt lat="46.4005" lon="5.32622">
        <ele>256.6</ele>
        <time>2022-02-12T12:27:59Z</time>
      </trkpt>
      <trkpt lat="46.40027" lon="5.32634">
        <ele>256.4</ele>
        <time>2022-02-12T12:28:03Z</time>
      </trkpt>
      <trkpt lat="46.39993" lon="5.32652">
        <ele>256.8</ele>
        <time>2022-02-12T12:28:08Z</time>
      </trkpt>
      <trkpt lat="46.39941" lon="5.32677">
        <ele>256</ele>
        <time>2022-02-12T12:28:15Z</time>
      </trkpt>
      <trkpt lat="46.39933" lon="5.32681">
        <ele>255.8</ele>
        <time>2022-02-12T12:28:16Z</time>
      </trkpt>
      <trkpt lat="46.39887" lon="5.32703">
        <ele>255</ele>
        <time>2022-02-12T12:28:22Z</time>
      </trkpt>
      <trkpt lat="46.39863" lon="5.32713">
        <ele>254.6</ele>
        <time>2022-02-12T12:28:25Z</time>
      </trkpt>
      <trkpt lat="46.39847" lon="5.3272">
        <ele>254</ele>
        <time>2022-02-12T12:28:27Z</time>
      </trkpt>
      <trkpt lat="46.39815" lon="5.32735">
        <ele>253</ele>
        <time>2022-02-12T12:28:31Z</time>
      </trkpt>
      <trkpt lat="46.39775" lon="5.32755">
        <ele>252</ele>
        <time>2022-02-12T12:28:36Z</time>
      </trkpt>
      <trkpt lat="46.39767" lon="5.32759">
        <ele>251.8</ele>
        <time>2022-02-12T12:28:37Z</time>
      </trkpt>
      <trkpt lat="46.39733" lon="5.32778">
        <ele>250.6</ele>
        <time>2022-02-12T12:28:41Z</time>
      </trkpt>
      <trkpt lat="46.39706" lon="5.32793">
        <ele>249.2</ele>
        <time>2022-02-12T12:28:44Z</time>
      </trkpt>
      <trkpt lat="46.39689" lon="5.32802">
        <ele>248.4</ele>
        <time>2022-02-12T12:28:46Z</time>
      </trkpt>
      <trkpt lat="46.3968" lon="5.32807">
        <ele>247.8</ele>
        <time>2022-02-12T12:28:47Z</time>
      </trkpt>
      <trkpt lat="46.39663" lon="5.32815">
        <ele>246.6</ele>
        <time>2022-02-12T12:28:49Z</time>
      </trkpt>
      <trkpt lat="46.39632" lon="5.32825">
        <ele>245.6</ele>
        <time>2022-02-12T12:28:52Z</time>
      </trkpt>
      <trkpt lat="46.39604" lon="5.32833">
        <ele>244</ele>
        <time>2022-02-12T12:28:55Z</time>
      </trkpt>
      <trkpt lat="46.39577" lon="5.32845">
        <ele>242.8</ele>
        <time>2022-02-12T12:28:58Z</time>
      </trkpt>
      <trkpt lat="46.39554" lon="5.32859">
        <ele>241.8</ele>
        <time>2022-02-12T12:29:01Z</time>
      </trkpt>
      <trkpt lat="46.39532" lon="5.3287">
        <ele>241.4</ele>
        <time>2022-02-12T12:29:04Z</time>
      </trkpt>
      <trkpt lat="46.39478" lon="5.32893">
        <ele>240.6</ele>
        <time>2022-02-12T12:29:11Z</time>
      </trkpt>
      <trkpt lat="46.39469" lon="5.32896">
        <ele>240.4</ele>
        <time>2022-02-12T12:29:12Z</time>
      </trkpt>
      <trkpt lat="46.39443" lon="5.32904">
        <ele>239.6</ele>
        <time>2022-02-12T12:29:15Z</time>
      </trkpt>
      <trkpt lat="46.39415" lon="5.32909">
        <ele>238.2</ele>
        <time>2022-02-12T12:29:18Z</time>
      </trkpt>
      <trkpt lat="46.39406" lon="5.32908">
        <ele>237.8</ele>
        <time>2022-02-12T12:29:19Z</time>
      </trkpt>
      <trkpt lat="46.39388" lon="5.32901">
        <ele>236.6</ele>
        <time>2022-02-12T12:29:21Z</time>
      </trkpt>
      <trkpt lat="46.39381" lon="5.32895">
        <ele>236.2</ele>
        <time>2022-02-12T12:29:22Z</time>
      </trkpt>
      <trkpt lat="46.39374" lon="5.3289">
        <ele>235.4</ele>
        <time>2022-02-12T12:29:23Z</time>
      </trkpt>
      <trkpt lat="46.39368" lon="5.32885">
        <ele>235</ele>
        <time>2022-02-12T12:29:24Z</time>
      </trkpt>
      <trkpt lat="46.39363" lon="5.32884">
        <ele>234.6</ele>
        <time>2022-02-12T12:29:25Z</time>
      </trkpt>
      <trkpt lat="46.39357" lon="5.32886">
        <ele>234.4</ele>
        <time>2022-02-12T12:29:26Z</time>
      </trkpt>
      <trkpt lat="46.39354" lon="5.32892">
        <ele>234.2</ele>
        <time>2022-02-12T12:29:27Z</time>
      </trkpt>
      <trkpt lat="46.39352" lon="5.329">
        <ele>234</ele>
        <time>2022-02-12T12:29:28Z</time>
      </trkpt>
      <trkpt lat="46.39348" lon="5.32919">
        <ele>233.4</ele>
        <time>2022-02-12T12:29:30Z</time>
      </trkpt>
      <trkpt lat="46.39343" lon="5.32928">
        <ele>233.4</ele>
        <time>2022-02-12T12:29:31Z</time>
      </trkpt>
      <trkpt lat="46.39337" lon="5.32934">
        <ele>233.2</ele>
        <time>2022-02-12T12:29:32Z</time>
      </trkpt>
      <trkpt lat="46.39321" lon="5.3294">
        <ele>232</ele>
        <time>2022-02-12T12:29:34Z</time>
      </trkpt>
      <trkpt lat="46.39298" lon="5.32952">
        <ele>231</ele>
        <time>2022-02-12T12:29:37Z</time>
      </trkpt>
      <trkpt lat="46.39251" lon="5.32974">
        <ele>230</ele>
        <time>2022-02-12T12:29:43Z</time>
      </trkpt>
      <trkpt lat="46.3922" lon="5.32987">
        <ele>229.4</ele>
        <time>2022-02-12T12:29:47Z</time>
      </trkpt>
      <trkpt lat="46.39162" lon="5.33009">
        <ele>229</ele>
        <time>2022-02-12T12:29:55Z</time>
      </trkpt>
      <trkpt lat="46.39156" lon="5.33011">
        <ele>229</ele>
        <time>2022-02-12T12:29:56Z</time>
      </trkpt>
      <trkpt lat="46.39142" lon="5.33016">
        <ele>228.8</ele>
        <time>2022-02-12T12:29:58Z</time>
      </trkpt>
      <trkpt lat="46.39101" lon="5.33024">
        <ele>228.8</ele>
        <time>2022-02-12T12:30:04Z</time>
      </trkpt>
      <trkpt lat="46.39075" lon="5.33021">
        <ele>228.8</ele>
        <time>2022-02-12T12:30:08Z</time>
      </trkpt>
      <trkpt lat="46.39068" lon="5.3302">
        <ele>228.8</ele>
        <time>2022-02-12T12:30:09Z</time>
      </trkpt>
      <trkpt lat="46.39017" lon="5.33001">
        <ele>228.8</ele>
        <time>2022-02-12T12:30:17Z</time>
      </trkpt>
      <trkpt lat="46.38963" lon="5.32981">
        <ele>228.2</ele>
        <time>2022-02-12T12:30:25Z</time>
      </trkpt>
      <trkpt lat="46.38943" lon="5.32973">
        <ele>228.2</ele>
        <time>2022-02-12T12:30:28Z</time>
      </trkpt>
      <trkpt lat="46.38889" lon="5.32953">
        <ele>228</ele>
        <time>2022-02-12T12:30:36Z</time>
      </trkpt>
      <trkpt lat="46.38883" lon="5.3295">
        <ele>227.8</ele>
        <time>2022-02-12T12:30:37Z</time>
      </trkpt>
      <trkpt lat="46.38827" lon="5.32928">
        <ele>227.2</ele>
        <time>2022-02-12T12:30:46Z</time>
      </trkpt>
      <trkpt lat="46.38821" lon="5.32926">
        <ele>227.2</ele>
        <time>2022-02-12T12:30:47Z</time>
      </trkpt>
      <trkpt lat="46.38791" lon="5.32914">
        <ele>227</ele>
        <time>2022-02-12T12:30:52Z</time>
      </trkpt>
      <trkpt lat="46.38781" lon="5.3291">
        <ele>227</ele>
        <time>2022-02-12T12:30:54Z</time>
      </trkpt>
      <trkpt lat="46.38771" lon="5.329">
        <ele>227</ele>
        <time>2022-02-12T12:30:56Z</time>
      </trkpt>
      <trkpt lat="46.38767" lon="5.32891">
        <ele>227</ele>
        <time>2022-02-12T12:30:57Z</time>
      </trkpt>
      <trkpt lat="46.38764" lon="5.32882">
        <ele>227</ele>
        <time>2022-02-12T12:30:58Z</time>
      </trkpt>
      <trkpt lat="46.38762" lon="5.32865">
        <ele>227</ele>
        <time>2022-02-12T12:31:00Z</time>
      </trkpt>
      <trkpt lat="46.38762" lon="5.32855">
        <ele>227</ele>
        <time>2022-02-12T12:31:01Z</time>
      </trkpt>
      <trkpt lat="46.38762" lon="5.32843">
        <ele>226.8</ele>
        <time>2022-02-12T12:31:02Z</time>
      </trkpt>
      <trkpt lat="46.38763" lon="5.32834">
        <ele>226.6</ele>
        <time>2022-02-12T12:31:03Z</time>
      </trkpt>
      <trkpt lat="46.38766" lon="5.32817">
        <ele>226.2</ele>
        <time>2022-02-12T12:31:05Z</time>
      </trkpt>
      <trkpt lat="46.38768" lon="5.32807">
        <ele>226.2</ele>
        <time>2022-02-12T12:31:06Z</time>
      </trkpt>
      <trkpt lat="46.38786" lon="5.32744">
        <ele>226.4</ele>
        <time>2022-02-12T12:31:13Z</time>
      </trkpt>
      <trkpt lat="46.3879" lon="5.32726">
        <ele>226.4</ele>
        <time>2022-02-12T12:31:15Z</time>
      </trkpt>
      <trkpt lat="46.38792" lon="5.32699">
        <ele>226.4</ele>
        <time>2022-02-12T12:31:18Z</time>
      </trkpt>
      <trkpt lat="46.38789" lon="5.32654">
        <ele>226</ele>
        <time>2022-02-12T12:31:23Z</time>
      </trkpt>
      <trkpt lat="46.38787" lon="5.32646">
        <ele>226</ele>
        <time>2022-02-12T12:31:24Z</time>
      </trkpt>
      <trkpt lat="46.38783" lon="5.32641">
        <ele>226</ele>
        <time>2022-02-12T12:31:25Z</time>
      </trkpt>
      <trkpt lat="46.38774" lon="5.32633">
        <ele>226.2</ele>
        <time>2022-02-12T12:31:27Z</time>
      </trkpt>
      <trkpt lat="46.38768" lon="5.32629">
        <ele>226.2</ele>
        <time>2022-02-12T12:31:28Z</time>
      </trkpt>
      <trkpt lat="46.38741" lon="5.32608">
        <ele>226.2</ele>
        <time>2022-02-12T12:31:33Z</time>
      </trkpt>
      <trkpt lat="46.38691" lon="5.32562">
        <ele>226</ele>
        <time>2022-02-12T12:31:42Z</time>
      </trkpt>
      <trkpt lat="46.3865" lon="5.3252">
        <ele>226</ele>
        <time>2022-02-12T12:31:50Z</time>
      </trkpt>
      <trkpt lat="46.38632" lon="5.32507">
        <ele>225.8</ele>
        <time>2022-02-12T12:31:53Z</time>
      </trkpt>
      <trkpt lat="46.38614" lon="5.32493">
        <ele>225.8</ele>
        <time>2022-02-12T12:31:56Z</time>
      </trkpt>
      <trkpt lat="46.38579" lon="5.32462">
        <ele>225.2</ele>
        <time>2022-02-12T12:32:02Z</time>
      </trkpt>
      <trkpt lat="46.38555" lon="5.32439">
        <ele>224.8</ele>
        <time>2022-02-12T12:32:06Z</time>
      </trkpt>
      <trkpt lat="46.38537" lon="5.32425">
        <ele>224.8</ele>
        <time>2022-02-12T12:32:09Z</time>
      </trkpt>
      <trkpt lat="46.38503" lon="5.32388">
        <ele>224.2</ele>
        <time>2022-02-12T12:32:15Z</time>
      </trkpt>
      <trkpt lat="46.38498" lon="5.32382">
        <ele>224.2</ele>
        <time>2022-02-12T12:32:16Z</time>
      </trkpt>
      <trkpt lat="46.38479" lon="5.3237">
        <ele>224.2</ele>
        <time>2022-02-12T12:32:19Z</time>
      </trkpt>
      <trkpt lat="46.38466" lon="5.32364">
        <ele>224.2</ele>
        <time>2022-02-12T12:32:21Z</time>
      </trkpt>
      <trkpt lat="46.38454" lon="5.32364">
        <ele>224.2</ele>
        <time>2022-02-12T12:32:23Z</time>
      </trkpt>
      <trkpt lat="46.38442" lon="5.3237">
        <ele>224.2</ele>
        <time>2022-02-12T12:32:25Z</time>
      </trkpt>
      <trkpt lat="46.38436" lon="5.32375">
        <ele>224.2</ele>
        <time>2022-02-12T12:32:26Z</time>
      </trkpt>
      <trkpt lat="46.38431" lon="5.32382">
        <ele>224.2</ele>
        <time>2022-02-12T12:32:27Z</time>
      </trkpt>
      <trkpt lat="46.38418" lon="5.32405">
        <ele>224</ele>
        <time>2022-02-12T12:32:30Z</time>
      </trkpt>
      <trkpt lat="46.38412" lon="5.32421">
        <ele>224</ele>
        <time>2022-02-12T12:32:32Z</time>
      </trkpt>
      <trkpt lat="46.38409" lon="5.32439">
        <ele>223.8</ele>
        <time>2022-02-12T12:32:34Z</time>
      </trkpt>
      <trkpt lat="46.38408" lon="5.32448">
        <ele>223.8</ele>
        <time>2022-02-12T12:32:36Z</time>
      </trkpt>
      <trkpt lat="46.38402" lon="5.32482">
        <ele>223.8</ele>
        <time>2022-02-12T12:32:39Z</time>
      </trkpt>
      <trkpt lat="46.38399" lon="5.3249">
        <ele>223.8</ele>
        <time>2022-02-12T12:32:41Z</time>
      </trkpt>
      <trkpt lat="46.3839" lon="5.32502">
        <ele>223.8</ele>
        <time>2022-02-12T12:32:43Z</time>
      </trkpt>
      <trkpt lat="46.38378" lon="5.32504">
        <ele>223.8</ele>
        <time>2022-02-12T12:32:44Z</time>
      </trkpt>
      <trkpt lat="46.38371" lon="5.32504">
        <ele>223.8</ele>
        <time>2022-02-12T12:32:46Z</time>
      </trkpt>
      <trkpt lat="46.38332" lon="5.3249">
        <ele>223.8</ele>
        <time>2022-02-12T12:32:52Z</time>
      </trkpt>
      <trkpt lat="46.38274" lon="5.32474">
        <ele>223.8</ele>
        <time>2022-02-12T12:33:01Z</time>
      </trkpt>
      <trkpt lat="46.38267" lon="5.32473">
        <ele>223.8</ele>
        <time>2022-02-12T12:33:02Z</time>
      </trkpt>
      <trkpt lat="46.38248" lon="5.32471">
        <ele>223.8</ele>
        <time>2022-02-12T12:33:04Z</time>
      </trkpt>
      <trkpt lat="46.38242" lon="5.32469">
        <ele>223.8</ele>
        <time>2022-02-12T12:33:06Z</time>
      </trkpt>
      <trkpt lat="46.38236" lon="5.32465">
        <ele>223.8</ele>
        <time>2022-02-12T12:33:07Z</time>
      </trkpt>
      <trkpt lat="46.38194" lon="5.3243">
        <ele>223.4</ele>
        <time>2022-02-12T12:33:13Z</time>
      </trkpt>
      <trkpt lat="46.38151" lon="5.3239">
        <ele>223</ele>
        <time>2022-02-12T12:33:22Z</time>
      </trkpt>
      <trkpt lat="46.38129" lon="5.3237">
        <ele>223</ele>
        <time>2022-02-12T12:33:25Z</time>
      </trkpt>
      <trkpt lat="46.38115" lon="5.32351">
        <ele>223</ele>
        <time>2022-02-12T12:33:28Z</time>
      </trkpt>
      <trkpt lat="46.38115" lon="5.32351">
        <ele>223</ele>
        <time>2022-02-12T12:33:29Z</time>
      </trkpt>
      <trkpt lat="46.38107" lon="5.32336">
        <ele>223.2</ele>
        <time>2022-02-12T12:33:30Z</time>
      </trkpt>
      <trkpt lat="46.38095" lon="5.32305">
        <ele>223.2</ele>
        <time>2022-02-12T12:33:34Z</time>
      </trkpt>
      <trkpt lat="46.38084" lon="5.32285">
        <ele>223.2</ele>
        <time>2022-02-12T12:33:38Z</time>
      </trkpt>
      <trkpt lat="46.38077" lon="5.32276">
        <ele>223.2</ele>
        <time>2022-02-12T12:33:39Z</time>
      </trkpt>
      <trkpt lat="46.38058" lon="5.32258">
        <ele>223.6</ele>
        <time>2022-02-12T12:33:44Z</time>
      </trkpt>
      <trkpt lat="46.38055" lon="5.32252">
        <ele>223.6</ele>
        <time>2022-02-12T12:33:45Z</time>
      </trkpt>
      <trkpt lat="46.38052" lon="5.32245">
        <ele>224</ele>
        <time>2022-02-12T12:33:47Z</time>
      </trkpt>
      <trkpt lat="46.38044" lon="5.32212">
        <ele>224.6</ele>
        <time>2022-02-12T12:33:50Z</time>
      </trkpt>
      <trkpt lat="46.38042" lon="5.32203">
        <ele>224.8</ele>
        <time>2022-02-12T12:33:52Z</time>
      </trkpt>
      <trkpt lat="46.38028" lon="5.32159">
        <ele>224.8</ele>
        <time>2022-02-12T12:33:57Z</time>
      </trkpt>
      <trkpt lat="46.38004" lon="5.3211">
        <ele>224.2</ele>
        <time>2022-02-12T12:34:03Z</time>
      </trkpt>
      <trkpt lat="46.37983" lon="5.32078">
        <ele>223.6</ele>
        <time>2022-02-12T12:34:06Z</time>
      </trkpt>
      <trkpt lat="46.37962" lon="5.32038">
        <ele>222.6</ele>
        <time>2022-02-12T12:34:11Z</time>
      </trkpt>
      <trkpt lat="46.37962" lon="5.32038">
        <ele>222.6</ele>
        <time>2022-02-12T12:34:12Z</time>
      </trkpt>
      <trkpt lat="46.37948" lon="5.31993">
        <ele>222.2</ele>
        <time>2022-02-12T12:34:17Z</time>
      </trkpt>
      <trkpt lat="46.37937" lon="5.3194">
        <ele>222.4</ele>
        <time>2022-02-12T12:34:23Z</time>
      </trkpt>
      <trkpt lat="46.3792" lon="5.31894">
        <ele>222.4</ele>
        <time>2022-02-12T12:34:29Z</time>
      </trkpt>
      <trkpt lat="46.3789" lon="5.31845">
        <ele>222.4</ele>
        <time>2022-02-12T12:34:35Z</time>
      </trkpt>
      <trkpt lat="46.37852" lon="5.31791">
        <ele>221.6</ele>
        <time>2022-02-12T12:34:44Z</time>
      </trkpt>
      <trkpt lat="46.37816" lon="5.31737">
        <ele>221.2</ele>
        <time>2022-02-12T12:34:51Z</time>
      </trkpt>
      <trkpt lat="46.37774" lon="5.31677">
        <ele>221.2</ele>
        <time>2022-02-12T12:35:01Z</time>
      </trkpt>
      <trkpt lat="46.37736" lon="5.3162">
        <ele>220.6</ele>
        <time>2022-02-12T12:35:09Z</time>
      </trkpt>
      <trkpt lat="46.37731" lon="5.31613">
        <ele>220.6</ele>
        <time>2022-02-12T12:35:10Z</time>
      </trkpt>
      <trkpt lat="46.37688" lon="5.31551">
        <ele>220.4</ele>
        <time>2022-02-12T12:35:19Z</time>
      </trkpt>
      <trkpt lat="46.37679" lon="5.31537">
        <ele>220.4</ele>
        <time>2022-02-12T12:35:21Z</time>
      </trkpt>
      <trkpt lat="46.37637" lon="5.31476">
        <ele>219.6</ele>
        <time>2022-02-12T12:35:30Z</time>
      </trkpt>
      <trkpt lat="46.37614" lon="5.31442">
        <ele>219.6</ele>
        <time>2022-02-12T12:35:35Z</time>
      </trkpt>
      <trkpt lat="46.376" lon="5.31423">
        <ele>219.6</ele>
        <time>2022-02-12T12:35:38Z</time>
      </trkpt>
      <trkpt lat="46.37574" lon="5.31385">
        <ele>219.8</ele>
        <time>2022-02-12T12:35:44Z</time>
      </trkpt>
      <trkpt lat="46.37535" lon="5.31329">
        <ele>220</ele>
        <time>2022-02-12T12:35:53Z</time>
      </trkpt>
      <trkpt lat="46.37531" lon="5.31323">
        <ele>220</ele>
        <time>2022-02-12T12:35:54Z</time>
      </trkpt>
      <trkpt lat="46.3749" lon="5.31263">
        <ele>220.4</ele>
        <time>2022-02-12T12:36:03Z</time>
      </trkpt>
      <trkpt lat="46.37485" lon="5.31257">
        <ele>220.4</ele>
        <time>2022-02-12T12:36:04Z</time>
      </trkpt>
      <trkpt lat="46.37446" lon="5.31199">
        <ele>220.4</ele>
        <time>2022-02-12T12:36:13Z</time>
      </trkpt>
      <trkpt lat="46.37441" lon="5.31192">
        <ele>220.4</ele>
        <time>2022-02-12T12:36:14Z</time>
      </trkpt>
      <trkpt lat="46.37414" lon="5.31151">
        <ele>220.6</ele>
        <time>2022-02-12T12:36:19Z</time>
      </trkpt>
      <trkpt lat="46.37386" lon="5.31111">
        <ele>220</ele>
        <time>2022-02-12T12:36:26Z</time>
      </trkpt>
      <trkpt lat="46.37377" lon="5.31097">
        <ele>219.6</ele>
        <time>2022-02-12T12:36:28Z</time>
      </trkpt>
      <trkpt lat="46.37343" lon="5.31047">
        <ele>218.8</ele>
        <time>2022-02-12T12:36:35Z</time>
      </trkpt>
      <trkpt lat="46.37311" lon="5.31001">
        <ele>218.6</ele>
        <time>2022-02-12T12:36:41Z</time>
      </trkpt>
      <trkpt lat="46.37289" lon="5.30968">
        <ele>218.4</ele>
        <time>2022-02-12T12:36:46Z</time>
      </trkpt>
      <trkpt lat="46.37248" lon="5.30909">
        <ele>218.6</ele>
        <time>2022-02-12T12:36:56Z</time>
      </trkpt>
      <trkpt lat="46.37221" lon="5.3087">
        <ele>218.6</ele>
        <time>2022-02-12T12:37:01Z</time>
      </trkpt>
      <trkpt lat="46.37182" lon="5.30809">
        <ele>218.2</ele>
        <time>2022-02-12T12:37:10Z</time>
      </trkpt>
      <trkpt lat="46.37178" lon="5.30802">
        <ele>218.2</ele>
        <time>2022-02-12T12:37:11Z</time>
      </trkpt>
      <trkpt lat="46.37156" lon="5.3075">
        <ele>218.4</ele>
        <time>2022-02-12T12:37:18Z</time>
      </trkpt>
      <trkpt lat="46.37133" lon="5.30675">
        <ele>218.2</ele>
        <time>2022-02-12T12:37:27Z</time>
      </trkpt>
      <trkpt lat="46.37119" lon="5.30604">
        <ele>218.2</ele>
        <time>2022-02-12T12:37:35Z</time>
      </trkpt>
      <trkpt lat="46.37117" lon="5.30576">
        <ele>218.4</ele>
        <time>2022-02-12T12:37:38Z</time>
      </trkpt>
      <trkpt lat="46.37119" lon="5.30548">
        <ele>218.4</ele>
        <time>2022-02-12T12:37:41Z</time>
      </trkpt>
      <trkpt lat="46.37125" lon="5.30474">
        <ele>218.6</ele>
        <time>2022-02-12T12:37:49Z</time>
      </trkpt>
      <trkpt lat="46.37131" lon="5.30392">
        <ele>218.6</ele>
        <time>2022-02-12T12:37:58Z</time>
      </trkpt>
      <trkpt lat="46.37133" lon="5.30365">
        <ele>218.6</ele>
        <time>2022-02-12T12:38:01Z</time>
      </trkpt>
      <trkpt lat="46.3714" lon="5.3028">
        <ele>219.2</ele>
        <time>2022-02-12T12:38:11Z</time>
      </trkpt>
      <trkpt lat="46.37141" lon="5.30272">
        <ele>219.4</ele>
        <time>2022-02-12T12:38:12Z</time>
      </trkpt>
      <trkpt lat="46.37147" lon="5.30251">
        <ele>219.8</ele>
        <time>2022-02-12T12:38:16Z</time>
      </trkpt>
      <trkpt lat="46.37154" lon="5.30239">
        <ele>220</ele>
        <time>2022-02-12T12:38:18Z</time>
      </trkpt>
      <trkpt lat="46.37157" lon="5.30235">
        <ele>220</ele>
        <time>2022-02-12T12:38:19Z</time>
      </trkpt>
      <trkpt lat="46.37172" lon="5.30222">
        <ele>221</ele>
        <time>2022-02-12T12:38:22Z</time>
      </trkpt>
      <trkpt lat="46.37203" lon="5.30206">
        <ele>222.2</ele>
        <time>2022-02-12T12:38:29Z</time>
      </trkpt>
      <trkpt lat="46.37207" lon="5.30204">
        <ele>222.4</ele>
        <time>2022-02-12T12:38:30Z</time>
      </trkpt>
      <trkpt lat="46.37219" lon="5.30198">
        <ele>223.2</ele>
        <time>2022-02-12T12:38:34Z</time>
      </trkpt>
      <trkpt lat="46.37238" lon="5.30186">
        <ele>224.2</ele>
        <time>2022-02-12T12:38:38Z</time>
      </trkpt>
      <trkpt lat="46.37241" lon="5.30183">
        <ele>224.6</ele>
        <time>2022-02-12T12:38:39Z</time>
      </trkpt>
      <trkpt lat="46.37254" lon="5.30168">
        <ele>225.8</ele>
        <time>2022-02-12T12:38:43Z</time>
      </trkpt>
      <trkpt lat="46.37261" lon="5.30149">
        <ele>226.4</ele>
        <time>2022-02-12T12:38:47Z</time>
      </trkpt>
      <trkpt lat="46.37264" lon="5.30138">
        <ele>226.8</ele>
        <time>2022-02-12T12:38:49Z</time>
      </trkpt>
      <trkpt lat="46.37264" lon="5.30133">
        <ele>227</ele>
        <time>2022-02-12T12:38:50Z</time>
      </trkpt>
      <trkpt lat="46.37264" lon="5.30116">
        <ele>227.4</ele>
        <time>2022-02-12T12:38:53Z</time>
      </trkpt>
      <trkpt lat="46.37264" lon="5.3011">
        <ele>228</ele>
        <time>2022-02-12T12:38:54Z</time>
      </trkpt>
      <trkpt lat="46.37262" lon="5.30078">
        <ele>229</ele>
        <time>2022-02-12T12:39:00Z</time>
      </trkpt>
      <trkpt lat="46.37261" lon="5.30063">
        <ele>229.4</ele>
        <time>2022-02-12T12:39:03Z</time>
      </trkpt>
      <trkpt lat="46.3726" lon="5.30048">
        <ele>230.2</ele>
        <time>2022-02-12T12:39:06Z</time>
      </trkpt>
      <trkpt lat="46.3726" lon="5.30023">
        <ele>231</ele>
        <time>2022-02-12T12:39:11Z</time>
      </trkpt>
      <trkpt lat="46.3726" lon="5.30013">
        <ele>231.6</ele>
        <time>2022-02-12T12:39:13Z</time>
      </trkpt>
      <trkpt lat="46.37266" lon="5.29996">
        <ele>232.4</ele>
        <time>2022-02-12T12:39:17Z</time>
      </trkpt>
      <trkpt lat="46.37271" lon="5.29989">
        <ele>232.8</ele>
        <time>2022-02-12T12:39:19Z</time>
      </trkpt>
      <trkpt lat="46.37283" lon="5.29981">
        <ele>233.4</ele>
        <time>2022-02-12T12:39:23Z</time>
      </trkpt>
      <trkpt lat="46.37292" lon="5.29976">
        <ele>234</ele>
        <time>2022-02-12T12:39:26Z</time>
      </trkpt>
      <trkpt lat="46.37305" lon="5.29968">
        <ele>235</ele>
        <time>2022-02-12T12:39:30Z</time>
      </trkpt>
      <trkpt lat="46.37311" lon="5.29963">
        <ele>235.4</ele>
        <time>2022-02-12T12:39:32Z</time>
      </trkpt>
      <trkpt lat="46.37316" lon="5.2995">
        <ele>236.2</ele>
        <time>2022-02-12T12:39:35Z</time>
      </trkpt>
      <trkpt lat="46.37317" lon="5.2994">
        <ele>236.6</ele>
        <time>2022-02-12T12:39:37Z</time>
      </trkpt>
      <trkpt lat="46.37312" lon="5.29922">
        <ele>237.4</ele>
        <time>2022-02-12T12:39:41Z</time>
      </trkpt>
      <trkpt lat="46.37301" lon="5.29911">
        <ele>238.4</ele>
        <time>2022-02-12T12:39:45Z</time>
      </trkpt>
      <trkpt lat="46.37294" lon="5.29907">
        <ele>239</ele>
        <time>2022-02-12T12:39:47Z</time>
      </trkpt>
      <trkpt lat="46.37288" lon="5.29904">
        <ele>239.4</ele>
        <time>2022-02-12T12:39:49Z</time>
      </trkpt>
      <trkpt lat="46.37275" lon="5.29903">
        <ele>240.2</ele>
        <time>2022-02-12T12:39:53Z</time>
      </trkpt>
      <trkpt lat="46.37272" lon="5.29903">
        <ele>240.4</ele>
        <time>2022-02-12T12:39:54Z</time>
      </trkpt>
      <trkpt lat="46.37256" lon="5.29906">
        <ele>241.6</ele>
        <time>2022-02-12T12:39:59Z</time>
      </trkpt>
      <trkpt lat="46.37246" lon="5.29909">
        <ele>242</ele>
        <time>2022-02-12T12:40:02Z</time>
      </trkpt>
      <trkpt lat="46.37235" lon="5.29912">
        <ele>242.8</ele>
        <time>2022-02-12T12:40:05Z</time>
      </trkpt>
      <trkpt lat="46.37218" lon="5.29919">
        <ele>243.6</ele>
        <time>2022-02-12T12:40:09Z</time>
      </trkpt>
      <trkpt lat="46.37209" lon="5.29924">
        <ele>243.8</ele>
        <time>2022-02-12T12:40:11Z</time>
      </trkpt>
      <trkpt lat="46.37186" lon="5.29929">
        <ele>244.4</ele>
        <time>2022-02-12T12:40:16Z</time>
      </trkpt>
      <trkpt lat="46.37177" lon="5.29928">
        <ele>244.6</ele>
        <time>2022-02-12T12:40:18Z</time>
      </trkpt>
      <trkpt lat="46.37159" lon="5.2992">
        <ele>244.8</ele>
        <time>2022-02-12T12:40:22Z</time>
      </trkpt>
      <trkpt lat="46.37155" lon="5.29917">
        <ele>244.8</ele>
        <time>2022-02-12T12:40:23Z</time>
      </trkpt>
      <trkpt lat="46.3715" lon="5.29914">
        <ele>245.2</ele>
        <time>2022-02-12T12:40:24Z</time>
      </trkpt>
      <trkpt lat="46.37135" lon="5.29904">
        <ele>245.4</ele>
        <time>2022-02-12T12:40:27Z</time>
      </trkpt>
      <trkpt lat="46.37099" lon="5.29875">
        <ele>244.8</ele>
        <time>2022-02-12T12:40:33Z</time>
      </trkpt>
      <trkpt lat="46.37073" lon="5.29858">
        <ele>243.6</ele>
        <time>2022-02-12T12:40:37Z</time>
      </trkpt>
      <trkpt lat="46.37053" lon="5.29845">
        <ele>243</ele>
        <time>2022-02-12T12:40:40Z</time>
      </trkpt>
      <trkpt lat="46.37046" lon="5.29839">
        <ele>242.6</ele>
        <time>2022-02-12T12:40:41Z</time>
      </trkpt>
      <trkpt lat="46.37032" lon="5.29829">
        <ele>242</ele>
        <time>2022-02-12T12:40:43Z</time>
      </trkpt>
      <trkpt lat="46.37017" lon="5.29822">
        <ele>241.4</ele>
        <time>2022-02-12T12:40:45Z</time>
      </trkpt>
      <trkpt lat="46.36981" lon="5.2982">
        <ele>240.4</ele>
        <time>2022-02-12T12:40:50Z</time>
      </trkpt>
      <trkpt lat="46.36975" lon="5.29819">
        <ele>240.2</ele>
        <time>2022-02-12T12:40:51Z</time>
      </trkpt>
      <trkpt lat="46.36952" lon="5.29814">
        <ele>240.6</ele>
        <time>2022-02-12T12:40:55Z</time>
      </trkpt>
      <trkpt lat="46.36936" lon="5.29813">
        <ele>241.4</ele>
        <time>2022-02-12T12:40:58Z</time>
      </trkpt>
      <trkpt lat="46.36921" lon="5.29816">
        <ele>242</ele>
        <time>2022-02-12T12:41:01Z</time>
      </trkpt>
      <trkpt lat="46.36917" lon="5.29817">
        <ele>242.6</ele>
        <time>2022-02-12T12:41:02Z</time>
      </trkpt>
      <trkpt lat="46.36899" lon="5.29822">
        <ele>243.8</ele>
        <time>2022-02-12T12:41:06Z</time>
      </trkpt>
      <trkpt lat="46.36885" lon="5.29828">
        <ele>244.8</ele>
        <time>2022-02-12T12:41:09Z</time>
      </trkpt>
      <trkpt lat="46.36881" lon="5.29829">
        <ele>245</ele>
        <time>2022-02-12T12:41:10Z</time>
      </trkpt>
      <trkpt lat="46.36859" lon="5.29835">
        <ele>246.2</ele>
        <time>2022-02-12T12:41:15Z</time>
      </trkpt>
      <trkpt lat="46.36836" lon="5.29843">
        <ele>247.2</ele>
        <time>2022-02-12T12:41:20Z</time>
      </trkpt>
      <trkpt lat="46.3683" lon="5.29844">
        <ele>247.4</ele>
        <time>2022-02-12T12:41:21Z</time>
      </trkpt>
      <trkpt lat="46.36802" lon="5.29843">
        <ele>248.2</ele>
        <time>2022-02-12T12:41:26Z</time>
      </trkpt>
      <trkpt lat="46.36769" lon="5.29827">
        <ele>247.8</ele>
        <time>2022-02-12T12:41:31Z</time>
      </trkpt>
      <trkpt lat="46.36725" lon="5.29794">
        <ele>247</ele>
        <time>2022-02-12T12:41:38Z</time>
      </trkpt>
      <trkpt lat="46.36682" lon="5.2976">
        <ele>246.4</ele>
        <time>2022-02-12T12:41:45Z</time>
      </trkpt>
      <trkpt lat="46.36676" lon="5.29757">
        <ele>246.4</ele>
        <time>2022-02-12T12:41:46Z</time>
      </trkpt>
      <trkpt lat="46.36622" lon="5.29728">
        <ele>246.2</ele>
        <time>2022-02-12T12:41:55Z</time>
      </trkpt>
      <trkpt lat="46.36566" lon="5.297">
        <ele>246.8</ele>
        <time>2022-02-12T12:42:05Z</time>
      </trkpt>
      <trkpt lat="46.3656" lon="5.29697">
        <ele>246.8</ele>
        <time>2022-02-12T12:42:06Z</time>
      </trkpt>
      <trkpt lat="46.36506" lon="5.29678">
        <ele>247.2</ele>
        <time>2022-02-12T12:42:15Z</time>
      </trkpt>
      <trkpt lat="46.365" lon="5.29676">
        <ele>247.2</ele>
        <time>2022-02-12T12:42:16Z</time>
      </trkpt>
      <trkpt lat="46.36454" lon="5.29649">
        <ele>247</ele>
        <time>2022-02-12T12:42:24Z</time>
      </trkpt>
      <trkpt lat="46.36418" lon="5.29623">
        <ele>247.2</ele>
        <time>2022-02-12T12:42:31Z</time>
      </trkpt>
      <trkpt lat="46.36398" lon="5.29607">
        <ele>247.8</ele>
        <time>2022-02-12T12:42:35Z</time>
      </trkpt>
      <trkpt lat="46.36385" lon="5.29593">
        <ele>248</ele>
        <time>2022-02-12T12:42:38Z</time>
      </trkpt>
      <trkpt lat="46.36361" lon="5.29552">
        <ele>248.6</ele>
        <time>2022-02-12T12:42:45Z</time>
      </trkpt>
      <trkpt lat="46.36338" lon="5.29515">
        <ele>248.8</ele>
        <time>2022-02-12T12:42:51Z</time>
      </trkpt>
      <trkpt lat="46.3631" lon="5.29489">
        <ele>248.6</ele>
        <time>2022-02-12T12:42:56Z</time>
      </trkpt>
      <trkpt lat="46.36275" lon="5.29471">
        <ele>247.4</ele>
        <time>2022-02-12T12:43:01Z</time>
      </trkpt>
      <trkpt lat="46.36255" lon="5.29464">
        <ele>246.6</ele>
        <time>2022-02-12T12:43:04Z</time>
      </trkpt>
      <trkpt lat="46.3624" lon="5.29466">
        <ele>246.2</ele>
        <time>2022-02-12T12:43:06Z</time>
      </trkpt>
      <trkpt lat="46.3623" lon="5.29471">
        <ele>245.4</ele>
        <time>2022-02-12T12:43:08Z</time>
      </trkpt>
      <trkpt lat="46.36215" lon="5.29482">
        <ele>245.2</ele>
        <time>2022-02-12T12:43:11Z</time>
      </trkpt>
      <trkpt lat="46.36183" lon="5.29513">
        <ele>246.4</ele>
        <time>2022-02-12T12:43:18Z</time>
      </trkpt>
      <trkpt lat="46.36178" lon="5.29516">
        <ele>246.6</ele>
        <time>2022-02-12T12:43:19Z</time>
      </trkpt>
      <trkpt lat="46.36154" lon="5.29527">
        <ele>247.6</ele>
        <time>2022-02-12T12:43:23Z</time>
      </trkpt>
      <trkpt lat="46.36147" lon="5.29529">
        <ele>247.8</ele>
        <time>2022-02-12T12:43:24Z</time>
      </trkpt>
      <trkpt lat="46.36088" lon="5.29537">
        <ele>247</ele>
        <time>2022-02-12T12:43:32Z</time>
      </trkpt>
      <trkpt lat="46.36059" lon="5.2954">
        <ele>246.6</ele>
        <time>2022-02-12T12:43:36Z</time>
      </trkpt>
      <trkpt lat="46.36031" lon="5.29544">
        <ele>246.2</ele>
        <time>2022-02-12T12:43:40Z</time>
      </trkpt>
      <trkpt lat="46.35971" lon="5.29551">
        <ele>245.8</ele>
        <time>2022-02-12T12:43:49Z</time>
      </trkpt>
      <trkpt lat="46.35914" lon="5.29555">
        <ele>246</ele>
        <time>2022-02-12T12:43:58Z</time>
      </trkpt>
      <trkpt lat="46.35908" lon="5.29555">
        <ele>246</ele>
        <time>2022-02-12T12:43:59Z</time>
      </trkpt>
      <trkpt lat="46.35881" lon="5.29549">
        <ele>246.4</ele>
        <time>2022-02-12T12:44:04Z</time>
      </trkpt>
      <trkpt lat="46.35856" lon="5.29544">
        <ele>247.2</ele>
        <time>2022-02-12T12:44:09Z</time>
      </trkpt>
      <trkpt lat="46.35851" lon="5.29543">
        <ele>247.6</ele>
        <time>2022-02-12T12:44:10Z</time>
      </trkpt>
      <trkpt lat="46.3584" lon="5.29542">
        <ele>248</ele>
        <time>2022-02-12T12:44:12Z</time>
      </trkpt>
      <trkpt lat="46.35823" lon="5.29543">
        <ele>248.8</ele>
        <time>2022-02-12T12:44:15Z</time>
      </trkpt>
      <trkpt lat="46.35811" lon="5.29543">
        <ele>249.2</ele>
        <time>2022-02-12T12:44:17Z</time>
      </trkpt>
      <trkpt lat="46.35784" lon="5.29543">
        <ele>250</ele>
        <time>2022-02-12T12:44:22Z</time>
      </trkpt>
      <trkpt lat="46.35778" lon="5.29543">
        <ele>250.2</ele>
        <time>2022-02-12T12:44:23Z</time>
      </trkpt>
      <trkpt lat="46.35757" lon="5.29544">
        <ele>250.8</ele>
        <time>2022-02-12T12:44:27Z</time>
      </trkpt>
      <trkpt lat="46.3573" lon="5.29546">
        <ele>251.2</ele>
        <time>2022-02-12T12:44:32Z</time>
      </trkpt>
      <trkpt lat="46.3572" lon="5.29549">
        <ele>251.6</ele>
        <time>2022-02-12T12:44:34Z</time>
      </trkpt>
      <trkpt lat="46.35716" lon="5.2955">
        <ele>251.6</ele>
        <time>2022-02-12T12:44:35Z</time>
      </trkpt>
      <trkpt lat="46.35697" lon="5.29563">
        <ele>252</ele>
        <time>2022-02-12T12:44:39Z</time>
      </trkpt>
      <trkpt lat="46.35693" lon="5.29568">
        <ele>252.2</ele>
        <time>2022-02-12T12:44:40Z</time>
      </trkpt>
      <trkpt lat="46.35689" lon="5.29572">
        <ele>252.2</ele>
        <time>2022-02-12T12:44:41Z</time>
      </trkpt>
      <trkpt lat="46.35685" lon="5.29576">
        <ele>252.4</ele>
        <time>2022-02-12T12:44:42Z</time>
      </trkpt>
      <trkpt lat="46.35655" lon="5.29601">
        <ele>252.6</ele>
        <time>2022-02-12T12:44:48Z</time>
      </trkpt>
      <trkpt lat="46.35604" lon="5.29627">
        <ele>252.6</ele>
        <time>2022-02-12T12:44:57Z</time>
      </trkpt>
      <trkpt lat="46.35556" lon="5.29646">
        <ele>253</ele>
        <time>2022-02-12T12:45:05Z</time>
      </trkpt>
      <trkpt lat="46.3551" lon="5.29654">
        <ele>252.8</ele>
        <time>2022-02-12T12:45:12Z</time>
      </trkpt>
      <trkpt lat="46.35499" lon="5.29662">
        <ele>252.8</ele>
        <time>2022-02-12T12:45:14Z</time>
      </trkpt>
      <trkpt lat="46.35494" lon="5.29669">
        <ele>252.6</ele>
        <time>2022-02-12T12:45:15Z</time>
      </trkpt>
      <trkpt lat="46.35482" lon="5.29692">
        <ele>252.2</ele>
        <time>2022-02-12T12:45:18Z</time>
      </trkpt>
      <trkpt lat="46.35473" lon="5.29698">
        <ele>252</ele>
        <time>2022-02-12T12:45:20Z</time>
      </trkpt>
      <trkpt lat="46.35453" lon="5.29695">
        <ele>252</ele>
        <time>2022-02-12T12:45:23Z</time>
      </trkpt>
      <trkpt lat="46.35411" lon="5.29681">
        <ele>252.4</ele>
        <time>2022-02-12T12:45:30Z</time>
      </trkpt>
      <trkpt lat="46.35361" lon="5.29664">
        <ele>253</ele>
        <time>2022-02-12T12:45:38Z</time>
      </trkpt>
      <trkpt lat="46.35312" lon="5.29651">
        <ele>253.4</ele>
        <time>2022-02-12T12:45:46Z</time>
      </trkpt>
      <trkpt lat="46.35304" lon="5.29649">
        <ele>253.4</ele>
        <time>2022-02-12T12:45:47Z</time>
      </trkpt>
      <trkpt lat="46.35253" lon="5.29644">
        <ele>253.2</ele>
        <time>2022-02-12T12:45:55Z</time>
      </trkpt>
      <trkpt lat="46.35201" lon="5.29651">
        <ele>252.6</ele>
        <time>2022-02-12T12:46:03Z</time>
      </trkpt>
      <trkpt lat="46.35172" lon="5.29656">
        <ele>252.2</ele>
        <time>2022-02-12T12:46:07Z</time>
      </trkpt>
      <trkpt lat="46.35149" lon="5.29659">
        <ele>252</ele>
        <time>2022-02-12T12:46:10Z</time>
      </trkpt>
      <trkpt lat="46.35127" lon="5.29661">
        <ele>251.4</ele>
        <time>2022-02-12T12:46:13Z</time>
      </trkpt>
      <trkpt lat="46.35096" lon="5.29664">
        <ele>250.4</ele>
        <time>2022-02-12T12:46:17Z</time>
      </trkpt>
      <trkpt lat="46.35088" lon="5.29663">
        <ele>250.4</ele>
        <time>2022-02-12T12:46:18Z</time>
      </trkpt>
      <trkpt lat="46.35081" lon="5.29662">
        <ele>250.2</ele>
        <time>2022-02-12T12:46:19Z</time>
      </trkpt>
      <trkpt lat="46.35067" lon="5.29657">
        <ele>250</ele>
        <time>2022-02-12T12:46:21Z</time>
      </trkpt>
      <trkpt lat="46.35037" lon="5.29641">
        <ele>249.6</ele>
        <time>2022-02-12T12:46:26Z</time>
      </trkpt>
      <trkpt lat="46.35026" lon="5.29637">
        <ele>249.6</ele>
        <time>2022-02-12T12:46:28Z</time>
      </trkpt>
      <trkpt lat="46.3501" lon="5.29634">
        <ele>250</ele>
        <time>2022-02-12T12:46:31Z</time>
      </trkpt>
      <trkpt lat="46.35004" lon="5.29633">
        <ele>250</ele>
        <time>2022-02-12T12:46:32Z</time>
      </trkpt>
      <trkpt lat="46.34983" lon="5.29634">
        <ele>251</ele>
        <time>2022-02-12T12:46:36Z</time>
      </trkpt>
      <trkpt lat="46.34976" lon="5.29636">
        <ele>251.2</ele>
        <time>2022-02-12T12:46:37Z</time>
      </trkpt>
      <trkpt lat="46.34971" lon="5.29639">
        <ele>251.4</ele>
        <time>2022-02-12T12:46:38Z</time>
      </trkpt>
      <trkpt lat="46.34966" lon="5.29642">
        <ele>251.4</ele>
        <time>2022-02-12T12:46:39Z</time>
      </trkpt>
      <trkpt lat="46.34951" lon="5.29654">
        <ele>252.2</ele>
        <time>2022-02-12T12:46:42Z</time>
      </trkpt>
      <trkpt lat="46.34945" lon="5.29661">
        <ele>252.2</ele>
        <time>2022-02-12T12:46:43Z</time>
      </trkpt>
      <trkpt lat="46.34933" lon="5.29667">
        <ele>252.4</ele>
        <time>2022-02-12T12:46:45Z</time>
      </trkpt>
      <trkpt lat="46.34918" lon="5.29664">
        <ele>252.2</ele>
        <time>2022-02-12T12:46:47Z</time>
      </trkpt>
      <trkpt lat="46.34913" lon="5.29662">
        <ele>252.2</ele>
        <time>2022-02-12T12:46:48Z</time>
      </trkpt>
      <trkpt lat="46.34907" lon="5.29658">
        <ele>252.2</ele>
        <time>2022-02-12T12:46:49Z</time>
      </trkpt>
      <trkpt lat="46.34886" lon="5.29643">
        <ele>252.2</ele>
        <time>2022-02-12T12:46:53Z</time>
      </trkpt>
      <trkpt lat="46.34846" lon="5.29621">
        <ele>252.6</ele>
        <time>2022-02-12T12:47:00Z</time>
      </trkpt>
      <trkpt lat="46.34802" lon="5.29615">
        <ele>252.8</ele>
        <time>2022-02-12T12:47:07Z</time>
      </trkpt>
      <trkpt lat="46.34757" lon="5.29621">
        <ele>252.6</ele>
        <time>2022-02-12T12:47:14Z</time>
      </trkpt>
      <trkpt lat="46.3475" lon="5.29623">
        <ele>252.6</ele>
        <time>2022-02-12T12:47:15Z</time>
      </trkpt>
      <trkpt lat="46.34718" lon="5.29643">
        <ele>252</ele>
        <time>2022-02-12T12:47:20Z</time>
      </trkpt>
      <trkpt lat="46.34712" lon="5.29644">
        <ele>251.8</ele>
        <time>2022-02-12T12:47:21Z</time>
      </trkpt>
      <trkpt lat="46.34703" lon="5.29645">
        <ele>251.8</ele>
        <time>2022-02-12T12:47:22Z</time>
      </trkpt>
      <trkpt lat="46.34691" lon="5.29642">
        <ele>251.6</ele>
        <time>2022-02-12T12:47:24Z</time>
      </trkpt>
      <trkpt lat="46.34647" lon="5.29635">
        <ele>250.6</ele>
        <time>2022-02-12T12:47:30Z</time>
      </trkpt>
      <trkpt lat="46.34638" lon="5.29633">
        <ele>250.6</ele>
        <time>2022-02-12T12:47:31Z</time>
      </trkpt>
      <trkpt lat="46.34584" lon="5.2962">
        <ele>249.8</ele>
        <time>2022-02-12T12:47:39Z</time>
      </trkpt>
      <trkpt lat="46.34575" lon="5.29619">
        <ele>249.8</ele>
        <time>2022-02-12T12:47:40Z</time>
      </trkpt>
      <trkpt lat="46.34563" lon="5.29617">
        <ele>249.6</ele>
        <time>2022-02-12T12:47:42Z</time>
      </trkpt>
      <trkpt lat="46.3451" lon="5.29608">
        <ele>249.2</ele>
        <time>2022-02-12T12:47:50Z</time>
      </trkpt>
      <trkpt lat="46.34478" lon="5.29601">
        <ele>249.4</ele>
        <time>2022-02-12T12:47:55Z</time>
      </trkpt>
      <trkpt lat="46.34466" lon="5.29595">
        <ele>249.4</ele>
        <time>2022-02-12T12:47:57Z</time>
      </trkpt>
      <trkpt lat="46.34459" lon="5.29582">
        <ele>249.6</ele>
        <time>2022-02-12T12:47:59Z</time>
      </trkpt>
      <trkpt lat="46.34458" lon="5.29574">
        <ele>249.6</ele>
        <time>2022-02-12T12:48:00Z</time>
      </trkpt>
      <trkpt lat="46.34457" lon="5.29566">
        <ele>249.8</ele>
        <time>2022-02-12T12:48:01Z</time>
      </trkpt>
      <trkpt lat="46.34459" lon="5.29553">
        <ele>250</ele>
        <time>2022-02-12T12:48:03Z</time>
      </trkpt>
      <trkpt lat="46.34462" lon="5.29537">
        <ele>250.6</ele>
        <time>2022-02-12T12:48:05Z</time>
      </trkpt>
      <trkpt lat="46.34468" lon="5.29492">
        <ele>251.4</ele>
        <time>2022-02-12T12:48:11Z</time>
      </trkpt>
      <trkpt lat="46.34469" lon="5.29474">
        <ele>251.8</ele>
        <time>2022-02-12T12:48:13Z</time>
      </trkpt>
      <trkpt lat="46.34468" lon="5.2946">
        <ele>252</ele>
        <time>2022-02-12T12:48:15Z</time>
      </trkpt>
      <trkpt lat="46.34465" lon="5.29453">
        <ele>252</ele>
        <time>2022-02-12T12:48:16Z</time>
      </trkpt>
      <trkpt lat="46.34462" lon="5.29448">
        <ele>252.4</ele>
        <time>2022-02-12T12:48:17Z</time>
      </trkpt>
      <trkpt lat="46.34454" lon="5.29436">
        <ele>253.2</ele>
        <time>2022-02-12T12:48:19Z</time>
      </trkpt>
      <trkpt lat="46.34448" lon="5.29427">
        <ele>253.8</ele>
        <time>2022-02-12T12:48:21Z</time>
      </trkpt>
      <trkpt lat="46.34445" lon="5.2942">
        <ele>254.2</ele>
        <time>2022-02-12T12:48:22Z</time>
      </trkpt>
      <trkpt lat="46.34439" lon="5.2941">
        <ele>254.8</ele>
        <time>2022-02-12T12:48:24Z</time>
      </trkpt>
      <trkpt lat="46.34431" lon="5.29391">
        <ele>255.2</ele>
        <time>2022-02-12T12:48:27Z</time>
      </trkpt>
      <trkpt lat="46.34423" lon="5.29371">
        <ele>255.2</ele>
        <time>2022-02-12T12:48:30Z</time>
      </trkpt>
      <trkpt lat="46.34414" lon="5.29359">
        <ele>255</ele>
        <time>2022-02-12T12:48:32Z</time>
      </trkpt>
      <trkpt lat="46.34409" lon="5.29353">
        <ele>255</ele>
        <time>2022-02-12T12:48:33Z</time>
      </trkpt>
      <trkpt lat="46.34398" lon="5.29345">
        <ele>254.8</ele>
        <time>2022-02-12T12:48:35Z</time>
      </trkpt>
      <trkpt lat="46.34392" lon="5.29342">
        <ele>254.6</ele>
        <time>2022-02-12T12:48:36Z</time>
      </trkpt>
      <trkpt lat="46.34354" lon="5.29328">
        <ele>253.6</ele>
        <time>2022-02-12T12:48:42Z</time>
      </trkpt>
      <trkpt lat="46.34336" lon="5.29314">
        <ele>253.2</ele>
        <time>2022-02-12T12:48:45Z</time>
      </trkpt>
      <trkpt lat="46.34323" lon="5.29306">
        <ele>253.2</ele>
        <time>2022-02-12T12:48:47Z</time>
      </trkpt>
      <trkpt lat="46.34318" lon="5.29303">
        <ele>253.2</ele>
        <time>2022-02-12T12:48:48Z</time>
      </trkpt>
      <trkpt lat="46.34264" lon="5.29287">
        <ele>252.4</ele>
        <time>2022-02-12T12:48:56Z</time>
      </trkpt>
      <trkpt lat="46.34238" lon="5.2928">
        <ele>252.2</ele>
        <time>2022-02-12T12:49:00Z</time>
      </trkpt>
      <trkpt lat="46.34213" lon="5.29269">
        <ele>252.2</ele>
        <time>2022-02-12T12:49:04Z</time>
      </trkpt>
      <trkpt lat="46.34199" lon="5.29263">
        <ele>252</ele>
        <time>2022-02-12T12:49:06Z</time>
      </trkpt>
      <trkpt lat="46.34187" lon="5.29261">
        <ele>252</ele>
        <time>2022-02-12T12:49:08Z</time>
      </trkpt>
      <trkpt lat="46.3418" lon="5.29262">
        <ele>252</ele>
        <time>2022-02-12T12:49:09Z</time>
      </trkpt>
      <trkpt lat="46.3413" lon="5.2927">
        <ele>251.2</ele>
        <time>2022-02-12T12:49:16Z</time>
      </trkpt>
      <trkpt lat="46.34123" lon="5.29272">
        <ele>251.2</ele>
        <time>2022-02-12T12:49:17Z</time>
      </trkpt>
      <trkpt lat="46.34116" lon="5.29276">
        <ele>251</ele>
        <time>2022-02-12T12:49:18Z</time>
      </trkpt>
      <trkpt lat="46.34103" lon="5.29287">
        <ele>251</ele>
        <time>2022-02-12T12:49:20Z</time>
      </trkpt>
      <trkpt lat="46.34087" lon="5.29319">
        <ele>250.8</ele>
        <time>2022-02-12T12:49:24Z</time>
      </trkpt>
      <trkpt lat="46.34065" lon="5.29357">
        <ele>250.6</ele>
        <time>2022-02-12T12:49:29Z</time>
      </trkpt>
      <trkpt lat="46.3406" lon="5.29362">
        <ele>250.6</ele>
        <time>2022-02-12T12:49:30Z</time>
      </trkpt>
      <trkpt lat="46.34048" lon="5.2937">
        <ele>250.6</ele>
        <time>2022-02-12T12:49:32Z</time>
      </trkpt>
      <trkpt lat="46.34041" lon="5.29373">
        <ele>250.6</ele>
        <time>2022-02-12T12:49:33Z</time>
      </trkpt>
      <trkpt lat="46.34013" lon="5.29383">
        <ele>251</ele>
        <time>2022-02-12T12:49:38Z</time>
      </trkpt>
      <trkpt lat="46.34008" lon="5.29387">
        <ele>251.2</ele>
        <time>2022-02-12T12:49:39Z</time>
      </trkpt>
      <trkpt lat="46.34003" lon="5.29391">
        <ele>251.2</ele>
        <time>2022-02-12T12:49:40Z</time>
      </trkpt>
      <trkpt lat="46.33989" lon="5.29406">
        <ele>251.8</ele>
        <time>2022-02-12T12:49:43Z</time>
      </trkpt>
      <trkpt lat="46.33985" lon="5.29411">
        <ele>252</ele>
        <time>2022-02-12T12:49:44Z</time>
      </trkpt>
      <trkpt lat="46.33973" lon="5.2943">
        <ele>252.6</ele>
        <time>2022-02-12T12:49:47Z</time>
      </trkpt>
      <trkpt lat="46.33968" lon="5.29442">
        <ele>252.8</ele>
        <time>2022-02-12T12:49:49Z</time>
      </trkpt>
      <trkpt lat="46.33962" lon="5.29457">
        <ele>253.2</ele>
        <time>2022-02-12T12:49:51Z</time>
      </trkpt>
      <trkpt lat="46.33959" lon="5.29469">
        <ele>253.6</ele>
        <time>2022-02-12T12:49:53Z</time>
      </trkpt>
      <trkpt lat="46.33955" lon="5.29484">
        <ele>254</ele>
        <time>2022-02-12T12:49:55Z</time>
      </trkpt>
      <trkpt lat="46.33949" lon="5.29499">
        <ele>254.2</ele>
        <time>2022-02-12T12:49:57Z</time>
      </trkpt>
      <trkpt lat="46.3394" lon="5.29511">
        <ele>254.4</ele>
        <time>2022-02-12T12:49:59Z</time>
      </trkpt>
      <trkpt lat="46.33929" lon="5.29515">
        <ele>254.6</ele>
        <time>2022-02-12T12:50:01Z</time>
      </trkpt>
      <trkpt lat="46.33916" lon="5.29518">
        <ele>254.6</ele>
        <time>2022-02-12T12:50:03Z</time>
      </trkpt>
      <trkpt lat="46.33877" lon="5.29518">
        <ele>254.4</ele>
        <time>2022-02-12T12:50:09Z</time>
      </trkpt>
      <trkpt lat="46.33822" lon="5.29519">
        <ele>254.2</ele>
        <time>2022-02-12T12:50:18Z</time>
      </trkpt>
      <trkpt lat="46.33815" lon="5.29518">
        <ele>254.2</ele>
        <time>2022-02-12T12:50:19Z</time>
      </trkpt>
      <trkpt lat="46.33797" lon="5.29511">
        <ele>254.2</ele>
        <time>2022-02-12T12:50:22Z</time>
      </trkpt>
      <trkpt lat="46.33788" lon="5.29504">
        <ele>254.2</ele>
        <time>2022-02-12T12:50:24Z</time>
      </trkpt>
      <trkpt lat="46.33746" lon="5.29465">
        <ele>254.4</ele>
        <time>2022-02-12T12:50:32Z</time>
      </trkpt>
      <trkpt lat="46.33707" lon="5.2941">
        <ele>254.6</ele>
        <time>2022-02-12T12:50:41Z</time>
      </trkpt>
      <trkpt lat="46.33703" lon="5.29404">
        <ele>254.6</ele>
        <time>2022-02-12T12:50:42Z</time>
      </trkpt>
      <trkpt lat="46.33698" lon="5.29398">
        <ele>254.6</ele>
        <time>2022-02-12T12:50:43Z</time>
      </trkpt>
      <trkpt lat="46.33685" lon="5.2938">
        <ele>255.2</ele>
        <time>2022-02-12T12:50:46Z</time>
      </trkpt>
      <trkpt lat="46.33674" lon="5.2937">
        <ele>255.2</ele>
        <time>2022-02-12T12:50:48Z</time>
      </trkpt>
      <trkpt lat="46.33647" lon="5.29364">
        <ele>255.4</ele>
        <time>2022-02-12T12:50:52Z</time>
      </trkpt>
      <trkpt lat="46.33617" lon="5.29371">
        <ele>255.6</ele>
        <time>2022-02-12T12:50:57Z</time>
      </trkpt>
      <trkpt lat="46.33587" lon="5.29369">
        <ele>255.8</ele>
        <time>2022-02-12T12:51:02Z</time>
      </trkpt>
      <trkpt lat="46.33582" lon="5.29367">
        <ele>256</ele>
        <time>2022-02-12T12:51:03Z</time>
      </trkpt>
      <trkpt lat="46.33534" lon="5.29352">
        <ele>256.6</ele>
        <time>2022-02-12T12:51:11Z</time>
      </trkpt>
      <trkpt lat="46.33478" lon="5.2933">
        <ele>256.4</ele>
        <time>2022-02-12T12:51:20Z</time>
      </trkpt>
      <trkpt lat="46.33472" lon="5.29327">
        <ele>256.2</ele>
        <time>2022-02-12T12:51:21Z</time>
      </trkpt>
      <trkpt lat="46.33432" lon="5.29296">
        <ele>255.8</ele>
        <time>2022-02-12T12:51:28Z</time>
      </trkpt>
      <trkpt lat="46.33425" lon="5.29283">
        <ele>255.4</ele>
        <time>2022-02-12T12:51:30Z</time>
      </trkpt>
      <trkpt lat="46.33424" lon="5.29276">
        <ele>255.4</ele>
        <time>2022-02-12T12:51:31Z</time>
      </trkpt>
      <trkpt lat="46.33425" lon="5.29269">
        <ele>255.2</ele>
        <time>2022-02-12T12:51:32Z</time>
      </trkpt>
      <trkpt lat="46.33424" lon="5.29257">
        <ele>255.2</ele>
        <time>2022-02-12T12:51:34Z</time>
      </trkpt>
      <trkpt lat="46.33422" lon="5.29252">
        <ele>255.2</ele>
        <time>2022-02-12T12:51:35Z</time>
      </trkpt>
      <trkpt lat="46.33417" lon="5.29248">
        <ele>255</ele>
        <time>2022-02-12T12:51:36Z</time>
      </trkpt>
      <trkpt lat="46.33411" lon="5.29245">
        <ele>255</ele>
        <time>2022-02-12T12:51:37Z</time>
      </trkpt>
      <trkpt lat="46.33404" lon="5.29242">
        <ele>255</ele>
        <time>2022-02-12T12:51:38Z</time>
      </trkpt>
      <trkpt lat="46.33352" lon="5.29224">
        <ele>254.4</ele>
        <time>2022-02-12T12:51:46Z</time>
      </trkpt>
      <trkpt lat="46.33318" lon="5.29201">
        <ele>254.2</ele>
        <time>2022-02-12T12:51:52Z</time>
      </trkpt>
      <trkpt lat="46.33288" lon="5.29167">
        <ele>254</ele>
        <time>2022-02-12T12:51:58Z</time>
      </trkpt>
      <trkpt lat="46.33272" lon="5.29151">
        <ele>253.8</ele>
        <time>2022-02-12T12:52:01Z</time>
      </trkpt>
      <trkpt lat="46.33255" lon="5.29141">
        <ele>253.6</ele>
        <time>2022-02-12T12:52:04Z</time>
      </trkpt>
      <trkpt lat="46.33244" lon="5.29137">
        <ele>253.6</ele>
        <time>2022-02-12T12:52:06Z</time>
      </trkpt>
      <trkpt lat="46.33225" lon="5.29136">
        <ele>253.2</ele>
        <time>2022-02-12T12:52:09Z</time>
      </trkpt>
      <trkpt lat="46.33174" lon="5.29127">
        <ele>253.4</ele>
        <time>2022-02-12T12:52:18Z</time>
      </trkpt>
      <trkpt lat="46.33134" lon="5.29114">
        <ele>254</ele>
        <time>2022-02-12T12:52:26Z</time>
      </trkpt>
      <trkpt lat="46.3309" lon="5.29084">
        <ele>255</ele>
        <time>2022-02-12T12:52:34Z</time>
      </trkpt>
      <trkpt lat="46.3308" lon="5.29078">
        <ele>255</ele>
        <time>2022-02-12T12:52:36Z</time>
      </trkpt>
      <trkpt lat="46.33041" lon="5.29052">
        <ele>255.2</ele>
        <time>2022-02-12T12:52:43Z</time>
      </trkpt>
      <trkpt lat="46.32989" lon="5.29019">
        <ele>255</ele>
        <time>2022-02-12T12:52:52Z</time>
      </trkpt>
      <trkpt lat="46.32982" lon="5.29015">
        <ele>255</ele>
        <time>2022-02-12T12:52:53Z</time>
      </trkpt>
      <trkpt lat="46.3293" lon="5.28986">
        <ele>254.6</ele>
        <time>2022-02-12T12:53:02Z</time>
      </trkpt>
      <trkpt lat="46.32918" lon="5.2898">
        <ele>254.6</ele>
        <time>2022-02-12T12:53:04Z</time>
      </trkpt>
      <trkpt lat="46.32864" lon="5.28951">
        <ele>254.4</ele>
        <time>2022-02-12T12:53:13Z</time>
      </trkpt>
      <trkpt lat="46.32845" lon="5.28942">
        <ele>254.2</ele>
        <time>2022-02-12T12:53:16Z</time>
      </trkpt>
      <trkpt lat="46.32839" lon="5.28939">
        <ele>254</ele>
        <time>2022-02-12T12:53:17Z</time>
      </trkpt>
      <trkpt lat="46.32784" lon="5.28913">
        <ele>253.6</ele>
        <time>2022-02-12T12:53:26Z</time>
      </trkpt>
      <trkpt lat="46.32765" lon="5.28904">
        <ele>253.6</ele>
        <time>2022-02-12T12:53:29Z</time>
      </trkpt>
      <trkpt lat="46.3271" lon="5.28884">
        <ele>253.4</ele>
        <time>2022-02-12T12:53:38Z</time>
      </trkpt>
      <trkpt lat="46.32703" lon="5.28882">
        <ele>253.4</ele>
        <time>2022-02-12T12:53:39Z</time>
      </trkpt>
      <trkpt lat="46.32649" lon="5.2886">
        <ele>253.4</ele>
        <time>2022-02-12T12:53:48Z</time>
      </trkpt>
      <trkpt lat="46.32636" lon="5.28854">
        <ele>253.4</ele>
        <time>2022-02-12T12:53:50Z</time>
      </trkpt>
      <trkpt lat="46.32588" lon="5.28833">
        <ele>253</ele>
        <time>2022-02-12T12:53:57Z</time>
      </trkpt>
      <trkpt lat="46.32581" lon="5.2883">
        <ele>252.8</ele>
        <time>2022-02-12T12:53:58Z</time>
      </trkpt>
      <trkpt lat="46.32544" lon="5.2881">
        <ele>252.4</ele>
        <time>2022-02-12T12:54:03Z</time>
      </trkpt>
      <trkpt lat="46.32539" lon="5.28806">
        <ele>252.4</ele>
        <time>2022-02-12T12:54:04Z</time>
      </trkpt>
      <trkpt lat="46.32513" lon="5.28773">
        <ele>252.2</ele>
        <time>2022-02-12T12:54:09Z</time>
      </trkpt>
      <trkpt lat="46.32465" lon="5.28721">
        <ele>252.6</ele>
        <time>2022-02-12T12:54:18Z</time>
      </trkpt>
      <trkpt lat="46.32432" lon="5.28682">
        <ele>253</ele>
        <time>2022-02-12T12:54:25Z</time>
      </trkpt>
      <trkpt lat="46.32393" lon="5.28622">
        <ele>253.8</ele>
        <time>2022-02-12T12:54:34Z</time>
      </trkpt>
      <trkpt lat="46.32387" lon="5.28617">
        <ele>253.8</ele>
        <time>2022-02-12T12:54:35Z</time>
      </trkpt>
      <trkpt lat="46.32365" lon="5.28601">
        <ele>253.6</ele>
        <time>2022-02-12T12:54:39Z</time>
      </trkpt>
      <trkpt lat="46.32321" lon="5.28572">
        <ele>253.8</ele>
        <time>2022-02-12T12:54:47Z</time>
      </trkpt>
      <trkpt lat="46.32272" lon="5.28531">
        <ele>253.8</ele>
        <time>2022-02-12T12:54:56Z</time>
      </trkpt>
      <trkpt lat="46.32253" lon="5.2852">
        <ele>253.6</ele>
        <time>2022-02-12T12:54:59Z</time>
      </trkpt>
      <trkpt lat="46.3224" lon="5.28517">
        <ele>253.4</ele>
        <time>2022-02-12T12:55:01Z</time>
      </trkpt>
      <trkpt lat="46.32185" lon="5.28512">
        <ele>253</ele>
        <time>2022-02-12T12:55:09Z</time>
      </trkpt>
      <trkpt lat="46.32149" lon="5.28498">
        <ele>252.8</ele>
        <time>2022-02-12T12:55:15Z</time>
      </trkpt>
      <trkpt lat="46.32091" lon="5.28474">
        <ele>252.2</ele>
        <time>2022-02-12T12:55:24Z</time>
      </trkpt>
      <trkpt lat="46.32083" lon="5.28473">
        <ele>252.2</ele>
        <time>2022-02-12T12:55:25Z</time>
      </trkpt>
      <trkpt lat="46.32047" lon="5.28462">
        <ele>251.2</ele>
        <time>2022-02-12T12:55:30Z</time>
      </trkpt>
      <trkpt lat="46.32041" lon="5.28458">
        <ele>251.2</ele>
        <time>2022-02-12T12:55:31Z</time>
      </trkpt>
      <trkpt lat="46.32009" lon="5.28432">
        <ele>250.6</ele>
        <time>2022-02-12T12:55:36Z</time>
      </trkpt>
      <trkpt lat="46.31996" lon="5.28424">
        <ele>250.4</ele>
        <time>2022-02-12T12:55:38Z</time>
      </trkpt>
      <trkpt lat="46.31982" lon="5.28419">
        <ele>250.4</ele>
        <time>2022-02-12T12:55:40Z</time>
      </trkpt>
      <trkpt lat="46.31966" lon="5.28415">
        <ele>250.2</ele>
        <time>2022-02-12T12:55:42Z</time>
      </trkpt>
      <trkpt lat="46.31923" lon="5.28404">
        <ele>249.4</ele>
        <time>2022-02-12T12:55:48Z</time>
      </trkpt>
      <trkpt lat="46.31915" lon="5.28401">
        <ele>249</ele>
        <time>2022-02-12T12:55:49Z</time>
      </trkpt>
      <trkpt lat="46.31873" lon="5.28384">
        <ele>248</ele>
        <time>2022-02-12T12:55:55Z</time>
      </trkpt>
      <trkpt lat="46.31837" lon="5.28381">
        <ele>247.4</ele>
        <time>2022-02-12T12:56:00Z</time>
      </trkpt>
      <trkpt lat="46.31807" lon="5.28377">
        <ele>247</ele>
        <time>2022-02-12T12:56:04Z</time>
      </trkpt>
      <trkpt lat="46.31799" lon="5.28377">
        <ele>246.8</ele>
        <time>2022-02-12T12:56:05Z</time>
      </trkpt>
      <trkpt lat="46.31784" lon="5.28383">
        <ele>246.4</ele>
        <time>2022-02-12T12:56:07Z</time>
      </trkpt>
      <trkpt lat="46.31768" lon="5.2839">
        <ele>246</ele>
        <time>2022-02-12T12:56:09Z</time>
      </trkpt>
      <trkpt lat="46.31759" lon="5.2839">
        <ele>245.6</ele>
        <time>2022-02-12T12:56:10Z</time>
      </trkpt>
      <trkpt lat="46.31744" lon="5.28385">
        <ele>244.4</ele>
        <time>2022-02-12T12:56:12Z</time>
      </trkpt>
      <trkpt lat="46.31707" lon="5.28372">
        <ele>242.4</ele>
        <time>2022-02-12T12:56:16Z</time>
      </trkpt>
      <trkpt lat="46.31689" lon="5.28364">
        <ele>241.2</ele>
        <time>2022-02-12T12:56:18Z</time>
      </trkpt>
      <trkpt lat="46.31679" lon="5.2836">
        <ele>240.8</ele>
        <time>2022-02-12T12:56:19Z</time>
      </trkpt>
      <trkpt lat="46.3167" lon="5.28356">
        <ele>240</ele>
        <time>2022-02-12T12:56:20Z</time>
      </trkpt>
      <trkpt lat="46.31642" lon="5.28343">
        <ele>238.4</ele>
        <time>2022-02-12T12:56:23Z</time>
      </trkpt>
      <trkpt lat="46.31624" lon="5.28335">
        <ele>237.4</ele>
        <time>2022-02-12T12:56:25Z</time>
      </trkpt>
      <trkpt lat="46.31606" lon="5.28328">
        <ele>236.8</ele>
        <time>2022-02-12T12:56:27Z</time>
      </trkpt>
      <trkpt lat="46.31587" lon="5.28322">
        <ele>236.2</ele>
        <time>2022-02-12T12:56:29Z</time>
      </trkpt>
      <trkpt lat="46.31568" lon="5.28315">
        <ele>235.2</ele>
        <time>2022-02-12T12:56:31Z</time>
      </trkpt>
      <trkpt lat="46.31548" lon="5.28308">
        <ele>234.2</ele>
        <time>2022-02-12T12:56:33Z</time>
      </trkpt>
      <trkpt lat="46.31539" lon="5.28304">
        <ele>233.6</ele>
        <time>2022-02-12T12:56:34Z</time>
      </trkpt>
      <trkpt lat="46.31521" lon="5.28294">
        <ele>232.8</ele>
        <time>2022-02-12T12:56:36Z</time>
      </trkpt>
      <trkpt lat="46.31502" lon="5.28285">
        <ele>231.4</ele>
        <time>2022-02-12T12:56:38Z</time>
      </trkpt>
      <trkpt lat="46.31488" lon="5.28278">
        <ele>230.2</ele>
        <time>2022-02-12T12:56:40Z</time>
      </trkpt>
      <trkpt lat="46.31437" lon="5.28262">
        <ele>229.2</ele>
        <time>2022-02-12T12:56:46Z</time>
      </trkpt>
      <trkpt lat="46.31429" lon="5.28261">
        <ele>229</ele>
        <time>2022-02-12T12:56:47Z</time>
      </trkpt>
      <trkpt lat="46.31405" lon="5.28263">
        <ele>228.6</ele>
        <time>2022-02-12T12:56:50Z</time>
      </trkpt>
      <trkpt lat="46.31383" lon="5.28267">
        <ele>228.4</ele>
        <time>2022-02-12T12:56:53Z</time>
      </trkpt>
      <trkpt lat="46.31369" lon="5.28274">
        <ele>228.4</ele>
        <time>2022-02-12T12:56:55Z</time>
      </trkpt>
      <trkpt lat="46.31356" lon="5.28281">
        <ele>228.4</ele>
        <time>2022-02-12T12:56:57Z</time>
      </trkpt>
      <trkpt lat="46.31343" lon="5.28276">
        <ele>228.4</ele>
        <time>2022-02-12T12:56:59Z</time>
      </trkpt>
      <trkpt lat="46.31328" lon="5.28257">
        <ele>228.2</ele>
        <time>2022-02-12T12:57:02Z</time>
      </trkpt>
      <trkpt lat="46.31322" lon="5.28253">
        <ele>228.2</ele>
        <time>2022-02-12T12:57:03Z</time>
      </trkpt>
      <trkpt lat="46.31315" lon="5.28251">
        <ele>228.2</ele>
        <time>2022-02-12T12:57:04Z</time>
      </trkpt>
      <trkpt lat="46.31301" lon="5.28252">
        <ele>228.4</ele>
        <time>2022-02-12T12:57:06Z</time>
      </trkpt>
      <trkpt lat="46.31253" lon="5.28259">
        <ele>228.4</ele>
        <time>2022-02-12T12:57:13Z</time>
      </trkpt>
      <trkpt lat="46.31195" lon="5.28265">
        <ele>229.2</ele>
        <time>2022-02-12T12:57:22Z</time>
      </trkpt>
      <trkpt lat="46.3116" lon="5.28267">
        <ele>230</ele>
        <time>2022-02-12T12:57:28Z</time>
      </trkpt>
      <trkpt lat="46.31144" lon="5.28269">
        <ele>230.2</ele>
        <time>2022-02-12T12:57:31Z</time>
      </trkpt>
      <trkpt lat="46.31115" lon="5.28271">
        <ele>230.6</ele>
        <time>2022-02-12T12:57:37Z</time>
      </trkpt>
      <trkpt lat="46.31096" lon="5.28273">
        <ele>231.4</ele>
        <time>2022-02-12T12:57:41Z</time>
      </trkpt>
      <trkpt lat="46.31079" lon="5.28275">
        <ele>232.2</ele>
        <time>2022-02-12T12:57:45Z</time>
      </trkpt>
      <trkpt lat="46.31074" lon="5.28275">
        <ele>232.4</ele>
        <time>2022-02-12T12:57:46Z</time>
      </trkpt>
      <trkpt lat="46.31054" lon="5.28277">
        <ele>233.2</ele>
        <time>2022-02-12T12:57:51Z</time>
      </trkpt>
      <trkpt lat="46.3105" lon="5.28277">
        <ele>233.4</ele>
        <time>2022-02-12T12:57:52Z</time>
      </trkpt>
      <trkpt lat="46.31032" lon="5.28279">
        <ele>234.4</ele>
        <time>2022-02-12T12:57:57Z</time>
      </trkpt>
      <trkpt lat="46.31029" lon="5.28279">
        <ele>234.8</ele>
        <time>2022-02-12T12:57:58Z</time>
      </trkpt>
      <trkpt lat="46.3102" lon="5.28279">
        <ele>235.6</ele>
        <time>2022-02-12T12:58:01Z</time>
      </trkpt>
      <trkpt lat="46.31015" lon="5.28279">
        <ele>236</ele>
        <time>2022-02-12T12:58:03Z</time>
      </trkpt>
      <trkpt lat="46.31009" lon="5.2828">
        <ele>236.8</ele>
        <time>2022-02-12T12:58:05Z</time>
      </trkpt>
      <trkpt lat="46.31" lon="5.2828">
        <ele>237.6</ele>
        <time>2022-02-12T12:58:09Z</time>
      </trkpt>
      <trkpt lat="46.30997" lon="5.2828">
        <ele>238</ele>
        <time>2022-02-12T12:58:10Z</time>
      </trkpt>
      <trkpt lat="46.30986" lon="5.28276">
        <ele>239.2</ele>
        <time>2022-02-12T12:58:14Z</time>
      </trkpt>
      <trkpt lat="46.30983" lon="5.28276">
        <ele>239.4</ele>
        <time>2022-02-12T12:58:15Z</time>
      </trkpt>
      <trkpt lat="46.30974" lon="5.28274">
        <ele>240.4</ele>
        <time>2022-02-12T12:58:18Z</time>
      </trkpt>
      <trkpt lat="46.30957" lon="5.28275">
        <ele>241</ele>
        <time>2022-02-12T12:58:22Z</time>
      </trkpt>
      <trkpt lat="46.3095" lon="5.28273">
        <ele>241.4</ele>
        <time>2022-02-12T12:58:24Z</time>
      </trkpt>
      <trkpt lat="46.30937" lon="5.28271">
        <ele>242.6</ele>
        <time>2022-02-12T12:58:28Z</time>
      </trkpt>
      <trkpt lat="46.30923" lon="5.28271">
        <ele>243.6</ele>
        <time>2022-02-12T12:58:32Z</time>
      </trkpt>
      <trkpt lat="46.3092" lon="5.28271">
        <ele>243.8</ele>
        <time>2022-02-12T12:58:33Z</time>
      </trkpt>
      <trkpt lat="46.30906" lon="5.28269">
        <ele>244.8</ele>
        <time>2022-02-12T12:58:37Z</time>
      </trkpt>
      <trkpt lat="46.30897" lon="5.28268">
        <ele>245.4</ele>
        <time>2022-02-12T12:58:40Z</time>
      </trkpt>
      <trkpt lat="46.30888" lon="5.28267">
        <ele>246</ele>
        <time>2022-02-12T12:58:43Z</time>
      </trkpt>
      <trkpt lat="46.30871" lon="5.28264">
        <ele>247</ele>
        <time>2022-02-12T12:58:48Z</time>
      </trkpt>
      <trkpt lat="46.30861" lon="5.28262">
        <ele>247.4</ele>
        <time>2022-02-12T12:58:51Z</time>
      </trkpt>
      <trkpt lat="46.30843" lon="5.2826">
        <ele>248</ele>
        <time>2022-02-12T12:58:56Z</time>
      </trkpt>
      <trkpt lat="46.30829" lon="5.28257">
        <ele>248.8</ele>
        <time>2022-02-12T12:59:00Z</time>
      </trkpt>
      <trkpt lat="46.30817" lon="5.28256">
        <ele>249.2</ele>
        <time>2022-02-12T12:59:03Z</time>
      </trkpt>
      <trkpt lat="46.30806" lon="5.28253">
        <ele>249.8</ele>
        <time>2022-02-12T12:59:06Z</time>
      </trkpt>
      <trkpt lat="46.30795" lon="5.2825">
        <ele>250.2</ele>
        <time>2022-02-12T12:59:09Z</time>
      </trkpt>
      <trkpt lat="46.30779" lon="5.28248">
        <ele>251</ele>
        <time>2022-02-12T12:59:13Z</time>
      </trkpt>
      <trkpt lat="46.30764" lon="5.28246">
        <ele>251.4</ele>
        <time>2022-02-12T12:59:17Z</time>
      </trkpt>
      <trkpt lat="46.30747" lon="5.28243">
        <ele>252</ele>
        <time>2022-02-12T12:59:21Z</time>
      </trkpt>
      <trkpt lat="46.30716" lon="5.28238">
        <ele>252.4</ele>
        <time>2022-02-12T12:59:28Z</time>
      </trkpt>
      <trkpt lat="46.30703" lon="5.28236">
        <ele>252.8</ele>
        <time>2022-02-12T12:59:31Z</time>
      </trkpt>
      <trkpt lat="46.30671" lon="5.28231">
        <ele>253.6</ele>
        <time>2022-02-12T12:59:38Z</time>
      </trkpt>
      <trkpt lat="46.30648" lon="5.28227">
        <ele>253.8</ele>
        <time>2022-02-12T12:59:43Z</time>
      </trkpt>
      <trkpt lat="46.30643" lon="5.28226">
        <ele>254</ele>
        <time>2022-02-12T12:59:44Z</time>
      </trkpt>
      <trkpt lat="46.30614" lon="5.28225">
        <ele>254.6</ele>
        <time>2022-02-12T12:59:50Z</time>
      </trkpt>
      <trkpt lat="46.3057" lon="5.28232">
        <ele>254.6</ele>
        <time>2022-02-12T12:59:58Z</time>
      </trkpt>
      <trkpt lat="46.30548" lon="5.28239">
        <ele>254.6</ele>
        <time>2022-02-12T13:00:02Z</time>
      </trkpt>
      <trkpt lat="46.30538" lon="5.28243">
        <ele>254.6</ele>
        <time>2022-02-12T13:00:04Z</time>
      </trkpt>
      <trkpt lat="46.30487" lon="5.28262">
        <ele>255</ele>
        <time>2022-02-12T13:00:13Z</time>
      </trkpt>
      <trkpt lat="46.30447" lon="5.2827">
        <ele>255.2</ele>
        <time>2022-02-12T13:00:20Z</time>
      </trkpt>
      <trkpt lat="46.30399" lon="5.28269">
        <ele>255.6</ele>
        <time>2022-02-12T13:00:28Z</time>
      </trkpt>
      <trkpt lat="46.30358" lon="5.28256">
        <ele>255.6</ele>
        <time>2022-02-12T13:00:35Z</time>
      </trkpt>
      <trkpt lat="46.30346" lon="5.28251">
        <ele>255.4</ele>
        <time>2022-02-12T13:00:37Z</time>
      </trkpt>
      <trkpt lat="46.30323" lon="5.28237">
        <ele>254.8</ele>
        <time>2022-02-12T13:00:41Z</time>
      </trkpt>
      <trkpt lat="46.30318" lon="5.28235">
        <ele>254.6</ele>
        <time>2022-02-12T13:00:42Z</time>
      </trkpt>
      <trkpt lat="46.30308" lon="5.28238">
        <ele>254.4</ele>
        <time>2022-02-12T13:00:44Z</time>
      </trkpt>
      <trkpt lat="46.30304" lon="5.28254">
        <ele>253.4</ele>
        <time>2022-02-12T13:00:46Z</time>
      </trkpt>
      <trkpt lat="46.30303" lon="5.28264">
        <ele>253.2</ele>
        <time>2022-02-12T13:00:47Z</time>
      </trkpt>
      <trkpt lat="46.30298" lon="5.28299">
        <ele>252.2</ele>
        <time>2022-02-12T13:00:50Z</time>
      </trkpt>
      <trkpt lat="46.30292" lon="5.28324">
        <ele>251.4</ele>
        <time>2022-02-12T13:00:52Z</time>
      </trkpt>
      <trkpt lat="46.30289" lon="5.28338">
        <ele>251.2</ele>
        <time>2022-02-12T13:00:53Z</time>
      </trkpt>
      <trkpt lat="46.30283" lon="5.28366">
        <ele>249.6</ele>
        <time>2022-02-12T13:00:55Z</time>
      </trkpt>
      <trkpt lat="46.30276" lon="5.28396">
        <ele>248.2</ele>
        <time>2022-02-12T13:00:57Z</time>
      </trkpt>
      <trkpt lat="46.30272" lon="5.28412">
        <ele>247.8</ele>
        <time>2022-02-12T13:00:58Z</time>
      </trkpt>
      <trkpt lat="46.30268" lon="5.28427">
        <ele>246.8</ele>
        <time>2022-02-12T13:00:59Z</time>
      </trkpt>
      <trkpt lat="46.3026" lon="5.28458">
        <ele>245.6</ele>
        <time>2022-02-12T13:01:01Z</time>
      </trkpt>
      <trkpt lat="46.30252" lon="5.2849">
        <ele>243.8</ele>
        <time>2022-02-12T13:01:03Z</time>
      </trkpt>
      <trkpt lat="46.30243" lon="5.2852">
        <ele>242.4</ele>
        <time>2022-02-12T13:01:05Z</time>
      </trkpt>
      <trkpt lat="46.3024" lon="5.28536">
        <ele>241.4</ele>
        <time>2022-02-12T13:01:06Z</time>
      </trkpt>
      <trkpt lat="46.30232" lon="5.28567">
        <ele>240</ele>
        <time>2022-02-12T13:01:08Z</time>
      </trkpt>
      <trkpt lat="46.30224" lon="5.28598">
        <ele>239</ele>
        <time>2022-02-12T13:01:10Z</time>
      </trkpt>
      <trkpt lat="46.30216" lon="5.28628">
        <ele>238</ele>
        <time>2022-02-12T13:01:12Z</time>
      </trkpt>
      <trkpt lat="46.30209" lon="5.28657">
        <ele>236.8</ele>
        <time>2022-02-12T13:01:14Z</time>
      </trkpt>
      <trkpt lat="46.30206" lon="5.2867">
        <ele>236.6</ele>
        <time>2022-02-12T13:01:15Z</time>
      </trkpt>
      <trkpt lat="46.30202" lon="5.28681">
        <ele>236.4</ele>
        <time>2022-02-12T13:01:16Z</time>
      </trkpt>
      <trkpt lat="46.30192" lon="5.28703">
        <ele>236</ele>
        <time>2022-02-12T13:01:18Z</time>
      </trkpt>
      <trkpt lat="46.30187" lon="5.28713">
        <ele>235.8</ele>
        <time>2022-02-12T13:01:19Z</time>
      </trkpt>
      <trkpt lat="46.30156" lon="5.28777">
        <ele>235.2</ele>
        <time>2022-02-12T13:01:25Z</time>
      </trkpt>
      <trkpt lat="46.30147" lon="5.28797">
        <ele>234.6</ele>
        <time>2022-02-12T13:01:27Z</time>
      </trkpt>
      <trkpt lat="46.30139" lon="5.28818">
        <ele>234.4</ele>
        <time>2022-02-12T13:01:29Z</time>
      </trkpt>
      <trkpt lat="46.30136" lon="5.28828">
        <ele>234.2</ele>
        <time>2022-02-12T13:01:30Z</time>
      </trkpt>
      <trkpt lat="46.30129" lon="5.2888">
        <ele>234</ele>
        <time>2022-02-12T13:01:35Z</time>
      </trkpt>
      <trkpt lat="46.30125" lon="5.28898">
        <ele>234</ele>
        <time>2022-02-12T13:01:37Z</time>
      </trkpt>
      <trkpt lat="46.30119" lon="5.2891">
        <ele>234.6</ele>
        <time>2022-02-12T13:01:39Z</time>
      </trkpt>
      <trkpt lat="46.30099" lon="5.28932">
        <ele>236</ele>
        <time>2022-02-12T13:01:44Z</time>
      </trkpt>
      <trkpt lat="46.30081" lon="5.28944">
        <ele>236.8</ele>
        <time>2022-02-12T13:01:48Z</time>
      </trkpt>
      <trkpt lat="46.30077" lon="5.28945">
        <ele>237.4</ele>
        <time>2022-02-12T13:01:49Z</time>
      </trkpt>
      <trkpt lat="46.30073" lon="5.28947">
        <ele>237.6</ele>
        <time>2022-02-12T13:01:50Z</time>
      </trkpt>
      <trkpt lat="46.30063" lon="5.2895">
        <ele>238.4</ele>
        <time>2022-02-12T13:01:52Z</time>
      </trkpt>
      <trkpt lat="46.30048" lon="5.28954">
        <ele>239.4</ele>
        <time>2022-02-12T13:01:56Z</time>
      </trkpt>
      <trkpt lat="46.30044" lon="5.28955">
        <ele>239.6</ele>
        <time>2022-02-12T13:01:57Z</time>
      </trkpt>
      <trkpt lat="46.30033" lon="5.28958">
        <ele>240.6</ele>
        <time>2022-02-12T13:02:00Z</time>
      </trkpt>
      <trkpt lat="46.30018" lon="5.28961">
        <ele>241.6</ele>
        <time>2022-02-12T13:02:04Z</time>
      </trkpt>
      <trkpt lat="46.30014" lon="5.28962">
        <ele>242</ele>
        <time>2022-02-12T13:02:05Z</time>
      </trkpt>
      <trkpt lat="46.30004" lon="5.28967">
        <ele>242.6</ele>
        <time>2022-02-12T13:02:08Z</time>
      </trkpt>
      <trkpt lat="46.29999" lon="5.28974">
        <ele>243</ele>
        <time>2022-02-12T13:02:10Z</time>
      </trkpt>
      <trkpt lat="46.29996" lon="5.28992">
        <ele>244</ele>
        <time>2022-02-12T13:02:14Z</time>
      </trkpt>
      <trkpt lat="46.29996" lon="5.29006">
        <ele>244.2</ele>
        <time>2022-02-12T13:02:17Z</time>
      </trkpt>
      <trkpt lat="46.29994" lon="5.29011">
        <ele>244.4</ele>
        <time>2022-02-12T13:02:18Z</time>
      </trkpt>
      <trkpt lat="46.29991" lon="5.29015">
        <ele>244.6</ele>
        <time>2022-02-12T13:02:19Z</time>
      </trkpt>
      <trkpt lat="46.29978" lon="5.29022">
        <ele>245</ele>
        <time>2022-02-12T13:02:22Z</time>
      </trkpt>
      <trkpt lat="46.29948" lon="5.29036">
        <ele>245.4</ele>
        <time>2022-02-12T13:02:29Z</time>
      </trkpt>
      <trkpt lat="46.29935" lon="5.29044">
        <ele>246.2</ele>
        <time>2022-02-12T13:02:32Z</time>
      </trkpt>
      <trkpt lat="46.2991" lon="5.2906">
        <ele>247</ele>
        <time>2022-02-12T13:02:38Z</time>
      </trkpt>
      <trkpt lat="46.29896" lon="5.29069">
        <ele>247.2</ele>
        <time>2022-02-12T13:02:41Z</time>
      </trkpt>
      <trkpt lat="46.29872" lon="5.29088">
        <ele>247.8</ele>
        <time>2022-02-12T13:02:47Z</time>
      </trkpt>
      <trkpt lat="46.2986" lon="5.29099">
        <ele>248.4</ele>
        <time>2022-02-12T13:02:50Z</time>
      </trkpt>
      <trkpt lat="46.29847" lon="5.29117">
        <ele>248.8</ele>
        <time>2022-02-12T13:02:54Z</time>
      </trkpt>
      <trkpt lat="46.29836" lon="5.29131">
        <ele>249.4</ele>
        <time>2022-02-12T13:02:57Z</time>
      </trkpt>
      <trkpt lat="46.29812" lon="5.29156">
        <ele>249.8</ele>
        <time>2022-02-12T13:03:03Z</time>
      </trkpt>
      <trkpt lat="46.29786" lon="5.29183">
        <ele>250.2</ele>
        <time>2022-02-12T13:03:09Z</time>
      </trkpt>
      <trkpt lat="46.29783" lon="5.29188">
        <ele>250.4</ele>
        <time>2022-02-12T13:03:10Z</time>
      </trkpt>
      <trkpt lat="46.29776" lon="5.292">
        <ele>250.4</ele>
        <time>2022-02-12T13:03:12Z</time>
      </trkpt>
      <trkpt lat="46.29769" lon="5.2922">
        <ele>250.8</ele>
        <time>2022-02-12T13:03:15Z</time>
      </trkpt>
      <trkpt lat="46.29757" lon="5.29265">
        <ele>251.6</ele>
        <time>2022-02-12T13:03:22Z</time>
      </trkpt>
      <trkpt lat="46.29753" lon="5.29277">
        <ele>251.8</ele>
        <time>2022-02-12T13:03:24Z</time>
      </trkpt>
      <trkpt lat="46.29747" lon="5.29302">
        <ele>252.6</ele>
        <time>2022-02-12T13:03:28Z</time>
      </trkpt>
      <trkpt lat="46.29739" lon="5.29331">
        <ele>253.8</ele>
        <time>2022-02-12T13:03:33Z</time>
      </trkpt>
      <trkpt lat="46.29727" lon="5.29375">
        <ele>255</ele>
        <time>2022-02-12T13:03:40Z</time>
      </trkpt>
      <trkpt lat="46.29725" lon="5.29381">
        <ele>255.2</ele>
        <time>2022-02-12T13:03:41Z</time>
      </trkpt>
      <trkpt lat="46.29714" lon="5.2941">
        <ele>256.2</ele>
        <time>2022-02-12T13:03:46Z</time>
      </trkpt>
      <trkpt lat="46.29708" lon="5.29421">
        <ele>256.6</ele>
        <time>2022-02-12T13:03:48Z</time>
      </trkpt>
      <trkpt lat="46.29692" lon="5.29448">
        <ele>257.2</ele>
        <time>2022-02-12T13:03:53Z</time>
      </trkpt>
      <trkpt lat="46.29682" lon="5.29464">
        <ele>257.4</ele>
        <time>2022-02-12T13:03:56Z</time>
      </trkpt>
      <trkpt lat="46.29669" lon="5.29483">
        <ele>257.6</ele>
        <time>2022-02-12T13:04:00Z</time>
      </trkpt>
      <trkpt lat="46.29661" lon="5.29495">
        <ele>257.8</ele>
        <time>2022-02-12T13:04:02Z</time>
      </trkpt>
      <trkpt lat="46.29649" lon="5.29513">
        <ele>258</ele>
        <time>2022-02-12T13:04:05Z</time>
      </trkpt>
      <trkpt lat="46.29639" lon="5.29531">
        <ele>258.2</ele>
        <time>2022-02-12T13:04:08Z</time>
      </trkpt>
      <trkpt lat="46.29636" lon="5.29538">
        <ele>258.2</ele>
        <time>2022-02-12T13:04:09Z</time>
      </trkpt>
      <trkpt lat="46.29627" lon="5.29557">
        <ele>258.8</ele>
        <time>2022-02-12T13:04:12Z</time>
      </trkpt>
      <trkpt lat="46.29621" lon="5.29571">
        <ele>259.2</ele>
        <time>2022-02-12T13:04:14Z</time>
      </trkpt>
      <trkpt lat="46.29619" lon="5.29577">
        <ele>259.2</ele>
        <time>2022-02-12T13:04:15Z</time>
      </trkpt>
      <trkpt lat="46.29617" lon="5.29583">
        <ele>259.4</ele>
        <time>2022-02-12T13:04:16Z</time>
      </trkpt>
      <trkpt lat="46.29609" lon="5.29601">
        <ele>259.6</ele>
        <time>2022-02-12T13:04:19Z</time>
      </trkpt>
      <trkpt lat="46.29603" lon="5.29627">
        <ele>259.6</ele>
        <time>2022-02-12T13:04:23Z</time>
      </trkpt>
      <trkpt lat="46.29587" lon="5.29687">
        <ele>259.8</ele>
        <time>2022-02-12T13:04:32Z</time>
      </trkpt>
      <trkpt lat="46.2957" lon="5.2976">
        <ele>260.2</ele>
        <time>2022-02-12T13:04:42Z</time>
      </trkpt>
      <trkpt lat="46.29557" lon="5.29821">
        <ele>260.4</ele>
        <time>2022-02-12T13:04:50Z</time>
      </trkpt>
      <trkpt lat="46.29554" lon="5.29837">
        <ele>260.4</ele>
        <time>2022-02-12T13:04:52Z</time>
      </trkpt>
      <trkpt lat="46.29545" lon="5.29876">
        <ele>260.8</ele>
        <time>2022-02-12T13:04:57Z</time>
      </trkpt>
      <trkpt lat="46.29532" lon="5.29936">
        <ele>260.8</ele>
        <time>2022-02-12T13:05:05Z</time>
      </trkpt>
      <trkpt lat="46.29519" lon="5.29971">
        <ele>260.8</ele>
        <time>2022-02-12T13:05:11Z</time>
      </trkpt>
      <trkpt lat="46.29516" lon="5.29978">
        <ele>260.8</ele>
        <time>2022-02-12T13:05:14Z</time>
      </trkpt>
      <trkpt lat="46.29501" lon="5.29977">
        <ele>261.2</ele>
        <time>2022-02-12T13:05:19Z</time>
      </trkpt>
      <trkpt lat="46.29471" lon="5.29967">
        <ele>261.4</ele>
        <time>2022-02-12T13:05:25Z</time>
      </trkpt>
      <trkpt lat="46.29466" lon="5.29964">
        <ele>261.6</ele>
        <time>2022-02-12T13:05:26Z</time>
      </trkpt>
      <trkpt lat="46.29455" lon="5.29958">
        <ele>261.6</ele>
        <time>2022-02-12T13:05:28Z</time>
      </trkpt>
      <trkpt lat="46.2945" lon="5.29958">
        <ele>261.8</ele>
        <time>2022-02-12T13:05:29Z</time>
      </trkpt>
      <trkpt lat="46.29445" lon="5.2996">
        <ele>261.8</ele>
        <time>2022-02-12T13:05:30Z</time>
      </trkpt>
      <trkpt lat="46.29434" lon="5.29968">
        <ele>261.8</ele>
        <time>2022-02-12T13:05:32Z</time>
      </trkpt>
      <trkpt lat="46.29403" lon="5.30002">
        <ele>261.8</ele>
        <time>2022-02-12T13:05:38Z</time>
      </trkpt>
      <trkpt lat="46.29358" lon="5.30048">
        <ele>261.6</ele>
        <time>2022-02-12T13:05:47Z</time>
      </trkpt>
      <trkpt lat="46.29322" lon="5.30086">
        <ele>262.6</ele>
        <time>2022-02-12T13:05:55Z</time>
      </trkpt>
      <trkpt lat="46.29318" lon="5.30091">
        <ele>262.8</ele>
        <time>2022-02-12T13:05:56Z</time>
      </trkpt>
      <trkpt lat="46.29277" lon="5.30133">
        <ele>263.6</ele>
        <time>2022-02-12T13:06:05Z</time>
      </trkpt>
      <trkpt lat="46.29264" lon="5.30146">
        <ele>263.8</ele>
        <time>2022-02-12T13:06:08Z</time>
      </trkpt>
      <trkpt lat="46.29255" lon="5.30155">
        <ele>264</ele>
        <time>2022-02-12T13:06:10Z</time>
      </trkpt>
      <trkpt lat="46.29246" lon="5.30165">
        <ele>263.8</ele>
        <time>2022-02-12T13:06:12Z</time>
      </trkpt>
      <trkpt lat="46.29205" lon="5.30207">
        <ele>264.2</ele>
        <time>2022-02-12T13:06:20Z</time>
      </trkpt>
      <trkpt lat="46.2916" lon="5.30254">
        <ele>264.4</ele>
        <time>2022-02-12T13:06:29Z</time>
      </trkpt>
      <trkpt lat="46.2915" lon="5.30265">
        <ele>264.4</ele>
        <time>2022-02-12T13:06:31Z</time>
      </trkpt>
      <trkpt lat="46.29102" lon="5.30315">
        <ele>264.6</ele>
        <time>2022-02-12T13:06:40Z</time>
      </trkpt>
      <trkpt lat="46.29055" lon="5.30362">
        <ele>264.8</ele>
        <time>2022-02-12T13:06:49Z</time>
      </trkpt>
      <trkpt lat="46.29044" lon="5.3037">
        <ele>264.8</ele>
        <time>2022-02-12T13:06:51Z</time>
      </trkpt>
      <trkpt lat="46.2902" lon="5.30378">
        <ele>264.8</ele>
        <time>2022-02-12T13:06:55Z</time>
      </trkpt>
      <trkpt lat="46.29014" lon="5.3038">
        <ele>264.8</ele>
        <time>2022-02-12T13:06:56Z</time>
      </trkpt>
      <trkpt lat="46.28968" lon="5.30391">
        <ele>265.6</ele>
        <time>2022-02-12T13:07:04Z</time>
      </trkpt>
      <trkpt lat="46.28946" lon="5.30396">
        <ele>265.8</ele>
        <time>2022-02-12T13:07:08Z</time>
      </trkpt>
      <trkpt lat="46.2893" lon="5.30399">
        <ele>266.8</ele>
        <time>2022-02-12T13:07:11Z</time>
      </trkpt>
      <trkpt lat="46.28914" lon="5.30404">
        <ele>267.2</ele>
        <time>2022-02-12T13:07:14Z</time>
      </trkpt>
      <trkpt lat="46.28871" lon="5.30415">
        <ele>268</ele>
        <time>2022-02-12T13:07:22Z</time>
      </trkpt>
      <trkpt lat="46.28855" lon="5.30419">
        <ele>268.4</ele>
        <time>2022-02-12T13:07:25Z</time>
      </trkpt>
      <trkpt lat="46.28826" lon="5.30425">
        <ele>268.6</ele>
        <time>2022-02-12T13:07:30Z</time>
      </trkpt>
      <trkpt lat="46.28769" lon="5.30436">
        <ele>268.4</ele>
        <time>2022-02-12T13:07:39Z</time>
      </trkpt>
      <trkpt lat="46.28762" lon="5.30437">
        <ele>268.4</ele>
        <time>2022-02-12T13:07:40Z</time>
      </trkpt>
      <trkpt lat="46.28707" lon="5.30446">
        <ele>267.6</ele>
        <time>2022-02-12T13:07:49Z</time>
      </trkpt>
      <trkpt lat="46.28695" lon="5.30446">
        <ele>267.2</ele>
        <time>2022-02-12T13:07:53Z</time>
      </trkpt>
      <trkpt lat="46.28692" lon="5.30446">
        <ele>267.2</ele>
        <time>2022-02-12T13:07:55Z</time>
      </trkpt>
      <trkpt lat="46.28689" lon="5.30446">
        <ele>267.2</ele>
        <time>2022-02-12T13:07:57Z</time>
      </trkpt>
      <trkpt lat="46.28687" lon="5.30449">
        <ele>267.2</ele>
        <time>2022-02-12T13:07:58Z</time>
      </trkpt>
      <trkpt lat="46.28686" lon="5.30453">
        <ele>267.2</ele>
        <time>2022-02-12T13:07:59Z</time>
      </trkpt>
      <trkpt lat="46.28684" lon="5.30467">
        <ele>267.2</ele>
        <time>2022-02-12T13:08:01Z</time>
      </trkpt>
      <trkpt lat="46.28682" lon="5.30513">
        <ele>267.4</ele>
        <time>2022-02-12T13:08:07Z</time>
      </trkpt>
      <trkpt lat="46.28677" lon="5.30585">
        <ele>268.4</ele>
        <time>2022-02-12T13:08:15Z</time>
      </trkpt>
      <trkpt lat="46.28676" lon="5.3061">
        <ele>268.6</ele>
        <time>2022-02-12T13:08:18Z</time>
      </trkpt>
      <trkpt lat="46.28673" lon="5.30646">
        <ele>268.8</ele>
        <time>2022-02-12T13:08:22Z</time>
      </trkpt>
      <trkpt lat="46.28669" lon="5.30725">
        <ele>269.6</ele>
        <time>2022-02-12T13:08:31Z</time>
      </trkpt>
      <trkpt lat="46.28668" lon="5.30736">
        <ele>269.6</ele>
        <time>2022-02-12T13:08:32Z</time>
      </trkpt>
      <trkpt lat="46.28663" lon="5.30823">
        <ele>270.2</ele>
        <time>2022-02-12T13:08:42Z</time>
      </trkpt>
      <trkpt lat="46.28662" lon="5.30846">
        <ele>270.4</ele>
        <time>2022-02-12T13:08:45Z</time>
      </trkpt>
      <trkpt lat="46.2866" lon="5.30865">
        <ele>270.6</ele>
        <time>2022-02-12T13:08:47Z</time>
      </trkpt>
      <trkpt lat="46.28655" lon="5.30939">
        <ele>271.6</ele>
        <time>2022-02-12T13:08:56Z</time>
      </trkpt>
      <trkpt lat="46.28655" lon="5.30947">
        <ele>271.6</ele>
        <time>2022-02-12T13:08:57Z</time>
      </trkpt>
      <trkpt lat="46.28652" lon="5.31017">
        <ele>272.4</ele>
        <time>2022-02-12T13:09:05Z</time>
      </trkpt>
      <trkpt lat="46.2865" lon="5.31075">
        <ele>272.8</ele>
        <time>2022-02-12T13:09:11Z</time>
      </trkpt>
      <trkpt lat="46.2865" lon="5.31083">
        <ele>272.8</ele>
        <time>2022-02-12T13:09:12Z</time>
      </trkpt>
      <trkpt lat="46.28648" lon="5.31161">
        <ele>272.8</ele>
        <time>2022-02-12T13:09:20Z</time>
      </trkpt>
      <trkpt lat="46.28647" lon="5.31236">
        <ele>272.6</ele>
        <time>2022-02-12T13:09:27Z</time>
      </trkpt>
      <trkpt lat="46.28646" lon="5.31317">
        <ele>272</ele>
        <time>2022-02-12T13:09:35Z</time>
      </trkpt>
      <trkpt lat="46.28646" lon="5.31326">
        <ele>272</ele>
        <time>2022-02-12T13:09:36Z</time>
      </trkpt>
      <trkpt lat="46.28638" lon="5.31379">
        <ele>272.8</ele>
        <time>2022-02-12T13:09:42Z</time>
      </trkpt>
      <trkpt lat="46.28622" lon="5.31424">
        <ele>273.6</ele>
        <time>2022-02-12T13:09:48Z</time>
      </trkpt>
      <trkpt lat="46.28614" lon="5.31438">
        <ele>273.8</ele>
        <time>2022-02-12T13:09:50Z</time>
      </trkpt>
      <trkpt lat="46.28596" lon="5.31463">
        <ele>274</ele>
        <time>2022-02-12T13:09:54Z</time>
      </trkpt>
      <trkpt lat="46.28558" lon="5.31521">
        <ele>274.4</ele>
        <time>2022-02-12T13:10:02Z</time>
      </trkpt>
      <trkpt lat="46.28528" lon="5.31586">
        <ele>274.6</ele>
        <time>2022-02-12T13:10:10Z</time>
      </trkpt>
      <trkpt lat="46.28499" lon="5.31643">
        <ele>274.8</ele>
        <time>2022-02-12T13:10:17Z</time>
      </trkpt>
      <trkpt lat="46.28487" lon="5.31669">
        <ele>275.2</ele>
        <time>2022-02-12T13:10:20Z</time>
      </trkpt>
      <trkpt lat="46.28461" lon="5.31724">
        <ele>275.2</ele>
        <time>2022-02-12T13:10:27Z</time>
      </trkpt>
      <trkpt lat="46.28432" lon="5.3179">
        <ele>275.4</ele>
        <time>2022-02-12T13:10:35Z</time>
      </trkpt>
      <trkpt lat="46.28423" lon="5.31811">
        <ele>275.6</ele>
        <time>2022-02-12T13:10:38Z</time>
      </trkpt>
      <trkpt lat="46.2841" lon="5.31848">
        <ele>275.8</ele>
        <time>2022-02-12T13:10:42Z</time>
      </trkpt>
      <trkpt lat="46.284" lon="5.31872">
        <ele>276</ele>
        <time>2022-02-12T13:10:45Z</time>
      </trkpt>
      <trkpt lat="46.28374" lon="5.31939">
        <ele>276.2</ele>
        <time>2022-02-12T13:10:53Z</time>
      </trkpt>
      <trkpt lat="46.28348" lon="5.32011">
        <ele>276</ele>
        <time>2022-02-12T13:11:01Z</time>
      </trkpt>
      <trkpt lat="46.28341" lon="5.32031">
        <ele>275.8</ele>
        <time>2022-02-12T13:11:03Z</time>
      </trkpt>
      <trkpt lat="46.28313" lon="5.32108">
        <ele>274.6</ele>
        <time>2022-02-12T13:11:10Z</time>
      </trkpt>
      <trkpt lat="46.28297" lon="5.32153">
        <ele>273.2</ele>
        <time>2022-02-12T13:11:14Z</time>
      </trkpt>
      <trkpt lat="46.28286" lon="5.3219">
        <ele>272.2</ele>
        <time>2022-02-12T13:11:17Z</time>
      </trkpt>
      <trkpt lat="46.28283" lon="5.32202">
        <ele>271.6</ele>
        <time>2022-02-12T13:11:18Z</time>
      </trkpt>
      <trkpt lat="46.28277" lon="5.32228">
        <ele>271.2</ele>
        <time>2022-02-12T13:11:20Z</time>
      </trkpt>
      <trkpt lat="46.28271" lon="5.32261">
        <ele>270.8</ele>
        <time>2022-02-12T13:11:23Z</time>
      </trkpt>
      <trkpt lat="46.28264" lon="5.32331">
        <ele>270.6</ele>
        <time>2022-02-12T13:11:29Z</time>
      </trkpt>
      <trkpt lat="46.2826" lon="5.32406">
        <ele>270.6</ele>
        <time>2022-02-12T13:11:36Z</time>
      </trkpt>
      <trkpt lat="46.28258" lon="5.32464">
        <ele>270</ele>
        <time>2022-02-12T13:11:41Z</time>
      </trkpt>
      <trkpt lat="46.28256" lon="5.32501">
        <ele>269.8</ele>
        <time>2022-02-12T13:11:44Z</time>
      </trkpt>
      <trkpt lat="46.28255" lon="5.32509">
        <ele>269.8</ele>
        <time>2022-02-12T13:11:45Z</time>
      </trkpt>
      <trkpt lat="46.28247" lon="5.32596">
        <ele>269.8</ele>
        <time>2022-02-12T13:11:53Z</time>
      </trkpt>
      <trkpt lat="46.28244" lon="5.32615">
        <ele>269.8</ele>
        <time>2022-02-12T13:11:55Z</time>
      </trkpt>
      <trkpt lat="46.28227" lon="5.32697">
        <ele>269.8</ele>
        <time>2022-02-12T13:12:03Z</time>
      </trkpt>
      <trkpt lat="46.28216" lon="5.3275">
        <ele>270.2</ele>
        <time>2022-02-12T13:12:09Z</time>
      </trkpt>
      <trkpt lat="46.28209" lon="5.32781">
        <ele>271.2</ele>
        <time>2022-02-12T13:12:13Z</time>
      </trkpt>
      <trkpt lat="46.28204" lon="5.32804">
        <ele>272</ele>
        <time>2022-02-12T13:12:16Z</time>
      </trkpt>
      <trkpt lat="46.28202" lon="5.32817">
        <ele>272.4</ele>
        <time>2022-02-12T13:12:18Z</time>
      </trkpt>
      <trkpt lat="46.28196" lon="5.32852">
        <ele>273.4</ele>
        <time>2022-02-12T13:12:23Z</time>
      </trkpt>
      <trkpt lat="46.28193" lon="5.32868">
        <ele>273.8</ele>
        <time>2022-02-12T13:12:25Z</time>
      </trkpt>
      <trkpt lat="46.28192" lon="5.32879">
        <ele>274.4</ele>
        <time>2022-02-12T13:12:27Z</time>
      </trkpt>
      <trkpt lat="46.28188" lon="5.32905">
        <ele>275.6</ele>
        <time>2022-02-12T13:12:31Z</time>
      </trkpt>
      <trkpt lat="46.28184" lon="5.32925">
        <ele>276</ele>
        <time>2022-02-12T13:12:34Z</time>
      </trkpt>
      <trkpt lat="46.28182" lon="5.32947">
        <ele>276.6</ele>
        <time>2022-02-12T13:12:37Z</time>
      </trkpt>
      <trkpt lat="46.28177" lon="5.32984">
        <ele>277.6</ele>
        <time>2022-02-12T13:12:42Z</time>
      </trkpt>
      <trkpt lat="46.28176" lon="5.32993">
        <ele>277.8</ele>
        <time>2022-02-12T13:12:43Z</time>
      </trkpt>
      <trkpt lat="46.28169" lon="5.33059">
        <ele>278.8</ele>
        <time>2022-02-12T13:12:52Z</time>
      </trkpt>
      <trkpt lat="46.28168" lon="5.33068">
        <ele>278.8</ele>
        <time>2022-02-12T13:12:53Z</time>
      </trkpt>
      <trkpt lat="46.28159" lon="5.33145">
        <ele>279.4</ele>
        <time>2022-02-12T13:13:03Z</time>
      </trkpt>
      <trkpt lat="46.28156" lon="5.3317">
        <ele>279.6</ele>
        <time>2022-02-12T13:13:06Z</time>
      </trkpt>
      <trkpt lat="46.28154" lon="5.33194">
        <ele>280</ele>
        <time>2022-02-12T13:13:09Z</time>
      </trkpt>
      <trkpt lat="46.28151" lon="5.33249">
        <ele>279.8</ele>
        <time>2022-02-12T13:13:15Z</time>
      </trkpt>
      <trkpt lat="46.28152" lon="5.33323">
        <ele>280</ele>
        <time>2022-02-12T13:13:23Z</time>
      </trkpt>
      <trkpt lat="46.28155" lon="5.33401">
        <ele>280.8</ele>
        <time>2022-02-12T13:13:32Z</time>
      </trkpt>
      <trkpt lat="46.28156" lon="5.33428">
        <ele>281</ele>
        <time>2022-02-12T13:13:35Z</time>
      </trkpt>
      <trkpt lat="46.2816" lon="5.33506">
        <ele>282</ele>
        <time>2022-02-12T13:13:44Z</time>
      </trkpt>
      <trkpt lat="46.28162" lon="5.33533">
        <ele>282</ele>
        <time>2022-02-12T13:13:47Z</time>
      </trkpt>
      <trkpt lat="46.28167" lon="5.33603">
        <ele>282.6</ele>
        <time>2022-02-12T13:13:55Z</time>
      </trkpt>
      <trkpt lat="46.28172" lon="5.33687">
        <ele>283</ele>
        <time>2022-02-12T13:14:04Z</time>
      </trkpt>
      <trkpt lat="46.28173" lon="5.33696">
        <ele>283</ele>
        <time>2022-02-12T13:14:05Z</time>
      </trkpt>
      <trkpt lat="46.28175" lon="5.33727">
        <ele>283</ele>
        <time>2022-02-12T13:14:08Z</time>
      </trkpt>
      <trkpt lat="46.2818" lon="5.33779">
        <ele>283.4</ele>
        <time>2022-02-12T13:14:14Z</time>
      </trkpt>
      <trkpt lat="46.28187" lon="5.33861">
        <ele>284</ele>
        <time>2022-02-12T13:14:23Z</time>
      </trkpt>
      <trkpt lat="46.28189" lon="5.33889">
        <ele>284</ele>
        <time>2022-02-12T13:14:26Z</time>
      </trkpt>
      <trkpt lat="46.28192" lon="5.3396">
        <ele>284.8</ele>
        <time>2022-02-12T13:14:34Z</time>
      </trkpt>
      <trkpt lat="46.28189" lon="5.34046">
        <ele>285</ele>
        <time>2022-02-12T13:14:43Z</time>
      </trkpt>
      <trkpt lat="46.28189" lon="5.34054">
        <ele>285</ele>
        <time>2022-02-12T13:14:44Z</time>
      </trkpt>
      <trkpt lat="46.28183" lon="5.34139">
        <ele>283.8</ele>
        <time>2022-02-12T13:14:52Z</time>
      </trkpt>
      <trkpt lat="46.28182" lon="5.3415">
        <ele>283.8</ele>
        <time>2022-02-12T13:14:53Z</time>
      </trkpt>
      <trkpt lat="46.28176" lon="5.34196">
        <ele>283</ele>
        <time>2022-02-12T13:14:57Z</time>
      </trkpt>
      <trkpt lat="46.28168" lon="5.34239">
        <ele>282.2</ele>
        <time>2022-02-12T13:15:01Z</time>
      </trkpt>
      <trkpt lat="46.28165" lon="5.34262">
        <ele>281.8</ele>
        <time>2022-02-12T13:15:03Z</time>
      </trkpt>
      <trkpt lat="46.28158" lon="5.34309">
        <ele>281</ele>
        <time>2022-02-12T13:15:07Z</time>
      </trkpt>
      <trkpt lat="46.28156" lon="5.34333">
        <ele>280.4</ele>
        <time>2022-02-12T13:15:09Z</time>
      </trkpt>
      <trkpt lat="46.28152" lon="5.34359">
        <ele>280</ele>
        <time>2022-02-12T13:15:11Z</time>
      </trkpt>
      <trkpt lat="46.28148" lon="5.34394">
        <ele>278.8</ele>
        <time>2022-02-12T13:15:14Z</time>
      </trkpt>
      <trkpt lat="46.28142" lon="5.34459">
        <ele>277.2</ele>
        <time>2022-02-12T13:15:19Z</time>
      </trkpt>
      <trkpt lat="46.28139" lon="5.34486">
        <ele>276.2</ele>
        <time>2022-02-12T13:15:21Z</time>
      </trkpt>
      <trkpt lat="46.28133" lon="5.34526">
        <ele>274.8</ele>
        <time>2022-02-12T13:15:24Z</time>
      </trkpt>
      <trkpt lat="46.28129" lon="5.34539">
        <ele>274.6</ele>
        <time>2022-02-12T13:15:25Z</time>
      </trkpt>
      <trkpt lat="46.28117" lon="5.34563">
        <ele>273.6</ele>
        <time>2022-02-12T13:15:27Z</time>
      </trkpt>
      <trkpt lat="46.28112" lon="5.3457">
        <ele>273</ele>
        <time>2022-02-12T13:15:28Z</time>
      </trkpt>
      <trkpt lat="46.281" lon="5.34588">
        <ele>272.2</ele>
        <time>2022-02-12T13:15:30Z</time>
      </trkpt>
      <trkpt lat="46.28081" lon="5.34612">
        <ele>271.6</ele>
        <time>2022-02-12T13:15:33Z</time>
      </trkpt>
      <trkpt lat="46.28043" lon="5.3466">
        <ele>271.2</ele>
        <time>2022-02-12T13:15:39Z</time>
      </trkpt>
      <trkpt lat="46.28037" lon="5.34668">
        <ele>271.2</ele>
        <time>2022-02-12T13:15:40Z</time>
      </trkpt>
      <trkpt lat="46.27994" lon="5.34725">
        <ele>271</ele>
        <time>2022-02-12T13:15:48Z</time>
      </trkpt>
      <trkpt lat="46.27989" lon="5.34732">
        <ele>271</ele>
        <time>2022-02-12T13:15:49Z</time>
      </trkpt>
      <trkpt lat="46.27947" lon="5.34788">
        <ele>271.4</ele>
        <time>2022-02-12T13:15:57Z</time>
      </trkpt>
      <trkpt lat="46.27942" lon="5.34794">
        <ele>271.6</ele>
        <time>2022-02-12T13:15:58Z</time>
      </trkpt>
      <trkpt lat="46.27898" lon="5.34851">
        <ele>272.2</ele>
        <time>2022-02-12T13:16:07Z</time>
      </trkpt>
      <trkpt lat="46.27877" lon="5.34873">
        <ele>272.4</ele>
        <time>2022-02-12T13:16:11Z</time>
      </trkpt>
      <trkpt lat="46.2786" lon="5.34889">
        <ele>272.6</ele>
        <time>2022-02-12T13:16:14Z</time>
      </trkpt>
      <trkpt lat="46.27821" lon="5.34921">
        <ele>273.4</ele>
        <time>2022-02-12T13:16:22Z</time>
      </trkpt>
      <trkpt lat="46.27798" lon="5.3494">
        <ele>274.6</ele>
        <time>2022-02-12T13:16:27Z</time>
      </trkpt>
      <trkpt lat="46.27789" lon="5.34947">
        <ele>274.8</ele>
        <time>2022-02-12T13:16:29Z</time>
      </trkpt>
      <trkpt lat="46.27761" lon="5.34974">
        <ele>275.6</ele>
        <time>2022-02-12T13:16:35Z</time>
      </trkpt>
      <trkpt lat="46.27752" lon="5.34984">
        <ele>275.6</ele>
        <time>2022-02-12T13:16:37Z</time>
      </trkpt>
      <trkpt lat="46.27726" lon="5.35028">
        <ele>276.4</ele>
        <time>2022-02-12T13:16:44Z</time>
      </trkpt>
      <trkpt lat="46.27717" lon="5.35048">
        <ele>276.6</ele>
        <time>2022-02-12T13:16:47Z</time>
      </trkpt>
      <trkpt lat="46.27695" lon="5.35094">
        <ele>277.2</ele>
        <time>2022-02-12T13:16:54Z</time>
      </trkpt>
      <trkpt lat="46.27683" lon="5.3512">
        <ele>277.6</ele>
        <time>2022-02-12T13:16:58Z</time>
      </trkpt>
      <trkpt lat="46.27671" lon="5.35145">
        <ele>278.4</ele>
        <time>2022-02-12T13:17:02Z</time>
      </trkpt>
      <trkpt lat="46.27668" lon="5.35151">
        <ele>278.6</ele>
        <time>2022-02-12T13:17:03Z</time>
      </trkpt>
      <trkpt lat="46.27638" lon="5.35217">
        <ele>279.6</ele>
        <time>2022-02-12T13:17:13Z</time>
      </trkpt>
      <trkpt lat="46.27635" lon="5.35223">
        <ele>279.6</ele>
        <time>2022-02-12T13:17:14Z</time>
      </trkpt>
      <trkpt lat="46.27627" lon="5.35243">
        <ele>280</ele>
        <time>2022-02-12T13:17:17Z</time>
      </trkpt>
      <trkpt lat="46.2762" lon="5.35265">
        <ele>280.2</ele>
        <time>2022-02-12T13:17:20Z</time>
      </trkpt>
      <trkpt lat="46.27613" lon="5.35294">
        <ele>280.6</ele>
        <time>2022-02-12T13:17:24Z</time>
      </trkpt>
      <trkpt lat="46.27605" lon="5.35334">
        <ele>281.2</ele>
        <time>2022-02-12T13:17:29Z</time>
      </trkpt>
      <trkpt lat="46.27597" lon="5.35381">
        <ele>281.8</ele>
        <time>2022-02-12T13:17:35Z</time>
      </trkpt>
      <trkpt lat="46.27595" lon="5.35397">
        <ele>281.8</ele>
        <time>2022-02-12T13:17:37Z</time>
      </trkpt>
      <trkpt lat="46.27578" lon="5.35463">
        <ele>282.8</ele>
        <time>2022-02-12T13:17:46Z</time>
      </trkpt>
      <trkpt lat="46.2757" lon="5.35483">
        <ele>283.2</ele>
        <time>2022-02-12T13:17:49Z</time>
      </trkpt>
      <trkpt lat="46.27557" lon="5.35515">
        <ele>283.6</ele>
        <time>2022-02-12T13:17:54Z</time>
      </trkpt>
      <trkpt lat="46.27545" lon="5.35537">
        <ele>284.4</ele>
        <time>2022-02-12T13:17:58Z</time>
      </trkpt>
      <trkpt lat="46.27538" lon="5.35547">
        <ele>285</ele>
        <time>2022-02-12T13:18:00Z</time>
      </trkpt>
      <trkpt lat="46.27529" lon="5.35561">
        <ele>285.6</ele>
        <time>2022-02-12T13:18:03Z</time>
      </trkpt>
      <trkpt lat="46.27515" lon="5.35583">
        <ele>286.6</ele>
        <time>2022-02-12T13:18:08Z</time>
      </trkpt>
      <trkpt lat="46.27512" lon="5.35587">
        <ele>287</ele>
        <time>2022-02-12T13:18:09Z</time>
      </trkpt>
      <trkpt lat="46.27508" lon="5.35596">
        <ele>287.6</ele>
        <time>2022-02-12T13:18:11Z</time>
      </trkpt>
      <trkpt lat="46.27506" lon="5.35602">
        <ele>288</ele>
        <time>2022-02-12T13:18:12Z</time>
      </trkpt>
      <trkpt lat="46.27503" lon="5.35617">
        <ele>288.6</ele>
        <time>2022-02-12T13:18:15Z</time>
      </trkpt>
      <trkpt lat="46.27502" lon="5.35623">
        <ele>289</ele>
        <time>2022-02-12T13:18:16Z</time>
      </trkpt>
      <trkpt lat="46.27498" lon="5.35644">
        <ele>290.4</ele>
        <time>2022-02-12T13:18:20Z</time>
      </trkpt>
      <trkpt lat="46.27496" lon="5.35655">
        <ele>290.6</ele>
        <time>2022-02-12T13:18:22Z</time>
      </trkpt>
      <trkpt lat="46.27491" lon="5.35671">
        <ele>291.4</ele>
        <time>2022-02-12T13:18:25Z</time>
      </trkpt>
      <trkpt lat="46.27487" lon="5.35688">
        <ele>292.4</ele>
        <time>2022-02-12T13:18:28Z</time>
      </trkpt>
      <trkpt lat="46.27481" lon="5.35718">
        <ele>293</ele>
        <time>2022-02-12T13:18:33Z</time>
      </trkpt>
      <trkpt lat="46.27478" lon="5.35737">
        <ele>293.6</ele>
        <time>2022-02-12T13:18:36Z</time>
      </trkpt>
      <trkpt lat="46.27472" lon="5.35776">
        <ele>294.4</ele>
        <time>2022-02-12T13:18:42Z</time>
      </trkpt>
      <trkpt lat="46.27464" lon="5.35813">
        <ele>294.8</ele>
        <time>2022-02-12T13:18:48Z</time>
      </trkpt>
      <trkpt lat="46.27462" lon="5.35819">
        <ele>294.8</ele>
        <time>2022-02-12T13:18:49Z</time>
      </trkpt>
      <trkpt lat="46.27449" lon="5.35852">
        <ele>295.8</ele>
        <time>2022-02-12T13:18:55Z</time>
      </trkpt>
      <trkpt lat="46.27442" lon="5.35867">
        <ele>296</ele>
        <time>2022-02-12T13:18:58Z</time>
      </trkpt>
      <trkpt lat="46.27436" lon="5.35877">
        <ele>296.4</ele>
        <time>2022-02-12T13:19:00Z</time>
      </trkpt>
      <trkpt lat="46.27424" lon="5.35894">
        <ele>297</ele>
        <time>2022-02-12T13:19:04Z</time>
      </trkpt>
      <trkpt lat="46.27421" lon="5.35899">
        <ele>297</ele>
        <time>2022-02-12T13:19:05Z</time>
      </trkpt>
      <trkpt lat="46.27406" lon="5.35916">
        <ele>298</ele>
        <time>2022-02-12T13:19:10Z</time>
      </trkpt>
      <trkpt lat="46.27402" lon="5.35917">
        <ele>298.4</ele>
        <time>2022-02-12T13:19:11Z</time>
      </trkpt>
      <trkpt lat="46.27391" lon="5.35908">
        <ele>299</ele>
        <time>2022-02-12T13:19:15Z</time>
      </trkpt>
      <trkpt lat="46.27384" lon="5.359">
        <ele>299.2</ele>
        <time>2022-02-12T13:19:17Z</time>
      </trkpt>
      <trkpt lat="46.27371" lon="5.35882">
        <ele>299.2</ele>
        <time>2022-02-12T13:19:21Z</time>
      </trkpt>
      <trkpt lat="46.27366" lon="5.35876">
        <ele>299</ele>
        <time>2022-02-12T13:19:24Z</time>
      </trkpt>
      <trkpt lat="46.27365" lon="5.35876">
        <ele>298.6</ele>
        <time>2022-02-12T13:19:27Z</time>
      </trkpt>
      <trkpt lat="46.27367" lon="5.35881">
        <ele>297.8</ele>
        <time>2022-02-12T13:20:23Z</time>
      </trkpt>
      <trkpt lat="46.27369" lon="5.35883">
        <ele>297.8</ele>
        <time>2022-02-12T13:20:24Z</time>
      </trkpt>
      <trkpt lat="46.27381" lon="5.35897">
        <ele>298.2</ele>
        <time>2022-02-12T13:20:28Z</time>
      </trkpt>
      <trkpt lat="46.27394" lon="5.35916">
        <ele>298.8</ele>
        <time>2022-02-12T13:20:33Z</time>
      </trkpt>
      <trkpt lat="46.27396" lon="5.35921">
        <ele>299</ele>
        <time>2022-02-12T13:20:34Z</time>
      </trkpt>
      <trkpt lat="46.27397" lon="5.35929">
        <ele>299.2</ele>
        <time>2022-02-12T13:20:36Z</time>
      </trkpt>
      <trkpt lat="46.27395" lon="5.35934">
        <ele>299.2</ele>
        <time>2022-02-12T13:20:37Z</time>
      </trkpt>
      <trkpt lat="46.2738" lon="5.35954">
        <ele>300</ele>
        <time>2022-02-12T13:20:42Z</time>
      </trkpt>
      <trkpt lat="46.27359" lon="5.35983">
        <ele>301</ele>
        <time>2022-02-12T13:20:48Z</time>
      </trkpt>
      <trkpt lat="46.27342" lon="5.36005">
        <ele>302.4</ele>
        <time>2022-02-12T13:20:53Z</time>
      </trkpt>
      <trkpt lat="46.27329" lon="5.36026">
        <ele>303</ele>
        <time>2022-02-12T13:20:57Z</time>
      </trkpt>
      <trkpt lat="46.27314" lon="5.36058">
        <ele>303.6</ele>
        <time>2022-02-12T13:21:02Z</time>
      </trkpt>
      <trkpt lat="46.27312" lon="5.36065">
        <ele>303.6</ele>
        <time>2022-02-12T13:21:03Z</time>
      </trkpt>
      <trkpt lat="46.2731" lon="5.36072">
        <ele>303.6</ele>
        <time>2022-02-12T13:21:04Z</time>
      </trkpt>
      <trkpt lat="46.273" lon="5.36133">
        <ele>303.2</ele>
        <time>2022-02-12T13:21:12Z</time>
      </trkpt>
      <trkpt lat="46.27299" lon="5.36181">
        <ele>302.6</ele>
        <time>2022-02-12T13:21:18Z</time>
      </trkpt>
      <trkpt lat="46.27297" lon="5.36206">
        <ele>302.2</ele>
        <time>2022-02-12T13:21:21Z</time>
      </trkpt>
      <trkpt lat="46.27297" lon="5.36223">
        <ele>302.2</ele>
        <time>2022-02-12T13:21:23Z</time>
      </trkpt>
      <trkpt lat="46.27297" lon="5.36255">
        <ele>302.2</ele>
        <time>2022-02-12T13:21:27Z</time>
      </trkpt>
      <trkpt lat="46.27293" lon="5.36334">
        <ele>302</ele>
        <time>2022-02-12T13:21:36Z</time>
      </trkpt>
      <trkpt lat="46.27292" lon="5.36344">
        <ele>302</ele>
        <time>2022-02-12T13:21:37Z</time>
      </trkpt>
      <trkpt lat="46.27283" lon="5.36424">
        <ele>302.2</ele>
        <time>2022-02-12T13:21:46Z</time>
      </trkpt>
      <trkpt lat="46.27268" lon="5.36483">
        <ele>303</ele>
        <time>2022-02-12T13:21:53Z</time>
      </trkpt>
      <trkpt lat="46.2725" lon="5.36546">
        <ele>303.6</ele>
        <time>2022-02-12T13:22:01Z</time>
      </trkpt>
      <trkpt lat="46.27247" lon="5.36554">
        <ele>303.6</ele>
        <time>2022-02-12T13:22:02Z</time>
      </trkpt>
      <trkpt lat="46.2723" lon="5.36611">
        <ele>304.2</ele>
        <time>2022-02-12T13:22:10Z</time>
      </trkpt>
      <trkpt lat="46.27222" lon="5.36634">
        <ele>304.8</ele>
        <time>2022-02-12T13:22:14Z</time>
      </trkpt>
      <trkpt lat="46.2722" lon="5.36638">
        <ele>304.8</ele>
        <time>2022-02-12T13:22:15Z</time>
      </trkpt>
      <trkpt lat="46.27217" lon="5.3664">
        <ele>304.8</ele>
        <time>2022-02-12T13:22:16Z</time>
      </trkpt>
      <trkpt lat="46.27213" lon="5.36645">
        <ele>305</ele>
        <time>2022-02-12T13:22:18Z</time>
      </trkpt>
      <trkpt lat="46.27213" lon="5.36662">
        <ele>305.6</ele>
        <time>2022-02-12T13:22:21Z</time>
      </trkpt>
      <trkpt lat="46.27213" lon="5.36669">
        <ele>305.8</ele>
        <time>2022-02-12T13:22:22Z</time>
      </trkpt>
      <trkpt lat="46.27211" lon="5.36677">
        <ele>305.8</ele>
        <time>2022-02-12T13:22:23Z</time>
      </trkpt>
      <trkpt lat="46.2721" lon="5.36682">
        <ele>305.8</ele>
        <time>2022-02-12T13:22:24Z</time>
      </trkpt>
      <trkpt lat="46.27207" lon="5.36689">
        <ele>305.8</ele>
        <time>2022-02-12T13:22:25Z</time>
      </trkpt>
      <trkpt lat="46.27201" lon="5.36706">
        <ele>306.2</ele>
        <time>2022-02-12T13:22:28Z</time>
      </trkpt>
      <trkpt lat="46.27195" lon="5.36716">
        <ele>306.4</ele>
        <time>2022-02-12T13:22:30Z</time>
      </trkpt>
      <trkpt lat="46.27186" lon="5.36726">
        <ele>307</ele>
        <time>2022-02-12T13:22:33Z</time>
      </trkpt>
      <trkpt lat="46.27179" lon="5.36731">
        <ele>307.6</ele>
        <time>2022-02-12T13:22:35Z</time>
      </trkpt>
      <trkpt lat="46.27169" lon="5.36735">
        <ele>308.4</ele>
        <time>2022-02-12T13:22:38Z</time>
      </trkpt>
      <trkpt lat="46.27158" lon="5.36738">
        <ele>309.2</ele>
        <time>2022-02-12T13:22:41Z</time>
      </trkpt>
      <trkpt lat="46.27155" lon="5.36738">
        <ele>309.6</ele>
        <time>2022-02-12T13:22:42Z</time>
      </trkpt>
      <trkpt lat="46.27146" lon="5.36738">
        <ele>310.6</ele>
        <time>2022-02-12T13:22:45Z</time>
      </trkpt>
      <trkpt lat="46.27143" lon="5.36737">
        <ele>310.8</ele>
        <time>2022-02-12T13:22:46Z</time>
      </trkpt>
      <trkpt lat="46.2713" lon="5.36734">
        <ele>311.6</ele>
        <time>2022-02-12T13:22:49Z</time>
      </trkpt>
      <trkpt lat="46.27111" lon="5.36728">
        <ele>312.8</ele>
        <time>2022-02-12T13:22:54Z</time>
      </trkpt>
      <trkpt lat="46.27107" lon="5.36728">
        <ele>313</ele>
        <time>2022-02-12T13:22:55Z</time>
      </trkpt>
      <trkpt lat="46.27087" lon="5.36729">
        <ele>314</ele>
        <time>2022-02-12T13:23:00Z</time>
      </trkpt>
      <trkpt lat="46.27065" lon="5.3673">
        <ele>315</ele>
        <time>2022-02-12T13:23:06Z</time>
      </trkpt>
      <trkpt lat="46.27061" lon="5.36731">
        <ele>315.2</ele>
        <time>2022-02-12T13:23:07Z</time>
      </trkpt>
      <trkpt lat="46.27035" lon="5.36737">
        <ele>316</ele>
        <time>2022-02-12T13:23:14Z</time>
      </trkpt>
      <trkpt lat="46.27027" lon="5.3674">
        <ele>316.2</ele>
        <time>2022-02-12T13:23:16Z</time>
      </trkpt>
      <trkpt lat="46.27014" lon="5.3675">
        <ele>316.6</ele>
        <time>2022-02-12T13:23:19Z</time>
      </trkpt>
      <trkpt lat="46.26999" lon="5.36766">
        <ele>316.8</ele>
        <time>2022-02-12T13:23:23Z</time>
      </trkpt>
      <trkpt lat="46.26987" lon="5.36794">
        <ele>317</ele>
        <time>2022-02-12T13:23:28Z</time>
      </trkpt>
      <trkpt lat="46.26975" lon="5.36802">
        <ele>317</ele>
        <time>2022-02-12T13:23:32Z</time>
      </trkpt>
      <trkpt lat="46.26965" lon="5.36812">
        <ele>317.2</ele>
        <time>2022-02-12T13:23:35Z</time>
      </trkpt>
      <trkpt lat="46.26962" lon="5.36816">
        <ele>317.4</ele>
        <time>2022-02-12T13:23:36Z</time>
      </trkpt>
      <trkpt lat="46.26958" lon="5.3682">
        <ele>317.6</ele>
        <time>2022-02-12T13:23:37Z</time>
      </trkpt>
      <trkpt lat="46.26954" lon="5.36825">
        <ele>317.8</ele>
        <time>2022-02-12T13:23:38Z</time>
      </trkpt>
      <trkpt lat="46.26941" lon="5.36838">
        <ele>318.4</ele>
        <time>2022-02-12T13:23:42Z</time>
      </trkpt>
      <trkpt lat="46.26938" lon="5.36842">
        <ele>318.4</ele>
        <time>2022-02-12T13:23:43Z</time>
      </trkpt>
      <trkpt lat="46.26922" lon="5.36856">
        <ele>319.6</ele>
        <time>2022-02-12T13:23:48Z</time>
      </trkpt>
      <trkpt lat="46.26915" lon="5.36863">
        <ele>320</ele>
        <time>2022-02-12T13:23:50Z</time>
      </trkpt>
      <trkpt lat="46.26901" lon="5.36873">
        <ele>320.6</ele>
        <time>2022-02-12T13:23:54Z</time>
      </trkpt>
      <trkpt lat="46.26895" lon="5.36875">
        <ele>321.2</ele>
        <time>2022-02-12T13:23:56Z</time>
      </trkpt>
      <trkpt lat="46.26891" lon="5.36876">
        <ele>321.8</ele>
        <time>2022-02-12T13:23:57Z</time>
      </trkpt>
      <trkpt lat="46.26888" lon="5.36877">
        <ele>322</ele>
        <time>2022-02-12T13:23:58Z</time>
      </trkpt>
      <trkpt lat="46.26881" lon="5.36876">
        <ele>322.8</ele>
        <time>2022-02-12T13:24:00Z</time>
      </trkpt>
      <trkpt lat="46.26878" lon="5.36877">
        <ele>323</ele>
        <time>2022-02-12T13:24:01Z</time>
      </trkpt>
      <trkpt lat="46.26865" lon="5.36879">
        <ele>323.8</ele>
        <time>2022-02-12T13:24:04Z</time>
      </trkpt>
      <trkpt lat="46.26857" lon="5.36883">
        <ele>324.4</ele>
        <time>2022-02-12T13:24:06Z</time>
      </trkpt>
      <trkpt lat="46.26847" lon="5.36887">
        <ele>325.4</ele>
        <time>2022-02-12T13:24:09Z</time>
      </trkpt>
      <trkpt lat="46.26839" lon="5.3689">
        <ele>326.2</ele>
        <time>2022-02-12T13:24:12Z</time>
      </trkpt>
      <trkpt lat="46.26836" lon="5.36891">
        <ele>326.4</ele>
        <time>2022-02-12T13:24:13Z</time>
      </trkpt>
      <trkpt lat="46.26821" lon="5.36894">
        <ele>327.6</ele>
        <time>2022-02-12T13:24:18Z</time>
      </trkpt>
      <trkpt lat="46.26812" lon="5.36896">
        <ele>328</ele>
        <time>2022-02-12T13:24:21Z</time>
      </trkpt>
      <trkpt lat="46.26805" lon="5.36898">
        <ele>328.8</ele>
        <time>2022-02-12T13:24:23Z</time>
      </trkpt>
      <trkpt lat="46.26784" lon="5.36904">
        <ele>329.8</ele>
        <time>2022-02-12T13:24:30Z</time>
      </trkpt>
      <trkpt lat="46.26778" lon="5.36907">
        <ele>330.6</ele>
        <time>2022-02-12T13:24:32Z</time>
      </trkpt>
      <trkpt lat="46.26769" lon="5.36912">
        <ele>331</ele>
        <time>2022-02-12T13:24:35Z</time>
      </trkpt>
      <trkpt lat="46.26752" lon="5.36926">
        <ele>332.2</ele>
        <time>2022-02-12T13:24:41Z</time>
      </trkpt>
      <trkpt lat="46.26733" lon="5.36941">
        <ele>333.4</ele>
        <time>2022-02-12T13:24:47Z</time>
      </trkpt>
      <trkpt lat="46.2672" lon="5.36952">
        <ele>334</ele>
        <time>2022-02-12T13:24:51Z</time>
      </trkpt>
      <trkpt lat="46.2671" lon="5.36959">
        <ele>334.6</ele>
        <time>2022-02-12T13:24:54Z</time>
      </trkpt>
      <trkpt lat="46.26694" lon="5.36969">
        <ele>335.6</ele>
        <time>2022-02-12T13:24:59Z</time>
      </trkpt>
      <trkpt lat="46.26674" lon="5.36977">
        <ele>337.2</ele>
        <time>2022-02-12T13:25:05Z</time>
      </trkpt>
      <trkpt lat="46.26661" lon="5.36982">
        <ele>337.8</ele>
        <time>2022-02-12T13:25:09Z</time>
      </trkpt>
      <trkpt lat="46.26654" lon="5.36982">
        <ele>338</ele>
        <time>2022-02-12T13:25:11Z</time>
      </trkpt>
      <trkpt lat="46.26641" lon="5.36979">
        <ele>338.8</ele>
        <time>2022-02-12T13:25:15Z</time>
      </trkpt>
      <trkpt lat="46.26635" lon="5.36976">
        <ele>339.4</ele>
        <time>2022-02-12T13:25:17Z</time>
      </trkpt>
      <trkpt lat="46.26623" lon="5.36968">
        <ele>340.6</ele>
        <time>2022-02-12T13:25:21Z</time>
      </trkpt>
      <trkpt lat="46.26617" lon="5.36962">
        <ele>341.4</ele>
        <time>2022-02-12T13:25:23Z</time>
      </trkpt>
      <trkpt lat="46.26608" lon="5.36955">
        <ele>341.8</ele>
        <time>2022-02-12T13:25:26Z</time>
      </trkpt>
      <trkpt lat="46.26594" lon="5.36943">
        <ele>343.2</ele>
        <time>2022-02-12T13:25:31Z</time>
      </trkpt>
      <trkpt lat="46.26585" lon="5.36938">
        <ele>343.6</ele>
        <time>2022-02-12T13:25:34Z</time>
      </trkpt>
      <trkpt lat="46.26579" lon="5.36936">
        <ele>344.2</ele>
        <time>2022-02-12T13:25:36Z</time>
      </trkpt>
      <trkpt lat="46.26566" lon="5.36938">
        <ele>345.4</ele>
        <time>2022-02-12T13:25:40Z</time>
      </trkpt>
      <trkpt lat="46.26564" lon="5.36941">
        <ele>345.4</ele>
        <time>2022-02-12T13:25:41Z</time>
      </trkpt>
      <trkpt lat="46.26562" lon="5.36944">
        <ele>345.6</ele>
        <time>2022-02-12T13:25:42Z</time>
      </trkpt>
      <trkpt lat="46.26562" lon="5.36953">
        <ele>346.2</ele>
        <time>2022-02-12T13:25:44Z</time>
      </trkpt>
      <trkpt lat="46.26563" lon="5.36958">
        <ele>346.4</ele>
        <time>2022-02-12T13:25:45Z</time>
      </trkpt>
      <trkpt lat="46.26565" lon="5.36961">
        <ele>346.6</ele>
        <time>2022-02-12T13:25:46Z</time>
      </trkpt>
      <trkpt lat="46.2657" lon="5.36967">
        <ele>347.2</ele>
        <time>2022-02-12T13:25:48Z</time>
      </trkpt>
      <trkpt lat="46.26573" lon="5.3697">
        <ele>347.6</ele>
        <time>2022-02-12T13:25:49Z</time>
      </trkpt>
      <trkpt lat="46.26585" lon="5.36981">
        <ele>348.6</ele>
        <time>2022-02-12T13:25:53Z</time>
      </trkpt>
      <trkpt lat="46.26599" lon="5.36995">
        <ele>349.8</ele>
        <time>2022-02-12T13:25:58Z</time>
      </trkpt>
      <trkpt lat="46.26605" lon="5.37">
        <ele>350.2</ele>
        <time>2022-02-12T13:26:00Z</time>
      </trkpt>
      <trkpt lat="46.26613" lon="5.37009">
        <ele>351</ele>
        <time>2022-02-12T13:26:03Z</time>
      </trkpt>
      <trkpt lat="46.26623" lon="5.37016">
        <ele>351.4</ele>
        <time>2022-02-12T13:26:06Z</time>
      </trkpt>
      <trkpt lat="46.26633" lon="5.37022">
        <ele>352</ele>
        <time>2022-02-12T13:26:09Z</time>
      </trkpt>
      <trkpt lat="46.26658" lon="5.37032">
        <ele>353.2</ele>
        <time>2022-02-12T13:26:16Z</time>
      </trkpt>
      <trkpt lat="46.26685" lon="5.3703">
        <ele>354.2</ele>
        <time>2022-02-12T13:26:24Z</time>
      </trkpt>
      <trkpt lat="46.26698" lon="5.37027">
        <ele>355.4</ele>
        <time>2022-02-12T13:26:28Z</time>
      </trkpt>
      <trkpt lat="46.2671" lon="5.37027">
        <ele>356</ele>
        <time>2022-02-12T13:26:32Z</time>
      </trkpt>
      <trkpt lat="46.26715" lon="5.37027">
        <ele>356.4</ele>
        <time>2022-02-12T13:26:34Z</time>
      </trkpt>
      <trkpt lat="46.2673" lon="5.37031">
        <ele>357.6</ele>
        <time>2022-02-12T13:26:39Z</time>
      </trkpt>
      <trkpt lat="46.2675" lon="5.37039">
        <ele>358.6</ele>
        <time>2022-02-12T13:26:45Z</time>
      </trkpt>
      <trkpt lat="46.26756" lon="5.37042">
        <ele>359.2</ele>
        <time>2022-02-12T13:26:47Z</time>
      </trkpt>
      <trkpt lat="46.26766" lon="5.37048">
        <ele>360</ele>
        <time>2022-02-12T13:26:50Z</time>
      </trkpt>
      <trkpt lat="46.26783" lon="5.37058">
        <ele>361.2</ele>
        <time>2022-02-12T13:26:55Z</time>
      </trkpt>
      <trkpt lat="46.26805" lon="5.37073">
        <ele>362.4</ele>
        <time>2022-02-12T13:27:02Z</time>
      </trkpt>
      <trkpt lat="46.26828" lon="5.37087">
        <ele>363.4</ele>
        <time>2022-02-12T13:27:09Z</time>
      </trkpt>
      <trkpt lat="46.26831" lon="5.3709">
        <ele>363.6</ele>
        <time>2022-02-12T13:27:10Z</time>
      </trkpt>
      <trkpt lat="46.26833" lon="5.37093">
        <ele>363.8</ele>
        <time>2022-02-12T13:27:11Z</time>
      </trkpt>
      <trkpt lat="46.26834" lon="5.37102">
        <ele>364.2</ele>
        <time>2022-02-12T13:27:13Z</time>
      </trkpt>
      <trkpt lat="46.26831" lon="5.37109">
        <ele>364.6</ele>
        <time>2022-02-12T13:27:15Z</time>
      </trkpt>
      <trkpt lat="46.26828" lon="5.3711">
        <ele>364.8</ele>
        <time>2022-02-12T13:27:16Z</time>
      </trkpt>
      <trkpt lat="46.26816" lon="5.37104">
        <ele>365.8</ele>
        <time>2022-02-12T13:27:20Z</time>
      </trkpt>
      <trkpt lat="46.26803" lon="5.37099">
        <ele>367</ele>
        <time>2022-02-12T13:27:24Z</time>
      </trkpt>
      <trkpt lat="46.26793" lon="5.37096">
        <ele>367.8</ele>
        <time>2022-02-12T13:27:27Z</time>
      </trkpt>
      <trkpt lat="46.26787" lon="5.37095">
        <ele>368.6</ele>
        <time>2022-02-12T13:27:29Z</time>
      </trkpt>
      <trkpt lat="46.26774" lon="5.37095">
        <ele>369.6</ele>
        <time>2022-02-12T13:27:33Z</time>
      </trkpt>
      <trkpt lat="46.26765" lon="5.37096">
        <ele>370.6</ele>
        <time>2022-02-12T13:27:36Z</time>
      </trkpt>
      <trkpt lat="46.26758" lon="5.37096">
        <ele>371</ele>
        <time>2022-02-12T13:27:38Z</time>
      </trkpt>
      <trkpt lat="46.26748" lon="5.37097">
        <ele>371.6</ele>
        <time>2022-02-12T13:27:41Z</time>
      </trkpt>
      <trkpt lat="46.26736" lon="5.37097">
        <ele>372.6</ele>
        <time>2022-02-12T13:27:45Z</time>
      </trkpt>
      <trkpt lat="46.26724" lon="5.37098">
        <ele>373.6</ele>
        <time>2022-02-12T13:27:49Z</time>
      </trkpt>
      <trkpt lat="46.26721" lon="5.37099">
        <ele>373.6</ele>
        <time>2022-02-12T13:27:50Z</time>
      </trkpt>
      <trkpt lat="46.26704" lon="5.371">
        <ele>374.8</ele>
        <time>2022-02-12T13:27:56Z</time>
      </trkpt>
      <trkpt lat="46.26699" lon="5.371">
        <ele>375</ele>
        <time>2022-02-12T13:27:58Z</time>
      </trkpt>
      <trkpt lat="46.2669" lon="5.37102">
        <ele>375.8</ele>
        <time>2022-02-12T13:28:01Z</time>
      </trkpt>
      <trkpt lat="46.26669" lon="5.37103">
        <ele>377.2</ele>
        <time>2022-02-12T13:28:08Z</time>
      </trkpt>
      <trkpt lat="46.2665" lon="5.37104">
        <ele>378.6</ele>
        <time>2022-02-12T13:28:14Z</time>
      </trkpt>
      <trkpt lat="46.26644" lon="5.37103">
        <ele>379</ele>
        <time>2022-02-12T13:28:16Z</time>
      </trkpt>
      <trkpt lat="46.26628" lon="5.37102">
        <ele>379.8</ele>
        <time>2022-02-12T13:28:21Z</time>
      </trkpt>
      <trkpt lat="46.2662" lon="5.37102">
        <ele>380.6</ele>
        <time>2022-02-12T13:28:24Z</time>
      </trkpt>
      <trkpt lat="46.26613" lon="5.37102">
        <ele>381</ele>
        <time>2022-02-12T13:28:26Z</time>
      </trkpt>
      <trkpt lat="46.26594" lon="5.371">
        <ele>382.2</ele>
        <time>2022-02-12T13:28:32Z</time>
      </trkpt>
      <trkpt lat="46.26582" lon="5.37099">
        <ele>383</ele>
        <time>2022-02-12T13:28:36Z</time>
      </trkpt>
      <trkpt lat="46.26579" lon="5.371">
        <ele>383.2</ele>
        <time>2022-02-12T13:28:37Z</time>
      </trkpt>
      <trkpt lat="46.26564" lon="5.37099">
        <ele>384.2</ele>
        <time>2022-02-12T13:28:42Z</time>
      </trkpt>
      <trkpt lat="46.26555" lon="5.37099">
        <ele>384.6</ele>
        <time>2022-02-12T13:28:45Z</time>
      </trkpt>
      <trkpt lat="46.26546" lon="5.37099">
        <ele>385.4</ele>
        <time>2022-02-12T13:28:48Z</time>
      </trkpt>
      <trkpt lat="46.26532" lon="5.37099">
        <ele>386.6</ele>
        <time>2022-02-12T13:28:53Z</time>
      </trkpt>
      <trkpt lat="46.26526" lon="5.37099">
        <ele>387.2</ele>
        <time>2022-02-12T13:28:55Z</time>
      </trkpt>
      <trkpt lat="46.26519" lon="5.37099">
        <ele>387.8</ele>
        <time>2022-02-12T13:28:57Z</time>
      </trkpt>
      <trkpt lat="46.26506" lon="5.371">
        <ele>388.8</ele>
        <time>2022-02-12T13:29:01Z</time>
      </trkpt>
      <trkpt lat="46.26497" lon="5.37101">
        <ele>389.2</ele>
        <time>2022-02-12T13:29:04Z</time>
      </trkpt>
      <trkpt lat="46.26484" lon="5.37101">
        <ele>389.8</ele>
        <time>2022-02-12T13:29:08Z</time>
      </trkpt>
      <trkpt lat="46.26464" lon="5.37097">
        <ele>390.8</ele>
        <time>2022-02-12T13:29:14Z</time>
      </trkpt>
      <trkpt lat="46.26461" lon="5.37096">
        <ele>391</ele>
        <time>2022-02-12T13:29:15Z</time>
      </trkpt>
      <trkpt lat="46.26447" lon="5.3709">
        <ele>392.2</ele>
        <time>2022-02-12T13:29:20Z</time>
      </trkpt>
      <trkpt lat="46.26442" lon="5.37087">
        <ele>392.4</ele>
        <time>2022-02-12T13:29:22Z</time>
      </trkpt>
      <trkpt lat="46.26435" lon="5.37082">
        <ele>393.2</ele>
        <time>2022-02-12T13:29:25Z</time>
      </trkpt>
      <trkpt lat="46.26418" lon="5.37072">
        <ele>394.4</ele>
        <time>2022-02-12T13:29:31Z</time>
      </trkpt>
      <trkpt lat="46.26405" lon="5.37063">
        <ele>395.4</ele>
        <time>2022-02-12T13:29:36Z</time>
      </trkpt>
      <trkpt lat="46.264" lon="5.3706">
        <ele>396</ele>
        <time>2022-02-12T13:29:38Z</time>
      </trkpt>
      <trkpt lat="46.26392" lon="5.37057">
        <ele>396.8</ele>
        <time>2022-02-12T13:29:41Z</time>
      </trkpt>
      <trkpt lat="46.26384" lon="5.37059">
        <ele>397.2</ele>
        <time>2022-02-12T13:29:44Z</time>
      </trkpt>
      <trkpt lat="46.26381" lon="5.37064">
        <ele>398</ele>
        <time>2022-02-12T13:29:46Z</time>
      </trkpt>
      <trkpt lat="46.26381" lon="5.37071">
        <ele>398.4</ele>
        <time>2022-02-12T13:29:48Z</time>
      </trkpt>
      <trkpt lat="46.26386" lon="5.37081">
        <ele>399</ele>
        <time>2022-02-12T13:29:51Z</time>
      </trkpt>
      <trkpt lat="46.26392" lon="5.37089">
        <ele>400</ele>
        <time>2022-02-12T13:29:54Z</time>
      </trkpt>
      <trkpt lat="46.26395" lon="5.37092">
        <ele>400.2</ele>
        <time>2022-02-12T13:29:55Z</time>
      </trkpt>
      <trkpt lat="46.26406" lon="5.37104">
        <ele>401.6</ele>
        <time>2022-02-12T13:30:00Z</time>
      </trkpt>
      <trkpt lat="46.26417" lon="5.37117">
        <ele>402.8</ele>
        <time>2022-02-12T13:30:05Z</time>
      </trkpt>
      <trkpt lat="46.26423" lon="5.37121">
        <ele>403.2</ele>
        <time>2022-02-12T13:30:07Z</time>
      </trkpt>
      <trkpt lat="46.26429" lon="5.37132">
        <ele>404</ele>
        <time>2022-02-12T13:30:11Z</time>
      </trkpt>
      <trkpt lat="46.26432" lon="5.37137">
        <ele>404.4</ele>
        <time>2022-02-12T13:30:13Z</time>
      </trkpt>
      <trkpt lat="46.26442" lon="5.37148">
        <ele>405</ele>
        <time>2022-02-12T13:30:18Z</time>
      </trkpt>
      <trkpt lat="46.26449" lon="5.37155">
        <ele>405.8</ele>
        <time>2022-02-12T13:30:21Z</time>
      </trkpt>
      <trkpt lat="46.26454" lon="5.37159">
        <ele>406</ele>
        <time>2022-02-12T13:30:23Z</time>
      </trkpt>
      <trkpt lat="46.26469" lon="5.37168">
        <ele>406.8</ele>
        <time>2022-02-12T13:30:28Z</time>
      </trkpt>
      <trkpt lat="46.26472" lon="5.3717">
        <ele>407.4</ele>
        <time>2022-02-12T13:30:29Z</time>
      </trkpt>
      <trkpt lat="46.26484" lon="5.37178">
        <ele>408.2</ele>
        <time>2022-02-12T13:30:33Z</time>
      </trkpt>
      <trkpt lat="46.26487" lon="5.37179">
        <ele>408.4</ele>
        <time>2022-02-12T13:30:34Z</time>
      </trkpt>
      <trkpt lat="46.26494" lon="5.37183">
        <ele>409</ele>
        <time>2022-02-12T13:30:36Z</time>
      </trkpt>
      <trkpt lat="46.26508" lon="5.37191">
        <ele>409.6</ele>
        <time>2022-02-12T13:30:40Z</time>
      </trkpt>
      <trkpt lat="46.26519" lon="5.37195">
        <ele>410.2</ele>
        <time>2022-02-12T13:30:43Z</time>
      </trkpt>
      <trkpt lat="46.26524" lon="5.37201">
        <ele>410.8</ele>
        <time>2022-02-12T13:30:45Z</time>
      </trkpt>
      <trkpt lat="46.2654" lon="5.37212">
        <ele>412.2</ele>
        <time>2022-02-12T13:30:51Z</time>
      </trkpt>
      <trkpt lat="46.26556" lon="5.37227">
        <ele>413.4</ele>
        <time>2022-02-12T13:30:58Z</time>
      </trkpt>
      <trkpt lat="46.26568" lon="5.37238">
        <ele>414.4</ele>
        <time>2022-02-12T13:31:03Z</time>
      </trkpt>
      <trkpt lat="46.26575" lon="5.37247">
        <ele>415</ele>
        <time>2022-02-12T13:31:07Z</time>
      </trkpt>
      <trkpt lat="46.2658" lon="5.3725">
        <ele>415.6</ele>
        <time>2022-02-12T13:31:09Z</time>
      </trkpt>
      <trkpt lat="46.26587" lon="5.37256">
        <ele>416.2</ele>
        <time>2022-02-12T13:31:12Z</time>
      </trkpt>
      <trkpt lat="46.26591" lon="5.37261">
        <ele>416.4</ele>
        <time>2022-02-12T13:31:14Z</time>
      </trkpt>
      <trkpt lat="46.26594" lon="5.37264">
        <ele>416.6</ele>
        <time>2022-02-12T13:31:15Z</time>
      </trkpt>
      <trkpt lat="46.26611" lon="5.37277">
        <ele>417.6</ele>
        <time>2022-02-12T13:31:21Z</time>
      </trkpt>
      <trkpt lat="46.26623" lon="5.37288">
        <ele>418.8</ele>
        <time>2022-02-12T13:31:25Z</time>
      </trkpt>
      <trkpt lat="46.26631" lon="5.37298">
        <ele>419.2</ele>
        <time>2022-02-12T13:31:28Z</time>
      </trkpt>
      <trkpt lat="46.2664" lon="5.37315">
        <ele>419.8</ele>
        <time>2022-02-12T13:31:32Z</time>
      </trkpt>
      <trkpt lat="46.26641" lon="5.37321">
        <ele>420</ele>
        <time>2022-02-12T13:31:33Z</time>
      </trkpt>
      <trkpt lat="46.26635" lon="5.37337">
        <ele>420.8</ele>
        <time>2022-02-12T13:31:37Z</time>
      </trkpt>
      <trkpt lat="46.26624" lon="5.37347">
        <ele>422</ele>
        <time>2022-02-12T13:31:41Z</time>
      </trkpt>
      <trkpt lat="46.26619" lon="5.37352">
        <ele>422.4</ele>
        <time>2022-02-12T13:31:43Z</time>
      </trkpt>
      <trkpt lat="46.26613" lon="5.37357">
        <ele>423.2</ele>
        <time>2022-02-12T13:31:45Z</time>
      </trkpt>
      <trkpt lat="46.26603" lon="5.37365">
        <ele>424.2</ele>
        <time>2022-02-12T13:31:49Z</time>
      </trkpt>
      <trkpt lat="46.26593" lon="5.37375">
        <ele>425.6</ele>
        <time>2022-02-12T13:31:53Z</time>
      </trkpt>
      <trkpt lat="46.26583" lon="5.37387">
        <ele>426.6</ele>
        <time>2022-02-12T13:31:57Z</time>
      </trkpt>
      <trkpt lat="46.26571" lon="5.37401">
        <ele>427.8</ele>
        <time>2022-02-12T13:32:02Z</time>
      </trkpt>
      <trkpt lat="46.26561" lon="5.37414">
        <ele>428.6</ele>
        <time>2022-02-12T13:32:06Z</time>
      </trkpt>
      <trkpt lat="46.26559" lon="5.37418">
        <ele>428.8</ele>
        <time>2022-02-12T13:32:07Z</time>
      </trkpt>
      <trkpt lat="46.26555" lon="5.37429">
        <ele>429.4</ele>
        <time>2022-02-12T13:32:10Z</time>
      </trkpt>
      <trkpt lat="46.26551" lon="5.37442">
        <ele>430</ele>
        <time>2022-02-12T13:32:13Z</time>
      </trkpt>
      <trkpt lat="46.26548" lon="5.3746">
        <ele>430.4</ele>
        <time>2022-02-12T13:32:16Z</time>
      </trkpt>
      <trkpt lat="46.26547" lon="5.37465">
        <ele>431.2</ele>
        <time>2022-02-12T13:32:18Z</time>
      </trkpt>
      <trkpt lat="46.26547" lon="5.37493">
        <ele>432</ele>
        <time>2022-02-12T13:32:23Z</time>
      </trkpt>
      <trkpt lat="46.26547" lon="5.37493">
        <ele>432.2</ele>
        <time>2022-02-12T13:32:24Z</time>
      </trkpt>
      <trkpt lat="46.26544" lon="5.3752">
        <ele>433.4</ele>
        <time>2022-02-12T13:32:30Z</time>
      </trkpt>
      <trkpt lat="46.2654" lon="5.37542">
        <ele>434.6</ele>
        <time>2022-02-12T13:32:34Z</time>
      </trkpt>
      <trkpt lat="46.26537" lon="5.37555">
        <ele>435.6</ele>
        <time>2022-02-12T13:32:38Z</time>
      </trkpt>
      <trkpt lat="46.26535" lon="5.37559">
        <ele>435.8</ele>
        <time>2022-02-12T13:32:39Z</time>
      </trkpt>
      <trkpt lat="46.26528" lon="5.37585">
        <ele>436.8</ele>
        <time>2022-02-12T13:32:44Z</time>
      </trkpt>
      <trkpt lat="46.26526" lon="5.37593">
        <ele>437.2</ele>
        <time>2022-02-12T13:32:46Z</time>
      </trkpt>
      <trkpt lat="46.26523" lon="5.37611">
        <ele>437.8</ele>
        <time>2022-02-12T13:32:50Z</time>
      </trkpt>
      <trkpt lat="46.26522" lon="5.37624">
        <ele>438.8</ele>
        <time>2022-02-12T13:32:54Z</time>
      </trkpt>
      <trkpt lat="46.26522" lon="5.37633">
        <ele>439.2</ele>
        <time>2022-02-12T13:32:55Z</time>
      </trkpt>
      <trkpt lat="46.26523" lon="5.3766">
        <ele>440.4</ele>
        <time>2022-02-12T13:33:01Z</time>
      </trkpt>
      <trkpt lat="46.2652" lon="5.37683">
        <ele>441.6</ele>
        <time>2022-02-12T13:33:06Z</time>
      </trkpt>
      <trkpt lat="46.26519" lon="5.37692">
        <ele>442</ele>
        <time>2022-02-12T13:33:08Z</time>
      </trkpt>
      <trkpt lat="46.26515" lon="5.37705">
        <ele>442.6</ele>
        <time>2022-02-12T13:33:11Z</time>
      </trkpt>
      <trkpt lat="46.2651" lon="5.3772">
        <ele>443.6</ele>
        <time>2022-02-12T13:33:15Z</time>
      </trkpt>
      <trkpt lat="46.26508" lon="5.37724">
        <ele>443.8</ele>
        <time>2022-02-12T13:33:16Z</time>
      </trkpt>
      <trkpt lat="46.26499" lon="5.37743">
        <ele>444.8</ele>
        <time>2022-02-12T13:33:22Z</time>
      </trkpt>
      <trkpt lat="46.26489" lon="5.37751">
        <ele>445.8</ele>
        <time>2022-02-12T13:33:25Z</time>
      </trkpt>
      <trkpt lat="46.26486" lon="5.37753">
        <ele>446.4</ele>
        <time>2022-02-12T13:33:27Z</time>
      </trkpt>
      <trkpt lat="46.26478" lon="5.3776">
        <ele>446.8</ele>
        <time>2022-02-12T13:33:29Z</time>
      </trkpt>
      <trkpt lat="46.26467" lon="5.37771">
        <ele>448</ele>
        <time>2022-02-12T13:33:33Z</time>
      </trkpt>
      <trkpt lat="46.26454" lon="5.37781">
        <ele>449.2</ele>
        <time>2022-02-12T13:33:37Z</time>
      </trkpt>
      <trkpt lat="46.26451" lon="5.37784">
        <ele>449.4</ele>
        <time>2022-02-12T13:33:38Z</time>
      </trkpt>
      <trkpt lat="46.26438" lon="5.378">
        <ele>450.2</ele>
        <time>2022-02-12T13:33:42Z</time>
      </trkpt>
      <trkpt lat="46.26424" lon="5.3781">
        <ele>451.2</ele>
        <time>2022-02-12T13:33:47Z</time>
      </trkpt>
      <trkpt lat="46.26424" lon="5.3781">
        <ele>451.4</ele>
        <time>2022-02-12T13:33:48Z</time>
      </trkpt>
      <trkpt lat="46.26403" lon="5.37836">
        <ele>452.6</ele>
        <time>2022-02-12T13:33:54Z</time>
      </trkpt>
      <trkpt lat="46.26398" lon="5.37841">
        <ele>453</ele>
        <time>2022-02-12T13:33:56Z</time>
      </trkpt>
      <trkpt lat="46.26388" lon="5.3785">
        <ele>453.8</ele>
        <time>2022-02-12T13:34:00Z</time>
      </trkpt>
      <trkpt lat="46.26378" lon="5.37859">
        <ele>454.4</ele>
        <time>2022-02-12T13:34:03Z</time>
      </trkpt>
      <trkpt lat="46.26375" lon="5.37859">
        <ele>454.8</ele>
        <time>2022-02-12T13:34:05Z</time>
      </trkpt>
      <trkpt lat="46.26361" lon="5.37868">
        <ele>455.6</ele>
        <time>2022-02-12T13:34:09Z</time>
      </trkpt>
      <trkpt lat="46.26358" lon="5.37869">
        <ele>455.8</ele>
        <time>2022-02-12T13:34:11Z</time>
      </trkpt>
      <trkpt lat="46.26343" lon="5.37885">
        <ele>457</ele>
        <time>2022-02-12T13:34:16Z</time>
      </trkpt>
      <trkpt lat="46.26331" lon="5.37894">
        <ele>457.4</ele>
        <time>2022-02-12T13:34:19Z</time>
      </trkpt>
      <trkpt lat="46.26327" lon="5.37901">
        <ele>458</ele>
        <time>2022-02-12T13:34:21Z</time>
      </trkpt>
      <trkpt lat="46.26315" lon="5.37916">
        <ele>459.2</ele>
        <time>2022-02-12T13:34:25Z</time>
      </trkpt>
      <trkpt lat="46.26313" lon="5.37917">
        <ele>459.6</ele>
        <time>2022-02-12T13:34:27Z</time>
      </trkpt>
      <trkpt lat="46.26304" lon="5.37926">
        <ele>460.2</ele>
        <time>2022-02-12T13:34:30Z</time>
      </trkpt>
      <trkpt lat="46.263" lon="5.37931">
        <ele>460.8</ele>
        <time>2022-02-12T13:34:33Z</time>
      </trkpt>
      <trkpt lat="46.26295" lon="5.37936">
        <ele>461.2</ele>
        <time>2022-02-12T13:34:35Z</time>
      </trkpt>
      <trkpt lat="46.26293" lon="5.37937">
        <ele>461.6</ele>
        <time>2022-02-12T13:34:36Z</time>
      </trkpt>
      <trkpt lat="46.2628" lon="5.37953">
        <ele>462.6</ele>
        <time>2022-02-12T13:34:41Z</time>
      </trkpt>
      <trkpt lat="46.2628" lon="5.37953">
        <ele>462.8</ele>
        <time>2022-02-12T13:34:42Z</time>
      </trkpt>
      <trkpt lat="46.2627" lon="5.37968">
        <ele>463.6</ele>
        <time>2022-02-12T13:34:46Z</time>
      </trkpt>
      <trkpt lat="46.26262" lon="5.37983">
        <ele>464.8</ele>
        <time>2022-02-12T13:34:50Z</time>
      </trkpt>
      <trkpt lat="46.26254" lon="5.38002">
        <ele>465.8</ele>
        <time>2022-02-12T13:34:55Z</time>
      </trkpt>
      <trkpt lat="46.26248" lon="5.38017">
        <ele>467</ele>
        <time>2022-02-12T13:34:59Z</time>
      </trkpt>
      <trkpt lat="46.26238" lon="5.38033">
        <ele>468</ele>
        <time>2022-02-12T13:35:04Z</time>
      </trkpt>
      <trkpt lat="46.26233" lon="5.38038">
        <ele>469</ele>
        <time>2022-02-12T13:35:07Z</time>
      </trkpt>
      <trkpt lat="46.2623" lon="5.38045">
        <ele>469.2</ele>
        <time>2022-02-12T13:35:08Z</time>
      </trkpt>
      <trkpt lat="46.26216" lon="5.38063">
        <ele>470.4</ele>
        <time>2022-02-12T13:35:14Z</time>
      </trkpt>
      <trkpt lat="46.26213" lon="5.38065">
        <ele>470.6</ele>
        <time>2022-02-12T13:35:15Z</time>
      </trkpt>
      <trkpt lat="46.26203" lon="5.38074">
        <ele>471.6</ele>
        <time>2022-02-12T13:35:19Z</time>
      </trkpt>
      <trkpt lat="46.26183" lon="5.38091">
        <ele>472.6</ele>
        <time>2022-02-12T13:35:26Z</time>
      </trkpt>
      <trkpt lat="46.26168" lon="5.38106">
        <ele>473.8</ele>
        <time>2022-02-12T13:35:31Z</time>
      </trkpt>
      <trkpt lat="46.26157" lon="5.38118">
        <ele>474.6</ele>
        <time>2022-02-12T13:35:35Z</time>
      </trkpt>
      <trkpt lat="46.26152" lon="5.38124">
        <ele>474.8</ele>
        <time>2022-02-12T13:35:37Z</time>
      </trkpt>
      <trkpt lat="46.26138" lon="5.3814">
        <ele>476</ele>
        <time>2022-02-12T13:35:43Z</time>
      </trkpt>
      <trkpt lat="46.26131" lon="5.38149">
        <ele>476.6</ele>
        <time>2022-02-12T13:35:45Z</time>
      </trkpt>
      <trkpt lat="46.26119" lon="5.38163">
        <ele>477.2</ele>
        <time>2022-02-12T13:35:49Z</time>
      </trkpt>
      <trkpt lat="46.26093" lon="5.38194">
        <ele>477.6</ele>
        <time>2022-02-12T13:35:57Z</time>
      </trkpt>
      <trkpt lat="46.26074" lon="5.38219">
        <ele>477.6</ele>
        <time>2022-02-12T13:36:03Z</time>
      </trkpt>
      <trkpt lat="46.26039" lon="5.38262">
        <ele>476.2</ele>
        <time>2022-02-12T13:36:09Z</time>
      </trkpt>
      <trkpt lat="46.26033" lon="5.38269">
        <ele>476.2</ele>
        <time>2022-02-12T13:36:10Z</time>
      </trkpt>
      <trkpt lat="46.26005" lon="5.38302">
        <ele>476.4</ele>
        <time>2022-02-12T13:36:15Z</time>
      </trkpt>
      <trkpt lat="46.25982" lon="5.38331">
        <ele>475</ele>
        <time>2022-02-12T13:36:19Z</time>
      </trkpt>
      <trkpt lat="46.2597" lon="5.38345">
        <ele>474.2</ele>
        <time>2022-02-12T13:36:22Z</time>
      </trkpt>
      <trkpt lat="46.25952" lon="5.38366">
        <ele>473.8</ele>
        <time>2022-02-12T13:36:24Z</time>
      </trkpt>
      <trkpt lat="46.25933" lon="5.38387">
        <ele>472.4</ele>
        <time>2022-02-12T13:36:27Z</time>
      </trkpt>
      <trkpt lat="46.25921" lon="5.38401">
        <ele>471.4</ele>
        <time>2022-02-12T13:36:29Z</time>
      </trkpt>
      <trkpt lat="46.25914" lon="5.38408">
        <ele>471.4</ele>
        <time>2022-02-12T13:36:30Z</time>
      </trkpt>
      <trkpt lat="46.25882" lon="5.38441">
        <ele>470</ele>
        <time>2022-02-12T13:36:35Z</time>
      </trkpt>
      <trkpt lat="46.25863" lon="5.38461">
        <ele>468.8</ele>
        <time>2022-02-12T13:36:38Z</time>
      </trkpt>
      <trkpt lat="46.25848" lon="5.38486">
        <ele>467.2</ele>
        <time>2022-02-12T13:36:41Z</time>
      </trkpt>
      <trkpt lat="46.25834" lon="5.38515">
        <ele>466.2</ele>
        <time>2022-02-12T13:36:44Z</time>
      </trkpt>
      <trkpt lat="46.25826" lon="5.38535">
        <ele>465.6</ele>
        <time>2022-02-12T13:36:46Z</time>
      </trkpt>
      <trkpt lat="46.25808" lon="5.38589">
        <ele>465.4</ele>
        <time>2022-02-12T13:36:51Z</time>
      </trkpt>
      <trkpt lat="46.25805" lon="5.38601">
        <ele>465.4</ele>
        <time>2022-02-12T13:36:52Z</time>
      </trkpt>
      <trkpt lat="46.25801" lon="5.38625">
        <ele>464.8</ele>
        <time>2022-02-12T13:36:54Z</time>
      </trkpt>
      <trkpt lat="46.258" lon="5.38663">
        <ele>463.8</ele>
        <time>2022-02-12T13:36:57Z</time>
      </trkpt>
      <trkpt lat="46.25799" lon="5.38675">
        <ele>463</ele>
        <time>2022-02-12T13:36:58Z</time>
      </trkpt>
      <trkpt lat="46.25799" lon="5.38688">
        <ele>461.8</ele>
        <time>2022-02-12T13:36:59Z</time>
      </trkpt>
      <trkpt lat="46.25796" lon="5.38713">
        <ele>461</ele>
        <time>2022-02-12T13:37:01Z</time>
      </trkpt>
      <trkpt lat="46.25792" lon="5.38725">
        <ele>460.6</ele>
        <time>2022-02-12T13:37:02Z</time>
      </trkpt>
      <trkpt lat="46.25786" lon="5.38736">
        <ele>459.8</ele>
        <time>2022-02-12T13:37:03Z</time>
      </trkpt>
      <trkpt lat="46.25779" lon="5.38745">
        <ele>459.2</ele>
        <time>2022-02-12T13:37:04Z</time>
      </trkpt>
      <trkpt lat="46.2577" lon="5.3875">
        <ele>459.2</ele>
        <time>2022-02-12T13:37:05Z</time>
      </trkpt>
      <trkpt lat="46.25741" lon="5.38757">
        <ele>457.6</ele>
        <time>2022-02-12T13:37:08Z</time>
      </trkpt>
      <trkpt lat="46.25732" lon="5.38761">
        <ele>457.2</ele>
        <time>2022-02-12T13:37:09Z</time>
      </trkpt>
      <trkpt lat="46.25723" lon="5.38766">
        <ele>456.2</ele>
        <time>2022-02-12T13:37:10Z</time>
      </trkpt>
      <trkpt lat="46.25707" lon="5.38782">
        <ele>455.4</ele>
        <time>2022-02-12T13:37:12Z</time>
      </trkpt>
      <trkpt lat="46.257" lon="5.38792">
        <ele>454.8</ele>
        <time>2022-02-12T13:37:13Z</time>
      </trkpt>
      <trkpt lat="46.2567" lon="5.38833">
        <ele>453.8</ele>
        <time>2022-02-12T13:37:17Z</time>
      </trkpt>
      <trkpt lat="46.25656" lon="5.38854">
        <ele>453.2</ele>
        <time>2022-02-12T13:37:19Z</time>
      </trkpt>
      <trkpt lat="46.25649" lon="5.38865">
        <ele>452.8</ele>
        <time>2022-02-12T13:37:20Z</time>
      </trkpt>
      <trkpt lat="46.2562" lon="5.38906">
        <ele>451</ele>
        <time>2022-02-12T13:37:24Z</time>
      </trkpt>
      <trkpt lat="46.25598" lon="5.38936">
        <ele>449.8</ele>
        <time>2022-02-12T13:37:27Z</time>
      </trkpt>
      <trkpt lat="46.25598" lon="5.38936">
        <ele>449.2</ele>
        <time>2022-02-12T13:37:28Z</time>
      </trkpt>
      <trkpt lat="46.25583" lon="5.38954">
        <ele>448.2</ele>
        <time>2022-02-12T13:37:29Z</time>
      </trkpt>
      <trkpt lat="46.25551" lon="5.38986">
        <ele>446.8</ele>
        <time>2022-02-12T13:37:33Z</time>
      </trkpt>
      <trkpt lat="46.25525" lon="5.3902">
        <ele>445.4</ele>
        <time>2022-02-12T13:37:37Z</time>
      </trkpt>
      <trkpt lat="46.25517" lon="5.39042">
        <ele>444.8</ele>
        <time>2022-02-12T13:37:39Z</time>
      </trkpt>
      <trkpt lat="46.25515" lon="5.39053">
        <ele>444.4</ele>
        <time>2022-02-12T13:37:40Z</time>
      </trkpt>
      <trkpt lat="46.25514" lon="5.39092">
        <ele>443.8</ele>
        <time>2022-02-12T13:37:43Z</time>
      </trkpt>
      <trkpt lat="46.25515" lon="5.39108">
        <ele>443.8</ele>
        <time>2022-02-12T13:37:44Z</time>
      </trkpt>
      <trkpt lat="46.25513" lon="5.39132">
        <ele>443.4</ele>
        <time>2022-02-12T13:37:46Z</time>
      </trkpt>
      <trkpt lat="46.25505" lon="5.39158">
        <ele>443</ele>
        <time>2022-02-12T13:37:48Z</time>
      </trkpt>
      <trkpt lat="46.25497" lon="5.39168">
        <ele>442.2</ele>
        <time>2022-02-12T13:37:49Z</time>
      </trkpt>
      <trkpt lat="46.25489" lon="5.39176">
        <ele>442</ele>
        <time>2022-02-12T13:37:50Z</time>
      </trkpt>
      <trkpt lat="46.2548" lon="5.39181">
        <ele>441.6</ele>
        <time>2022-02-12T13:37:51Z</time>
      </trkpt>
      <trkpt lat="46.2546" lon="5.39187">
        <ele>440.6</ele>
        <time>2022-02-12T13:37:53Z</time>
      </trkpt>
      <trkpt lat="46.2545" lon="5.3919">
        <ele>439.6</ele>
        <time>2022-02-12T13:37:54Z</time>
      </trkpt>
      <trkpt lat="46.25441" lon="5.39193">
        <ele>438</ele>
        <time>2022-02-12T13:37:56Z</time>
      </trkpt>
      <trkpt lat="46.2541" lon="5.39205">
        <ele>437</ele>
        <time>2022-02-12T13:37:59Z</time>
      </trkpt>
      <trkpt lat="46.25385" lon="5.39215">
        <ele>435.8</ele>
        <time>2022-02-12T13:38:01Z</time>
      </trkpt>
      <trkpt lat="46.25367" lon="5.39221">
        <ele>435.4</ele>
        <time>2022-02-12T13:38:03Z</time>
      </trkpt>
      <trkpt lat="46.25338" lon="5.39225">
        <ele>434.8</ele>
        <time>2022-02-12T13:38:06Z</time>
      </trkpt>
      <trkpt lat="46.2531" lon="5.39223">
        <ele>434.2</ele>
        <time>2022-02-12T13:38:09Z</time>
      </trkpt>
      <trkpt lat="46.2531" lon="5.39223">
        <ele>433.6</ele>
        <time>2022-02-12T13:38:10Z</time>
      </trkpt>
      <trkpt lat="46.25279" lon="5.3922">
        <ele>432.4</ele>
        <time>2022-02-12T13:38:12Z</time>
      </trkpt>
      <trkpt lat="46.25251" lon="5.39217">
        <ele>431.4</ele>
        <time>2022-02-12T13:38:15Z</time>
      </trkpt>
      <trkpt lat="46.25219" lon="5.39217">
        <ele>429.8</ele>
        <time>2022-02-12T13:38:18Z</time>
      </trkpt>
      <trkpt lat="46.25198" lon="5.39214">
        <ele>428.4</ele>
        <time>2022-02-12T13:38:20Z</time>
      </trkpt>
      <trkpt lat="46.25187" lon="5.39211">
        <ele>427.4</ele>
        <time>2022-02-12T13:38:21Z</time>
      </trkpt>
      <trkpt lat="46.25166" lon="5.39203">
        <ele>426</ele>
        <time>2022-02-12T13:38:23Z</time>
      </trkpt>
      <trkpt lat="46.25144" lon="5.39195">
        <ele>424.8</ele>
        <time>2022-02-12T13:38:25Z</time>
      </trkpt>
      <trkpt lat="46.25112" lon="5.39183">
        <ele>423.2</ele>
        <time>2022-02-12T13:38:28Z</time>
      </trkpt>
      <trkpt lat="46.25091" lon="5.39176">
        <ele>422</ele>
        <time>2022-02-12T13:38:30Z</time>
      </trkpt>
      <trkpt lat="46.2508" lon="5.39173">
        <ele>421.6</ele>
        <time>2022-02-12T13:38:31Z</time>
      </trkpt>
      <trkpt lat="46.25068" lon="5.39171">
        <ele>420.6</ele>
        <time>2022-02-12T13:38:32Z</time>
      </trkpt>
      <trkpt lat="46.25045" lon="5.39167">
        <ele>419.2</ele>
        <time>2022-02-12T13:38:34Z</time>
      </trkpt>
      <trkpt lat="46.25023" lon="5.3916">
        <ele>417.6</ele>
        <time>2022-02-12T13:38:36Z</time>
      </trkpt>
      <trkpt lat="46.25011" lon="5.39157">
        <ele>416.2</ele>
        <time>2022-02-12T13:38:37Z</time>
      </trkpt>
      <trkpt lat="46.24998" lon="5.39153">
        <ele>415.8</ele>
        <time>2022-02-12T13:38:38Z</time>
      </trkpt>
      <trkpt lat="46.24989" lon="5.39151">
        <ele>414.8</ele>
        <time>2022-02-12T13:38:39Z</time>
      </trkpt>
      <trkpt lat="46.24968" lon="5.39144">
        <ele>413.6</ele>
        <time>2022-02-12T13:38:41Z</time>
      </trkpt>
      <trkpt lat="46.24947" lon="5.39137">
        <ele>412.4</ele>
        <time>2022-02-12T13:38:43Z</time>
      </trkpt>
      <trkpt lat="46.24927" lon="5.3913">
        <ele>410.8</ele>
        <time>2022-02-12T13:38:45Z</time>
      </trkpt>
      <trkpt lat="46.24917" lon="5.39127">
        <ele>409.6</ele>
        <time>2022-02-12T13:38:46Z</time>
      </trkpt>
      <trkpt lat="46.24876" lon="5.39112">
        <ele>407.8</ele>
        <time>2022-02-12T13:38:50Z</time>
      </trkpt>
      <trkpt lat="46.24851" lon="5.39104">
        <ele>406.4</ele>
        <time>2022-02-12T13:38:53Z</time>
      </trkpt>
      <trkpt lat="46.24838" lon="5.391">
        <ele>405.2</ele>
        <time>2022-02-12T13:38:55Z</time>
      </trkpt>
      <trkpt lat="46.24834" lon="5.39099">
        <ele>404.8</ele>
        <time>2022-02-12T13:38:56Z</time>
      </trkpt>
      <trkpt lat="46.24831" lon="5.391">
        <ele>403.8</ele>
        <time>2022-02-12T13:38:58Z</time>
      </trkpt>
      <trkpt lat="46.24831" lon="5.391">
        <ele>403</ele>
        <time>2022-02-12T13:38:59Z</time>
      </trkpt>
      <trkpt lat="46.24831" lon="5.391">
        <ele>402.2</ele>
        <time>2022-02-12T13:39:00Z</time>
      </trkpt>
      <trkpt lat="46.24828" lon="5.39106">
        <ele>400.6</ele>
        <time>2022-02-12T13:39:05Z</time>
      </trkpt>
      <trkpt lat="46.2483" lon="5.39116">
        <ele>400.4</ele>
        <time>2022-02-12T13:39:07Z</time>
      </trkpt>
      <trkpt lat="46.24844" lon="5.39152">
        <ele>400.4</ele>
        <time>2022-02-12T13:39:12Z</time>
      </trkpt>
      <trkpt lat="46.24873" lon="5.39219">
        <ele>400.4</ele>
        <time>2022-02-12T13:39:20Z</time>
      </trkpt>
      <trkpt lat="46.24876" lon="5.39227">
        <ele>400.2</ele>
        <time>2022-02-12T13:39:21Z</time>
      </trkpt>
      <trkpt lat="46.24904" lon="5.39288">
        <ele>400.2</ele>
        <time>2022-02-12T13:39:28Z</time>
      </trkpt>
      <trkpt lat="46.24912" lon="5.39309">
        <ele>400</ele>
        <time>2022-02-12T13:39:30Z</time>
      </trkpt>
      <trkpt lat="46.24918" lon="5.39333">
        <ele>399.8</ele>
        <time>2022-02-12T13:39:32Z</time>
      </trkpt>
      <trkpt lat="46.24921" lon="5.39345">
        <ele>399.4</ele>
        <time>2022-02-12T13:39:33Z</time>
      </trkpt>
      <trkpt lat="46.2493" lon="5.39398">
        <ele>398.4</ele>
        <time>2022-02-12T13:39:37Z</time>
      </trkpt>
      <trkpt lat="46.24931" lon="5.39412">
        <ele>397.8</ele>
        <time>2022-02-12T13:39:38Z</time>
      </trkpt>
      <trkpt lat="46.24935" lon="5.39451">
        <ele>396.6</ele>
        <time>2022-02-12T13:39:41Z</time>
      </trkpt>
      <trkpt lat="46.24938" lon="5.39477">
        <ele>395.8</ele>
        <time>2022-02-12T13:39:43Z</time>
      </trkpt>
      <trkpt lat="46.24939" lon="5.3949">
        <ele>395.6</ele>
        <time>2022-02-12T13:39:44Z</time>
      </trkpt>
      <trkpt lat="46.24942" lon="5.39517">
        <ele>394</ele>
        <time>2022-02-12T13:39:47Z</time>
      </trkpt>
      <trkpt lat="46.24946" lon="5.39575">
        <ele>393</ele>
        <time>2022-02-12T13:39:50Z</time>
      </trkpt>
      <trkpt lat="46.2495" lon="5.39616">
        <ele>391.8</ele>
        <time>2022-02-12T13:39:53Z</time>
      </trkpt>
      <trkpt lat="46.24951" lon="5.39631">
        <ele>391.2</ele>
        <time>2022-02-12T13:39:54Z</time>
      </trkpt>
      <trkpt lat="46.24952" lon="5.39646">
        <ele>390.4</ele>
        <time>2022-02-12T13:39:56Z</time>
      </trkpt>
      <trkpt lat="46.24958" lon="5.39705">
        <ele>388.8</ele>
        <time>2022-02-12T13:39:59Z</time>
      </trkpt>
      <trkpt lat="46.24961" lon="5.39733">
        <ele>388</ele>
        <time>2022-02-12T13:40:01Z</time>
      </trkpt>
      <trkpt lat="46.24961" lon="5.39733">
        <ele>387.6</ele>
        <time>2022-02-12T13:40:02Z</time>
      </trkpt>
      <trkpt lat="46.24967" lon="5.3979">
        <ele>386</ele>
        <time>2022-02-12T13:40:05Z</time>
      </trkpt>
      <trkpt lat="46.24975" lon="5.39833">
        <ele>384.8</ele>
        <time>2022-02-12T13:40:08Z</time>
      </trkpt>
      <trkpt lat="46.24991" lon="5.39869">
        <ele>383.8</ele>
        <time>2022-02-12T13:40:11Z</time>
      </trkpt>
      <trkpt lat="46.24998" lon="5.39881">
        <ele>383.4</ele>
        <time>2022-02-12T13:40:12Z</time>
      </trkpt>
      <trkpt lat="46.25011" lon="5.39905">
        <ele>382.6</ele>
        <time>2022-02-12T13:40:14Z</time>
      </trkpt>
      <trkpt lat="46.25031" lon="5.39941">
        <ele>381</ele>
        <time>2022-02-12T13:40:17Z</time>
      </trkpt>
      <trkpt lat="46.25044" lon="5.39962">
        <ele>379.6</ele>
        <time>2022-02-12T13:40:19Z</time>
      </trkpt>
      <trkpt lat="46.25066" lon="5.39989">
        <ele>378.2</ele>
        <time>2022-02-12T13:40:22Z</time>
      </trkpt>
      <trkpt lat="46.25074" lon="5.39996">
        <ele>378.2</ele>
        <time>2022-02-12T13:40:23Z</time>
      </trkpt>
      <trkpt lat="46.25074" lon="5.39996">
        <ele>377.2</ele>
        <time>2022-02-12T13:40:24Z</time>
      </trkpt>
      <trkpt lat="46.2511" lon="5.40026">
        <ele>376.2</ele>
        <time>2022-02-12T13:40:27Z</time>
      </trkpt>
      <trkpt lat="46.25137" lon="5.40047">
        <ele>374.8</ele>
        <time>2022-02-12T13:40:30Z</time>
      </trkpt>
      <trkpt lat="46.25147" lon="5.40053">
        <ele>374.4</ele>
        <time>2022-02-12T13:40:31Z</time>
      </trkpt>
      <trkpt lat="46.25166" lon="5.40063">
        <ele>373.4</ele>
        <time>2022-02-12T13:40:33Z</time>
      </trkpt>
      <trkpt lat="46.25195" lon="5.40074">
        <ele>372.4</ele>
        <time>2022-02-12T13:40:36Z</time>
      </trkpt>
      <trkpt lat="46.25222" lon="5.40081">
        <ele>371</ele>
        <time>2022-02-12T13:40:39Z</time>
      </trkpt>
      <trkpt lat="46.25232" lon="5.40081">
        <ele>370.2</ele>
        <time>2022-02-12T13:40:40Z</time>
      </trkpt>
      <trkpt lat="46.25251" lon="5.4008">
        <ele>369.4</ele>
        <time>2022-02-12T13:40:42Z</time>
      </trkpt>
      <trkpt lat="46.25282" lon="5.40077">
        <ele>368.2</ele>
        <time>2022-02-12T13:40:45Z</time>
      </trkpt>
      <trkpt lat="46.25304" lon="5.40079">
        <ele>366.8</ele>
        <time>2022-02-12T13:40:47Z</time>
      </trkpt>
      <trkpt lat="46.25325" lon="5.40086">
        <ele>365.8</ele>
        <time>2022-02-12T13:40:49Z</time>
      </trkpt>
      <trkpt lat="46.25344" lon="5.40098">
        <ele>364.8</ele>
        <time>2022-02-12T13:40:51Z</time>
      </trkpt>
      <trkpt lat="46.25354" lon="5.40105">
        <ele>364.6</ele>
        <time>2022-02-12T13:40:52Z</time>
      </trkpt>
      <trkpt lat="46.25373" lon="5.40122">
        <ele>363.6</ele>
        <time>2022-02-12T13:40:54Z</time>
      </trkpt>
      <trkpt lat="46.25373" lon="5.40122">
        <ele>363</ele>
        <time>2022-02-12T13:40:55Z</time>
      </trkpt>
      <trkpt lat="46.254" lon="5.40146">
        <ele>361.8</ele>
        <time>2022-02-12T13:40:57Z</time>
      </trkpt>
      <trkpt lat="46.25419" lon="5.40163">
        <ele>360.2</ele>
        <time>2022-02-12T13:41:00Z</time>
      </trkpt>
      <trkpt lat="46.25455" lon="5.40196">
        <ele>358.8</ele>
        <time>2022-02-12T13:41:03Z</time>
      </trkpt>
      <trkpt lat="46.25473" lon="5.40213">
        <ele>357.8</ele>
        <time>2022-02-12T13:41:05Z</time>
      </trkpt>
      <trkpt lat="46.255" lon="5.40238">
        <ele>356.4</ele>
        <time>2022-02-12T13:41:08Z</time>
      </trkpt>
      <trkpt lat="46.25518" lon="5.40256">
        <ele>355.2</ele>
        <time>2022-02-12T13:41:10Z</time>
      </trkpt>
      <trkpt lat="46.25526" lon="5.40266">
        <ele>354.6</ele>
        <time>2022-02-12T13:41:11Z</time>
      </trkpt>
      <trkpt lat="46.25532" lon="5.40277">
        <ele>353.8</ele>
        <time>2022-02-12T13:41:12Z</time>
      </trkpt>
      <trkpt lat="46.25538" lon="5.4029">
        <ele>352.8</ele>
        <time>2022-02-12T13:41:14Z</time>
      </trkpt>
      <trkpt lat="46.25547" lon="5.40317">
        <ele>352.6</ele>
        <time>2022-02-12T13:41:15Z</time>
      </trkpt>
      <trkpt lat="46.25551" lon="5.40333">
        <ele>352.2</ele>
        <time>2022-02-12T13:41:16Z</time>
      </trkpt>
      <trkpt lat="46.25555" lon="5.40358">
        <ele>351.4</ele>
        <time>2022-02-12T13:41:18Z</time>
      </trkpt>
      <trkpt lat="46.25554" lon="5.40385">
        <ele>350.6</ele>
        <time>2022-02-12T13:41:20Z</time>
      </trkpt>
      <trkpt lat="46.25552" lon="5.40401">
        <ele>350</ele>
        <time>2022-02-12T13:41:21Z</time>
      </trkpt>
      <trkpt lat="46.25543" lon="5.40434">
        <ele>348.6</ele>
        <time>2022-02-12T13:41:24Z</time>
      </trkpt>
      <trkpt lat="46.25533" lon="5.40469">
        <ele>347.6</ele>
        <time>2022-02-12T13:41:27Z</time>
      </trkpt>
      <trkpt lat="46.25524" lon="5.40503">
        <ele>346.6</ele>
        <time>2022-02-12T13:41:30Z</time>
      </trkpt>
      <trkpt lat="46.25522" lon="5.40512">
        <ele>346.4</ele>
        <time>2022-02-12T13:41:31Z</time>
      </trkpt>
      <trkpt lat="46.25521" lon="5.40522">
        <ele>345.8</ele>
        <time>2022-02-12T13:41:33Z</time>
      </trkpt>
      <trkpt lat="46.25523" lon="5.40542">
        <ele>345.2</ele>
        <time>2022-02-12T13:41:34Z</time>
      </trkpt>
      <trkpt lat="46.25526" lon="5.4056">
        <ele>344.8</ele>
        <time>2022-02-12T13:41:36Z</time>
      </trkpt>
      <trkpt lat="46.25527" lon="5.40569">
        <ele>344.6</ele>
        <time>2022-02-12T13:41:37Z</time>
      </trkpt>
      <trkpt lat="46.25529" lon="5.40584">
        <ele>344.4</ele>
        <time>2022-02-12T13:41:39Z</time>
      </trkpt>
      <trkpt lat="46.2553" lon="5.4059">
        <ele>344.2</ele>
        <time>2022-02-12T13:41:40Z</time>
      </trkpt>
      <trkpt lat="46.25533" lon="5.40596">
        <ele>344.2</ele>
        <time>2022-02-12T13:41:41Z</time>
      </trkpt>
      <trkpt lat="46.2554" lon="5.40602">
        <ele>344.2</ele>
        <time>2022-02-12T13:41:43Z</time>
      </trkpt>
      <trkpt lat="46.25548" lon="5.40604">
        <ele>344.4</ele>
        <time>2022-02-12T13:41:45Z</time>
      </trkpt>
      <trkpt lat="46.25552" lon="5.40606">
        <ele>344.6</ele>
        <time>2022-02-12T13:41:47Z</time>
      </trkpt>
      <trkpt lat="46.25577" lon="5.40624">
        <ele>345.6</ele>
        <time>2022-02-12T13:41:52Z</time>
      </trkpt>
      <trkpt lat="46.2558" lon="5.40627">
        <ele>346</ele>
        <time>2022-02-12T13:41:53Z</time>
      </trkpt>
      <trkpt lat="46.2559" lon="5.40633">
        <ele>346.6</ele>
        <time>2022-02-12T13:41:55Z</time>
      </trkpt>
      <trkpt lat="46.256" lon="5.40637">
        <ele>347</ele>
        <time>2022-02-12T13:41:57Z</time>
      </trkpt>
      <trkpt lat="46.2563" lon="5.40641">
        <ele>347.6</ele>
        <time>2022-02-12T13:42:03Z</time>
      </trkpt>
      <trkpt lat="46.25635" lon="5.40642">
        <ele>347.8</ele>
        <time>2022-02-12T13:42:04Z</time>
      </trkpt>
      <trkpt lat="46.25667" lon="5.40645">
        <ele>348.2</ele>
        <time>2022-02-12T13:42:10Z</time>
      </trkpt>
      <trkpt lat="46.25713" lon="5.4065">
        <ele>347.8</ele>
        <time>2022-02-12T13:42:19Z</time>
      </trkpt>
      <trkpt lat="46.25756" lon="5.40658">
        <ele>348.2</ele>
        <time>2022-02-12T13:42:29Z</time>
      </trkpt>
      <trkpt lat="46.2578" lon="5.40664">
        <ele>348.2</ele>
        <time>2022-02-12T13:42:33Z</time>
      </trkpt>
      <trkpt lat="46.25793" lon="5.40668">
        <ele>348.8</ele>
        <time>2022-02-12T13:42:36Z</time>
      </trkpt>
      <trkpt lat="46.2581" lon="5.40673">
        <ele>349.8</ele>
        <time>2022-02-12T13:42:40Z</time>
      </trkpt>
      <trkpt lat="46.25823" lon="5.40677">
        <ele>350.4</ele>
        <time>2022-02-12T13:42:43Z</time>
      </trkpt>
      <trkpt lat="46.2584" lon="5.40683">
        <ele>351.2</ele>
        <time>2022-02-12T13:42:47Z</time>
      </trkpt>
      <trkpt lat="46.25866" lon="5.40692">
        <ele>352</ele>
        <time>2022-02-12T13:42:53Z</time>
      </trkpt>
      <trkpt lat="46.25875" lon="5.40697">
        <ele>352.2</ele>
        <time>2022-02-12T13:42:55Z</time>
      </trkpt>
      <trkpt lat="46.25886" lon="5.40705">
        <ele>352.8</ele>
        <time>2022-02-12T13:42:58Z</time>
      </trkpt>
      <trkpt lat="46.2589" lon="5.40709">
        <ele>352.8</ele>
        <time>2022-02-12T13:42:59Z</time>
      </trkpt>
      <trkpt lat="46.25901" lon="5.40721">
        <ele>353.2</ele>
        <time>2022-02-12T13:43:02Z</time>
      </trkpt>
      <trkpt lat="46.25921" lon="5.40747">
        <ele>353.8</ele>
        <time>2022-02-12T13:43:08Z</time>
      </trkpt>
      <trkpt lat="46.25933" lon="5.40762">
        <ele>354.2</ele>
        <time>2022-02-12T13:43:12Z</time>
      </trkpt>
      <trkpt lat="46.25945" lon="5.40775">
        <ele>355.4</ele>
        <time>2022-02-12T13:43:16Z</time>
      </trkpt>
      <trkpt lat="46.25947" lon="5.40778">
        <ele>355.6</ele>
        <time>2022-02-12T13:43:18Z</time>
      </trkpt>
      <trkpt lat="46.25948" lon="5.40778">
        <ele>355.8</ele>
        <time>2022-02-12T13:43:19Z</time>
      </trkpt>
      <trkpt lat="46.25948" lon="5.40778">
        <ele>355.8</ele>
        <time>2022-02-12T13:43:20Z</time>
      </trkpt>
      <trkpt lat="46.25949" lon="5.40781">
        <ele>355.6</ele>
        <time>2022-02-12T13:43:39Z</time>
      </trkpt>
      <trkpt lat="46.25953" lon="5.40787">
        <ele>355.8</ele>
        <time>2022-02-12T13:43:41Z</time>
      </trkpt>
      <trkpt lat="46.25966" lon="5.40811">
        <ele>355.6</ele>
        <time>2022-02-12T13:43:46Z</time>
      </trkpt>
      <trkpt lat="46.25983" lon="5.40843">
        <ele>355.2</ele>
        <time>2022-02-12T13:43:51Z</time>
      </trkpt>
      <trkpt lat="46.26002" lon="5.40871">
        <ele>354.2</ele>
        <time>2022-02-12T13:43:55Z</time>
      </trkpt>
      <trkpt lat="46.26007" lon="5.40878">
        <ele>354</ele>
        <time>2022-02-12T13:43:56Z</time>
      </trkpt>
      <trkpt lat="46.26019" lon="5.4089">
        <ele>353.2</ele>
        <time>2022-02-12T13:43:58Z</time>
      </trkpt>
      <trkpt lat="46.26039" lon="5.40906">
        <ele>352.4</ele>
        <time>2022-02-12T13:44:01Z</time>
      </trkpt>
      <trkpt lat="46.26045" lon="5.40911">
        <ele>352</ele>
        <time>2022-02-12T13:44:02Z</time>
      </trkpt>
      <trkpt lat="46.26091" lon="5.40947">
        <ele>351.6</ele>
        <time>2022-02-12T13:44:10Z</time>
      </trkpt>
      <trkpt lat="46.26112" lon="5.40959">
        <ele>351.6</ele>
        <time>2022-02-12T13:44:14Z</time>
      </trkpt>
      <trkpt lat="46.26127" lon="5.40966">
        <ele>352.4</ele>
        <time>2022-02-12T13:44:17Z</time>
      </trkpt>
      <trkpt lat="46.26138" lon="5.4097">
        <ele>353.2</ele>
        <time>2022-02-12T13:44:19Z</time>
      </trkpt>
      <trkpt lat="46.26179" lon="5.40986">
        <ele>353.8</ele>
        <time>2022-02-12T13:44:26Z</time>
      </trkpt>
      <trkpt lat="46.26222" lon="5.40999">
        <ele>353.4</ele>
        <time>2022-02-12T13:44:33Z</time>
      </trkpt>
      <trkpt lat="46.26228" lon="5.41">
        <ele>353.2</ele>
        <time>2022-02-12T13:44:34Z</time>
      </trkpt>
      <trkpt lat="46.26255" lon="5.41005">
        <ele>353</ele>
        <time>2022-02-12T13:44:38Z</time>
      </trkpt>
      <trkpt lat="46.26297" lon="5.41012">
        <ele>352.6</ele>
        <time>2022-02-12T13:44:44Z</time>
      </trkpt>
      <trkpt lat="46.26345" lon="5.41019">
        <ele>353</ele>
        <time>2022-02-12T13:44:52Z</time>
      </trkpt>
      <trkpt lat="46.26378" lon="5.41023">
        <ele>354.4</ele>
        <time>2022-02-12T13:44:58Z</time>
      </trkpt>
      <trkpt lat="46.26381" lon="5.41024">
        <ele>354.8</ele>
        <time>2022-02-12T13:44:59Z</time>
      </trkpt>
      <trkpt lat="46.26399" lon="5.41029">
        <ele>355.2</ele>
        <time>2022-02-12T13:45:02Z</time>
      </trkpt>
      <trkpt lat="46.26404" lon="5.41031">
        <ele>355.4</ele>
        <time>2022-02-12T13:45:03Z</time>
      </trkpt>
      <trkpt lat="46.26458" lon="5.41041">
        <ele>356</ele>
        <time>2022-02-12T13:45:12Z</time>
      </trkpt>
      <trkpt lat="46.26499" lon="5.4104">
        <ele>356.4</ele>
        <time>2022-02-12T13:45:19Z</time>
      </trkpt>
      <trkpt lat="46.26515" lon="5.41039">
        <ele>356.6</ele>
        <time>2022-02-12T13:45:22Z</time>
      </trkpt>
      <trkpt lat="46.2653" lon="5.41038">
        <ele>357</ele>
        <time>2022-02-12T13:45:25Z</time>
      </trkpt>
      <trkpt lat="46.26551" lon="5.4104">
        <ele>357.4</ele>
        <time>2022-02-12T13:45:29Z</time>
      </trkpt>
      <trkpt lat="46.26556" lon="5.41043">
        <ele>357.6</ele>
        <time>2022-02-12T13:45:30Z</time>
      </trkpt>
      <trkpt lat="46.2656" lon="5.41045">
        <ele>357.8</ele>
        <time>2022-02-12T13:45:31Z</time>
      </trkpt>
      <trkpt lat="46.26576" lon="5.41059">
        <ele>358.8</ele>
        <time>2022-02-12T13:45:35Z</time>
      </trkpt>
      <trkpt lat="46.26594" lon="5.41074">
        <ele>359.4</ele>
        <time>2022-02-12T13:45:39Z</time>
      </trkpt>
      <trkpt lat="46.26602" lon="5.41079">
        <ele>359.6</ele>
        <time>2022-02-12T13:45:41Z</time>
      </trkpt>
      <trkpt lat="46.26606" lon="5.41082">
        <ele>360</ele>
        <time>2022-02-12T13:45:42Z</time>
      </trkpt>
      <trkpt lat="46.26621" lon="5.41094">
        <ele>361</ele>
        <time>2022-02-12T13:45:46Z</time>
      </trkpt>
      <trkpt lat="46.26625" lon="5.41097">
        <ele>361.2</ele>
        <time>2022-02-12T13:45:47Z</time>
      </trkpt>
      <trkpt lat="46.26646" lon="5.41115">
        <ele>362.4</ele>
        <time>2022-02-12T13:45:53Z</time>
      </trkpt>
      <trkpt lat="46.26649" lon="5.41119">
        <ele>362.6</ele>
        <time>2022-02-12T13:45:54Z</time>
      </trkpt>
      <trkpt lat="46.2666" lon="5.41139">
        <ele>363.2</ele>
        <time>2022-02-12T13:45:57Z</time>
      </trkpt>
      <trkpt lat="46.26663" lon="5.41146">
        <ele>363.4</ele>
        <time>2022-02-12T13:45:58Z</time>
      </trkpt>
      <trkpt lat="46.26673" lon="5.4117">
        <ele>363.6</ele>
        <time>2022-02-12T13:46:01Z</time>
      </trkpt>
      <trkpt lat="46.26682" lon="5.41187">
        <ele>363.6</ele>
        <time>2022-02-12T13:46:03Z</time>
      </trkpt>
      <trkpt lat="46.26707" lon="5.4122">
        <ele>363</ele>
        <time>2022-02-12T13:46:08Z</time>
      </trkpt>
      <trkpt lat="46.2674" lon="5.41246">
        <ele>362.6</ele>
        <time>2022-02-12T13:46:14Z</time>
      </trkpt>
      <trkpt lat="46.26761" lon="5.4127">
        <ele>363.6</ele>
        <time>2022-02-12T13:46:19Z</time>
      </trkpt>
      <trkpt lat="46.26787" lon="5.413">
        <ele>364.4</ele>
        <time>2022-02-12T13:46:26Z</time>
      </trkpt>
      <trkpt lat="46.26802" lon="5.41313">
        <ele>365.8</ele>
        <time>2022-02-12T13:46:30Z</time>
      </trkpt>
      <trkpt lat="46.26817" lon="5.41325">
        <ele>366.6</ele>
        <time>2022-02-12T13:46:34Z</time>
      </trkpt>
      <trkpt lat="46.26825" lon="5.41333">
        <ele>367</ele>
        <time>2022-02-12T13:46:36Z</time>
      </trkpt>
      <trkpt lat="46.26829" lon="5.41338">
        <ele>367</ele>
        <time>2022-02-12T13:46:37Z</time>
      </trkpt>
      <trkpt lat="46.26845" lon="5.41362">
        <ele>367.8</ele>
        <time>2022-02-12T13:46:42Z</time>
      </trkpt>
      <trkpt lat="46.26848" lon="5.41368">
        <ele>368</ele>
        <time>2022-02-12T13:46:43Z</time>
      </trkpt>
      <trkpt lat="46.2686" lon="5.4139">
        <ele>369</ele>
        <time>2022-02-12T13:46:48Z</time>
      </trkpt>
      <trkpt lat="46.26864" lon="5.41398">
        <ele>369.2</ele>
        <time>2022-02-12T13:46:50Z</time>
      </trkpt>
      <trkpt lat="46.26873" lon="5.41421">
        <ele>369.8</ele>
        <time>2022-02-12T13:46:55Z</time>
      </trkpt>
      <trkpt lat="46.26875" lon="5.41431">
        <ele>370.2</ele>
        <time>2022-02-12T13:46:57Z</time>
      </trkpt>
      <trkpt lat="46.26879" lon="5.41458">
        <ele>371.2</ele>
        <time>2022-02-12T13:47:01Z</time>
      </trkpt>
      <trkpt lat="46.26879" lon="5.41466">
        <ele>371.4</ele>
        <time>2022-02-12T13:47:02Z</time>
      </trkpt>
      <trkpt lat="46.26878" lon="5.41478">
        <ele>371.6</ele>
        <time>2022-02-12T13:47:04Z</time>
      </trkpt>
      <trkpt lat="46.26877" lon="5.41486">
        <ele>371.6</ele>
        <time>2022-02-12T13:47:05Z</time>
      </trkpt>
      <trkpt lat="46.26862" lon="5.41533">
        <ele>372</ele>
        <time>2022-02-12T13:47:12Z</time>
      </trkpt>
      <trkpt lat="46.26856" lon="5.41545">
        <ele>372.4</ele>
        <time>2022-02-12T13:47:14Z</time>
      </trkpt>
      <trkpt lat="46.26849" lon="5.41561">
        <ele>372.6</ele>
        <time>2022-02-12T13:47:17Z</time>
      </trkpt>
      <trkpt lat="46.26846" lon="5.41566">
        <ele>372.6</ele>
        <time>2022-02-12T13:47:18Z</time>
      </trkpt>
      <trkpt lat="46.26836" lon="5.41584">
        <ele>373.6</ele>
        <time>2022-02-12T13:47:22Z</time>
      </trkpt>
      <trkpt lat="46.26833" lon="5.41589">
        <ele>373.6</ele>
        <time>2022-02-12T13:47:23Z</time>
      </trkpt>
      <trkpt lat="46.26817" lon="5.41623">
        <ele>374.4</ele>
        <time>2022-02-12T13:47:29Z</time>
      </trkpt>
      <trkpt lat="46.26814" lon="5.41629">
        <ele>374.4</ele>
        <time>2022-02-12T13:47:30Z</time>
      </trkpt>
      <trkpt lat="46.26807" lon="5.41647">
        <ele>374.8</ele>
        <time>2022-02-12T13:47:33Z</time>
      </trkpt>
      <trkpt lat="46.26797" lon="5.41685">
        <ele>375.2</ele>
        <time>2022-02-12T13:47:38Z</time>
      </trkpt>
      <trkpt lat="46.26785" lon="5.41744">
        <ele>375</ele>
        <time>2022-02-12T13:47:44Z</time>
      </trkpt>
      <trkpt lat="46.26768" lon="5.41824">
        <ele>373.8</ele>
        <time>2022-02-12T13:47:52Z</time>
      </trkpt>
      <trkpt lat="46.26764" lon="5.41845">
        <ele>373.6</ele>
        <time>2022-02-12T13:47:54Z</time>
      </trkpt>
      <trkpt lat="46.26753" lon="5.41886">
        <ele>373.2</ele>
        <time>2022-02-12T13:47:58Z</time>
      </trkpt>
      <trkpt lat="46.26749" lon="5.41894">
        <ele>372.6</ele>
        <time>2022-02-12T13:47:59Z</time>
      </trkpt>
      <trkpt lat="46.26743" lon="5.419">
        <ele>372.2</ele>
        <time>2022-02-12T13:48:00Z</time>
      </trkpt>
      <trkpt lat="46.26737" lon="5.41904">
        <ele>371.6</ele>
        <time>2022-02-12T13:48:01Z</time>
      </trkpt>
      <trkpt lat="46.26728" lon="5.41908">
        <ele>371.2</ele>
        <time>2022-02-12T13:48:02Z</time>
      </trkpt>
      <trkpt lat="46.26713" lon="5.41912">
        <ele>370.2</ele>
        <time>2022-02-12T13:48:04Z</time>
      </trkpt>
      <trkpt lat="46.26705" lon="5.41914">
        <ele>369.2</ele>
        <time>2022-02-12T13:48:05Z</time>
      </trkpt>
      <trkpt lat="46.26696" lon="5.41916">
        <ele>368.6</ele>
        <time>2022-02-12T13:48:06Z</time>
      </trkpt>
      <trkpt lat="46.26681" lon="5.4192">
        <ele>367.2</ele>
        <time>2022-02-12T13:48:08Z</time>
      </trkpt>
      <trkpt lat="46.26674" lon="5.41922">
        <ele>366.6</ele>
        <time>2022-02-12T13:48:09Z</time>
      </trkpt>
      <trkpt lat="46.26666" lon="5.41925">
        <ele>366</ele>
        <time>2022-02-12T13:48:10Z</time>
      </trkpt>
      <trkpt lat="46.2666" lon="5.4193">
        <ele>365.8</ele>
        <time>2022-02-12T13:48:11Z</time>
      </trkpt>
      <trkpt lat="46.26652" lon="5.41943">
        <ele>365.2</ele>
        <time>2022-02-12T13:48:13Z</time>
      </trkpt>
      <trkpt lat="46.26649" lon="5.41952">
        <ele>364.6</ele>
        <time>2022-02-12T13:48:14Z</time>
      </trkpt>
      <trkpt lat="46.26645" lon="5.41975">
        <ele>363.8</ele>
        <time>2022-02-12T13:48:16Z</time>
      </trkpt>
      <trkpt lat="46.26643" lon="5.42001">
        <ele>363.4</ele>
        <time>2022-02-12T13:48:18Z</time>
      </trkpt>
      <trkpt lat="46.26642" lon="5.42031">
        <ele>362.8</ele>
        <time>2022-02-12T13:48:20Z</time>
      </trkpt>
      <trkpt lat="46.26641" lon="5.42047">
        <ele>362.2</ele>
        <time>2022-02-12T13:48:21Z</time>
      </trkpt>
      <trkpt lat="46.26637" lon="5.42079">
        <ele>360.2</ele>
        <time>2022-02-12T13:48:23Z</time>
      </trkpt>
      <trkpt lat="46.26634" lon="5.42094">
        <ele>359.4</ele>
        <time>2022-02-12T13:48:24Z</time>
      </trkpt>
      <trkpt lat="46.26632" lon="5.42109">
        <ele>359.2</ele>
        <time>2022-02-12T13:48:25Z</time>
      </trkpt>
      <trkpt lat="46.2663" lon="5.42124">
        <ele>358</ele>
        <time>2022-02-12T13:48:26Z</time>
      </trkpt>
      <trkpt lat="46.26627" lon="5.42154">
        <ele>356.8</ele>
        <time>2022-02-12T13:48:28Z</time>
      </trkpt>
      <trkpt lat="46.26624" lon="5.42187">
        <ele>355.8</ele>
        <time>2022-02-12T13:48:30Z</time>
      </trkpt>
      <trkpt lat="46.26623" lon="5.42214">
        <ele>354.4</ele>
        <time>2022-02-12T13:48:32Z</time>
      </trkpt>
      <trkpt lat="46.26623" lon="5.42245">
        <ele>353</ele>
        <time>2022-02-12T13:48:34Z</time>
      </trkpt>
      <trkpt lat="46.26626" lon="5.42288">
        <ele>351.6</ele>
        <time>2022-02-12T13:48:37Z</time>
      </trkpt>
      <trkpt lat="46.26626" lon="5.42302">
        <ele>351.4</ele>
        <time>2022-02-12T13:48:38Z</time>
      </trkpt>
      <trkpt lat="46.26627" lon="5.42328">
        <ele>350.4</ele>
        <time>2022-02-12T13:48:40Z</time>
      </trkpt>
      <trkpt lat="46.26627" lon="5.42354">
        <ele>348.8</ele>
        <time>2022-02-12T13:48:42Z</time>
      </trkpt>
      <trkpt lat="46.26627" lon="5.42378">
        <ele>348.4</ele>
        <time>2022-02-12T13:48:44Z</time>
      </trkpt>
      <trkpt lat="46.26627" lon="5.42424">
        <ele>347.6</ele>
        <time>2022-02-12T13:48:48Z</time>
      </trkpt>
      <trkpt lat="46.26627" lon="5.42458">
        <ele>347.2</ele>
        <time>2022-02-12T13:48:51Z</time>
      </trkpt>
      <trkpt lat="46.26623" lon="5.42512">
        <ele>346.4</ele>
        <time>2022-02-12T13:48:56Z</time>
      </trkpt>
      <trkpt lat="46.2662" lon="5.42546">
        <ele>345.6</ele>
        <time>2022-02-12T13:48:59Z</time>
      </trkpt>
      <trkpt lat="46.26619" lon="5.42557">
        <ele>345.4</ele>
        <time>2022-02-12T13:49:00Z</time>
      </trkpt>
      <trkpt lat="46.26617" lon="5.42607">
        <ele>344.4</ele>
        <time>2022-02-12T13:49:05Z</time>
      </trkpt>
      <trkpt lat="46.26617" lon="5.42613">
        <ele>344.2</ele>
        <time>2022-02-12T13:49:06Z</time>
      </trkpt>
      <trkpt lat="46.26615" lon="5.42622">
        <ele>344</ele>
        <time>2022-02-12T13:49:08Z</time>
      </trkpt>
      <trkpt lat="46.26612" lon="5.42629">
        <ele>343.2</ele>
        <time>2022-02-12T13:49:12Z</time>
      </trkpt>
      <trkpt lat="46.26612" lon="5.42629">
        <ele>343</ele>
        <time>2022-02-12T13:49:13Z</time>
      </trkpt>
      <trkpt lat="46.26612" lon="5.42629">
        <ele>343</ele>
        <time>2022-02-12T13:49:14Z</time>
      </trkpt>
      <trkpt lat="46.26613" lon="5.42636">
        <ele>342.4</ele>
        <time>2022-02-12T13:49:21Z</time>
      </trkpt>
      <trkpt lat="46.26615" lon="5.42637">
        <ele>342.4</ele>
        <time>2022-02-12T13:49:22Z</time>
      </trkpt>
      <trkpt lat="46.26633" lon="5.42643">
        <ele>342.4</ele>
        <time>2022-02-12T13:49:26Z</time>
      </trkpt>
      <trkpt lat="46.26656" lon="5.42649">
        <ele>342.4</ele>
        <time>2022-02-12T13:49:30Z</time>
      </trkpt>
      <trkpt lat="46.26662" lon="5.42651">
        <ele>342.4</ele>
        <time>2022-02-12T13:49:31Z</time>
      </trkpt>
      <trkpt lat="46.26706" lon="5.42663">
        <ele>343.2</ele>
        <time>2022-02-12T13:49:38Z</time>
      </trkpt>
      <trkpt lat="46.26759" lon="5.42677">
        <ele>344</ele>
        <time>2022-02-12T13:49:46Z</time>
      </trkpt>
      <trkpt lat="46.26773" lon="5.4268">
        <ele>344</ele>
        <time>2022-02-12T13:49:48Z</time>
      </trkpt>
      <trkpt lat="46.2682" lon="5.42693">
        <ele>343.8</ele>
        <time>2022-02-12T13:49:55Z</time>
      </trkpt>
      <trkpt lat="46.26854" lon="5.42704">
        <ele>344</ele>
        <time>2022-02-12T13:50:00Z</time>
      </trkpt>
      <trkpt lat="46.26878" lon="5.42713">
        <ele>344.2</ele>
        <time>2022-02-12T13:50:04Z</time>
      </trkpt>
      <trkpt lat="46.26889" lon="5.42718">
        <ele>344.6</ele>
        <time>2022-02-12T13:50:06Z</time>
      </trkpt>
      <trkpt lat="46.2691" lon="5.42727">
        <ele>345.6</ele>
        <time>2022-02-12T13:50:10Z</time>
      </trkpt>
      <trkpt lat="46.26934" lon="5.42736">
        <ele>346</ele>
        <time>2022-02-12T13:50:14Z</time>
      </trkpt>
      <trkpt lat="46.26988" lon="5.42751">
        <ele>346.4</ele>
        <time>2022-02-12T13:50:23Z</time>
      </trkpt>
      <trkpt lat="46.27038" lon="5.42763">
        <ele>346.8</ele>
        <time>2022-02-12T13:50:31Z</time>
      </trkpt>
      <trkpt lat="46.27044" lon="5.42764">
        <ele>346.8</ele>
        <time>2022-02-12T13:50:32Z</time>
      </trkpt>
      <trkpt lat="46.27089" lon="5.42768">
        <ele>348</ele>
        <time>2022-02-12T13:50:40Z</time>
      </trkpt>
      <trkpt lat="46.27122" lon="5.4277">
        <ele>349</ele>
        <time>2022-02-12T13:50:46Z</time>
      </trkpt>
      <trkpt lat="46.27133" lon="5.42772">
        <ele>349.2</ele>
        <time>2022-02-12T13:50:48Z</time>
      </trkpt>
      <trkpt lat="46.27161" lon="5.42782">
        <ele>350.2</ele>
        <time>2022-02-12T13:50:53Z</time>
      </trkpt>
      <trkpt lat="46.27177" lon="5.4279">
        <ele>350.6</ele>
        <time>2022-02-12T13:50:56Z</time>
      </trkpt>
      <trkpt lat="46.27232" lon="5.42822">
        <ele>351</ele>
        <time>2022-02-12T13:51:05Z</time>
      </trkpt>
      <trkpt lat="46.27285" lon="5.42858">
        <ele>350.6</ele>
        <time>2022-02-12T13:51:13Z</time>
      </trkpt>
      <trkpt lat="46.27324" lon="5.42881">
        <ele>349.4</ele>
        <time>2022-02-12T13:51:18Z</time>
      </trkpt>
      <trkpt lat="46.27332" lon="5.42885">
        <ele>349.2</ele>
        <time>2022-02-12T13:51:19Z</time>
      </trkpt>
      <trkpt lat="46.27375" lon="5.42901">
        <ele>348.2</ele>
        <time>2022-02-12T13:51:24Z</time>
      </trkpt>
      <trkpt lat="46.27426" lon="5.42918">
        <ele>347</ele>
        <time>2022-02-12T13:51:30Z</time>
      </trkpt>
      <trkpt lat="46.27434" lon="5.4292">
        <ele>347</ele>
        <time>2022-02-12T13:51:31Z</time>
      </trkpt>
      <trkpt lat="46.27491" lon="5.42939">
        <ele>346.8</ele>
        <time>2022-02-12T13:51:38Z</time>
      </trkpt>
      <trkpt lat="46.27507" lon="5.42944">
        <ele>346.8</ele>
        <time>2022-02-12T13:51:40Z</time>
      </trkpt>
      <trkpt lat="46.27561" lon="5.42961">
        <ele>347.2</ele>
        <time>2022-02-12T13:51:47Z</time>
      </trkpt>
      <trkpt lat="46.27569" lon="5.42964">
        <ele>347.2</ele>
        <time>2022-02-12T13:51:48Z</time>
      </trkpt>
      <trkpt lat="46.27625" lon="5.42983">
        <ele>347.2</ele>
        <time>2022-02-12T13:51:55Z</time>
      </trkpt>
      <trkpt lat="46.27648" lon="5.4299">
        <ele>347.2</ele>
        <time>2022-02-12T13:51:58Z</time>
      </trkpt>
      <trkpt lat="46.2768" lon="5.43001">
        <ele>347.2</ele>
        <time>2022-02-12T13:52:03Z</time>
      </trkpt>
      <trkpt lat="46.27687" lon="5.43004">
        <ele>347.2</ele>
        <time>2022-02-12T13:52:06Z</time>
      </trkpt>
      <trkpt lat="46.27687" lon="5.43005">
        <ele>347.2</ele>
        <time>2022-02-12T13:52:09Z</time>
      </trkpt>
      <trkpt lat="46.27691" lon="5.43006">
        <ele>346.4</ele>
        <time>2022-02-12T13:53:47Z</time>
      </trkpt>
      <trkpt lat="46.27692" lon="5.43006">
        <ele>346.4</ele>
        <time>2022-02-12T13:53:48Z</time>
      </trkpt>
      <trkpt lat="46.27708" lon="5.43012">
        <ele>346.4</ele>
        <time>2022-02-12T13:53:53Z</time>
      </trkpt>
      <trkpt lat="46.27713" lon="5.43013">
        <ele>346.4</ele>
        <time>2022-02-12T13:53:54Z</time>
      </trkpt>
      <trkpt lat="46.27731" lon="5.4302">
        <ele>346.4</ele>
        <time>2022-02-12T13:53:57Z</time>
      </trkpt>
      <trkpt lat="46.27767" lon="5.43035">
        <ele>346.6</ele>
        <time>2022-02-12T13:54:02Z</time>
      </trkpt>
      <trkpt lat="46.27815" lon="5.43049">
        <ele>346.4</ele>
        <time>2022-02-12T13:54:08Z</time>
      </trkpt>
      <trkpt lat="46.27873" lon="5.43049">
        <ele>346</ele>
        <time>2022-02-12T13:54:15Z</time>
      </trkpt>
      <trkpt lat="46.27928" lon="5.43058">
        <ele>345.8</ele>
        <time>2022-02-12T13:54:22Z</time>
      </trkpt>
      <trkpt lat="46.27944" lon="5.43061">
        <ele>346</ele>
        <time>2022-02-12T13:54:24Z</time>
      </trkpt>
      <trkpt lat="46.27998" lon="5.43072">
        <ele>346.2</ele>
        <time>2022-02-12T13:54:31Z</time>
      </trkpt>
      <trkpt lat="46.28021" lon="5.43077">
        <ele>346.2</ele>
        <time>2022-02-12T13:54:34Z</time>
      </trkpt>
      <trkpt lat="46.28074" lon="5.43088">
        <ele>346.4</ele>
        <time>2022-02-12T13:54:41Z</time>
      </trkpt>
      <trkpt lat="46.28098" lon="5.43093">
        <ele>346.4</ele>
        <time>2022-02-12T13:54:44Z</time>
      </trkpt>
      <trkpt lat="46.28153" lon="5.43104">
        <ele>346.2</ele>
        <time>2022-02-12T13:54:51Z</time>
      </trkpt>
      <trkpt lat="46.28176" lon="5.43109">
        <ele>346.2</ele>
        <time>2022-02-12T13:54:54Z</time>
      </trkpt>
      <trkpt lat="46.28231" lon="5.43119">
        <ele>346.4</ele>
        <time>2022-02-12T13:55:01Z</time>
      </trkpt>
      <trkpt lat="46.28255" lon="5.43124">
        <ele>346.6</ele>
        <time>2022-02-12T13:55:04Z</time>
      </trkpt>
      <trkpt lat="46.2831" lon="5.43132">
        <ele>346.6</ele>
        <time>2022-02-12T13:55:11Z</time>
      </trkpt>
      <trkpt lat="46.28325" lon="5.43132">
        <ele>346.8</ele>
        <time>2022-02-12T13:55:13Z</time>
      </trkpt>
      <trkpt lat="46.28382" lon="5.43125">
        <ele>346.8</ele>
        <time>2022-02-12T13:55:20Z</time>
      </trkpt>
      <trkpt lat="46.28389" lon="5.43124">
        <ele>346.8</ele>
        <time>2022-02-12T13:55:21Z</time>
      </trkpt>
      <trkpt lat="46.28444" lon="5.43117">
        <ele>347</ele>
        <time>2022-02-12T13:55:28Z</time>
      </trkpt>
      <trkpt lat="46.28483" lon="5.43112">
        <ele>347.2</ele>
        <time>2022-02-12T13:55:33Z</time>
      </trkpt>
      <trkpt lat="46.28538" lon="5.43108">
        <ele>347.6</ele>
        <time>2022-02-12T13:55:40Z</time>
      </trkpt>
      <trkpt lat="46.28545" lon="5.43108">
        <ele>347.8</ele>
        <time>2022-02-12T13:55:41Z</time>
      </trkpt>
      <trkpt lat="46.286" lon="5.43108">
        <ele>347.8</ele>
        <time>2022-02-12T13:55:48Z</time>
      </trkpt>
      <trkpt lat="46.28607" lon="5.43108">
        <ele>348</ele>
        <time>2022-02-12T13:55:49Z</time>
      </trkpt>
      <trkpt lat="46.28669" lon="5.43114">
        <ele>348.4</ele>
        <time>2022-02-12T13:55:57Z</time>
      </trkpt>
      <trkpt lat="46.287" lon="5.43117">
        <ele>348.4</ele>
        <time>2022-02-12T13:56:01Z</time>
      </trkpt>
      <trkpt lat="46.28755" lon="5.43123">
        <ele>348.6</ele>
        <time>2022-02-12T13:56:08Z</time>
      </trkpt>
      <trkpt lat="46.2877" lon="5.43127">
        <ele>348.6</ele>
        <time>2022-02-12T13:56:10Z</time>
      </trkpt>
      <trkpt lat="46.28824" lon="5.43146">
        <ele>348.6</ele>
        <time>2022-02-12T13:56:17Z</time>
      </trkpt>
      <trkpt lat="46.28855" lon="5.43159">
        <ele>349</ele>
        <time>2022-02-12T13:56:21Z</time>
      </trkpt>
      <trkpt lat="46.28907" lon="5.4318">
        <ele>349.6</ele>
        <time>2022-02-12T13:56:28Z</time>
      </trkpt>
      <trkpt lat="46.2896" lon="5.43204">
        <ele>349.8</ele>
        <time>2022-02-12T13:56:35Z</time>
      </trkpt>
      <trkpt lat="46.28975" lon="5.43212">
        <ele>349.8</ele>
        <time>2022-02-12T13:56:37Z</time>
      </trkpt>
      <trkpt lat="46.29022" lon="5.43249">
        <ele>349.8</ele>
        <time>2022-02-12T13:56:44Z</time>
      </trkpt>
      <trkpt lat="46.29074" lon="5.43298">
        <ele>350</ele>
        <time>2022-02-12T13:56:52Z</time>
      </trkpt>
      <trkpt lat="46.29125" lon="5.43343">
        <ele>350</ele>
        <time>2022-02-12T13:57:00Z</time>
      </trkpt>
      <trkpt lat="46.29131" lon="5.43349">
        <ele>350.2</ele>
        <time>2022-02-12T13:57:01Z</time>
      </trkpt>
      <trkpt lat="46.29184" lon="5.43386">
        <ele>350.8</ele>
        <time>2022-02-12T13:57:09Z</time>
      </trkpt>
      <trkpt lat="46.29233" lon="5.43409">
        <ele>351</ele>
        <time>2022-02-12T13:57:16Z</time>
      </trkpt>
      <trkpt lat="46.29291" lon="5.4343">
        <ele>351</ele>
        <time>2022-02-12T13:57:24Z</time>
      </trkpt>
      <trkpt lat="46.29346" lon="5.43458">
        <ele>351</ele>
        <time>2022-02-12T13:57:32Z</time>
      </trkpt>
      <trkpt lat="46.29358" lon="5.43466">
        <ele>351.2</ele>
        <time>2022-02-12T13:57:34Z</time>
      </trkpt>
      <trkpt lat="46.2937" lon="5.43474">
        <ele>351.4</ele>
        <time>2022-02-12T13:57:36Z</time>
      </trkpt>
      <trkpt lat="46.29408" lon="5.43498">
        <ele>351.8</ele>
        <time>2022-02-12T13:57:42Z</time>
      </trkpt>
      <trkpt lat="46.29439" lon="5.43518">
        <ele>352.4</ele>
        <time>2022-02-12T13:57:47Z</time>
      </trkpt>
      <trkpt lat="46.29485" lon="5.43544">
        <ele>353.2</ele>
        <time>2022-02-12T13:57:54Z</time>
      </trkpt>
      <trkpt lat="46.29498" lon="5.43551">
        <ele>353.4</ele>
        <time>2022-02-12T13:57:56Z</time>
      </trkpt>
      <trkpt lat="46.29537" lon="5.43571">
        <ele>354</ele>
        <time>2022-02-12T13:58:02Z</time>
      </trkpt>
      <trkpt lat="46.29587" lon="5.43597">
        <ele>354</ele>
        <time>2022-02-12T13:58:10Z</time>
      </trkpt>
      <trkpt lat="46.29643" lon="5.43628">
        <ele>354.6</ele>
        <time>2022-02-12T13:58:19Z</time>
      </trkpt>
      <trkpt lat="46.29669" lon="5.43641">
        <ele>354.6</ele>
        <time>2022-02-12T13:58:23Z</time>
      </trkpt>
      <trkpt lat="46.29675" lon="5.43645">
        <ele>354.6</ele>
        <time>2022-02-12T13:58:24Z</time>
      </trkpt>
      <trkpt lat="46.29722" lon="5.43669">
        <ele>354.8</ele>
        <time>2022-02-12T13:58:31Z</time>
      </trkpt>
      <trkpt lat="46.29778" lon="5.43698">
        <ele>355</ele>
        <time>2022-02-12T13:58:39Z</time>
      </trkpt>
      <trkpt lat="46.29785" lon="5.43702">
        <ele>355</ele>
        <time>2022-02-12T13:58:40Z</time>
      </trkpt>
      <trkpt lat="46.29841" lon="5.43727">
        <ele>355.2</ele>
        <time>2022-02-12T13:58:48Z</time>
      </trkpt>
      <trkpt lat="46.29847" lon="5.43731">
        <ele>355.2</ele>
        <time>2022-02-12T13:58:49Z</time>
      </trkpt>
      <trkpt lat="46.29902" lon="5.43754">
        <ele>355.6</ele>
        <time>2022-02-12T13:58:57Z</time>
      </trkpt>
      <trkpt lat="46.29943" lon="5.43771">
        <ele>355.8</ele>
        <time>2022-02-12T13:59:03Z</time>
      </trkpt>
      <trkpt lat="46.29957" lon="5.43777">
        <ele>356</ele>
        <time>2022-02-12T13:59:05Z</time>
      </trkpt>
      <trkpt lat="46.30013" lon="5.43802">
        <ele>356.4</ele>
        <time>2022-02-12T13:59:13Z</time>
      </trkpt>
      <trkpt lat="46.3002" lon="5.43805">
        <ele>356.6</ele>
        <time>2022-02-12T13:59:14Z</time>
      </trkpt>
      <trkpt lat="46.30076" lon="5.43835">
        <ele>356.8</ele>
        <time>2022-02-12T13:59:22Z</time>
      </trkpt>
      <trkpt lat="46.30083" lon="5.43838">
        <ele>356.8</ele>
        <time>2022-02-12T13:59:23Z</time>
      </trkpt>
      <trkpt lat="46.3009" lon="5.43842">
        <ele>356.8</ele>
        <time>2022-02-12T13:59:24Z</time>
      </trkpt>
      <trkpt lat="46.30144" lon="5.4387">
        <ele>357.2</ele>
        <time>2022-02-12T13:59:32Z</time>
      </trkpt>
      <trkpt lat="46.3015" lon="5.43873">
        <ele>357.2</ele>
        <time>2022-02-12T13:59:33Z</time>
      </trkpt>
      <trkpt lat="46.30203" lon="5.43901">
        <ele>357.4</ele>
        <time>2022-02-12T13:59:41Z</time>
      </trkpt>
      <trkpt lat="46.30216" lon="5.43908">
        <ele>357.6</ele>
        <time>2022-02-12T13:59:43Z</time>
      </trkpt>
      <trkpt lat="46.30272" lon="5.43935">
        <ele>357.6</ele>
        <time>2022-02-12T13:59:51Z</time>
      </trkpt>
      <trkpt lat="46.30286" lon="5.43942">
        <ele>357.6</ele>
        <time>2022-02-12T13:59:53Z</time>
      </trkpt>
      <trkpt lat="46.30343" lon="5.4397">
        <ele>357.4</ele>
        <time>2022-02-12T14:00:01Z</time>
      </trkpt>
      <trkpt lat="46.30371" lon="5.43984">
        <ele>357.4</ele>
        <time>2022-02-12T14:00:05Z</time>
      </trkpt>
      <trkpt lat="46.3043" lon="5.44007">
        <ele>357.6</ele>
        <time>2022-02-12T14:00:13Z</time>
      </trkpt>
      <trkpt lat="46.30445" lon="5.44012">
        <ele>357.6</ele>
        <time>2022-02-12T14:00:15Z</time>
      </trkpt>
      <trkpt lat="46.305" lon="5.44027">
        <ele>357.6</ele>
        <time>2022-02-12T14:00:23Z</time>
      </trkpt>
      <trkpt lat="46.30531" lon="5.44034">
        <ele>358.2</ele>
        <time>2022-02-12T14:00:28Z</time>
      </trkpt>
      <trkpt lat="46.30578" lon="5.44039">
        <ele>359.4</ele>
        <time>2022-02-12T14:00:36Z</time>
      </trkpt>
      <trkpt lat="46.30608" lon="5.44044">
        <ele>360.4</ele>
        <time>2022-02-12T14:00:41Z</time>
      </trkpt>
      <trkpt lat="46.30627" lon="5.44045">
        <ele>360.6</ele>
        <time>2022-02-12T14:00:44Z</time>
      </trkpt>
      <trkpt lat="46.30658" lon="5.44051">
        <ele>361.6</ele>
        <time>2022-02-12T14:00:49Z</time>
      </trkpt>
      <trkpt lat="46.30683" lon="5.44054">
        <ele>362</ele>
        <time>2022-02-12T14:00:53Z</time>
      </trkpt>
      <trkpt lat="46.30717" lon="5.44048">
        <ele>362.2</ele>
        <time>2022-02-12T14:00:58Z</time>
      </trkpt>
      <trkpt lat="46.30763" lon="5.44031">
        <ele>361.8</ele>
        <time>2022-02-12T14:01:04Z</time>
      </trkpt>
      <trkpt lat="46.30807" lon="5.44023">
        <ele>360.2</ele>
        <time>2022-02-12T14:01:09Z</time>
      </trkpt>
      <trkpt lat="46.30844" lon="5.44031">
        <ele>359</ele>
        <time>2022-02-12T14:01:13Z</time>
      </trkpt>
      <trkpt lat="46.30853" lon="5.44034">
        <ele>358.6</ele>
        <time>2022-02-12T14:01:14Z</time>
      </trkpt>
      <trkpt lat="46.3087" lon="5.44039">
        <ele>357.8</ele>
        <time>2022-02-12T14:01:16Z</time>
      </trkpt>
      <trkpt lat="46.30903" lon="5.44053">
        <ele>357.2</ele>
        <time>2022-02-12T14:01:20Z</time>
      </trkpt>
      <trkpt lat="46.30953" lon="5.44087">
        <ele>357</ele>
        <time>2022-02-12T14:01:27Z</time>
      </trkpt>
      <trkpt lat="46.30992" lon="5.44114">
        <ele>357.2</ele>
        <time>2022-02-12T14:01:33Z</time>
      </trkpt>
      <trkpt lat="46.31027" lon="5.44139">
        <ele>358</ele>
        <time>2022-02-12T14:01:39Z</time>
      </trkpt>
      <trkpt lat="46.31061" lon="5.44168">
        <ele>359</ele>
        <time>2022-02-12T14:01:45Z</time>
      </trkpt>
      <trkpt lat="46.31078" lon="5.44183">
        <ele>359.4</ele>
        <time>2022-02-12T14:01:48Z</time>
      </trkpt>
      <trkpt lat="46.311" lon="5.44201">
        <ele>360.2</ele>
        <time>2022-02-12T14:01:52Z</time>
      </trkpt>
      <trkpt lat="46.31122" lon="5.44219">
        <ele>361.2</ele>
        <time>2022-02-12T14:01:56Z</time>
      </trkpt>
      <trkpt lat="46.31139" lon="5.44235">
        <ele>361.4</ele>
        <time>2022-02-12T14:01:59Z</time>
      </trkpt>
      <trkpt lat="46.31185" lon="5.44273">
        <ele>361.8</ele>
        <time>2022-02-12T14:02:07Z</time>
      </trkpt>
      <trkpt lat="46.3122" lon="5.4429">
        <ele>362.4</ele>
        <time>2022-02-12T14:02:13Z</time>
      </trkpt>
      <trkpt lat="46.31226" lon="5.44292">
        <ele>362.4</ele>
        <time>2022-02-12T14:02:14Z</time>
      </trkpt>
      <trkpt lat="46.3127" lon="5.44309">
        <ele>363</ele>
        <time>2022-02-12T14:02:21Z</time>
      </trkpt>
      <trkpt lat="46.31327" lon="5.44332">
        <ele>363.4</ele>
        <time>2022-02-12T14:02:30Z</time>
      </trkpt>
      <trkpt lat="46.31334" lon="5.44334">
        <ele>363.4</ele>
        <time>2022-02-12T14:02:31Z</time>
      </trkpt>
      <trkpt lat="46.31389" lon="5.44357">
        <ele>363.4</ele>
        <time>2022-02-12T14:02:39Z</time>
      </trkpt>
      <trkpt lat="46.31397" lon="5.4436">
        <ele>363.4</ele>
        <time>2022-02-12T14:02:40Z</time>
      </trkpt>
      <trkpt lat="46.3145" lon="5.44381">
        <ele>362.8</ele>
        <time>2022-02-12T14:02:47Z</time>
      </trkpt>
      <trkpt lat="46.31458" lon="5.44384">
        <ele>362.8</ele>
        <time>2022-02-12T14:02:48Z</time>
      </trkpt>
      <trkpt lat="46.31498" lon="5.44399">
        <ele>362.2</ele>
        <time>2022-02-12T14:02:53Z</time>
      </trkpt>
      <trkpt lat="46.31522" lon="5.44408">
        <ele>361.8</ele>
        <time>2022-02-12T14:02:56Z</time>
      </trkpt>
      <trkpt lat="46.31568" lon="5.44419">
        <ele>361.6</ele>
        <time>2022-02-12T14:03:02Z</time>
      </trkpt>
      <trkpt lat="46.31623" lon="5.44427">
        <ele>361.4</ele>
        <time>2022-02-12T14:03:09Z</time>
      </trkpt>
      <trkpt lat="46.3163" lon="5.44427">
        <ele>361.4</ele>
        <time>2022-02-12T14:03:10Z</time>
      </trkpt>
      <trkpt lat="46.31692" lon="5.44431">
        <ele>361.4</ele>
        <time>2022-02-12T14:03:18Z</time>
      </trkpt>
      <trkpt lat="46.31745" lon="5.44423">
        <ele>361.6</ele>
        <time>2022-02-12T14:03:25Z</time>
      </trkpt>
      <trkpt lat="46.31801" lon="5.444">
        <ele>362.2</ele>
        <time>2022-02-12T14:03:33Z</time>
      </trkpt>
      <trkpt lat="46.31808" lon="5.44397">
        <ele>362.2</ele>
        <time>2022-02-12T14:03:34Z</time>
      </trkpt>
      <trkpt lat="46.3186" lon="5.44374">
        <ele>362.8</ele>
        <time>2022-02-12T14:03:42Z</time>
      </trkpt>
      <trkpt lat="46.31891" lon="5.44361">
        <ele>363.4</ele>
        <time>2022-02-12T14:03:47Z</time>
      </trkpt>
      <trkpt lat="46.31915" lon="5.4435">
        <ele>364.4</ele>
        <time>2022-02-12T14:03:51Z</time>
      </trkpt>
      <trkpt lat="46.31933" lon="5.44343">
        <ele>364.6</ele>
        <time>2022-02-12T14:03:54Z</time>
      </trkpt>
      <trkpt lat="46.31973" lon="5.44325">
        <ele>365.6</ele>
        <time>2022-02-12T14:04:01Z</time>
      </trkpt>
      <trkpt lat="46.31979" lon="5.44323">
        <ele>365.6</ele>
        <time>2022-02-12T14:04:02Z</time>
      </trkpt>
      <trkpt lat="46.32031" lon="5.44301">
        <ele>366.8</ele>
        <time>2022-02-12T14:04:11Z</time>
      </trkpt>
      <trkpt lat="46.32037" lon="5.44298">
        <ele>366.8</ele>
        <time>2022-02-12T14:04:12Z</time>
      </trkpt>
      <trkpt lat="46.3209" lon="5.44274">
        <ele>367.6</ele>
        <time>2022-02-12T14:04:21Z</time>
      </trkpt>
      <trkpt lat="46.32097" lon="5.44271">
        <ele>367.6</ele>
        <time>2022-02-12T14:04:22Z</time>
      </trkpt>
      <trkpt lat="46.32121" lon="5.44259">
        <ele>367.8</ele>
        <time>2022-02-12T14:04:26Z</time>
      </trkpt>
      <trkpt lat="46.32143" lon="5.44246">
        <ele>368.2</ele>
        <time>2022-02-12T14:04:30Z</time>
      </trkpt>
      <trkpt lat="46.32185" lon="5.44212">
        <ele>368.8</ele>
        <time>2022-02-12T14:04:38Z</time>
      </trkpt>
      <trkpt lat="46.32199" lon="5.44198">
        <ele>368.8</ele>
        <time>2022-02-12T14:04:41Z</time>
      </trkpt>
      <trkpt lat="46.32229" lon="5.44171">
        <ele>369.8</ele>
        <time>2022-02-12T14:04:47Z</time>
      </trkpt>
      <trkpt lat="46.32239" lon="5.44162">
        <ele>370</ele>
        <time>2022-02-12T14:04:49Z</time>
      </trkpt>
      <trkpt lat="46.32271" lon="5.44133">
        <ele>371</ele>
        <time>2022-02-12T14:04:56Z</time>
      </trkpt>
      <trkpt lat="46.32285" lon="5.4412">
        <ele>371.6</ele>
        <time>2022-02-12T14:04:59Z</time>
      </trkpt>
      <trkpt lat="46.32307" lon="5.44102">
        <ele>372.2</ele>
        <time>2022-02-12T14:05:04Z</time>
      </trkpt>
      <trkpt lat="46.32329" lon="5.44082">
        <ele>373</ele>
        <time>2022-02-12T14:05:09Z</time>
      </trkpt>
      <trkpt lat="46.32333" lon="5.44077">
        <ele>373.2</ele>
        <time>2022-02-12T14:05:10Z</time>
      </trkpt>
      <trkpt lat="46.32358" lon="5.44054">
        <ele>374.4</ele>
        <time>2022-02-12T14:05:16Z</time>
      </trkpt>
      <trkpt lat="46.32366" lon="5.44046">
        <ele>374.8</ele>
        <time>2022-02-12T14:05:18Z</time>
      </trkpt>
      <trkpt lat="46.32379" lon="5.44035">
        <ele>375.4</ele>
        <time>2022-02-12T14:05:21Z</time>
      </trkpt>
      <trkpt lat="46.32399" lon="5.44017">
        <ele>376.6</ele>
        <time>2022-02-12T14:05:26Z</time>
      </trkpt>
      <trkpt lat="46.32407" lon="5.4401">
        <ele>377.2</ele>
        <time>2022-02-12T14:05:28Z</time>
      </trkpt>
      <trkpt lat="46.32422" lon="5.43997">
        <ele>377.8</ele>
        <time>2022-02-12T14:05:32Z</time>
      </trkpt>
      <trkpt lat="46.3244" lon="5.4398">
        <ele>378.8</ele>
        <time>2022-02-12T14:05:37Z</time>
      </trkpt>
      <trkpt lat="46.32444" lon="5.43977">
        <ele>379</ele>
        <time>2022-02-12T14:05:38Z</time>
      </trkpt>
      <trkpt lat="46.32455" lon="5.43967">
        <ele>380</ele>
        <time>2022-02-12T14:05:41Z</time>
      </trkpt>
      <trkpt lat="46.3248" lon="5.43943">
        <ele>381</ele>
        <time>2022-02-12T14:05:48Z</time>
      </trkpt>
      <trkpt lat="46.32487" lon="5.43936">
        <ele>381.2</ele>
        <time>2022-02-12T14:05:50Z</time>
      </trkpt>
      <trkpt lat="46.32507" lon="5.4392">
        <ele>382</ele>
        <time>2022-02-12T14:05:55Z</time>
      </trkpt>
      <trkpt lat="46.32531" lon="5.43898">
        <ele>383.2</ele>
        <time>2022-02-12T14:06:01Z</time>
      </trkpt>
      <trkpt lat="46.32539" lon="5.43891">
        <ele>383.4</ele>
        <time>2022-02-12T14:06:03Z</time>
      </trkpt>
      <trkpt lat="46.3256" lon="5.43873">
        <ele>384</ele>
        <time>2022-02-12T14:06:08Z</time>
      </trkpt>
      <trkpt lat="46.32565" lon="5.4387">
        <ele>384.4</ele>
        <time>2022-02-12T14:06:09Z</time>
      </trkpt>
      <trkpt lat="46.32574" lon="5.43864">
        <ele>384.6</ele>
        <time>2022-02-12T14:06:11Z</time>
      </trkpt>
      <trkpt lat="46.32598" lon="5.43847">
        <ele>385</ele>
        <time>2022-02-12T14:06:16Z</time>
      </trkpt>
      <trkpt lat="46.32607" lon="5.43837">
        <ele>385.2</ele>
        <time>2022-02-12T14:06:18Z</time>
      </trkpt>
      <trkpt lat="46.32625" lon="5.43817">
        <ele>385.4</ele>
        <time>2022-02-12T14:06:22Z</time>
      </trkpt>
      <trkpt lat="46.3264" lon="5.43797">
        <ele>385.8</ele>
        <time>2022-02-12T14:06:26Z</time>
      </trkpt>
      <trkpt lat="46.32659" lon="5.43774">
        <ele>386.4</ele>
        <time>2022-02-12T14:06:31Z</time>
      </trkpt>
      <trkpt lat="46.32667" lon="5.43767">
        <ele>387</ele>
        <time>2022-02-12T14:06:33Z</time>
      </trkpt>
      <trkpt lat="46.3268" lon="5.43758">
        <ele>387.8</ele>
        <time>2022-02-12T14:06:36Z</time>
      </trkpt>
      <trkpt lat="46.32704" lon="5.43747">
        <ele>388.4</ele>
        <time>2022-02-12T14:06:41Z</time>
      </trkpt>
      <trkpt lat="46.32719" lon="5.43741">
        <ele>388.8</ele>
        <time>2022-02-12T14:06:44Z</time>
      </trkpt>
      <trkpt lat="46.32739" lon="5.43733">
        <ele>389.4</ele>
        <time>2022-02-12T14:06:48Z</time>
      </trkpt>
      <trkpt lat="46.32759" lon="5.43724">
        <ele>389.8</ele>
        <time>2022-02-12T14:06:52Z</time>
      </trkpt>
      <trkpt lat="46.3278" lon="5.43715">
        <ele>390.2</ele>
        <time>2022-02-12T14:06:56Z</time>
      </trkpt>
      <trkpt lat="46.32814" lon="5.43698">
        <ele>390.8</ele>
        <time>2022-02-12T14:07:03Z</time>
      </trkpt>
      <trkpt lat="46.32819" lon="5.43694">
        <ele>391</ele>
        <time>2022-02-12T14:07:04Z</time>
      </trkpt>
      <trkpt lat="46.32825" lon="5.4369">
        <ele>391.2</ele>
        <time>2022-02-12T14:07:05Z</time>
      </trkpt>
      <trkpt lat="46.32856" lon="5.43665">
        <ele>391.6</ele>
        <time>2022-02-12T14:07:12Z</time>
      </trkpt>
      <trkpt lat="46.3286" lon="5.43663">
        <ele>391.8</ele>
        <time>2022-02-12T14:07:13Z</time>
      </trkpt>
      <trkpt lat="46.3288" lon="5.43659">
        <ele>392.4</ele>
        <time>2022-02-12T14:07:18Z</time>
      </trkpt>
      <trkpt lat="46.32891" lon="5.43655">
        <ele>393</ele>
        <time>2022-02-12T14:07:21Z</time>
      </trkpt>
      <trkpt lat="46.329" lon="5.43649">
        <ele>393.4</ele>
        <time>2022-02-12T14:07:24Z</time>
      </trkpt>
      <trkpt lat="46.32902" lon="5.43645">
        <ele>393.4</ele>
        <time>2022-02-12T14:07:25Z</time>
      </trkpt>
      <trkpt lat="46.32902" lon="5.43636">
        <ele>393.4</ele>
        <time>2022-02-12T14:07:27Z</time>
      </trkpt>
      <trkpt lat="46.32898" lon="5.43615">
        <ele>393.4</ele>
        <time>2022-02-12T14:07:30Z</time>
      </trkpt>
      <trkpt lat="46.32898" lon="5.43608">
        <ele>393.4</ele>
        <time>2022-02-12T14:07:31Z</time>
      </trkpt>
      <trkpt lat="46.32899" lon="5.43583">
        <ele>393.4</ele>
        <time>2022-02-12T14:07:34Z</time>
      </trkpt>
      <trkpt lat="46.32902" lon="5.43576">
        <ele>393.4</ele>
        <time>2022-02-12T14:07:35Z</time>
      </trkpt>
      <trkpt lat="46.32905" lon="5.43569">
        <ele>393.4</ele>
        <time>2022-02-12T14:07:36Z</time>
      </trkpt>
      <trkpt lat="46.32918" lon="5.43553">
        <ele>393.8</ele>
        <time>2022-02-12T14:07:39Z</time>
      </trkpt>
      <trkpt lat="46.32944" lon="5.43526">
        <ele>394.4</ele>
        <time>2022-02-12T14:07:46Z</time>
      </trkpt>
      <trkpt lat="46.32948" lon="5.43523">
        <ele>394.6</ele>
        <time>2022-02-12T14:07:47Z</time>
      </trkpt>
      <trkpt lat="46.3296" lon="5.43513">
        <ele>395.4</ele>
        <time>2022-02-12T14:07:50Z</time>
      </trkpt>
      <trkpt lat="46.32983" lon="5.43488">
        <ele>396.4</ele>
        <time>2022-02-12T14:07:55Z</time>
      </trkpt>
      <trkpt lat="46.33013" lon="5.43449">
        <ele>396</ele>
        <time>2022-02-12T14:08:00Z</time>
      </trkpt>
      <trkpt lat="46.33037" lon="5.43423">
        <ele>393.8</ele>
        <time>2022-02-12T14:08:03Z</time>
      </trkpt>
      <trkpt lat="46.33054" lon="5.43405">
        <ele>392.2</ele>
        <time>2022-02-12T14:08:05Z</time>
      </trkpt>
      <trkpt lat="46.33074" lon="5.43387">
        <ele>390.8</ele>
        <time>2022-02-12T14:08:07Z</time>
      </trkpt>
      <trkpt lat="46.33094" lon="5.4337">
        <ele>389.8</ele>
        <time>2022-02-12T14:08:09Z</time>
      </trkpt>
      <trkpt lat="46.33105" lon="5.43362">
        <ele>389.2</ele>
        <time>2022-02-12T14:08:10Z</time>
      </trkpt>
      <trkpt lat="46.33115" lon="5.43354">
        <ele>388.4</ele>
        <time>2022-02-12T14:08:11Z</time>
      </trkpt>
      <trkpt lat="46.33138" lon="5.4334">
        <ele>387.2</ele>
        <time>2022-02-12T14:08:13Z</time>
      </trkpt>
      <trkpt lat="46.3315" lon="5.43333">
        <ele>386</ele>
        <time>2022-02-12T14:08:14Z</time>
      </trkpt>
      <trkpt lat="46.33161" lon="5.43327">
        <ele>385.8</ele>
        <time>2022-02-12T14:08:15Z</time>
      </trkpt>
      <trkpt lat="46.33174" lon="5.4332">
        <ele>384.6</ele>
        <time>2022-02-12T14:08:16Z</time>
      </trkpt>
      <trkpt lat="46.33198" lon="5.43307">
        <ele>382.6</ele>
        <time>2022-02-12T14:08:18Z</time>
      </trkpt>
      <trkpt lat="46.33211" lon="5.43301">
        <ele>381.2</ele>
        <time>2022-02-12T14:08:19Z</time>
      </trkpt>
      <trkpt lat="46.33224" lon="5.43296">
        <ele>380.4</ele>
        <time>2022-02-12T14:08:20Z</time>
      </trkpt>
      <trkpt lat="46.33237" lon="5.43293">
        <ele>379</ele>
        <time>2022-02-12T14:08:21Z</time>
      </trkpt>
      <trkpt lat="46.33262" lon="5.4329">
        <ele>377.8</ele>
        <time>2022-02-12T14:08:23Z</time>
      </trkpt>
      <trkpt lat="46.33274" lon="5.43288">
        <ele>377</ele>
        <time>2022-02-12T14:08:24Z</time>
      </trkpt>
      <trkpt lat="46.33287" lon="5.43285">
        <ele>376</ele>
        <time>2022-02-12T14:08:25Z</time>
      </trkpt>
      <trkpt lat="46.33322" lon="5.43275">
        <ele>374.6</ele>
        <time>2022-02-12T14:08:28Z</time>
      </trkpt>
      <trkpt lat="46.33345" lon="5.43268">
        <ele>374</ele>
        <time>2022-02-12T14:08:30Z</time>
      </trkpt>
      <trkpt lat="46.33367" lon="5.43263">
        <ele>373.2</ele>
        <time>2022-02-12T14:08:32Z</time>
      </trkpt>
      <trkpt lat="46.33399" lon="5.43256">
        <ele>372.4</ele>
        <time>2022-02-12T14:08:35Z</time>
      </trkpt>
      <trkpt lat="46.33408" lon="5.43249">
        <ele>372.2</ele>
        <time>2022-02-12T14:08:36Z</time>
      </trkpt>
      <trkpt lat="46.33416" lon="5.4324">
        <ele>371.8</ele>
        <time>2022-02-12T14:08:37Z</time>
      </trkpt>
      <trkpt lat="46.33422" lon="5.43228">
        <ele>371.8</ele>
        <time>2022-02-12T14:08:38Z</time>
      </trkpt>
      <trkpt lat="46.3343" lon="5.43201">
        <ele>371</ele>
        <time>2022-02-12T14:08:40Z</time>
      </trkpt>
      <trkpt lat="46.33437" lon="5.43173">
        <ele>370.4</ele>
        <time>2022-02-12T14:08:42Z</time>
      </trkpt>
      <trkpt lat="46.33442" lon="5.43145">
        <ele>369.6</ele>
        <time>2022-02-12T14:08:44Z</time>
      </trkpt>
      <trkpt lat="46.3345" lon="5.43102">
        <ele>369</ele>
        <time>2022-02-12T14:08:47Z</time>
      </trkpt>
      <trkpt lat="46.33453" lon="5.43089">
        <ele>368.6</ele>
        <time>2022-02-12T14:08:48Z</time>
      </trkpt>
      <trkpt lat="46.33466" lon="5.43051">
        <ele>368</ele>
        <time>2022-02-12T14:08:51Z</time>
      </trkpt>
      <trkpt lat="46.33481" lon="5.43006">
        <ele>367.8</ele>
        <time>2022-02-12T14:08:55Z</time>
      </trkpt>
      <trkpt lat="46.33489" lon="5.42962">
        <ele>367.8</ele>
        <time>2022-02-12T14:08:59Z</time>
      </trkpt>
      <trkpt lat="46.33493" lon="5.42952">
        <ele>368</ele>
        <time>2022-02-12T14:09:00Z</time>
      </trkpt>
      <trkpt lat="46.33496" lon="5.42942">
        <ele>368</ele>
        <time>2022-02-12T14:09:01Z</time>
      </trkpt>
      <trkpt lat="46.3351" lon="5.42917">
        <ele>368.6</ele>
        <time>2022-02-12T14:09:04Z</time>
      </trkpt>
      <trkpt lat="46.33536" lon="5.4288">
        <ele>368.4</ele>
        <time>2022-02-12T14:09:09Z</time>
      </trkpt>
      <trkpt lat="46.33549" lon="5.42854">
        <ele>368.4</ele>
        <time>2022-02-12T14:09:12Z</time>
      </trkpt>
      <trkpt lat="46.3356" lon="5.42838">
        <ele>368.6</ele>
        <time>2022-02-12T14:09:14Z</time>
      </trkpt>
      <trkpt lat="46.33566" lon="5.42831">
        <ele>368.4</ele>
        <time>2022-02-12T14:09:15Z</time>
      </trkpt>
      <trkpt lat="46.33593" lon="5.42808">
        <ele>368.2</ele>
        <time>2022-02-12T14:09:19Z</time>
      </trkpt>
      <trkpt lat="46.33636" lon="5.42787">
        <ele>367.6</ele>
        <time>2022-02-12T14:09:25Z</time>
      </trkpt>
      <trkpt lat="46.33691" lon="5.4276">
        <ele>367.4</ele>
        <time>2022-02-12T14:09:33Z</time>
      </trkpt>
      <trkpt lat="46.33697" lon="5.42755">
        <ele>367.4</ele>
        <time>2022-02-12T14:09:34Z</time>
      </trkpt>
      <trkpt lat="46.33708" lon="5.42744">
        <ele>367.4</ele>
        <time>2022-02-12T14:09:36Z</time>
      </trkpt>
      <trkpt lat="46.3372" lon="5.42724">
        <ele>367.6</ele>
        <time>2022-02-12T14:09:39Z</time>
      </trkpt>
      <trkpt lat="46.33726" lon="5.42709">
        <ele>367.8</ele>
        <time>2022-02-12T14:09:41Z</time>
      </trkpt>
      <trkpt lat="46.33731" lon="5.42693">
        <ele>368.2</ele>
        <time>2022-02-12T14:09:43Z</time>
      </trkpt>
      <trkpt lat="46.3374" lon="5.42662">
        <ele>368.8</ele>
        <time>2022-02-12T14:09:47Z</time>
      </trkpt>
      <trkpt lat="46.3375" lon="5.42631">
        <ele>369.4</ele>
        <time>2022-02-12T14:09:51Z</time>
      </trkpt>
      <trkpt lat="46.33772" lon="5.42591">
        <ele>369.8</ele>
        <time>2022-02-12T14:09:57Z</time>
      </trkpt>
      <trkpt lat="46.3378" lon="5.42579">
        <ele>370</ele>
        <time>2022-02-12T14:09:59Z</time>
      </trkpt>
      <trkpt lat="46.33805" lon="5.42546">
        <ele>370.4</ele>
        <time>2022-02-12T14:10:05Z</time>
      </trkpt>
      <trkpt lat="46.33848" lon="5.42497">
        <ele>371.2</ele>
        <time>2022-02-12T14:10:15Z</time>
      </trkpt>
      <trkpt lat="46.33852" lon="5.42492">
        <ele>371.2</ele>
        <time>2022-02-12T14:10:16Z</time>
      </trkpt>
      <trkpt lat="46.33882" lon="5.42461">
        <ele>372.2</ele>
        <time>2022-02-12T14:10:23Z</time>
      </trkpt>
      <trkpt lat="46.33887" lon="5.42456">
        <ele>372.4</ele>
        <time>2022-02-12T14:10:24Z</time>
      </trkpt>
      <trkpt lat="46.33918" lon="5.42429">
        <ele>373.4</ele>
        <time>2022-02-12T14:10:31Z</time>
      </trkpt>
      <trkpt lat="46.33932" lon="5.42417">
        <ele>373.8</ele>
        <time>2022-02-12T14:10:34Z</time>
      </trkpt>
      <trkpt lat="46.33956" lon="5.42397">
        <ele>374.4</ele>
        <time>2022-02-12T14:10:40Z</time>
      </trkpt>
      <trkpt lat="46.33977" lon="5.42377">
        <ele>375.2</ele>
        <time>2022-02-12T14:10:45Z</time>
      </trkpt>
      <trkpt lat="46.33995" lon="5.42363">
        <ele>375.4</ele>
        <time>2022-02-12T14:10:49Z</time>
      </trkpt>
      <trkpt lat="46.34009" lon="5.42354">
        <ele>376</ele>
        <time>2022-02-12T14:10:52Z</time>
      </trkpt>
      <trkpt lat="46.34028" lon="5.42342">
        <ele>376.6</ele>
        <time>2022-02-12T14:10:56Z</time>
      </trkpt>
      <trkpt lat="46.34045" lon="5.42333">
        <ele>377</ele>
        <time>2022-02-12T14:11:00Z</time>
      </trkpt>
      <trkpt lat="46.34063" lon="5.42322">
        <ele>377.8</ele>
        <time>2022-02-12T14:11:04Z</time>
      </trkpt>
      <trkpt lat="46.34086" lon="5.42304">
        <ele>378.4</ele>
        <time>2022-02-12T14:11:09Z</time>
      </trkpt>
      <trkpt lat="46.34117" lon="5.42269">
        <ele>378.6</ele>
        <time>2022-02-12T14:11:15Z</time>
      </trkpt>
      <trkpt lat="46.34163" lon="5.42218">
        <ele>376.8</ele>
        <time>2022-02-12T14:11:23Z</time>
      </trkpt>
      <trkpt lat="46.34169" lon="5.42211">
        <ele>376.8</ele>
        <time>2022-02-12T14:11:24Z</time>
      </trkpt>
      <trkpt lat="46.34211" lon="5.42162">
        <ele>376</ele>
        <time>2022-02-12T14:11:31Z</time>
      </trkpt>
      <trkpt lat="46.34222" lon="5.4215">
        <ele>375.8</ele>
        <time>2022-02-12T14:11:33Z</time>
      </trkpt>
      <trkpt lat="46.34228" lon="5.42144">
        <ele>375.6</ele>
        <time>2022-02-12T14:11:34Z</time>
      </trkpt>
      <trkpt lat="46.34255" lon="5.42112">
        <ele>375.2</ele>
        <time>2022-02-12T14:11:39Z</time>
      </trkpt>
      <trkpt lat="46.34285" lon="5.42071">
        <ele>375.4</ele>
        <time>2022-02-12T14:11:46Z</time>
      </trkpt>
      <trkpt lat="46.34324" lon="5.42016">
        <ele>376</ele>
        <time>2022-02-12T14:11:55Z</time>
      </trkpt>
      <trkpt lat="46.34341" lon="5.41985">
        <ele>376.6</ele>
        <time>2022-02-12T14:12:00Z</time>
      </trkpt>
      <trkpt lat="46.34344" lon="5.41978">
        <ele>376.6</ele>
        <time>2022-02-12T14:12:01Z</time>
      </trkpt>
      <trkpt lat="46.34346" lon="5.41971">
        <ele>376.8</ele>
        <time>2022-02-12T14:12:02Z</time>
      </trkpt>
      <trkpt lat="46.34351" lon="5.41947">
        <ele>377</ele>
        <time>2022-02-12T14:12:05Z</time>
      </trkpt>
      <trkpt lat="46.34359" lon="5.41903">
        <ele>377</ele>
        <time>2022-02-12T14:12:10Z</time>
      </trkpt>
      <trkpt lat="46.3437" lon="5.4188">
        <ele>377</ele>
        <time>2022-02-12T14:12:13Z</time>
      </trkpt>
      <trkpt lat="46.34374" lon="5.41875">
        <ele>377</ele>
        <time>2022-02-12T14:12:14Z</time>
      </trkpt>
      <trkpt lat="46.34404" lon="5.4185">
        <ele>377</ele>
        <time>2022-02-12T14:12:20Z</time>
      </trkpt>
      <trkpt lat="46.34442" lon="5.4182">
        <ele>377.4</ele>
        <time>2022-02-12T14:12:28Z</time>
      </trkpt>
      <trkpt lat="46.34451" lon="5.41811">
        <ele>377.6</ele>
        <time>2022-02-12T14:12:30Z</time>
      </trkpt>
      <trkpt lat="46.3449" lon="5.41772">
        <ele>378.2</ele>
        <time>2022-02-12T14:12:38Z</time>
      </trkpt>
      <trkpt lat="46.3453" lon="5.41734">
        <ele>377.8</ele>
        <time>2022-02-12T14:12:46Z</time>
      </trkpt>
      <trkpt lat="46.34556" lon="5.41711">
        <ele>377.8</ele>
        <time>2022-02-12T14:12:51Z</time>
      </trkpt>
      <trkpt lat="46.3457" lon="5.417">
        <ele>378</ele>
        <time>2022-02-12T14:12:54Z</time>
      </trkpt>
      <trkpt lat="46.34605" lon="5.41678">
        <ele>378.6</ele>
        <time>2022-02-12T14:13:01Z</time>
      </trkpt>
      <trkpt lat="46.3461" lon="5.41674">
        <ele>378.8</ele>
        <time>2022-02-12T14:13:02Z</time>
      </trkpt>
      <trkpt lat="46.34624" lon="5.4166">
        <ele>379.4</ele>
        <time>2022-02-12T14:13:05Z</time>
      </trkpt>
      <trkpt lat="46.34637" lon="5.41642">
        <ele>379.8</ele>
        <time>2022-02-12T14:13:08Z</time>
      </trkpt>
      <trkpt lat="46.34641" lon="5.41634">
        <ele>379.8</ele>
        <time>2022-02-12T14:13:09Z</time>
      </trkpt>
      <trkpt lat="46.3466" lon="5.41601">
        <ele>380</ele>
        <time>2022-02-12T14:13:14Z</time>
      </trkpt>
      <trkpt lat="46.34697" lon="5.41541">
        <ele>380.2</ele>
        <time>2022-02-12T14:13:24Z</time>
      </trkpt>
      <trkpt lat="46.34729" lon="5.41491">
        <ele>380.4</ele>
        <time>2022-02-12T14:13:32Z</time>
      </trkpt>
      <trkpt lat="46.34763" lon="5.4144">
        <ele>380.4</ele>
        <time>2022-02-12T14:13:40Z</time>
      </trkpt>
      <trkpt lat="46.3481" lon="5.41387">
        <ele>380.4</ele>
        <time>2022-02-12T14:13:49Z</time>
      </trkpt>
      <trkpt lat="46.34852" lon="5.41341">
        <ele>380.2</ele>
        <time>2022-02-12T14:13:57Z</time>
      </trkpt>
      <trkpt lat="46.34888" lon="5.4129">
        <ele>380.4</ele>
        <time>2022-02-12T14:14:05Z</time>
      </trkpt>
      <trkpt lat="46.34924" lon="5.41228">
        <ele>380.6</ele>
        <time>2022-02-12T14:14:14Z</time>
      </trkpt>
      <trkpt lat="46.3495" lon="5.41189">
        <ele>380.8</ele>
        <time>2022-02-12T14:14:20Z</time>
      </trkpt>
      <trkpt lat="46.34964" lon="5.41171">
        <ele>381</ele>
        <time>2022-02-12T14:14:23Z</time>
      </trkpt>
      <trkpt lat="46.34995" lon="5.41124">
        <ele>381.4</ele>
        <time>2022-02-12T14:14:31Z</time>
      </trkpt>
      <trkpt lat="46.35009" lon="5.41089">
        <ele>381.8</ele>
        <time>2022-02-12T14:14:36Z</time>
      </trkpt>
      <trkpt lat="46.35025" lon="5.41048">
        <ele>382.6</ele>
        <time>2022-02-12T14:14:42Z</time>
      </trkpt>
      <trkpt lat="46.35031" lon="5.41035">
        <ele>382.6</ele>
        <time>2022-02-12T14:14:44Z</time>
      </trkpt>
      <trkpt lat="46.35038" lon="5.41023">
        <ele>383</ele>
        <time>2022-02-12T14:14:46Z</time>
      </trkpt>
      <trkpt lat="46.35048" lon="5.41006">
        <ele>383.2</ele>
        <time>2022-02-12T14:14:49Z</time>
      </trkpt>
      <trkpt lat="46.35067" lon="5.40978">
        <ele>384.4</ele>
        <time>2022-02-12T14:14:55Z</time>
      </trkpt>
      <trkpt lat="46.3507" lon="5.40973">
        <ele>384.6</ele>
        <time>2022-02-12T14:14:56Z</time>
      </trkpt>
      <trkpt lat="46.35086" lon="5.40953">
        <ele>385.4</ele>
        <time>2022-02-12T14:15:01Z</time>
      </trkpt>
      <trkpt lat="46.35096" lon="5.40943">
        <ele>386.4</ele>
        <time>2022-02-12T14:15:04Z</time>
      </trkpt>
      <trkpt lat="46.35103" lon="5.40937">
        <ele>387</ele>
        <time>2022-02-12T14:15:06Z</time>
      </trkpt>
      <trkpt lat="46.35121" lon="5.40925">
        <ele>388.2</ele>
        <time>2022-02-12T14:15:11Z</time>
      </trkpt>
      <trkpt lat="46.35137" lon="5.40918">
        <ele>389.2</ele>
        <time>2022-02-12T14:15:15Z</time>
      </trkpt>
      <trkpt lat="46.35152" lon="5.40913">
        <ele>390.4</ele>
        <time>2022-02-12T14:15:19Z</time>
      </trkpt>
      <trkpt lat="46.35171" lon="5.40909">
        <ele>391.6</ele>
        <time>2022-02-12T14:15:24Z</time>
      </trkpt>
      <trkpt lat="46.35179" lon="5.40908">
        <ele>392.4</ele>
        <time>2022-02-12T14:15:26Z</time>
      </trkpt>
      <trkpt lat="46.35186" lon="5.40907">
        <ele>393</ele>
        <time>2022-02-12T14:15:28Z</time>
      </trkpt>
      <trkpt lat="46.352" lon="5.40905">
        <ele>394.2</ele>
        <time>2022-02-12T14:15:32Z</time>
      </trkpt>
      <trkpt lat="46.35203" lon="5.40905">
        <ele>394.6</ele>
        <time>2022-02-12T14:15:33Z</time>
      </trkpt>
      <trkpt lat="46.35212" lon="5.40905">
        <ele>395.2</ele>
        <time>2022-02-12T14:15:36Z</time>
      </trkpt>
      <trkpt lat="46.35227" lon="5.40901">
        <ele>396.2</ele>
        <time>2022-02-12T14:15:41Z</time>
      </trkpt>
      <trkpt lat="46.3523" lon="5.409">
        <ele>396.4</ele>
        <time>2022-02-12T14:15:42Z</time>
      </trkpt>
      <trkpt lat="46.35242" lon="5.4089">
        <ele>397.4</ele>
        <time>2022-02-12T14:15:46Z</time>
      </trkpt>
      <trkpt lat="46.35244" lon="5.40887">
        <ele>397.6</ele>
        <time>2022-02-12T14:15:47Z</time>
      </trkpt>
      <trkpt lat="46.3525" lon="5.40879">
        <ele>397.8</ele>
        <time>2022-02-12T14:15:49Z</time>
      </trkpt>
      <trkpt lat="46.35258" lon="5.40864">
        <ele>398</ele>
        <time>2022-02-12T14:15:52Z</time>
      </trkpt>
      <trkpt lat="46.35268" lon="5.40843">
        <ele>398.4</ele>
        <time>2022-02-12T14:15:56Z</time>
      </trkpt>
      <trkpt lat="46.35276" lon="5.40825">
        <ele>398.4</ele>
        <time>2022-02-12T14:15:59Z</time>
      </trkpt>
      <trkpt lat="46.35299" lon="5.40774">
        <ele>398.8</ele>
        <time>2022-02-12T14:16:07Z</time>
      </trkpt>
      <trkpt lat="46.35303" lon="5.40768">
        <ele>398.8</ele>
        <time>2022-02-12T14:16:08Z</time>
      </trkpt>
      <trkpt lat="46.35312" lon="5.40762">
        <ele>398.8</ele>
        <time>2022-02-12T14:16:10Z</time>
      </trkpt>
      <trkpt lat="46.35321" lon="5.40764">
        <ele>399.2</ele>
        <time>2022-02-12T14:16:12Z</time>
      </trkpt>
      <trkpt lat="46.35325" lon="5.40768">
        <ele>399.2</ele>
        <time>2022-02-12T14:16:13Z</time>
      </trkpt>
      <trkpt lat="46.35328" lon="5.40771">
        <ele>399.4</ele>
        <time>2022-02-12T14:16:14Z</time>
      </trkpt>
      <trkpt lat="46.35338" lon="5.40781">
        <ele>399.6</ele>
        <time>2022-02-12T14:16:17Z</time>
      </trkpt>
      <trkpt lat="46.35342" lon="5.40783">
        <ele>400</ele>
        <time>2022-02-12T14:16:18Z</time>
      </trkpt>
      <trkpt lat="46.35352" lon="5.40782">
        <ele>400.6</ele>
        <time>2022-02-12T14:16:20Z</time>
      </trkpt>
      <trkpt lat="46.35357" lon="5.40781">
        <ele>400.6</ele>
        <time>2022-02-12T14:16:21Z</time>
      </trkpt>
      <trkpt lat="46.35368" lon="5.40777">
        <ele>401</ele>
        <time>2022-02-12T14:16:23Z</time>
      </trkpt>
      <trkpt lat="46.35379" lon="5.40776">
        <ele>401.2</ele>
        <time>2022-02-12T14:16:25Z</time>
      </trkpt>
      <trkpt lat="46.35401" lon="5.40774">
        <ele>401.2</ele>
        <time>2022-02-12T14:16:28Z</time>
      </trkpt>
      <trkpt lat="46.35408" lon="5.40771">
        <ele>401.2</ele>
        <time>2022-02-12T14:16:29Z</time>
      </trkpt>
      <trkpt lat="46.35415" lon="5.40768">
        <ele>401</ele>
        <time>2022-02-12T14:16:30Z</time>
      </trkpt>
      <trkpt lat="46.35441" lon="5.4075">
        <ele>400.2</ele>
        <time>2022-02-12T14:16:34Z</time>
      </trkpt>
      <trkpt lat="46.35457" lon="5.40743">
        <ele>399.8</ele>
        <time>2022-02-12T14:16:36Z</time>
      </trkpt>
      <trkpt lat="46.35467" lon="5.40741">
        <ele>399.4</ele>
        <time>2022-02-12T14:16:37Z</time>
      </trkpt>
      <trkpt lat="46.35475" lon="5.4074">
        <ele>399.4</ele>
        <time>2022-02-12T14:16:38Z</time>
      </trkpt>
      <trkpt lat="46.35498" lon="5.40741">
        <ele>398.4</ele>
        <time>2022-02-12T14:16:41Z</time>
      </trkpt>
      <trkpt lat="46.35533" lon="5.40741">
        <ele>397.2</ele>
        <time>2022-02-12T14:16:45Z</time>
      </trkpt>
      <trkpt lat="46.35569" lon="5.40749">
        <ele>396</ele>
        <time>2022-02-12T14:16:49Z</time>
      </trkpt>
      <trkpt lat="46.35578" lon="5.40753">
        <ele>395.4</ele>
        <time>2022-02-12T14:16:50Z</time>
      </trkpt>
      <trkpt lat="46.35588" lon="5.40758">
        <ele>395</ele>
        <time>2022-02-12T14:16:51Z</time>
      </trkpt>
      <trkpt lat="46.3562" lon="5.4077">
        <ele>393.4</ele>
        <time>2022-02-12T14:16:55Z</time>
      </trkpt>
      <trkpt lat="46.35639" lon="5.40775">
        <ele>392.6</ele>
        <time>2022-02-12T14:16:57Z</time>
      </trkpt>
      <trkpt lat="46.35654" lon="5.40777">
        <ele>392.2</ele>
        <time>2022-02-12T14:16:59Z</time>
      </trkpt>
      <trkpt lat="46.35681" lon="5.40778">
        <ele>392</ele>
        <time>2022-02-12T14:17:02Z</time>
      </trkpt>
      <trkpt lat="46.35734" lon="5.40766">
        <ele>391.2</ele>
        <time>2022-02-12T14:17:09Z</time>
      </trkpt>
      <trkpt lat="46.35757" lon="5.40752">
        <ele>391</ele>
        <time>2022-02-12T14:17:12Z</time>
      </trkpt>
      <trkpt lat="46.35771" lon="5.40747">
        <ele>391</ele>
        <time>2022-02-12T14:17:14Z</time>
      </trkpt>
      <trkpt lat="46.35806" lon="5.40749">
        <ele>391.2</ele>
        <time>2022-02-12T14:17:19Z</time>
      </trkpt>
      <trkpt lat="46.35862" lon="5.40765">
        <ele>391.2</ele>
        <time>2022-02-12T14:17:27Z</time>
      </trkpt>
      <trkpt lat="46.35912" lon="5.40778">
        <ele>391.2</ele>
        <time>2022-02-12T14:17:34Z</time>
      </trkpt>
      <trkpt lat="46.35923" lon="5.40785">
        <ele>391.2</ele>
        <time>2022-02-12T14:17:36Z</time>
      </trkpt>
      <trkpt lat="46.35934" lon="5.40796">
        <ele>391.4</ele>
        <time>2022-02-12T14:17:38Z</time>
      </trkpt>
      <trkpt lat="46.35956" lon="5.40823">
        <ele>391.6</ele>
        <time>2022-02-12T14:17:42Z</time>
      </trkpt>
      <trkpt lat="46.35966" lon="5.40833">
        <ele>391.8</ele>
        <time>2022-02-12T14:17:44Z</time>
      </trkpt>
      <trkpt lat="46.35994" lon="5.40861">
        <ele>391.8</ele>
        <time>2022-02-12T14:17:49Z</time>
      </trkpt>
      <trkpt lat="46.36002" lon="5.40874">
        <ele>391.8</ele>
        <time>2022-02-12T14:17:51Z</time>
      </trkpt>
      <trkpt lat="46.36024" lon="5.4091">
        <ele>392.4</ele>
        <time>2022-02-12T14:17:56Z</time>
      </trkpt>
      <trkpt lat="46.36029" lon="5.40914">
        <ele>392.4</ele>
        <time>2022-02-12T14:17:57Z</time>
      </trkpt>
      <trkpt lat="46.36034" lon="5.40919">
        <ele>392.4</ele>
        <time>2022-02-12T14:17:58Z</time>
      </trkpt>
      <trkpt lat="46.36052" lon="5.4093">
        <ele>392.8</ele>
        <time>2022-02-12T14:18:01Z</time>
      </trkpt>
      <trkpt lat="46.36058" lon="5.40933">
        <ele>392.8</ele>
        <time>2022-02-12T14:18:02Z</time>
      </trkpt>
      <trkpt lat="46.3609" lon="5.40945">
        <ele>393</ele>
        <time>2022-02-12T14:18:07Z</time>
      </trkpt>
      <trkpt lat="46.36101" lon="5.40945">
        <ele>393</ele>
        <time>2022-02-12T14:18:09Z</time>
      </trkpt>
      <trkpt lat="46.36126" lon="5.40942">
        <ele>393.2</ele>
        <time>2022-02-12T14:18:13Z</time>
      </trkpt>
      <trkpt lat="46.36133" lon="5.40942">
        <ele>393.2</ele>
        <time>2022-02-12T14:18:14Z</time>
      </trkpt>
      <trkpt lat="46.36146" lon="5.40944">
        <ele>393.4</ele>
        <time>2022-02-12T14:18:16Z</time>
      </trkpt>
      <trkpt lat="46.36169" lon="5.4095">
        <ele>394</ele>
        <time>2022-02-12T14:18:20Z</time>
      </trkpt>
      <trkpt lat="46.36199" lon="5.40958">
        <ele>394.8</ele>
        <time>2022-02-12T14:18:25Z</time>
      </trkpt>
      <trkpt lat="46.36237" lon="5.40964">
        <ele>395.4</ele>
        <time>2022-02-12T14:18:31Z</time>
      </trkpt>
      <trkpt lat="46.36273" lon="5.4096">
        <ele>395.8</ele>
        <time>2022-02-12T14:18:37Z</time>
      </trkpt>
      <trkpt lat="46.36279" lon="5.40958">
        <ele>395.8</ele>
        <time>2022-02-12T14:18:38Z</time>
      </trkpt>
      <trkpt lat="46.36315" lon="5.4094">
        <ele>396.4</ele>
        <time>2022-02-12T14:18:44Z</time>
      </trkpt>
      <trkpt lat="46.3632" lon="5.40939">
        <ele>396.6</ele>
        <time>2022-02-12T14:18:45Z</time>
      </trkpt>
      <trkpt lat="46.36356" lon="5.40936">
        <ele>396.8</ele>
        <time>2022-02-12T14:18:51Z</time>
      </trkpt>
      <trkpt lat="46.36368" lon="5.40937">
        <ele>397.2</ele>
        <time>2022-02-12T14:18:53Z</time>
      </trkpt>
      <trkpt lat="46.36417" lon="5.40939">
        <ele>397.8</ele>
        <time>2022-02-12T14:19:01Z</time>
      </trkpt>
      <trkpt lat="46.36455" lon="5.40948">
        <ele>398.2</ele>
        <time>2022-02-12T14:19:07Z</time>
      </trkpt>
      <trkpt lat="46.365" lon="5.40953">
        <ele>398.8</ele>
        <time>2022-02-12T14:19:14Z</time>
      </trkpt>
      <trkpt lat="46.36512" lon="5.40954">
        <ele>399</ele>
        <time>2022-02-12T14:19:16Z</time>
      </trkpt>
      <trkpt lat="46.36561" lon="5.40956">
        <ele>399.8</ele>
        <time>2022-02-12T14:19:24Z</time>
      </trkpt>
      <trkpt lat="46.36596" lon="5.4096">
        <ele>400</ele>
        <time>2022-02-12T14:19:30Z</time>
      </trkpt>
      <trkpt lat="46.3662" lon="5.40964">
        <ele>400</ele>
        <time>2022-02-12T14:19:34Z</time>
      </trkpt>
      <trkpt lat="46.36653" lon="5.40976">
        <ele>401</ele>
        <time>2022-02-12T14:19:40Z</time>
      </trkpt>
      <trkpt lat="46.36657" lon="5.40978">
        <ele>401</ele>
        <time>2022-02-12T14:19:41Z</time>
      </trkpt>
      <trkpt lat="46.36681" lon="5.40987">
        <ele>402</ele>
        <time>2022-02-12T14:19:46Z</time>
      </trkpt>
      <trkpt lat="46.36691" lon="5.4099">
        <ele>402.6</ele>
        <time>2022-02-12T14:19:48Z</time>
      </trkpt>
      <trkpt lat="46.36696" lon="5.40991">
        <ele>402.8</ele>
        <time>2022-02-12T14:19:49Z</time>
      </trkpt>
      <trkpt lat="46.36711" lon="5.40993">
        <ele>403.2</ele>
        <time>2022-02-12T14:19:52Z</time>
      </trkpt>
      <trkpt lat="46.36726" lon="5.40994">
        <ele>403.4</ele>
        <time>2022-02-12T14:19:55Z</time>
      </trkpt>
      <trkpt lat="46.36731" lon="5.40994">
        <ele>403.4</ele>
        <time>2022-02-12T14:19:56Z</time>
      </trkpt>
      <trkpt lat="46.36741" lon="5.40994">
        <ele>403.6</ele>
        <time>2022-02-12T14:19:58Z</time>
      </trkpt>
      <trkpt lat="46.36751" lon="5.40995">
        <ele>404</ele>
        <time>2022-02-12T14:20:00Z</time>
      </trkpt>
      <trkpt lat="46.36756" lon="5.40996">
        <ele>404.4</ele>
        <time>2022-02-12T14:20:01Z</time>
      </trkpt>
      <trkpt lat="46.36766" lon="5.40997">
        <ele>405</ele>
        <time>2022-02-12T14:20:04Z</time>
      </trkpt>
      <trkpt lat="46.3678" lon="5.41">
        <ele>405.4</ele>
        <time>2022-02-12T14:20:07Z</time>
      </trkpt>
      <trkpt lat="46.36786" lon="5.41">
        <ele>405.6</ele>
        <time>2022-02-12T14:20:08Z</time>
      </trkpt>
      <trkpt lat="46.36795" lon="5.41">
        <ele>406</ele>
        <time>2022-02-12T14:20:10Z</time>
      </trkpt>
      <trkpt lat="46.36805" lon="5.40997">
        <ele>406.4</ele>
        <time>2022-02-12T14:20:12Z</time>
      </trkpt>
      <trkpt lat="46.3681" lon="5.40996">
        <ele>406.6</ele>
        <time>2022-02-12T14:20:13Z</time>
      </trkpt>
      <trkpt lat="46.36834" lon="5.40992">
        <ele>407.6</ele>
        <time>2022-02-12T14:20:17Z</time>
      </trkpt>
      <trkpt lat="46.36844" lon="5.40993">
        <ele>408.2</ele>
        <time>2022-02-12T14:20:19Z</time>
      </trkpt>
      <trkpt lat="46.36871" lon="5.40995">
        <ele>408.8</ele>
        <time>2022-02-12T14:20:24Z</time>
      </trkpt>
      <trkpt lat="46.36895" lon="5.40997">
        <ele>409.6</ele>
        <time>2022-02-12T14:20:28Z</time>
      </trkpt>
      <trkpt lat="46.3692" lon="5.40997">
        <ele>409.8</ele>
        <time>2022-02-12T14:20:32Z</time>
      </trkpt>
      <trkpt lat="46.36938" lon="5.40994">
        <ele>409.6</ele>
        <time>2022-02-12T14:20:35Z</time>
      </trkpt>
      <trkpt lat="46.36985" lon="5.40978">
        <ele>409.2</ele>
        <time>2022-02-12T14:20:43Z</time>
      </trkpt>
      <trkpt lat="46.37022" lon="5.40966">
        <ele>409</ele>
        <time>2022-02-12T14:20:49Z</time>
      </trkpt>
      <trkpt lat="46.37033" lon="5.40963">
        <ele>409</ele>
        <time>2022-02-12T14:20:51Z</time>
      </trkpt>
      <trkpt lat="46.37045" lon="5.40961">
        <ele>409</ele>
        <time>2022-02-12T14:20:53Z</time>
      </trkpt>
      <trkpt lat="46.37049" lon="5.40962">
        <ele>409.2</ele>
        <time>2022-02-12T14:20:54Z</time>
      </trkpt>
      <trkpt lat="46.37059" lon="5.40964">
        <ele>409.4</ele>
        <time>2022-02-12T14:20:56Z</time>
      </trkpt>
      <trkpt lat="46.37077" lon="5.40973">
        <ele>409.8</ele>
        <time>2022-02-12T14:20:59Z</time>
      </trkpt>
      <trkpt lat="46.37088" lon="5.40979">
        <ele>410.2</ele>
        <time>2022-02-12T14:21:01Z</time>
      </trkpt>
      <trkpt lat="46.37106" lon="5.40985">
        <ele>410.2</ele>
        <time>2022-02-12T14:21:04Z</time>
      </trkpt>
      <trkpt lat="46.3716" lon="5.41005">
        <ele>410.2</ele>
        <time>2022-02-12T14:21:12Z</time>
      </trkpt>
      <trkpt lat="46.37166" lon="5.41008">
        <ele>410.2</ele>
        <time>2022-02-12T14:21:13Z</time>
      </trkpt>
      <trkpt lat="46.37197" lon="5.41023">
        <ele>410.2</ele>
        <time>2022-02-12T14:21:19Z</time>
      </trkpt>
      <trkpt lat="46.37213" lon="5.41031">
        <ele>410.8</ele>
        <time>2022-02-12T14:21:22Z</time>
      </trkpt>
      <trkpt lat="46.3723" lon="5.41039">
        <ele>411.8</ele>
        <time>2022-02-12T14:21:26Z</time>
      </trkpt>
      <trkpt lat="46.37236" lon="5.41042">
        <ele>412</ele>
        <time>2022-02-12T14:21:27Z</time>
      </trkpt>
      <trkpt lat="46.37254" lon="5.4105">
        <ele>413.2</ele>
        <time>2022-02-12T14:21:31Z</time>
      </trkpt>
      <trkpt lat="46.37269" lon="5.41055">
        <ele>413.8</ele>
        <time>2022-02-12T14:21:34Z</time>
      </trkpt>
      <trkpt lat="46.37279" lon="5.41057">
        <ele>414.2</ele>
        <time>2022-02-12T14:21:36Z</time>
      </trkpt>
      <trkpt lat="46.37283" lon="5.41057">
        <ele>414.4</ele>
        <time>2022-02-12T14:21:37Z</time>
      </trkpt>
      <trkpt lat="46.37291" lon="5.41058">
        <ele>414.8</ele>
        <time>2022-02-12T14:21:39Z</time>
      </trkpt>
      <trkpt lat="46.37308" lon="5.41061">
        <ele>415.4</ele>
        <time>2022-02-12T14:21:43Z</time>
      </trkpt>
      <trkpt lat="46.37317" lon="5.41062">
        <ele>416.2</ele>
        <time>2022-02-12T14:21:45Z</time>
      </trkpt>
      <trkpt lat="46.37322" lon="5.41063">
        <ele>416.4</ele>
        <time>2022-02-12T14:21:46Z</time>
      </trkpt>
      <trkpt lat="46.37339" lon="5.41064">
        <ele>417.2</ele>
        <time>2022-02-12T14:21:50Z</time>
      </trkpt>
      <trkpt lat="46.37346" lon="5.41063">
        <ele>417.6</ele>
        <time>2022-02-12T14:21:52Z</time>
      </trkpt>
      <trkpt lat="46.37358" lon="5.41055">
        <ele>418.4</ele>
        <time>2022-02-12T14:21:55Z</time>
      </trkpt>
      <trkpt lat="46.37364" lon="5.41048">
        <ele>419</ele>
        <time>2022-02-12T14:21:57Z</time>
      </trkpt>
      <trkpt lat="46.37375" lon="5.41031">
        <ele>420</ele>
        <time>2022-02-12T14:22:01Z</time>
      </trkpt>
      <trkpt lat="46.37381" lon="5.41019">
        <ele>420</ele>
        <time>2022-02-12T14:22:03Z</time>
      </trkpt>
      <trkpt lat="46.3739" lon="5.40997">
        <ele>420.2</ele>
        <time>2022-02-12T14:22:06Z</time>
      </trkpt>
      <trkpt lat="46.37393" lon="5.40986">
        <ele>420.2</ele>
        <time>2022-02-12T14:22:07Z</time>
      </trkpt>
      <trkpt lat="46.37393" lon="5.40976">
        <ele>419.8</ele>
        <time>2022-02-12T14:22:08Z</time>
      </trkpt>
      <trkpt lat="46.37389" lon="5.40957">
        <ele>419.6</ele>
        <time>2022-02-12T14:22:10Z</time>
      </trkpt>
      <trkpt lat="46.37384" lon="5.40935">
        <ele>418.8</ele>
        <time>2022-02-12T14:22:12Z</time>
      </trkpt>
      <trkpt lat="46.37379" lon="5.40912">
        <ele>417.8</ele>
        <time>2022-02-12T14:22:14Z</time>
      </trkpt>
      <trkpt lat="46.37374" lon="5.40886">
        <ele>417.2</ele>
        <time>2022-02-12T14:22:16Z</time>
      </trkpt>
      <trkpt lat="46.3737" lon="5.40856">
        <ele>416.2</ele>
        <time>2022-02-12T14:22:18Z</time>
      </trkpt>
      <trkpt lat="46.37371" lon="5.40844">
        <ele>415.8</ele>
        <time>2022-02-12T14:22:19Z</time>
      </trkpt>
      <trkpt lat="46.37374" lon="5.4083">
        <ele>415.2</ele>
        <time>2022-02-12T14:22:20Z</time>
      </trkpt>
      <trkpt lat="46.37379" lon="5.40815">
        <ele>415</ele>
        <time>2022-02-12T14:22:21Z</time>
      </trkpt>
      <trkpt lat="46.37384" lon="5.40802">
        <ele>414.4</ele>
        <time>2022-02-12T14:22:22Z</time>
      </trkpt>
      <trkpt lat="46.37388" lon="5.40792">
        <ele>413.8</ele>
        <time>2022-02-12T14:22:23Z</time>
      </trkpt>
      <trkpt lat="46.37397" lon="5.40767">
        <ele>412.8</ele>
        <time>2022-02-12T14:22:25Z</time>
      </trkpt>
      <trkpt lat="46.374" lon="5.40754">
        <ele>411.8</ele>
        <time>2022-02-12T14:22:26Z</time>
      </trkpt>
      <trkpt lat="46.37404" lon="5.40742">
        <ele>411.4</ele>
        <time>2022-02-12T14:22:27Z</time>
      </trkpt>
      <trkpt lat="46.37407" lon="5.40727">
        <ele>410.8</ele>
        <time>2022-02-12T14:22:28Z</time>
      </trkpt>
      <trkpt lat="46.37409" lon="5.40718">
        <ele>410.4</ele>
        <time>2022-02-12T14:22:29Z</time>
      </trkpt>
      <trkpt lat="46.37414" lon="5.40668">
        <ele>409.8</ele>
        <time>2022-02-12T14:22:33Z</time>
      </trkpt>
      <trkpt lat="46.37417" lon="5.40631">
        <ele>409.4</ele>
        <time>2022-02-12T14:22:36Z</time>
      </trkpt>
      <trkpt lat="46.37416" lon="5.40595">
        <ele>409</ele>
        <time>2022-02-12T14:22:39Z</time>
      </trkpt>
      <trkpt lat="46.37412" lon="5.40557">
        <ele>408.2</ele>
        <time>2022-02-12T14:22:42Z</time>
      </trkpt>
      <trkpt lat="46.37408" lon="5.40532">
        <ele>407.8</ele>
        <time>2022-02-12T14:22:44Z</time>
      </trkpt>
      <trkpt lat="46.37402" lon="5.40492">
        <ele>406.8</ele>
        <time>2022-02-12T14:22:47Z</time>
      </trkpt>
      <trkpt lat="46.37397" lon="5.40452">
        <ele>405.4</ele>
        <time>2022-02-12T14:22:50Z</time>
      </trkpt>
      <trkpt lat="46.37395" lon="5.40438">
        <ele>404.8</ele>
        <time>2022-02-12T14:22:51Z</time>
      </trkpt>
      <trkpt lat="46.37394" lon="5.40425">
        <ele>404.2</ele>
        <time>2022-02-12T14:22:52Z</time>
      </trkpt>
      <trkpt lat="46.37387" lon="5.40372">
        <ele>402.6</ele>
        <time>2022-02-12T14:22:56Z</time>
      </trkpt>
      <trkpt lat="46.37382" lon="5.40328">
        <ele>401.4</ele>
        <time>2022-02-12T14:22:59Z</time>
      </trkpt>
      <trkpt lat="46.3738" lon="5.40315">
        <ele>400.8</ele>
        <time>2022-02-12T14:23:00Z</time>
      </trkpt>
      <trkpt lat="46.37375" lon="5.40274">
        <ele>400</ele>
        <time>2022-02-12T14:23:03Z</time>
      </trkpt>
      <trkpt lat="46.37368" lon="5.40224">
        <ele>398.6</ele>
        <time>2022-02-12T14:23:07Z</time>
      </trkpt>
      <trkpt lat="46.37363" lon="5.40196">
        <ele>398.2</ele>
        <time>2022-02-12T14:23:09Z</time>
      </trkpt>
      <trkpt lat="46.37356" lon="5.40163">
        <ele>397.4</ele>
        <time>2022-02-12T14:23:12Z</time>
      </trkpt>
      <trkpt lat="46.37344" lon="5.40107">
        <ele>397.2</ele>
        <time>2022-02-12T14:23:17Z</time>
      </trkpt>
      <trkpt lat="46.37336" lon="5.40043">
        <ele>397</ele>
        <time>2022-02-12T14:23:23Z</time>
      </trkpt>
      <trkpt lat="46.37328" lon="5.39993">
        <ele>396.8</ele>
        <time>2022-02-12T14:23:28Z</time>
      </trkpt>
      <trkpt lat="46.37321" lon="5.39952">
        <ele>397.4</ele>
        <time>2022-02-12T14:23:33Z</time>
      </trkpt>
      <trkpt lat="46.3732" lon="5.39937">
        <ele>397.8</ele>
        <time>2022-02-12T14:23:35Z</time>
      </trkpt>
      <trkpt lat="46.37323" lon="5.39921">
        <ele>397.6</ele>
        <time>2022-02-12T14:23:37Z</time>
      </trkpt>
      <trkpt lat="46.37328" lon="5.39909">
        <ele>398</ele>
        <time>2022-02-12T14:23:39Z</time>
      </trkpt>
      <trkpt lat="46.37335" lon="5.39901">
        <ele>398.4</ele>
        <time>2022-02-12T14:23:41Z</time>
      </trkpt>
      <trkpt lat="46.37339" lon="5.39899">
        <ele>398.8</ele>
        <time>2022-02-12T14:23:42Z</time>
      </trkpt>
      <trkpt lat="46.37343" lon="5.39897">
        <ele>399</ele>
        <time>2022-02-12T14:23:43Z</time>
      </trkpt>
      <trkpt lat="46.37356" lon="5.39894">
        <ele>400</ele>
        <time>2022-02-12T14:23:46Z</time>
      </trkpt>
      <trkpt lat="46.37374" lon="5.39894">
        <ele>401.4</ele>
        <time>2022-02-12T14:23:50Z</time>
      </trkpt>
      <trkpt lat="46.37396" lon="5.39898">
        <ele>402.4</ele>
        <time>2022-02-12T14:23:55Z</time>
      </trkpt>
      <trkpt lat="46.37418" lon="5.39899">
        <ele>403.4</ele>
        <time>2022-02-12T14:24:00Z</time>
      </trkpt>
      <trkpt lat="46.37423" lon="5.39897">
        <ele>403.4</ele>
        <time>2022-02-12T14:24:01Z</time>
      </trkpt>
      <trkpt lat="46.37427" lon="5.39895">
        <ele>403.8</ele>
        <time>2022-02-12T14:24:02Z</time>
      </trkpt>
      <trkpt lat="46.3743" lon="5.39892">
        <ele>403.8</ele>
        <time>2022-02-12T14:24:03Z</time>
      </trkpt>
      <trkpt lat="46.37438" lon="5.39886">
        <ele>404.6</ele>
        <time>2022-02-12T14:24:05Z</time>
      </trkpt>
      <trkpt lat="46.37441" lon="5.39885">
        <ele>404.8</ele>
        <time>2022-02-12T14:24:06Z</time>
      </trkpt>
      <trkpt lat="46.37445" lon="5.39885">
        <ele>405</ele>
        <time>2022-02-12T14:24:07Z</time>
      </trkpt>
      <trkpt lat="46.37453" lon="5.39888">
        <ele>405.4</ele>
        <time>2022-02-12T14:24:09Z</time>
      </trkpt>
      <trkpt lat="46.37473" lon="5.39902">
        <ele>405.8</ele>
        <time>2022-02-12T14:24:14Z</time>
      </trkpt>
      <trkpt lat="46.37477" lon="5.39906">
        <ele>406</ele>
        <time>2022-02-12T14:24:15Z</time>
      </trkpt>
      <trkpt lat="46.37481" lon="5.3991">
        <ele>406.2</ele>
        <time>2022-02-12T14:24:16Z</time>
      </trkpt>
      <trkpt lat="46.3749" lon="5.39918">
        <ele>406.2</ele>
        <time>2022-02-12T14:24:18Z</time>
      </trkpt>
      <trkpt lat="46.37507" lon="5.39928">
        <ele>406.2</ele>
        <time>2022-02-12T14:24:21Z</time>
      </trkpt>
      <trkpt lat="46.37544" lon="5.39944">
        <ele>405.6</ele>
        <time>2022-02-12T14:24:26Z</time>
      </trkpt>
      <trkpt lat="46.37561" lon="5.3995">
        <ele>404.8</ele>
        <time>2022-02-12T14:24:28Z</time>
      </trkpt>
      <trkpt lat="46.3757" lon="5.39953">
        <ele>403.4</ele>
        <time>2022-02-12T14:24:29Z</time>
      </trkpt>
      <trkpt lat="46.37588" lon="5.39958">
        <ele>401.6</ele>
        <time>2022-02-12T14:24:31Z</time>
      </trkpt>
      <trkpt lat="46.37597" lon="5.39962">
        <ele>401</ele>
        <time>2022-02-12T14:24:32Z</time>
      </trkpt>
      <trkpt lat="46.37615" lon="5.39967">
        <ele>400.4</ele>
        <time>2022-02-12T14:24:34Z</time>
      </trkpt>
      <trkpt lat="46.37649" lon="5.39972">
        <ele>399.4</ele>
        <time>2022-02-12T14:24:38Z</time>
      </trkpt>
      <trkpt lat="46.37657" lon="5.39972">
        <ele>399.2</ele>
        <time>2022-02-12T14:24:39Z</time>
      </trkpt>
      <trkpt lat="46.37696" lon="5.39972">
        <ele>398.8</ele>
        <time>2022-02-12T14:24:44Z</time>
      </trkpt>
      <trkpt lat="46.37733" lon="5.39981">
        <ele>398.8</ele>
        <time>2022-02-12T14:24:49Z</time>
      </trkpt>
      <trkpt lat="46.37767" lon="5.4">
        <ele>399</ele>
        <time>2022-02-12T14:24:54Z</time>
      </trkpt>
      <trkpt lat="46.3778" lon="5.40005">
        <ele>399</ele>
        <time>2022-02-12T14:24:56Z</time>
      </trkpt>
      <trkpt lat="46.37812" lon="5.40006">
        <ele>399.4</ele>
        <time>2022-02-12T14:25:01Z</time>
      </trkpt>
      <trkpt lat="46.37866" lon="5.39996">
        <ele>399.8</ele>
        <time>2022-02-12T14:25:09Z</time>
      </trkpt>
      <trkpt lat="46.3792" lon="5.3998">
        <ele>399.6</ele>
        <time>2022-02-12T14:25:17Z</time>
      </trkpt>
      <trkpt lat="46.37933" lon="5.39975">
        <ele>399.6</ele>
        <time>2022-02-12T14:25:19Z</time>
      </trkpt>
      <trkpt lat="46.37977" lon="5.39959">
        <ele>400</ele>
        <time>2022-02-12T14:25:26Z</time>
      </trkpt>
      <trkpt lat="46.38034" lon="5.39939">
        <ele>400</ele>
        <time>2022-02-12T14:25:35Z</time>
      </trkpt>
      <trkpt lat="46.38066" lon="5.39928">
        <ele>400.4</ele>
        <time>2022-02-12T14:25:40Z</time>
      </trkpt>
      <trkpt lat="46.38074" lon="5.39924">
        <ele>400.4</ele>
        <time>2022-02-12T14:25:41Z</time>
      </trkpt>
      <trkpt lat="46.38085" lon="5.39917">
        <ele>400.4</ele>
        <time>2022-02-12T14:25:43Z</time>
      </trkpt>
      <trkpt lat="46.38118" lon="5.39886">
        <ele>400.8</ele>
        <time>2022-02-12T14:25:49Z</time>
      </trkpt>
      <trkpt lat="46.38139" lon="5.39865">
        <ele>400.8</ele>
        <time>2022-02-12T14:25:53Z</time>
      </trkpt>
      <trkpt lat="46.38151" lon="5.39859">
        <ele>400.8</ele>
        <time>2022-02-12T14:25:55Z</time>
      </trkpt>
      <trkpt lat="46.38163" lon="5.39858">
        <ele>401</ele>
        <time>2022-02-12T14:25:57Z</time>
      </trkpt>
      <trkpt lat="46.38175" lon="5.3986">
        <ele>401.2</ele>
        <time>2022-02-12T14:25:59Z</time>
      </trkpt>
      <trkpt lat="46.38186" lon="5.39864">
        <ele>401.4</ele>
        <time>2022-02-12T14:26:01Z</time>
      </trkpt>
      <trkpt lat="46.38219" lon="5.39874">
        <ele>402.6</ele>
        <time>2022-02-12T14:26:07Z</time>
      </trkpt>
      <trkpt lat="46.3823" lon="5.39878">
        <ele>402.8</ele>
        <time>2022-02-12T14:26:09Z</time>
      </trkpt>
      <trkpt lat="46.38257" lon="5.39884">
        <ele>404</ele>
        <time>2022-02-12T14:26:14Z</time>
      </trkpt>
      <trkpt lat="46.38261" lon="5.39884">
        <ele>404.2</ele>
        <time>2022-02-12T14:26:15Z</time>
      </trkpt>
      <trkpt lat="46.38277" lon="5.39883">
        <ele>404.6</ele>
        <time>2022-02-12T14:26:18Z</time>
      </trkpt>
      <trkpt lat="46.38288" lon="5.39885">
        <ele>404.8</ele>
        <time>2022-02-12T14:26:20Z</time>
      </trkpt>
      <trkpt lat="46.38298" lon="5.3989">
        <ele>405.2</ele>
        <time>2022-02-12T14:26:22Z</time>
      </trkpt>
      <trkpt lat="46.38307" lon="5.39896">
        <ele>405.4</ele>
        <time>2022-02-12T14:26:24Z</time>
      </trkpt>
      <trkpt lat="46.38311" lon="5.39899">
        <ele>405.6</ele>
        <time>2022-02-12T14:26:25Z</time>
      </trkpt>
      <trkpt lat="46.38319" lon="5.39896">
        <ele>406</ele>
        <time>2022-02-12T14:26:27Z</time>
      </trkpt>
      <trkpt lat="46.38325" lon="5.39889">
        <ele>406.4</ele>
        <time>2022-02-12T14:26:29Z</time>
      </trkpt>
      <trkpt lat="46.38334" lon="5.39877">
        <ele>407</ele>
        <time>2022-02-12T14:26:32Z</time>
      </trkpt>
      <trkpt lat="46.38338" lon="5.39873">
        <ele>407.2</ele>
        <time>2022-02-12T14:26:33Z</time>
      </trkpt>
      <trkpt lat="46.38341" lon="5.3987">
        <ele>407.8</ele>
        <time>2022-02-12T14:26:34Z</time>
      </trkpt>
      <trkpt lat="46.38352" lon="5.39861">
        <ele>408.8</ele>
        <time>2022-02-12T14:26:37Z</time>
      </trkpt>
      <trkpt lat="46.38363" lon="5.39856">
        <ele>409.8</ele>
        <time>2022-02-12T14:26:40Z</time>
      </trkpt>
      <trkpt lat="46.38376" lon="5.3985">
        <ele>411</ele>
        <time>2022-02-12T14:26:43Z</time>
      </trkpt>
      <trkpt lat="46.38388" lon="5.39844">
        <ele>411.8</ele>
        <time>2022-02-12T14:26:46Z</time>
      </trkpt>
      <trkpt lat="46.38396" lon="5.3984">
        <ele>412.2</ele>
        <time>2022-02-12T14:26:48Z</time>
      </trkpt>
      <trkpt lat="46.38404" lon="5.39837">
        <ele>412.6</ele>
        <time>2022-02-12T14:26:50Z</time>
      </trkpt>
      <trkpt lat="46.38418" lon="5.39833">
        <ele>413</ele>
        <time>2022-02-12T14:26:53Z</time>
      </trkpt>
      <trkpt lat="46.38427" lon="5.3983">
        <ele>413.4</ele>
        <time>2022-02-12T14:26:55Z</time>
      </trkpt>
      <trkpt lat="46.3845" lon="5.39825">
        <ele>414.2</ele>
        <time>2022-02-12T14:27:00Z</time>
      </trkpt>
      <trkpt lat="46.38454" lon="5.39824">
        <ele>414.4</ele>
        <time>2022-02-12T14:27:01Z</time>
      </trkpt>
      <trkpt lat="46.38462" lon="5.39824">
        <ele>414.6</ele>
        <time>2022-02-12T14:27:03Z</time>
      </trkpt>
      <trkpt lat="46.38489" lon="5.39823">
        <ele>415.8</ele>
        <time>2022-02-12T14:27:09Z</time>
      </trkpt>
      <trkpt lat="46.38494" lon="5.39823">
        <ele>416</ele>
        <time>2022-02-12T14:27:10Z</time>
      </trkpt>
      <trkpt lat="46.38522" lon="5.39827">
        <ele>417</ele>
        <time>2022-02-12T14:27:16Z</time>
      </trkpt>
      <trkpt lat="46.38546" lon="5.39829">
        <ele>417.8</ele>
        <time>2022-02-12T14:27:21Z</time>
      </trkpt>
      <trkpt lat="46.38555" lon="5.39831">
        <ele>418</ele>
        <time>2022-02-12T14:27:23Z</time>
      </trkpt>
      <trkpt lat="46.38596" lon="5.39836">
        <ele>419.2</ele>
        <time>2022-02-12T14:27:31Z</time>
      </trkpt>
      <trkpt lat="46.38602" lon="5.39836">
        <ele>419.2</ele>
        <time>2022-02-12T14:27:32Z</time>
      </trkpt>
      <trkpt lat="46.38656" lon="5.39841">
        <ele>419.4</ele>
        <time>2022-02-12T14:27:41Z</time>
      </trkpt>
      <trkpt lat="46.38714" lon="5.39847">
        <ele>419.2</ele>
        <time>2022-02-12T14:27:50Z</time>
      </trkpt>
      <trkpt lat="46.38761" lon="5.39851">
        <ele>418.6</ele>
        <time>2022-02-12T14:27:56Z</time>
      </trkpt>
      <trkpt lat="46.38776" lon="5.39853">
        <ele>418.2</ele>
        <time>2022-02-12T14:27:58Z</time>
      </trkpt>
      <trkpt lat="46.38819" lon="5.39856">
        <ele>417.2</ele>
        <time>2022-02-12T14:28:03Z</time>
      </trkpt>
      <trkpt lat="46.38837" lon="5.39856">
        <ele>417</ele>
        <time>2022-02-12T14:28:05Z</time>
      </trkpt>
      <trkpt lat="46.38875" lon="5.39858">
        <ele>417</ele>
        <time>2022-02-12T14:28:10Z</time>
      </trkpt>
      <trkpt lat="46.38928" lon="5.3986">
        <ele>417.4</ele>
        <time>2022-02-12T14:28:17Z</time>
      </trkpt>
      <trkpt lat="46.38987" lon="5.39867">
        <ele>417.8</ele>
        <time>2022-02-12T14:28:25Z</time>
      </trkpt>
      <trkpt lat="46.39044" lon="5.39877">
        <ele>417.4</ele>
        <time>2022-02-12T14:28:32Z</time>
      </trkpt>
      <trkpt lat="46.39099" lon="5.39886">
        <ele>416.6</ele>
        <time>2022-02-12T14:28:39Z</time>
      </trkpt>
      <trkpt lat="46.39114" lon="5.39889">
        <ele>416.6</ele>
        <time>2022-02-12T14:28:41Z</time>
      </trkpt>
      <trkpt lat="46.39171" lon="5.39898">
        <ele>417.4</ele>
        <time>2022-02-12T14:28:49Z</time>
      </trkpt>
      <trkpt lat="46.39178" lon="5.39899">
        <ele>417.6</ele>
        <time>2022-02-12T14:28:50Z</time>
      </trkpt>
      <trkpt lat="46.39239" lon="5.39909">
        <ele>418.4</ele>
        <time>2022-02-12T14:28:59Z</time>
      </trkpt>
      <trkpt lat="46.39244" lon="5.39909">
        <ele>418.4</ele>
        <time>2022-02-12T14:29:00Z</time>
      </trkpt>
      <trkpt lat="46.39283" lon="5.39916">
        <ele>418.8</ele>
        <time>2022-02-12T14:29:06Z</time>
      </trkpt>
      <trkpt lat="46.39342" lon="5.39927">
        <ele>419.4</ele>
        <time>2022-02-12T14:29:15Z</time>
      </trkpt>
      <trkpt lat="46.39348" lon="5.39928">
        <ele>419.6</ele>
        <time>2022-02-12T14:29:16Z</time>
      </trkpt>
      <trkpt lat="46.39355" lon="5.39929">
        <ele>419.6</ele>
        <time>2022-02-12T14:29:17Z</time>
      </trkpt>
      <trkpt lat="46.39408" lon="5.39938">
        <ele>420</ele>
        <time>2022-02-12T14:29:25Z</time>
      </trkpt>
      <trkpt lat="46.39465" lon="5.39947">
        <ele>420.4</ele>
        <time>2022-02-12T14:29:34Z</time>
      </trkpt>
      <trkpt lat="46.39479" lon="5.39949">
        <ele>420.6</ele>
        <time>2022-02-12T14:29:36Z</time>
      </trkpt>
      <trkpt lat="46.39527" lon="5.39953">
        <ele>421.4</ele>
        <time>2022-02-12T14:29:44Z</time>
      </trkpt>
      <trkpt lat="46.39534" lon="5.39953">
        <ele>421.6</ele>
        <time>2022-02-12T14:29:45Z</time>
      </trkpt>
      <trkpt lat="46.39588" lon="5.39952">
        <ele>422</ele>
        <time>2022-02-12T14:29:53Z</time>
      </trkpt>
      <trkpt lat="46.39596" lon="5.39951">
        <ele>422</ele>
        <time>2022-02-12T14:29:54Z</time>
      </trkpt>
      <trkpt lat="46.39653" lon="5.39945">
        <ele>422.2</ele>
        <time>2022-02-12T14:30:02Z</time>
      </trkpt>
      <trkpt lat="46.39709" lon="5.39936">
        <ele>422.6</ele>
        <time>2022-02-12T14:30:10Z</time>
      </trkpt>
      <trkpt lat="46.39723" lon="5.39934">
        <ele>422.8</ele>
        <time>2022-02-12T14:30:12Z</time>
      </trkpt>
      <trkpt lat="46.39731" lon="5.39933">
        <ele>422.8</ele>
        <time>2022-02-12T14:30:13Z</time>
      </trkpt>
      <trkpt lat="46.39786" lon="5.39922">
        <ele>423.2</ele>
        <time>2022-02-12T14:30:21Z</time>
      </trkpt>
      <trkpt lat="46.39805" lon="5.39918">
        <ele>423.6</ele>
        <time>2022-02-12T14:30:24Z</time>
      </trkpt>
      <trkpt lat="46.39825" lon="5.39915">
        <ele>424</ele>
        <time>2022-02-12T14:30:27Z</time>
      </trkpt>
      <trkpt lat="46.39863" lon="5.39911">
        <ele>424.6</ele>
        <time>2022-02-12T14:30:33Z</time>
      </trkpt>
      <trkpt lat="46.39905" lon="5.39907">
        <ele>424.8</ele>
        <time>2022-02-12T14:30:39Z</time>
      </trkpt>
      <trkpt lat="46.39959" lon="5.3991">
        <ele>424.2</ele>
        <time>2022-02-12T14:30:46Z</time>
      </trkpt>
      <trkpt lat="46.4002" lon="5.39914">
        <ele>423.8</ele>
        <time>2022-02-12T14:30:54Z</time>
      </trkpt>
      <trkpt lat="46.40028" lon="5.39914">
        <ele>423.8</ele>
        <time>2022-02-12T14:30:55Z</time>
      </trkpt>
      <trkpt lat="46.40069" lon="5.39906">
        <ele>423.8</ele>
        <time>2022-02-12T14:31:01Z</time>
      </trkpt>
      <trkpt lat="46.40075" lon="5.39903">
        <ele>424</ele>
        <time>2022-02-12T14:31:02Z</time>
      </trkpt>
      <trkpt lat="46.40099" lon="5.39888">
        <ele>424.6</ele>
        <time>2022-02-12T14:31:06Z</time>
      </trkpt>
      <trkpt lat="46.40121" lon="5.3987">
        <ele>425</ele>
        <time>2022-02-12T14:31:10Z</time>
      </trkpt>
      <trkpt lat="46.40144" lon="5.39853">
        <ele>426</ele>
        <time>2022-02-12T14:31:14Z</time>
      </trkpt>
      <trkpt lat="46.40149" lon="5.39849">
        <ele>426.2</ele>
        <time>2022-02-12T14:31:15Z</time>
      </trkpt>
      <trkpt lat="46.40186" lon="5.39829">
        <ele>426.8</ele>
        <time>2022-02-12T14:31:21Z</time>
      </trkpt>
      <trkpt lat="46.4022" lon="5.39821">
        <ele>426.8</ele>
        <time>2022-02-12T14:31:26Z</time>
      </trkpt>
      <trkpt lat="46.40265" lon="5.39825">
        <ele>426.4</ele>
        <time>2022-02-12T14:31:32Z</time>
      </trkpt>
      <trkpt lat="46.4028" lon="5.39829">
        <ele>426.4</ele>
        <time>2022-02-12T14:31:34Z</time>
      </trkpt>
      <trkpt lat="46.40301" lon="5.39842">
        <ele>426.2</ele>
        <time>2022-02-12T14:31:37Z</time>
      </trkpt>
      <trkpt lat="46.4035" lon="5.39868">
        <ele>426.2</ele>
        <time>2022-02-12T14:31:45Z</time>
      </trkpt>
      <trkpt lat="46.40386" lon="5.39879">
        <ele>427.4</ele>
        <time>2022-02-12T14:31:51Z</time>
      </trkpt>
      <trkpt lat="46.40398" lon="5.39882">
        <ele>427.8</ele>
        <time>2022-02-12T14:31:53Z</time>
      </trkpt>
      <trkpt lat="46.40449" lon="5.39901">
        <ele>428.4</ele>
        <time>2022-02-12T14:32:01Z</time>
      </trkpt>
      <trkpt lat="46.40455" lon="5.39903">
        <ele>428.4</ele>
        <time>2022-02-12T14:32:02Z</time>
      </trkpt>
      <trkpt lat="46.40505" lon="5.39926">
        <ele>429.4</ele>
        <time>2022-02-12T14:32:11Z</time>
      </trkpt>
      <trkpt lat="46.40545" lon="5.39958">
        <ele>430.4</ele>
        <time>2022-02-12T14:32:19Z</time>
      </trkpt>
      <trkpt lat="46.40549" lon="5.39963">
        <ele>430.6</ele>
        <time>2022-02-12T14:32:20Z</time>
      </trkpt>
      <trkpt lat="46.40587" lon="5.39992">
        <ele>430.8</ele>
        <time>2022-02-12T14:32:27Z</time>
      </trkpt>
      <trkpt lat="46.40593" lon="5.39994">
        <ele>431</ele>
        <time>2022-02-12T14:32:28Z</time>
      </trkpt>
      <trkpt lat="46.40637" lon="5.40006">
        <ele>431.2</ele>
        <time>2022-02-12T14:32:35Z</time>
      </trkpt>
      <trkpt lat="46.40643" lon="5.40009">
        <ele>431.2</ele>
        <time>2022-02-12T14:32:36Z</time>
      </trkpt>
      <trkpt lat="46.40667" lon="5.40024">
        <ele>431.4</ele>
        <time>2022-02-12T14:32:40Z</time>
      </trkpt>
      <trkpt lat="46.40679" lon="5.40032">
        <ele>431.6</ele>
        <time>2022-02-12T14:32:42Z</time>
      </trkpt>
      <trkpt lat="46.40731" lon="5.40068">
        <ele>431.8</ele>
        <time>2022-02-12T14:32:51Z</time>
      </trkpt>
      <trkpt lat="46.40754" lon="5.40082">
        <ele>432.2</ele>
        <time>2022-02-12T14:32:55Z</time>
      </trkpt>
      <trkpt lat="46.4077" lon="5.40093">
        <ele>432.4</ele>
        <time>2022-02-12T14:32:58Z</time>
      </trkpt>
      <trkpt lat="46.40797" lon="5.40113">
        <ele>432.8</ele>
        <time>2022-02-12T14:33:03Z</time>
      </trkpt>
      <trkpt lat="46.40812" lon="5.40125">
        <ele>433</ele>
        <time>2022-02-12T14:33:06Z</time>
      </trkpt>
      <trkpt lat="46.40829" lon="5.40133">
        <ele>433.2</ele>
        <time>2022-02-12T14:33:09Z</time>
      </trkpt>
      <trkpt lat="46.40846" lon="5.40137">
        <ele>433.6</ele>
        <time>2022-02-12T14:33:12Z</time>
      </trkpt>
      <trkpt lat="46.40877" lon="5.40143">
        <ele>434.2</ele>
        <time>2022-02-12T14:33:17Z</time>
      </trkpt>
      <trkpt lat="46.409" lon="5.40147">
        <ele>434.6</ele>
        <time>2022-02-12T14:33:21Z</time>
      </trkpt>
      <trkpt lat="46.40922" lon="5.4015">
        <ele>435.2</ele>
        <time>2022-02-12T14:33:25Z</time>
      </trkpt>
      <trkpt lat="46.40933" lon="5.40153">
        <ele>435.8</ele>
        <time>2022-02-12T14:33:27Z</time>
      </trkpt>
      <trkpt lat="46.40944" lon="5.40156">
        <ele>436</ele>
        <time>2022-02-12T14:33:29Z</time>
      </trkpt>
      <trkpt lat="46.40959" lon="5.40161">
        <ele>436.8</ele>
        <time>2022-02-12T14:33:32Z</time>
      </trkpt>
      <trkpt lat="46.40965" lon="5.40162">
        <ele>437</ele>
        <time>2022-02-12T14:33:33Z</time>
      </trkpt>
      <trkpt lat="46.41004" lon="5.40172">
        <ele>437.6</ele>
        <time>2022-02-12T14:33:40Z</time>
      </trkpt>
      <trkpt lat="46.4101" lon="5.40173">
        <ele>437.8</ele>
        <time>2022-02-12T14:33:41Z</time>
      </trkpt>
      <trkpt lat="46.41046" lon="5.4018">
        <ele>438</ele>
        <time>2022-02-12T14:33:47Z</time>
      </trkpt>
      <trkpt lat="46.411" lon="5.40186">
        <ele>438.4</ele>
        <time>2022-02-12T14:33:56Z</time>
      </trkpt>
      <trkpt lat="46.41135" lon="5.40174">
        <ele>439</ele>
        <time>2022-02-12T14:34:02Z</time>
      </trkpt>
      <trkpt lat="46.41141" lon="5.40171">
        <ele>439</ele>
        <time>2022-02-12T14:34:03Z</time>
      </trkpt>
      <trkpt lat="46.41195" lon="5.40142">
        <ele>439.4</ele>
        <time>2022-02-12T14:34:12Z</time>
      </trkpt>
      <trkpt lat="46.41251" lon="5.4012">
        <ele>439.8</ele>
        <time>2022-02-12T14:34:21Z</time>
      </trkpt>
      <trkpt lat="46.41276" lon="5.40116">
        <ele>440.2</ele>
        <time>2022-02-12T14:34:25Z</time>
      </trkpt>
      <trkpt lat="46.41305" lon="5.40114">
        <ele>440.6</ele>
        <time>2022-02-12T14:34:30Z</time>
      </trkpt>
      <trkpt lat="46.41328" lon="5.40114">
        <ele>441.2</ele>
        <time>2022-02-12T14:34:34Z</time>
      </trkpt>
      <trkpt lat="46.4136" lon="5.40115">
        <ele>442</ele>
        <time>2022-02-12T14:34:40Z</time>
      </trkpt>
      <trkpt lat="46.41371" lon="5.40115">
        <ele>442.4</ele>
        <time>2022-02-12T14:34:42Z</time>
      </trkpt>
      <trkpt lat="46.41422" lon="5.40116">
        <ele>443.6</ele>
        <time>2022-02-12T14:34:52Z</time>
      </trkpt>
      <trkpt lat="46.41432" lon="5.40115">
        <ele>443.8</ele>
        <time>2022-02-12T14:34:54Z</time>
      </trkpt>
      <trkpt lat="46.41452" lon="5.40113">
        <ele>444.8</ele>
        <time>2022-02-12T14:34:58Z</time>
      </trkpt>
      <trkpt lat="46.41471" lon="5.40111">
        <ele>445.4</ele>
        <time>2022-02-12T14:35:02Z</time>
      </trkpt>
      <trkpt lat="46.41476" lon="5.40111">
        <ele>445.8</ele>
        <time>2022-02-12T14:35:03Z</time>
      </trkpt>
      <trkpt lat="46.41507" lon="5.4011">
        <ele>447</ele>
        <time>2022-02-12T14:35:10Z</time>
      </trkpt>
      <trkpt lat="46.41539" lon="5.40107">
        <ele>448.2</ele>
        <time>2022-02-12T14:35:17Z</time>
      </trkpt>
      <trkpt lat="46.41553" lon="5.40106">
        <ele>448.8</ele>
        <time>2022-02-12T14:35:20Z</time>
      </trkpt>
      <trkpt lat="46.41566" lon="5.40103">
        <ele>449.4</ele>
        <time>2022-02-12T14:35:23Z</time>
      </trkpt>
      <trkpt lat="46.41593" lon="5.40096">
        <ele>450.2</ele>
        <time>2022-02-12T14:35:30Z</time>
      </trkpt>
      <trkpt lat="46.41597" lon="5.40094">
        <ele>450.6</ele>
        <time>2022-02-12T14:35:31Z</time>
      </trkpt>
      <trkpt lat="46.41624" lon="5.40083">
        <ele>451.8</ele>
        <time>2022-02-12T14:35:38Z</time>
      </trkpt>
      <trkpt lat="46.41631" lon="5.40079">
        <ele>452.2</ele>
        <time>2022-02-12T14:35:40Z</time>
      </trkpt>
      <trkpt lat="46.41646" lon="5.4007">
        <ele>452.8</ele>
        <time>2022-02-12T14:35:44Z</time>
      </trkpt>
      <trkpt lat="46.41663" lon="5.40058">
        <ele>454</ele>
        <time>2022-02-12T14:35:49Z</time>
      </trkpt>
      <trkpt lat="46.41669" lon="5.40053">
        <ele>454.4</ele>
        <time>2022-02-12T14:35:51Z</time>
      </trkpt>
      <trkpt lat="46.41678" lon="5.40046">
        <ele>455</ele>
        <time>2022-02-12T14:35:54Z</time>
      </trkpt>
      <trkpt lat="46.41695" lon="5.40034">
        <ele>456.2</ele>
        <time>2022-02-12T14:35:59Z</time>
      </trkpt>
      <trkpt lat="46.41716" lon="5.40025">
        <ele>457.4</ele>
        <time>2022-02-12T14:36:05Z</time>
      </trkpt>
      <trkpt lat="46.41732" lon="5.40021">
        <ele>458.2</ele>
        <time>2022-02-12T14:36:10Z</time>
      </trkpt>
      <trkpt lat="46.41736" lon="5.4002">
        <ele>458.6</ele>
        <time>2022-02-12T14:36:11Z</time>
      </trkpt>
      <trkpt lat="46.41761" lon="5.40023">
        <ele>460</ele>
        <time>2022-02-12T14:36:18Z</time>
      </trkpt>
      <trkpt lat="46.41786" lon="5.4003">
        <ele>461.2</ele>
        <time>2022-02-12T14:36:25Z</time>
      </trkpt>
      <trkpt lat="46.4179" lon="5.40031">
        <ele>461.2</ele>
        <time>2022-02-12T14:36:26Z</time>
      </trkpt>
      <trkpt lat="46.41805" lon="5.40037">
        <ele>462.4</ele>
        <time>2022-02-12T14:36:30Z</time>
      </trkpt>
      <trkpt lat="46.41831" lon="5.40045">
        <ele>463.8</ele>
        <time>2022-02-12T14:36:37Z</time>
      </trkpt>
      <trkpt lat="46.41834" lon="5.40045">
        <ele>464</ele>
        <time>2022-02-12T14:36:38Z</time>
      </trkpt>
      <trkpt lat="46.41853" lon="5.4005">
        <ele>464.8</ele>
        <time>2022-02-12T14:36:43Z</time>
      </trkpt>
      <trkpt lat="46.41869" lon="5.40054">
        <ele>466</ele>
        <time>2022-02-12T14:36:48Z</time>
      </trkpt>
      <trkpt lat="46.41876" lon="5.40055">
        <ele>466.2</ele>
        <time>2022-02-12T14:36:50Z</time>
      </trkpt>
      <trkpt lat="46.41894" lon="5.40058">
        <ele>467</ele>
        <time>2022-02-12T14:36:55Z</time>
      </trkpt>
      <trkpt lat="46.41912" lon="5.40059">
        <ele>468</ele>
        <time>2022-02-12T14:37:00Z</time>
      </trkpt>
      <trkpt lat="46.41916" lon="5.40059">
        <ele>468.2</ele>
        <time>2022-02-12T14:37:01Z</time>
      </trkpt>
      <trkpt lat="46.41946" lon="5.40055">
        <ele>469.4</ele>
        <time>2022-02-12T14:37:09Z</time>
      </trkpt>
      <trkpt lat="46.41962" lon="5.40054">
        <ele>470.4</ele>
        <time>2022-02-12T14:37:13Z</time>
      </trkpt>
      <trkpt lat="46.41981" lon="5.40055">
        <ele>471.4</ele>
        <time>2022-02-12T14:37:18Z</time>
      </trkpt>
      <trkpt lat="46.42006" lon="5.40059">
        <ele>472.6</ele>
        <time>2022-02-12T14:37:25Z</time>
      </trkpt>
      <trkpt lat="46.42025" lon="5.40063">
        <ele>473.6</ele>
        <time>2022-02-12T14:37:30Z</time>
      </trkpt>
      <trkpt lat="46.42043" lon="5.40068">
        <ele>474.8</ele>
        <time>2022-02-12T14:37:35Z</time>
      </trkpt>
      <trkpt lat="46.42047" lon="5.40069">
        <ele>474.8</ele>
        <time>2022-02-12T14:37:36Z</time>
      </trkpt>
      <trkpt lat="46.42068" lon="5.40077">
        <ele>475.8</ele>
        <time>2022-02-12T14:37:42Z</time>
      </trkpt>
      <trkpt lat="46.42089" lon="5.40084">
        <ele>476.8</ele>
        <time>2022-02-12T14:37:48Z</time>
      </trkpt>
      <trkpt lat="46.42092" lon="5.40085">
        <ele>477</ele>
        <time>2022-02-12T14:37:49Z</time>
      </trkpt>
      <trkpt lat="46.42112" lon="5.40088">
        <ele>478</ele>
        <time>2022-02-12T14:37:54Z</time>
      </trkpt>
      <trkpt lat="46.42124" lon="5.40087">
        <ele>478.6</ele>
        <time>2022-02-12T14:37:57Z</time>
      </trkpt>
      <trkpt lat="46.42137" lon="5.40085">
        <ele>479</ele>
        <time>2022-02-12T14:38:00Z</time>
      </trkpt>
      <trkpt lat="46.42152" lon="5.40081">
        <ele>479.6</ele>
        <time>2022-02-12T14:38:04Z</time>
      </trkpt>
      <trkpt lat="46.4216" lon="5.40078">
        <ele>479.8</ele>
        <time>2022-02-12T14:38:06Z</time>
      </trkpt>
      <trkpt lat="46.42164" lon="5.40077">
        <ele>480</ele>
        <time>2022-02-12T14:38:07Z</time>
      </trkpt>
      <trkpt lat="46.42182" lon="5.4007">
        <ele>481.2</ele>
        <time>2022-02-12T14:38:12Z</time>
      </trkpt>
      <trkpt lat="46.42201" lon="5.40063">
        <ele>482.2</ele>
        <time>2022-02-12T14:38:17Z</time>
      </trkpt>
      <trkpt lat="46.4223" lon="5.40054">
        <ele>483.2</ele>
        <time>2022-02-12T14:38:24Z</time>
      </trkpt>
      <trkpt lat="46.42245" lon="5.40049">
        <ele>483.6</ele>
        <time>2022-02-12T14:38:27Z</time>
      </trkpt>
      <trkpt lat="46.42249" lon="5.40048">
        <ele>483.8</ele>
        <time>2022-02-12T14:38:28Z</time>
      </trkpt>
      <trkpt lat="46.42306" lon="5.40033">
        <ele>484.4</ele>
        <time>2022-02-12T14:38:40Z</time>
      </trkpt>
      <trkpt lat="46.42362" lon="5.40013">
        <ele>485.2</ele>
        <time>2022-02-12T14:38:52Z</time>
      </trkpt>
      <trkpt lat="46.42367" lon="5.40011">
        <ele>485.6</ele>
        <time>2022-02-12T14:38:53Z</time>
      </trkpt>
      <trkpt lat="46.42376" lon="5.40008">
        <ele>485.8</ele>
        <time>2022-02-12T14:38:55Z</time>
      </trkpt>
      <trkpt lat="46.42384" lon="5.40004">
        <ele>486.2</ele>
        <time>2022-02-12T14:38:57Z</time>
      </trkpt>
      <trkpt lat="46.42387" lon="5.40001">
        <ele>486.4</ele>
        <time>2022-02-12T14:38:58Z</time>
      </trkpt>
      <trkpt lat="46.4239" lon="5.39996">
        <ele>486.6</ele>
        <time>2022-02-12T14:38:59Z</time>
      </trkpt>
      <trkpt lat="46.42393" lon="5.39989">
        <ele>486.6</ele>
        <time>2022-02-12T14:39:00Z</time>
      </trkpt>
      <trkpt lat="46.42394" lon="5.39982">
        <ele>486.6</ele>
        <time>2022-02-12T14:39:01Z</time>
      </trkpt>
      <trkpt lat="46.42394" lon="5.39976">
        <ele>486.8</ele>
        <time>2022-02-12T14:39:02Z</time>
      </trkpt>
      <trkpt lat="46.42396" lon="5.39918">
        <ele>487.6</ele>
        <time>2022-02-12T14:39:09Z</time>
      </trkpt>
      <trkpt lat="46.42398" lon="5.39851">
        <ele>488.8</ele>
        <time>2022-02-12T14:39:18Z</time>
      </trkpt>
      <trkpt lat="46.42398" lon="5.39845">
        <ele>488.8</ele>
        <time>2022-02-12T14:39:19Z</time>
      </trkpt>
      <trkpt lat="46.424" lon="5.39812">
        <ele>489.8</ele>
        <time>2022-02-12T14:39:24Z</time>
      </trkpt>
      <trkpt lat="46.42401" lon="5.39805">
        <ele>489.8</ele>
        <time>2022-02-12T14:39:25Z</time>
      </trkpt>
      <trkpt lat="46.42401" lon="5.39805">
        <ele>490</ele>
        <time>2022-02-12T14:39:26Z</time>
      </trkpt>
      <trkpt lat="46.42407" lon="5.39796">
        <ele>490.2</ele>
        <time>2022-02-12T14:39:27Z</time>
      </trkpt>
      <trkpt lat="46.42411" lon="5.39793">
        <ele>490.2</ele>
        <time>2022-02-12T14:39:28Z</time>
      </trkpt>
      <trkpt lat="46.42416" lon="5.39792">
        <ele>490.4</ele>
        <time>2022-02-12T14:39:29Z</time>
      </trkpt>
      <trkpt lat="46.42427" lon="5.39794">
        <ele>491</ele>
        <time>2022-02-12T14:39:32Z</time>
      </trkpt>
      <trkpt lat="46.42454" lon="5.39805">
        <ele>491.4</ele>
        <time>2022-02-12T14:39:36Z</time>
      </trkpt>
      <trkpt lat="46.42477" lon="5.39832">
        <ele>491.2</ele>
        <time>2022-02-12T14:39:40Z</time>
      </trkpt>
      <trkpt lat="46.42514" lon="5.39879">
        <ele>490.4</ele>
        <time>2022-02-12T14:39:47Z</time>
      </trkpt>
      <trkpt lat="46.42551" lon="5.39907">
        <ele>490</ele>
        <time>2022-02-12T14:39:53Z</time>
      </trkpt>
      <trkpt lat="46.42564" lon="5.39917">
        <ele>490</ele>
        <time>2022-02-12T14:39:55Z</time>
      </trkpt>
      <trkpt lat="46.4259" lon="5.39936">
        <ele>490</ele>
        <time>2022-02-12T14:39:59Z</time>
      </trkpt>
      <trkpt lat="46.42635" lon="5.39958">
        <ele>490.4</ele>
        <time>2022-02-12T14:40:06Z</time>
      </trkpt>
      <trkpt lat="46.42661" lon="5.39971">
        <ele>491</ele>
        <time>2022-02-12T14:40:10Z</time>
      </trkpt>
      <trkpt lat="46.42702" lon="5.3999">
        <ele>491.8</ele>
        <time>2022-02-12T14:40:16Z</time>
      </trkpt>
      <trkpt lat="46.4275" lon="5.4001">
        <ele>492.2</ele>
        <time>2022-02-12T14:40:23Z</time>
      </trkpt>
      <trkpt lat="46.42756" lon="5.40013">
        <ele>492.2</ele>
        <time>2022-02-12T14:40:24Z</time>
      </trkpt>
      <trkpt lat="46.42809" lon="5.40033">
        <ele>492.6</ele>
        <time>2022-02-12T14:40:32Z</time>
      </trkpt>
      <trkpt lat="46.42816" lon="5.40035">
        <ele>492.6</ele>
        <time>2022-02-12T14:40:33Z</time>
      </trkpt>
      <trkpt lat="46.42874" lon="5.40053">
        <ele>492.2</ele>
        <time>2022-02-12T14:40:41Z</time>
      </trkpt>
      <trkpt lat="46.42923" lon="5.40057">
        <ele>492.4</ele>
        <time>2022-02-12T14:40:48Z</time>
      </trkpt>
      <trkpt lat="46.42959" lon="5.40062">
        <ele>493.2</ele>
        <time>2022-02-12T14:40:54Z</time>
      </trkpt>
      <trkpt lat="46.42965" lon="5.40063">
        <ele>493.4</ele>
        <time>2022-02-12T14:40:55Z</time>
      </trkpt>
      <trkpt lat="46.42989" lon="5.40067">
        <ele>494.6</ele>
        <time>2022-02-12T14:40:59Z</time>
      </trkpt>
      <trkpt lat="46.4302" lon="5.40073">
        <ele>495.2</ele>
        <time>2022-02-12T14:41:04Z</time>
      </trkpt>
      <trkpt lat="46.43065" lon="5.40075">
        <ele>495.6</ele>
        <time>2022-02-12T14:41:11Z</time>
      </trkpt>
      <trkpt lat="46.43102" lon="5.40081">
        <ele>495.6</ele>
        <time>2022-02-12T14:41:16Z</time>
      </trkpt>
      <trkpt lat="46.43144" lon="5.40089">
        <ele>494.8</ele>
        <time>2022-02-12T14:41:21Z</time>
      </trkpt>
      <trkpt lat="46.43151" lon="5.4009">
        <ele>494.6</ele>
        <time>2022-02-12T14:41:22Z</time>
      </trkpt>
      <trkpt lat="46.43191" lon="5.401">
        <ele>493.8</ele>
        <time>2022-02-12T14:41:27Z</time>
      </trkpt>
      <trkpt lat="46.432" lon="5.40105">
        <ele>493.6</ele>
        <time>2022-02-12T14:41:28Z</time>
      </trkpt>
      <trkpt lat="46.43229" lon="5.4012">
        <ele>493.4</ele>
        <time>2022-02-12T14:41:32Z</time>
      </trkpt>
      <trkpt lat="46.43263" lon="5.40121">
        <ele>493.4</ele>
        <time>2022-02-12T14:41:37Z</time>
      </trkpt>
      <trkpt lat="46.43317" lon="5.40115">
        <ele>493.2</ele>
        <time>2022-02-12T14:41:43Z</time>
      </trkpt>
      <trkpt lat="46.43373" lon="5.40119">
        <ele>492.8</ele>
        <time>2022-02-12T14:41:50Z</time>
      </trkpt>
      <trkpt lat="46.43382" lon="5.40121">
        <ele>492.8</ele>
        <time>2022-02-12T14:41:51Z</time>
      </trkpt>
      <trkpt lat="46.4339" lon="5.40124">
        <ele>492.6</ele>
        <time>2022-02-12T14:41:52Z</time>
      </trkpt>
      <trkpt lat="46.43437" lon="5.40142">
        <ele>492.4</ele>
        <time>2022-02-12T14:41:58Z</time>
      </trkpt>
      <trkpt lat="46.4348" lon="5.40164">
        <ele>492.4</ele>
        <time>2022-02-12T14:42:04Z</time>
      </trkpt>
      <trkpt lat="46.4351" lon="5.40173">
        <ele>492.6</ele>
        <time>2022-02-12T14:42:09Z</time>
      </trkpt>
      <trkpt lat="46.43568" lon="5.40179">
        <ele>493.2</ele>
        <time>2022-02-12T14:42:16Z</time>
      </trkpt>
      <trkpt lat="46.43577" lon="5.40181">
        <ele>493.2</ele>
        <time>2022-02-12T14:42:17Z</time>
      </trkpt>
      <trkpt lat="46.43624" lon="5.40188">
        <ele>493.2</ele>
        <time>2022-02-12T14:42:23Z</time>
      </trkpt>
      <trkpt lat="46.43667" lon="5.40183">
        <ele>493.4</ele>
        <time>2022-02-12T14:42:30Z</time>
      </trkpt>
      <trkpt lat="46.4368" lon="5.40182">
        <ele>493.8</ele>
        <time>2022-02-12T14:42:32Z</time>
      </trkpt>
      <trkpt lat="46.4372" lon="5.40176">
        <ele>494.8</ele>
        <time>2022-02-12T14:42:38Z</time>
      </trkpt>
      <trkpt lat="46.43726" lon="5.40175">
        <ele>494.8</ele>
        <time>2022-02-12T14:42:39Z</time>
      </trkpt>
      <trkpt lat="46.43779" lon="5.40163">
        <ele>496</ele>
        <time>2022-02-12T14:42:47Z</time>
      </trkpt>
      <trkpt lat="46.43831" lon="5.40145">
        <ele>496</ele>
        <time>2022-02-12T14:42:55Z</time>
      </trkpt>
      <trkpt lat="46.43861" lon="5.40136">
        <ele>496</ele>
        <time>2022-02-12T14:42:59Z</time>
      </trkpt>
      <trkpt lat="46.43869" lon="5.40132">
        <ele>496</ele>
        <time>2022-02-12T14:43:00Z</time>
      </trkpt>
      <trkpt lat="46.43877" lon="5.40127">
        <ele>496</ele>
        <time>2022-02-12T14:43:01Z</time>
      </trkpt>
      <trkpt lat="46.43903" lon="5.40103">
        <ele>495.6</ele>
        <time>2022-02-12T14:43:05Z</time>
      </trkpt>
      <trkpt lat="46.43917" lon="5.40093">
        <ele>495.4</ele>
        <time>2022-02-12T14:43:07Z</time>
      </trkpt>
      <trkpt lat="46.4393" lon="5.40087">
        <ele>495.4</ele>
        <time>2022-02-12T14:43:09Z</time>
      </trkpt>
      <trkpt lat="46.4397" lon="5.40086">
        <ele>495.2</ele>
        <time>2022-02-12T14:43:14Z</time>
      </trkpt>
      <trkpt lat="46.44017" lon="5.4008">
        <ele>494.4</ele>
        <time>2022-02-12T14:43:20Z</time>
      </trkpt>
      <trkpt lat="46.44058" lon="5.40069">
        <ele>494.8</ele>
        <time>2022-02-12T14:43:26Z</time>
      </trkpt>
      <trkpt lat="46.44106" lon="5.40058">
        <ele>495.6</ele>
        <time>2022-02-12T14:43:33Z</time>
      </trkpt>
      <trkpt lat="46.44143" lon="5.40039">
        <ele>495.8</ele>
        <time>2022-02-12T14:43:39Z</time>
      </trkpt>
      <trkpt lat="46.44163" lon="5.40021">
        <ele>496.2</ele>
        <time>2022-02-12T14:43:43Z</time>
      </trkpt>
      <trkpt lat="46.44179" lon="5.40006">
        <ele>496.6</ele>
        <time>2022-02-12T14:43:46Z</time>
      </trkpt>
      <trkpt lat="46.44208" lon="5.3998">
        <ele>497.4</ele>
        <time>2022-02-12T14:43:52Z</time>
      </trkpt>
      <trkpt lat="46.44228" lon="5.39965">
        <ele>497.6</ele>
        <time>2022-02-12T14:43:55Z</time>
      </trkpt>
      <trkpt lat="46.44241" lon="5.39957">
        <ele>497.6</ele>
        <time>2022-02-12T14:43:57Z</time>
      </trkpt>
      <trkpt lat="46.44256" lon="5.39953">
        <ele>497.6</ele>
        <time>2022-02-12T14:43:59Z</time>
      </trkpt>
      <trkpt lat="46.44293" lon="5.39952">
        <ele>497.4</ele>
        <time>2022-02-12T14:44:05Z</time>
      </trkpt>
      <trkpt lat="46.44325" lon="5.39953">
        <ele>498</ele>
        <time>2022-02-12T14:44:11Z</time>
      </trkpt>
      <trkpt lat="46.44336" lon="5.39953">
        <ele>498.6</ele>
        <time>2022-02-12T14:44:13Z</time>
      </trkpt>
      <trkpt lat="46.4434" lon="5.39953">
        <ele>499</ele>
        <time>2022-02-12T14:44:14Z</time>
      </trkpt>
      <trkpt lat="46.44357" lon="5.39953">
        <ele>499.6</ele>
        <time>2022-02-12T14:44:17Z</time>
      </trkpt>
      <trkpt lat="46.44361" lon="5.39953">
        <ele>499.8</ele>
        <time>2022-02-12T14:44:18Z</time>
      </trkpt>
      <trkpt lat="46.4439" lon="5.3995">
        <ele>500.8</ele>
        <time>2022-02-12T14:44:23Z</time>
      </trkpt>
      <trkpt lat="46.44396" lon="5.3995">
        <ele>500.8</ele>
        <time>2022-02-12T14:44:24Z</time>
      </trkpt>
      <trkpt lat="46.44411" lon="5.3995">
        <ele>500.8</ele>
        <time>2022-02-12T14:44:26Z</time>
      </trkpt>
      <trkpt lat="46.44425" lon="5.39948">
        <ele>500.8</ele>
        <time>2022-02-12T14:44:28Z</time>
      </trkpt>
      <trkpt lat="46.44459" lon="5.39935">
        <ele>500</ele>
        <time>2022-02-12T14:44:33Z</time>
      </trkpt>
      <trkpt lat="46.44508" lon="5.39909">
        <ele>500.2</ele>
        <time>2022-02-12T14:44:41Z</time>
      </trkpt>
      <trkpt lat="46.44564" lon="5.39883">
        <ele>501.4</ele>
        <time>2022-02-12T14:44:50Z</time>
      </trkpt>
      <trkpt lat="46.44569" lon="5.39881">
        <ele>501.4</ele>
        <time>2022-02-12T14:44:51Z</time>
      </trkpt>
      <trkpt lat="46.44593" lon="5.39864">
        <ele>501.6</ele>
        <time>2022-02-12T14:44:56Z</time>
      </trkpt>
      <trkpt lat="46.44624" lon="5.39828">
        <ele>501.8</ele>
        <time>2022-02-12T14:45:01Z</time>
      </trkpt>
      <trkpt lat="46.44645" lon="5.39809">
        <ele>502</ele>
        <time>2022-02-12T14:45:04Z</time>
      </trkpt>
      <trkpt lat="46.44652" lon="5.39804">
        <ele>502</ele>
        <time>2022-02-12T14:45:05Z</time>
      </trkpt>
      <trkpt lat="46.44661" lon="5.398">
        <ele>502</ele>
        <time>2022-02-12T14:45:06Z</time>
      </trkpt>
      <trkpt lat="46.44679" lon="5.39795">
        <ele>502</ele>
        <time>2022-02-12T14:45:08Z</time>
      </trkpt>
      <trkpt lat="46.44713" lon="5.39797">
        <ele>500.6</ele>
        <time>2022-02-12T14:45:12Z</time>
      </trkpt>
      <trkpt lat="46.44721" lon="5.39797">
        <ele>500.6</ele>
        <time>2022-02-12T14:45:13Z</time>
      </trkpt>
      <trkpt lat="46.44755" lon="5.398">
        <ele>500.8</ele>
        <time>2022-02-12T14:45:18Z</time>
      </trkpt>
      <trkpt lat="46.44774" lon="5.398">
        <ele>501.8</ele>
        <time>2022-02-12T14:45:21Z</time>
      </trkpt>
      <trkpt lat="46.44799" lon="5.39797">
        <ele>503</ele>
        <time>2022-02-12T14:45:25Z</time>
      </trkpt>
      <trkpt lat="46.44811" lon="5.39792">
        <ele>503.8</ele>
        <time>2022-02-12T14:45:27Z</time>
      </trkpt>
      <trkpt lat="46.44831" lon="5.39778">
        <ele>503.8</ele>
        <time>2022-02-12T14:45:30Z</time>
      </trkpt>
      <trkpt lat="46.44867" lon="5.39757">
        <ele>503.6</ele>
        <time>2022-02-12T14:45:35Z</time>
      </trkpt>
      <trkpt lat="46.449" lon="5.39749">
        <ele>503.2</ele>
        <time>2022-02-12T14:45:40Z</time>
      </trkpt>
      <trkpt lat="46.44937" lon="5.39738">
        <ele>504.4</ele>
        <time>2022-02-12T14:45:46Z</time>
      </trkpt>
      <trkpt lat="46.44951" lon="5.39734">
        <ele>504.6</ele>
        <time>2022-02-12T14:45:48Z</time>
      </trkpt>
      <trkpt lat="46.44965" lon="5.3973">
        <ele>504.6</ele>
        <time>2022-02-12T14:45:50Z</time>
      </trkpt>
      <trkpt lat="46.44985" lon="5.39719">
        <ele>504.6</ele>
        <time>2022-02-12T14:45:53Z</time>
      </trkpt>
      <trkpt lat="46.45012" lon="5.39691">
        <ele>504.6</ele>
        <time>2022-02-12T14:45:58Z</time>
      </trkpt>
      <trkpt lat="46.45041" lon="5.39663">
        <ele>505.4</ele>
        <time>2022-02-12T14:46:04Z</time>
      </trkpt>
      <trkpt lat="46.45046" lon="5.39659">
        <ele>505.6</ele>
        <time>2022-02-12T14:46:05Z</time>
      </trkpt>
      <trkpt lat="46.45075" lon="5.39637">
        <ele>506.6</ele>
        <time>2022-02-12T14:46:11Z</time>
      </trkpt>
      <trkpt lat="46.45095" lon="5.39623">
        <ele>507.6</ele>
        <time>2022-02-12T14:46:15Z</time>
      </trkpt>
      <trkpt lat="46.451" lon="5.3962">
        <ele>507.8</ele>
        <time>2022-02-12T14:46:16Z</time>
      </trkpt>
      <trkpt lat="46.45134" lon="5.39602">
        <ele>508.8</ele>
        <time>2022-02-12T14:46:22Z</time>
      </trkpt>
      <trkpt lat="46.45146" lon="5.39596">
        <ele>509</ele>
        <time>2022-02-12T14:46:24Z</time>
      </trkpt>
      <trkpt lat="46.45194" lon="5.39574">
        <ele>509</ele>
        <time>2022-02-12T14:46:31Z</time>
      </trkpt>
      <trkpt lat="46.45242" lon="5.39552">
        <ele>507.6</ele>
        <time>2022-02-12T14:46:37Z</time>
      </trkpt>
      <trkpt lat="46.45265" lon="5.39534">
        <ele>506.6</ele>
        <time>2022-02-12T14:46:40Z</time>
      </trkpt>
      <trkpt lat="46.45279" lon="5.3952">
        <ele>505.8</ele>
        <time>2022-02-12T14:46:42Z</time>
      </trkpt>
      <trkpt lat="46.45286" lon="5.39512">
        <ele>505.4</ele>
        <time>2022-02-12T14:46:43Z</time>
      </trkpt>
      <trkpt lat="46.45315" lon="5.39469">
        <ele>504.6</ele>
        <time>2022-02-12T14:46:48Z</time>
      </trkpt>
      <trkpt lat="46.4532" lon="5.39459">
        <ele>504.6</ele>
        <time>2022-02-12T14:46:49Z</time>
      </trkpt>
      <trkpt lat="46.45336" lon="5.39417">
        <ele>504.2</ele>
        <time>2022-02-12T14:46:53Z</time>
      </trkpt>
      <trkpt lat="46.45356" lon="5.3936">
        <ele>503.4</ele>
        <time>2022-02-12T14:46:58Z</time>
      </trkpt>
      <trkpt lat="46.45365" lon="5.39336">
        <ele>502.8</ele>
        <time>2022-02-12T14:47:00Z</time>
      </trkpt>
      <trkpt lat="46.45365" lon="5.39336">
        <ele>502.2</ele>
        <time>2022-02-12T14:47:01Z</time>
      </trkpt>
      <trkpt lat="46.45388" lon="5.39273">
        <ele>500.4</ele>
        <time>2022-02-12T14:47:05Z</time>
      </trkpt>
      <trkpt lat="46.45401" lon="5.39235">
        <ele>499</ele>
        <time>2022-02-12T14:47:08Z</time>
      </trkpt>
      <trkpt lat="46.45413" lon="5.392">
        <ele>498</ele>
        <time>2022-02-12T14:47:11Z</time>
      </trkpt>
      <trkpt lat="46.45429" lon="5.39155">
        <ele>497.2</ele>
        <time>2022-02-12T14:47:15Z</time>
      </trkpt>
      <trkpt lat="46.45437" lon="5.39132">
        <ele>497</ele>
        <time>2022-02-12T14:47:17Z</time>
      </trkpt>
      <trkpt lat="46.45446" lon="5.3911">
        <ele>496.8</ele>
        <time>2022-02-12T14:47:19Z</time>
      </trkpt>
      <trkpt lat="46.45453" lon="5.39101">
        <ele>496.6</ele>
        <time>2022-02-12T14:47:20Z</time>
      </trkpt>
      <trkpt lat="46.45461" lon="5.39095">
        <ele>496.2</ele>
        <time>2022-02-12T14:47:21Z</time>
      </trkpt>
      <trkpt lat="46.4547" lon="5.39093">
        <ele>496</ele>
        <time>2022-02-12T14:47:22Z</time>
      </trkpt>
      <trkpt lat="46.45479" lon="5.39094">
        <ele>495.4</ele>
        <time>2022-02-12T14:47:23Z</time>
      </trkpt>
      <trkpt lat="46.45495" lon="5.39105">
        <ele>494.6</ele>
        <time>2022-02-12T14:47:25Z</time>
      </trkpt>
      <trkpt lat="46.45502" lon="5.39113">
        <ele>494</ele>
        <time>2022-02-12T14:47:26Z</time>
      </trkpt>
      <trkpt lat="46.45522" lon="5.39135">
        <ele>493.4</ele>
        <time>2022-02-12T14:47:29Z</time>
      </trkpt>
      <trkpt lat="46.4556" lon="5.39171">
        <ele>494</ele>
        <time>2022-02-12T14:47:35Z</time>
      </trkpt>
      <trkpt lat="46.4557" lon="5.39183">
        <ele>494.8</ele>
        <time>2022-02-12T14:47:37Z</time>
      </trkpt>
      <trkpt lat="46.45582" lon="5.39194">
        <ele>495.4</ele>
        <time>2022-02-12T14:47:39Z</time>
      </trkpt>
      <trkpt lat="46.45588" lon="5.39199">
        <ele>495.8</ele>
        <time>2022-02-12T14:47:40Z</time>
      </trkpt>
      <trkpt lat="46.45608" lon="5.39219">
        <ele>497</ele>
        <time>2022-02-12T14:47:44Z</time>
      </trkpt>
      <trkpt lat="46.45612" lon="5.39224">
        <ele>497.2</ele>
        <time>2022-02-12T14:47:45Z</time>
      </trkpt>
      <trkpt lat="46.45625" lon="5.39238">
        <ele>498.2</ele>
        <time>2022-02-12T14:47:48Z</time>
      </trkpt>
      <trkpt lat="46.45633" lon="5.39247">
        <ele>498.8</ele>
        <time>2022-02-12T14:47:50Z</time>
      </trkpt>
      <trkpt lat="46.45641" lon="5.39255">
        <ele>499.4</ele>
        <time>2022-02-12T14:47:52Z</time>
      </trkpt>
      <trkpt lat="46.45655" lon="5.39271">
        <ele>500.4</ele>
        <time>2022-02-12T14:47:56Z</time>
      </trkpt>
      <trkpt lat="46.45659" lon="5.39275">
        <ele>500.6</ele>
        <time>2022-02-12T14:47:57Z</time>
      </trkpt>
      <trkpt lat="46.45674" lon="5.39293">
        <ele>501.4</ele>
        <time>2022-02-12T14:48:02Z</time>
      </trkpt>
      <trkpt lat="46.45677" lon="5.39296">
        <ele>501.6</ele>
        <time>2022-02-12T14:48:03Z</time>
      </trkpt>
      <trkpt lat="46.45696" lon="5.39316">
        <ele>502.8</ele>
        <time>2022-02-12T14:48:09Z</time>
      </trkpt>
      <trkpt lat="46.45707" lon="5.39328">
        <ele>503.2</ele>
        <time>2022-02-12T14:48:13Z</time>
      </trkpt>
      <trkpt lat="46.45718" lon="5.3934">
        <ele>503.8</ele>
        <time>2022-02-12T14:48:17Z</time>
      </trkpt>
      <trkpt lat="46.45729" lon="5.39351">
        <ele>504.8</ele>
        <time>2022-02-12T14:48:21Z</time>
      </trkpt>
      <trkpt lat="46.45744" lon="5.39371">
        <ele>506</ele>
        <time>2022-02-12T14:48:27Z</time>
      </trkpt>
      <trkpt lat="46.45751" lon="5.39383">
        <ele>507</ele>
        <time>2022-02-12T14:48:30Z</time>
      </trkpt>
      <trkpt lat="46.45755" lon="5.39391">
        <ele>507.2</ele>
        <time>2022-02-12T14:48:32Z</time>
      </trkpt>
      <trkpt lat="46.45765" lon="5.39417">
        <ele>508.2</ele>
        <time>2022-02-12T14:48:38Z</time>
      </trkpt>
      <trkpt lat="46.45766" lon="5.39422">
        <ele>508.4</ele>
        <time>2022-02-12T14:48:39Z</time>
      </trkpt>
      <trkpt lat="46.45771" lon="5.39446">
        <ele>509.6</ele>
        <time>2022-02-12T14:48:44Z</time>
      </trkpt>
      <trkpt lat="46.45772" lon="5.39461">
        <ele>510.4</ele>
        <time>2022-02-12T14:48:47Z</time>
      </trkpt>
      <trkpt lat="46.45772" lon="5.39466">
        <ele>510.8</ele>
        <time>2022-02-12T14:48:48Z</time>
      </trkpt>
      <trkpt lat="46.4577" lon="5.39501">
        <ele>512</ele>
        <time>2022-02-12T14:48:55Z</time>
      </trkpt>
      <trkpt lat="46.45769" lon="5.39511">
        <ele>512.2</ele>
        <time>2022-02-12T14:48:57Z</time>
      </trkpt>
      <trkpt lat="46.45763" lon="5.39552">
        <ele>513.2</ele>
        <time>2022-02-12T14:49:04Z</time>
      </trkpt>
      <trkpt lat="46.4576" lon="5.39606">
        <ele>514</ele>
        <time>2022-02-12T14:49:12Z</time>
      </trkpt>
      <trkpt lat="46.45763" lon="5.39627">
        <ele>514.2</ele>
        <time>2022-02-12T14:49:15Z</time>
      </trkpt>
      <trkpt lat="46.45767" lon="5.39646">
        <ele>514.4</ele>
        <time>2022-02-12T14:49:18Z</time>
      </trkpt>
      <trkpt lat="46.45771" lon="5.39658">
        <ele>514.8</ele>
        <time>2022-02-12T14:49:20Z</time>
      </trkpt>
      <trkpt lat="46.45774" lon="5.39664">
        <ele>515.2</ele>
        <time>2022-02-12T14:49:22Z</time>
      </trkpt>
      <trkpt lat="46.45782" lon="5.39681">
        <ele>515.4</ele>
        <time>2022-02-12T14:49:24Z</time>
      </trkpt>
      <trkpt lat="46.45794" lon="5.39699">
        <ele>516.2</ele>
        <time>2022-02-12T14:49:28Z</time>
      </trkpt>
      <trkpt lat="46.45805" lon="5.39713">
        <ele>516.8</ele>
        <time>2022-02-12T14:49:31Z</time>
      </trkpt>
      <trkpt lat="46.45816" lon="5.39724">
        <ele>517.6</ele>
        <time>2022-02-12T14:49:34Z</time>
      </trkpt>
      <trkpt lat="46.45837" lon="5.39741">
        <ele>518.2</ele>
        <time>2022-02-12T14:49:39Z</time>
      </trkpt>
      <trkpt lat="46.4585" lon="5.39751">
        <ele>518.6</ele>
        <time>2022-02-12T14:49:42Z</time>
      </trkpt>
      <trkpt lat="46.45876" lon="5.39774">
        <ele>519.8</ele>
        <time>2022-02-12T14:49:48Z</time>
      </trkpt>
      <trkpt lat="46.45917" lon="5.3981">
        <ele>520.4</ele>
        <time>2022-02-12T14:49:57Z</time>
      </trkpt>
      <trkpt lat="46.45946" lon="5.39835">
        <ele>520.8</ele>
        <time>2022-02-12T14:50:03Z</time>
      </trkpt>
      <trkpt lat="46.45957" lon="5.39843">
        <ele>521</ele>
        <time>2022-02-12T14:50:05Z</time>
      </trkpt>
      <trkpt lat="46.45993" lon="5.39873">
        <ele>521.8</ele>
        <time>2022-02-12T14:50:12Z</time>
      </trkpt>
      <trkpt lat="46.46003" lon="5.39882">
        <ele>522</ele>
        <time>2022-02-12T14:50:14Z</time>
      </trkpt>
      <trkpt lat="46.46053" lon="5.39924">
        <ele>522.6</ele>
        <time>2022-02-12T14:50:24Z</time>
      </trkpt>
      <trkpt lat="46.46063" lon="5.39932">
        <ele>522.8</ele>
        <time>2022-02-12T14:50:26Z</time>
      </trkpt>
      <trkpt lat="46.46072" lon="5.3994">
        <ele>523</ele>
        <time>2022-02-12T14:50:28Z</time>
      </trkpt>
      <trkpt lat="46.46114" lon="5.39976">
        <ele>523.6</ele>
        <time>2022-02-12T14:50:36Z</time>
      </trkpt>
      <trkpt lat="46.46125" lon="5.39985">
        <ele>524</ele>
        <time>2022-02-12T14:50:38Z</time>
      </trkpt>
      <trkpt lat="46.46155" lon="5.40011">
        <ele>524.2</ele>
        <time>2022-02-12T14:50:44Z</time>
      </trkpt>
      <trkpt lat="46.46164" lon="5.40021">
        <ele>524.2</ele>
        <time>2022-02-12T14:50:46Z</time>
      </trkpt>
      <trkpt lat="46.46179" lon="5.40046">
        <ele>524.6</ele>
        <time>2022-02-12T14:50:50Z</time>
      </trkpt>
      <trkpt lat="46.46186" lon="5.40067">
        <ele>525</ele>
        <time>2022-02-12T14:50:53Z</time>
      </trkpt>
      <trkpt lat="46.46191" lon="5.40089">
        <ele>525.6</ele>
        <time>2022-02-12T14:50:56Z</time>
      </trkpt>
      <trkpt lat="46.46193" lon="5.40103">
        <ele>526</ele>
        <time>2022-02-12T14:50:58Z</time>
      </trkpt>
      <trkpt lat="46.46194" lon="5.40124">
        <ele>526.4</ele>
        <time>2022-02-12T14:51:01Z</time>
      </trkpt>
      <trkpt lat="46.46197" lon="5.40137">
        <ele>526.8</ele>
        <time>2022-02-12T14:51:03Z</time>
      </trkpt>
      <trkpt lat="46.46206" lon="5.40142">
        <ele>527</ele>
        <time>2022-02-12T14:51:05Z</time>
      </trkpt>
      <trkpt lat="46.46211" lon="5.4014">
        <ele>527.2</ele>
        <time>2022-02-12T14:51:06Z</time>
      </trkpt>
      <trkpt lat="46.46215" lon="5.40136">
        <ele>527.4</ele>
        <time>2022-02-12T14:51:07Z</time>
      </trkpt>
      <trkpt lat="46.46219" lon="5.40132">
        <ele>527.4</ele>
        <time>2022-02-12T14:51:08Z</time>
      </trkpt>
      <trkpt lat="46.46249" lon="5.40103">
        <ele>528.2</ele>
        <time>2022-02-12T14:51:15Z</time>
      </trkpt>
      <trkpt lat="46.46253" lon="5.401">
        <ele>528.2</ele>
        <time>2022-02-12T14:51:16Z</time>
      </trkpt>
      <trkpt lat="46.46272" lon="5.40094">
        <ele>528.8</ele>
        <time>2022-02-12T14:51:20Z</time>
      </trkpt>
      <trkpt lat="46.4628" lon="5.40094">
        <ele>529.2</ele>
        <time>2022-02-12T14:51:22Z</time>
      </trkpt>
      <trkpt lat="46.46292" lon="5.40095">
        <ele>529.4</ele>
        <time>2022-02-12T14:51:25Z</time>
      </trkpt>
      <trkpt lat="46.463" lon="5.40097">
        <ele>530</ele>
        <time>2022-02-12T14:51:27Z</time>
      </trkpt>
      <trkpt lat="46.46311" lon="5.40098">
        <ele>530.4</ele>
        <time>2022-02-12T14:51:30Z</time>
      </trkpt>
      <trkpt lat="46.46334" lon="5.40098">
        <ele>531.8</ele>
        <time>2022-02-12T14:51:36Z</time>
      </trkpt>
      <trkpt lat="46.46347" lon="5.40096">
        <ele>532.8</ele>
        <time>2022-02-12T14:51:39Z</time>
      </trkpt>
      <trkpt lat="46.46351" lon="5.40095">
        <ele>533</ele>
        <time>2022-02-12T14:51:40Z</time>
      </trkpt>
      <trkpt lat="46.46355" lon="5.40094">
        <ele>533.4</ele>
        <time>2022-02-12T14:51:41Z</time>
      </trkpt>
      <trkpt lat="46.46376" lon="5.4009">
        <ele>533.8</ele>
        <time>2022-02-12T14:51:46Z</time>
      </trkpt>
      <trkpt lat="46.46384" lon="5.40089">
        <ele>534.2</ele>
        <time>2022-02-12T14:51:48Z</time>
      </trkpt>
      <trkpt lat="46.46411" lon="5.40083">
        <ele>535.2</ele>
        <time>2022-02-12T14:51:55Z</time>
      </trkpt>
      <trkpt lat="46.46415" lon="5.40082">
        <ele>535.4</ele>
        <time>2022-02-12T14:51:56Z</time>
      </trkpt>
      <trkpt lat="46.46434" lon="5.40078">
        <ele>536.4</ele>
        <time>2022-02-12T14:52:01Z</time>
      </trkpt>
      <trkpt lat="46.46458" lon="5.40074">
        <ele>537</ele>
        <time>2022-02-12T14:52:07Z</time>
      </trkpt>
      <trkpt lat="46.46466" lon="5.40073">
        <ele>537.6</ele>
        <time>2022-02-12T14:52:09Z</time>
      </trkpt>
      <trkpt lat="46.46496" lon="5.40072">
        <ele>538.6</ele>
        <time>2022-02-12T14:52:16Z</time>
      </trkpt>
      <trkpt lat="46.46501" lon="5.40073">
        <ele>538.6</ele>
        <time>2022-02-12T14:52:17Z</time>
      </trkpt>
      <trkpt lat="46.46528" lon="5.40082">
        <ele>539.4</ele>
        <time>2022-02-12T14:52:23Z</time>
      </trkpt>
      <trkpt lat="46.46531" lon="5.40085">
        <ele>539.6</ele>
        <time>2022-02-12T14:52:24Z</time>
      </trkpt>
      <trkpt lat="46.46539" lon="5.40089">
        <ele>539.8</ele>
        <time>2022-02-12T14:52:26Z</time>
      </trkpt>
      <trkpt lat="46.46556" lon="5.40097">
        <ele>540.4</ele>
        <time>2022-02-12T14:52:30Z</time>
      </trkpt>
      <trkpt lat="46.46564" lon="5.40101">
        <ele>540.8</ele>
        <time>2022-02-12T14:52:32Z</time>
      </trkpt>
      <trkpt lat="46.46572" lon="5.40106">
        <ele>541</ele>
        <time>2022-02-12T14:52:34Z</time>
      </trkpt>
      <trkpt lat="46.46579" lon="5.40109">
        <ele>541.2</ele>
        <time>2022-02-12T14:52:36Z</time>
      </trkpt>
      <trkpt lat="46.46599" lon="5.40118">
        <ele>541.8</ele>
        <time>2022-02-12T14:52:41Z</time>
      </trkpt>
      <trkpt lat="46.46609" lon="5.40125">
        <ele>542.4</ele>
        <time>2022-02-12T14:52:44Z</time>
      </trkpt>
      <trkpt lat="46.4662" lon="5.40132">
        <ele>542.8</ele>
        <time>2022-02-12T14:52:47Z</time>
      </trkpt>
      <trkpt lat="46.46638" lon="5.4014">
        <ele>544</ele>
        <time>2022-02-12T14:52:52Z</time>
      </trkpt>
      <trkpt lat="46.46641" lon="5.40142">
        <ele>544.4</ele>
        <time>2022-02-12T14:52:53Z</time>
      </trkpt>
      <trkpt lat="46.46655" lon="5.40148">
        <ele>545.2</ele>
        <time>2022-02-12T14:52:57Z</time>
      </trkpt>
      <trkpt lat="46.46672" lon="5.40156">
        <ele>546.2</ele>
        <time>2022-02-12T14:53:02Z</time>
      </trkpt>
      <trkpt lat="46.46679" lon="5.40159">
        <ele>546.8</ele>
        <time>2022-02-12T14:53:04Z</time>
      </trkpt>
      <trkpt lat="46.46686" lon="5.40163">
        <ele>547.4</ele>
        <time>2022-02-12T14:53:06Z</time>
      </trkpt>
      <trkpt lat="46.46704" lon="5.40173">
        <ele>548.4</ele>
        <time>2022-02-12T14:53:11Z</time>
      </trkpt>
      <trkpt lat="46.46719" lon="5.4018">
        <ele>549.4</ele>
        <time>2022-02-12T14:53:15Z</time>
      </trkpt>
      <trkpt lat="46.46723" lon="5.40181">
        <ele>549.6</ele>
        <time>2022-02-12T14:53:16Z</time>
      </trkpt>
      <trkpt lat="46.4674" lon="5.4019">
        <ele>551</ele>
        <time>2022-02-12T14:53:21Z</time>
      </trkpt>
      <trkpt lat="46.46743" lon="5.40191">
        <ele>551.2</ele>
        <time>2022-02-12T14:53:22Z</time>
      </trkpt>
      <trkpt lat="46.46754" lon="5.40197">
        <ele>552</ele>
        <time>2022-02-12T14:53:25Z</time>
      </trkpt>
      <trkpt lat="46.46776" lon="5.40212">
        <ele>553.2</ele>
        <time>2022-02-12T14:53:32Z</time>
      </trkpt>
      <trkpt lat="46.4679" lon="5.40218">
        <ele>554.2</ele>
        <time>2022-02-12T14:53:36Z</time>
      </trkpt>
      <trkpt lat="46.46807" lon="5.40228">
        <ele>555.4</ele>
        <time>2022-02-12T14:53:41Z</time>
      </trkpt>
      <trkpt lat="46.46825" lon="5.40236">
        <ele>556.6</ele>
        <time>2022-02-12T14:53:46Z</time>
      </trkpt>
      <trkpt lat="46.46838" lon="5.40243">
        <ele>557.2</ele>
        <time>2022-02-12T14:53:50Z</time>
      </trkpt>
      <trkpt lat="46.46845" lon="5.40246">
        <ele>557.8</ele>
        <time>2022-02-12T14:53:52Z</time>
      </trkpt>
      <trkpt lat="46.46858" lon="5.40251">
        <ele>558.6</ele>
        <time>2022-02-12T14:53:56Z</time>
      </trkpt>
      <trkpt lat="46.46865" lon="5.40255">
        <ele>558.8</ele>
        <time>2022-02-12T14:53:58Z</time>
      </trkpt>
      <trkpt lat="46.46888" lon="5.40264">
        <ele>559.8</ele>
        <time>2022-02-12T14:54:04Z</time>
      </trkpt>
      <trkpt lat="46.46893" lon="5.40266">
        <ele>559.8</ele>
        <time>2022-02-12T14:54:05Z</time>
      </trkpt>
      <trkpt lat="46.46917" lon="5.40279">
        <ele>561</ele>
        <time>2022-02-12T14:54:11Z</time>
      </trkpt>
      <trkpt lat="46.46929" lon="5.40285">
        <ele>561.4</ele>
        <time>2022-02-12T14:54:14Z</time>
      </trkpt>
      <trkpt lat="46.46949" lon="5.40296">
        <ele>562.2</ele>
        <time>2022-02-12T14:54:19Z</time>
      </trkpt>
      <trkpt lat="46.46961" lon="5.403">
        <ele>562.6</ele>
        <time>2022-02-12T14:54:22Z</time>
      </trkpt>
      <trkpt lat="46.46978" lon="5.40307">
        <ele>563.4</ele>
        <time>2022-02-12T14:54:26Z</time>
      </trkpt>
      <trkpt lat="46.46997" lon="5.40314">
        <ele>564.4</ele>
        <time>2022-02-12T14:54:30Z</time>
      </trkpt>
      <trkpt lat="46.47003" lon="5.40315">
        <ele>564.6</ele>
        <time>2022-02-12T14:54:31Z</time>
      </trkpt>
      <trkpt lat="46.47036" lon="5.40321">
        <ele>565.6</ele>
        <time>2022-02-12T14:54:37Z</time>
      </trkpt>
      <trkpt lat="46.47042" lon="5.40321">
        <ele>565.8</ele>
        <time>2022-02-12T14:54:38Z</time>
      </trkpt>
      <trkpt lat="46.47072" lon="5.40324">
        <ele>565.8</ele>
        <time>2022-02-12T14:54:42Z</time>
      </trkpt>
      <trkpt lat="46.47118" lon="5.4033">
        <ele>564.6</ele>
        <time>2022-02-12T14:54:47Z</time>
      </trkpt>
      <trkpt lat="46.47147" lon="5.40336">
        <ele>563.6</ele>
        <time>2022-02-12T14:54:50Z</time>
      </trkpt>
      <trkpt lat="46.47168" lon="5.40342">
        <ele>563</ele>
        <time>2022-02-12T14:54:52Z</time>
      </trkpt>
      <trkpt lat="46.47178" lon="5.40347">
        <ele>562.4</ele>
        <time>2022-02-12T14:54:53Z</time>
      </trkpt>
      <trkpt lat="46.47197" lon="5.40358">
        <ele>561.2</ele>
        <time>2022-02-12T14:54:55Z</time>
      </trkpt>
      <trkpt lat="46.47206" lon="5.40366">
        <ele>560.6</ele>
        <time>2022-02-12T14:54:56Z</time>
      </trkpt>
      <trkpt lat="46.47214" lon="5.40376">
        <ele>560.2</ele>
        <time>2022-02-12T14:54:57Z</time>
      </trkpt>
      <trkpt lat="46.47223" lon="5.40387">
        <ele>559.6</ele>
        <time>2022-02-12T14:54:58Z</time>
      </trkpt>
      <trkpt lat="46.47232" lon="5.40398">
        <ele>559.4</ele>
        <time>2022-02-12T14:54:59Z</time>
      </trkpt>
      <trkpt lat="46.47242" lon="5.40407">
        <ele>558.6</ele>
        <time>2022-02-12T14:55:00Z</time>
      </trkpt>
      <trkpt lat="46.47253" lon="5.40414">
        <ele>557.8</ele>
        <time>2022-02-12T14:55:01Z</time>
      </trkpt>
      <trkpt lat="46.47265" lon="5.4042">
        <ele>557.4</ele>
        <time>2022-02-12T14:55:02Z</time>
      </trkpt>
      <trkpt lat="46.47276" lon="5.40425">
        <ele>557</ele>
        <time>2022-02-12T14:55:03Z</time>
      </trkpt>
      <trkpt lat="46.47287" lon="5.4043">
        <ele>556.6</ele>
        <time>2022-02-12T14:55:04Z</time>
      </trkpt>
      <trkpt lat="46.47299" lon="5.40434">
        <ele>556</ele>
        <time>2022-02-12T14:55:05Z</time>
      </trkpt>
      <trkpt lat="46.47321" lon="5.40442">
        <ele>555</ele>
        <time>2022-02-12T14:55:07Z</time>
      </trkpt>
      <trkpt lat="46.47351" lon="5.40447">
        <ele>553.4</ele>
        <time>2022-02-12T14:55:10Z</time>
      </trkpt>
      <trkpt lat="46.47362" lon="5.40447">
        <ele>553</ele>
        <time>2022-02-12T14:55:11Z</time>
      </trkpt>
      <trkpt lat="46.47384" lon="5.40447">
        <ele>552</ele>
        <time>2022-02-12T14:55:13Z</time>
      </trkpt>
      <trkpt lat="46.47417" lon="5.40443">
        <ele>550.2</ele>
        <time>2022-02-12T14:55:16Z</time>
      </trkpt>
      <trkpt lat="46.47439" lon="5.40442">
        <ele>549</ele>
        <time>2022-02-12T14:55:18Z</time>
      </trkpt>
      <trkpt lat="46.47461" lon="5.40444">
        <ele>547.8</ele>
        <time>2022-02-12T14:55:20Z</time>
      </trkpt>
      <trkpt lat="46.47471" lon="5.40447">
        <ele>547.2</ele>
        <time>2022-02-12T14:55:21Z</time>
      </trkpt>
      <trkpt lat="46.47492" lon="5.40455">
        <ele>545.8</ele>
        <time>2022-02-12T14:55:23Z</time>
      </trkpt>
      <trkpt lat="46.47501" lon="5.4046">
        <ele>545.4</ele>
        <time>2022-02-12T14:55:24Z</time>
      </trkpt>
      <trkpt lat="46.4751" lon="5.40468">
        <ele>544.6</ele>
        <time>2022-02-12T14:55:25Z</time>
      </trkpt>
      <trkpt lat="46.47517" lon="5.40475">
        <ele>544</ele>
        <time>2022-02-12T14:55:26Z</time>
      </trkpt>
      <trkpt lat="46.47525" lon="5.40479">
        <ele>543.6</ele>
        <time>2022-02-12T14:55:27Z</time>
      </trkpt>
      <trkpt lat="46.47532" lon="5.40476">
        <ele>542.8</ele>
        <time>2022-02-12T14:55:28Z</time>
      </trkpt>
      <trkpt lat="46.47539" lon="5.40466">
        <ele>542.4</ele>
        <time>2022-02-12T14:55:29Z</time>
      </trkpt>
      <trkpt lat="46.47542" lon="5.40455">
        <ele>541.2</ele>
        <time>2022-02-12T14:55:30Z</time>
      </trkpt>
      <trkpt lat="46.47543" lon="5.40431">
        <ele>539.8</ele>
        <time>2022-02-12T14:55:32Z</time>
      </trkpt>
      <trkpt lat="46.47542" lon="5.40418">
        <ele>539.6</ele>
        <time>2022-02-12T14:55:33Z</time>
      </trkpt>
      <trkpt lat="46.47539" lon="5.40402">
        <ele>538.8</ele>
        <time>2022-02-12T14:55:34Z</time>
      </trkpt>
      <trkpt lat="46.47535" lon="5.40392">
        <ele>537.6</ele>
        <time>2022-02-12T14:55:35Z</time>
      </trkpt>
      <trkpt lat="46.47531" lon="5.4038">
        <ele>537.2</ele>
        <time>2022-02-12T14:55:36Z</time>
      </trkpt>
      <trkpt lat="46.47527" lon="5.40366">
        <ele>536.6</ele>
        <time>2022-02-12T14:55:37Z</time>
      </trkpt>
      <trkpt lat="46.47524" lon="5.40353">
        <ele>536.4</ele>
        <time>2022-02-12T14:55:38Z</time>
      </trkpt>
      <trkpt lat="46.47526" lon="5.40328">
        <ele>535.8</ele>
        <time>2022-02-12T14:55:40Z</time>
      </trkpt>
      <trkpt lat="46.47531" lon="5.40314">
        <ele>535.2</ele>
        <time>2022-02-12T14:55:41Z</time>
      </trkpt>
      <trkpt lat="46.47538" lon="5.403">
        <ele>534.4</ele>
        <time>2022-02-12T14:55:42Z</time>
      </trkpt>
      <trkpt lat="46.47547" lon="5.40288">
        <ele>533.8</ele>
        <time>2022-02-12T14:55:43Z</time>
      </trkpt>
      <trkpt lat="46.47556" lon="5.40277">
        <ele>533.2</ele>
        <time>2022-02-12T14:55:44Z</time>
      </trkpt>
      <trkpt lat="46.47577" lon="5.40261">
        <ele>531.8</ele>
        <time>2022-02-12T14:55:46Z</time>
      </trkpt>
      <trkpt lat="46.47599" lon="5.40253">
        <ele>530.8</ele>
        <time>2022-02-12T14:55:48Z</time>
      </trkpt>
      <trkpt lat="46.4761" lon="5.40252">
        <ele>530.4</ele>
        <time>2022-02-12T14:55:49Z</time>
      </trkpt>
      <trkpt lat="46.47633" lon="5.4025">
        <ele>529.4</ele>
        <time>2022-02-12T14:55:51Z</time>
      </trkpt>
      <trkpt lat="46.47656" lon="5.40248">
        <ele>528</ele>
        <time>2022-02-12T14:55:53Z</time>
      </trkpt>
      <trkpt lat="46.47667" lon="5.40247">
        <ele>527.8</ele>
        <time>2022-02-12T14:55:54Z</time>
      </trkpt>
      <trkpt lat="46.47688" lon="5.40245">
        <ele>526.6</ele>
        <time>2022-02-12T14:55:56Z</time>
      </trkpt>
      <trkpt lat="46.47699" lon="5.40239">
        <ele>525.6</ele>
        <time>2022-02-12T14:55:57Z</time>
      </trkpt>
      <trkpt lat="46.47705" lon="5.40231">
        <ele>525.2</ele>
        <time>2022-02-12T14:55:58Z</time>
      </trkpt>
      <trkpt lat="46.47717" lon="5.40207">
        <ele>524.6</ele>
        <time>2022-02-12T14:56:00Z</time>
      </trkpt>
      <trkpt lat="46.4772" lon="5.40193">
        <ele>524.4</ele>
        <time>2022-02-12T14:56:01Z</time>
      </trkpt>
      <trkpt lat="46.47725" lon="5.40177">
        <ele>523.8</ele>
        <time>2022-02-12T14:56:02Z</time>
      </trkpt>
      <trkpt lat="46.47731" lon="5.40169">
        <ele>523.4</ele>
        <time>2022-02-12T14:56:03Z</time>
      </trkpt>
      <trkpt lat="46.47739" lon="5.4016">
        <ele>522.4</ele>
        <time>2022-02-12T14:56:04Z</time>
      </trkpt>
      <trkpt lat="46.47748" lon="5.4015">
        <ele>522</ele>
        <time>2022-02-12T14:56:05Z</time>
      </trkpt>
      <trkpt lat="46.47755" lon="5.40138">
        <ele>521.4</ele>
        <time>2022-02-12T14:56:06Z</time>
      </trkpt>
      <trkpt lat="46.47762" lon="5.40122">
        <ele>520.8</ele>
        <time>2022-02-12T14:56:07Z</time>
      </trkpt>
      <trkpt lat="46.47765" lon="5.4011">
        <ele>520.6</ele>
        <time>2022-02-12T14:56:08Z</time>
      </trkpt>
      <trkpt lat="46.47768" lon="5.40094">
        <ele>519.8</ele>
        <time>2022-02-12T14:56:09Z</time>
      </trkpt>
      <trkpt lat="46.47768" lon="5.40078">
        <ele>519.6</ele>
        <time>2022-02-12T14:56:10Z</time>
      </trkpt>
      <trkpt lat="46.47767" lon="5.40063">
        <ele>518.8</ele>
        <time>2022-02-12T14:56:11Z</time>
      </trkpt>
      <trkpt lat="46.47766" lon="5.40048">
        <ele>518.4</ele>
        <time>2022-02-12T14:56:12Z</time>
      </trkpt>
      <trkpt lat="46.47768" lon="5.40024">
        <ele>517.2</ele>
        <time>2022-02-12T14:56:14Z</time>
      </trkpt>
      <trkpt lat="46.47777" lon="5.40008">
        <ele>515.6</ele>
        <time>2022-02-12T14:56:16Z</time>
      </trkpt>
      <trkpt lat="46.47783" lon="5.40002">
        <ele>515.4</ele>
        <time>2022-02-12T14:56:17Z</time>
      </trkpt>
      <trkpt lat="46.47791" lon="5.39998">
        <ele>514.4</ele>
        <time>2022-02-12T14:56:18Z</time>
      </trkpt>
      <trkpt lat="46.47799" lon="5.39993">
        <ele>514</ele>
        <time>2022-02-12T14:56:19Z</time>
      </trkpt>
      <trkpt lat="46.47809" lon="5.39987">
        <ele>513</ele>
        <time>2022-02-12T14:56:20Z</time>
      </trkpt>
      <trkpt lat="46.47818" lon="5.39982">
        <ele>512.6</ele>
        <time>2022-02-12T14:56:21Z</time>
      </trkpt>
      <trkpt lat="46.47827" lon="5.39977">
        <ele>512</ele>
        <time>2022-02-12T14:56:22Z</time>
      </trkpt>
      <trkpt lat="46.47846" lon="5.39967">
        <ele>510.8</ele>
        <time>2022-02-12T14:56:24Z</time>
      </trkpt>
      <trkpt lat="46.47866" lon="5.39956">
        <ele>509.8</ele>
        <time>2022-02-12T14:56:26Z</time>
      </trkpt>
      <trkpt lat="46.47877" lon="5.39951">
        <ele>509.2</ele>
        <time>2022-02-12T14:56:27Z</time>
      </trkpt>
      <trkpt lat="46.47897" lon="5.3994">
        <ele>508.6</ele>
        <time>2022-02-12T14:56:29Z</time>
      </trkpt>
      <trkpt lat="46.47928" lon="5.39922">
        <ele>507.4</ele>
        <time>2022-02-12T14:56:32Z</time>
      </trkpt>
      <trkpt lat="46.47949" lon="5.39912">
        <ele>506</ele>
        <time>2022-02-12T14:56:34Z</time>
      </trkpt>
      <trkpt lat="46.47957" lon="5.39908">
        <ele>505.4</ele>
        <time>2022-02-12T14:56:35Z</time>
      </trkpt>
      <trkpt lat="46.47969" lon="5.39902">
        <ele>504.8</ele>
        <time>2022-02-12T14:56:36Z</time>
      </trkpt>
      <trkpt lat="46.47989" lon="5.39892">
        <ele>503.8</ele>
        <time>2022-02-12T14:56:38Z</time>
      </trkpt>
      <trkpt lat="46.48009" lon="5.39885">
        <ele>503</ele>
        <time>2022-02-12T14:56:40Z</time>
      </trkpt>
      <trkpt lat="46.48019" lon="5.39884">
        <ele>502.6</ele>
        <time>2022-02-12T14:56:41Z</time>
      </trkpt>
      <trkpt lat="46.48028" lon="5.39886">
        <ele>502.4</ele>
        <time>2022-02-12T14:56:42Z</time>
      </trkpt>
      <trkpt lat="46.48046" lon="5.39896">
        <ele>501.8</ele>
        <time>2022-02-12T14:56:44Z</time>
      </trkpt>
      <trkpt lat="46.4807" lon="5.39908">
        <ele>501.6</ele>
        <time>2022-02-12T14:56:47Z</time>
      </trkpt>
      <trkpt lat="46.4808" lon="5.39911">
        <ele>501.6</ele>
        <time>2022-02-12T14:56:48Z</time>
      </trkpt>
      <trkpt lat="46.48112" lon="5.39909">
        <ele>501.6</ele>
        <time>2022-02-12T14:56:52Z</time>
      </trkpt>
      <trkpt lat="46.48151" lon="5.39893">
        <ele>501.6</ele>
        <time>2022-02-12T14:56:57Z</time>
      </trkpt>
      <trkpt lat="46.48187" lon="5.39867">
        <ele>501.4</ele>
        <time>2022-02-12T14:57:02Z</time>
      </trkpt>
      <trkpt lat="46.48196" lon="5.39848">
        <ele>501.2</ele>
        <time>2022-02-12T14:57:04Z</time>
      </trkpt>
      <trkpt lat="46.48197" lon="5.39827">
        <ele>501</ele>
        <time>2022-02-12T14:57:06Z</time>
      </trkpt>
      <trkpt lat="46.48195" lon="5.39814">
        <ele>501</ele>
        <time>2022-02-12T14:57:07Z</time>
      </trkpt>
      <trkpt lat="46.48188" lon="5.3978">
        <ele>500.4</ele>
        <time>2022-02-12T14:57:10Z</time>
      </trkpt>
      <trkpt lat="46.48179" lon="5.39709">
        <ele>499.6</ele>
        <time>2022-02-12T14:57:16Z</time>
      </trkpt>
      <trkpt lat="46.48179" lon="5.39685">
        <ele>499.4</ele>
        <time>2022-02-12T14:57:18Z</time>
      </trkpt>
      <trkpt lat="46.4818" lon="5.39659">
        <ele>499</ele>
        <time>2022-02-12T14:57:20Z</time>
      </trkpt>
      <trkpt lat="46.48183" lon="5.39646">
        <ele>498.6</ele>
        <time>2022-02-12T14:57:21Z</time>
      </trkpt>
      <trkpt lat="46.48191" lon="5.39619">
        <ele>498.2</ele>
        <time>2022-02-12T14:57:23Z</time>
      </trkpt>
      <trkpt lat="46.48202" lon="5.39593">
        <ele>497</ele>
        <time>2022-02-12T14:57:25Z</time>
      </trkpt>
      <trkpt lat="46.48211" lon="5.39565">
        <ele>495.4</ele>
        <time>2022-02-12T14:57:27Z</time>
      </trkpt>
      <trkpt lat="46.48214" lon="5.3955">
        <ele>494.6</ele>
        <time>2022-02-12T14:57:28Z</time>
      </trkpt>
      <trkpt lat="46.48217" lon="5.39535">
        <ele>494.2</ele>
        <time>2022-02-12T14:57:29Z</time>
      </trkpt>
      <trkpt lat="46.48224" lon="5.39505">
        <ele>492.8</ele>
        <time>2022-02-12T14:57:31Z</time>
      </trkpt>
      <trkpt lat="46.4823" lon="5.39493">
        <ele>492</ele>
        <time>2022-02-12T14:57:32Z</time>
      </trkpt>
      <trkpt lat="46.48236" lon="5.39482">
        <ele>491</ele>
        <time>2022-02-12T14:57:33Z</time>
      </trkpt>
      <trkpt lat="46.48251" lon="5.39467">
        <ele>489</ele>
        <time>2022-02-12T14:57:35Z</time>
      </trkpt>
      <trkpt lat="46.48269" lon="5.39464">
        <ele>486.6</ele>
        <time>2022-02-12T14:57:37Z</time>
      </trkpt>
      <trkpt lat="46.48279" lon="5.39464">
        <ele>486</ele>
        <time>2022-02-12T14:57:38Z</time>
      </trkpt>
      <trkpt lat="46.48288" lon="5.39461">
        <ele>485</ele>
        <time>2022-02-12T14:57:39Z</time>
      </trkpt>
      <trkpt lat="46.483" lon="5.39446">
        <ele>483.6</ele>
        <time>2022-02-12T14:57:41Z</time>
      </trkpt>
      <trkpt lat="46.48303" lon="5.39433">
        <ele>482.4</ele>
        <time>2022-02-12T14:57:42Z</time>
      </trkpt>
      <trkpt lat="46.4831" lon="5.39403">
        <ele>481.4</ele>
        <time>2022-02-12T14:57:44Z</time>
      </trkpt>
      <trkpt lat="46.48315" lon="5.39388">
        <ele>481.2</ele>
        <time>2022-02-12T14:57:45Z</time>
      </trkpt>
      <trkpt lat="46.48321" lon="5.39372">
        <ele>480.2</ele>
        <time>2022-02-12T14:57:46Z</time>
      </trkpt>
      <trkpt lat="46.48337" lon="5.39345">
        <ele>478.4</ele>
        <time>2022-02-12T14:57:48Z</time>
      </trkpt>
      <trkpt lat="46.48355" lon="5.39326">
        <ele>477</ele>
        <time>2022-02-12T14:57:50Z</time>
      </trkpt>
      <trkpt lat="46.48365" lon="5.39322">
        <ele>476</ele>
        <time>2022-02-12T14:57:51Z</time>
      </trkpt>
      <trkpt lat="46.48376" lon="5.3932">
        <ele>475</ele>
        <time>2022-02-12T14:57:52Z</time>
      </trkpt>
      <trkpt lat="46.48388" lon="5.3932">
        <ele>473.8</ele>
        <time>2022-02-12T14:57:53Z</time>
      </trkpt>
      <trkpt lat="46.48399" lon="5.39322">
        <ele>473.2</ele>
        <time>2022-02-12T14:57:54Z</time>
      </trkpt>
      <trkpt lat="46.48412" lon="5.39324">
        <ele>472.2</ele>
        <time>2022-02-12T14:57:55Z</time>
      </trkpt>
      <trkpt lat="46.48425" lon="5.39325">
        <ele>471.8</ele>
        <time>2022-02-12T14:57:56Z</time>
      </trkpt>
      <trkpt lat="46.48439" lon="5.39323">
        <ele>470.6</ele>
        <time>2022-02-12T14:57:57Z</time>
      </trkpt>
      <trkpt lat="46.48452" lon="5.3932">
        <ele>469.4</ele>
        <time>2022-02-12T14:57:58Z</time>
      </trkpt>
      <trkpt lat="46.48478" lon="5.39312">
        <ele>467.4</ele>
        <time>2022-02-12T14:58:00Z</time>
      </trkpt>
      <trkpt lat="46.48491" lon="5.39309">
        <ele>466.6</ele>
        <time>2022-02-12T14:58:01Z</time>
      </trkpt>
      <trkpt lat="46.48504" lon="5.39306">
        <ele>465.4</ele>
        <time>2022-02-12T14:58:02Z</time>
      </trkpt>
      <trkpt lat="46.48532" lon="5.39298">
        <ele>463.8</ele>
        <time>2022-02-12T14:58:04Z</time>
      </trkpt>
      <trkpt lat="46.4856" lon="5.39292">
        <ele>462.2</ele>
        <time>2022-02-12T14:58:06Z</time>
      </trkpt>
      <trkpt lat="46.48574" lon="5.39289">
        <ele>460.4</ele>
        <time>2022-02-12T14:58:07Z</time>
      </trkpt>
      <trkpt lat="46.48601" lon="5.39284">
        <ele>458.8</ele>
        <time>2022-02-12T14:58:09Z</time>
      </trkpt>
      <trkpt lat="46.48629" lon="5.39279">
        <ele>457.2</ele>
        <time>2022-02-12T14:58:11Z</time>
      </trkpt>
      <trkpt lat="46.48654" lon="5.39278">
        <ele>454.2</ele>
        <time>2022-02-12T14:58:13Z</time>
      </trkpt>
      <trkpt lat="46.48667" lon="5.39279">
        <ele>453.2</ele>
        <time>2022-02-12T14:58:14Z</time>
      </trkpt>
      <trkpt lat="46.48678" lon="5.39282">
        <ele>451.8</ele>
        <time>2022-02-12T14:58:15Z</time>
      </trkpt>
      <trkpt lat="46.48689" lon="5.39285">
        <ele>450</ele>
        <time>2022-02-12T14:58:16Z</time>
      </trkpt>
      <trkpt lat="46.48699" lon="5.39291">
        <ele>449.4</ele>
        <time>2022-02-12T14:58:17Z</time>
      </trkpt>
      <trkpt lat="46.48707" lon="5.39297">
        <ele>448.4</ele>
        <time>2022-02-12T14:58:18Z</time>
      </trkpt>
      <trkpt lat="46.48723" lon="5.39306">
        <ele>445.8</ele>
        <time>2022-02-12T14:58:20Z</time>
      </trkpt>
      <trkpt lat="46.48739" lon="5.39306">
        <ele>444</ele>
        <time>2022-02-12T14:58:22Z</time>
      </trkpt>
      <trkpt lat="46.48745" lon="5.39302">
        <ele>442.8</ele>
        <time>2022-02-12T14:58:23Z</time>
      </trkpt>
      <trkpt lat="46.48745" lon="5.39297">
        <ele>442.2</ele>
        <time>2022-02-12T14:58:24Z</time>
      </trkpt>
      <trkpt lat="46.48747" lon="5.39293">
        <ele>441.2</ele>
        <time>2022-02-12T14:58:25Z</time>
      </trkpt>
      <trkpt lat="46.48738" lon="5.39282">
        <ele>440.6</ele>
        <time>2022-02-12T14:58:26Z</time>
      </trkpt>
      <trkpt lat="46.48728" lon="5.39268">
        <ele>439.4</ele>
        <time>2022-02-12T14:58:27Z</time>
      </trkpt>
      <trkpt lat="46.48705" lon="5.39239">
        <ele>437.4</ele>
        <time>2022-02-12T14:58:29Z</time>
      </trkpt>
      <trkpt lat="46.48685" lon="5.39208">
        <ele>435</ele>
        <time>2022-02-12T14:58:31Z</time>
      </trkpt>
      <trkpt lat="46.48665" lon="5.3918">
        <ele>434</ele>
        <time>2022-02-12T14:58:33Z</time>
      </trkpt>
      <trkpt lat="46.48655" lon="5.39166">
        <ele>433.4</ele>
        <time>2022-02-12T14:58:34Z</time>
      </trkpt>
      <trkpt lat="46.48644" lon="5.39152">
        <ele>433</ele>
        <time>2022-02-12T14:58:35Z</time>
      </trkpt>
      <trkpt lat="46.48632" lon="5.39141">
        <ele>431.8</ele>
        <time>2022-02-12T14:58:36Z</time>
      </trkpt>
      <trkpt lat="46.4862" lon="5.3913">
        <ele>431.4</ele>
        <time>2022-02-12T14:58:37Z</time>
      </trkpt>
      <trkpt lat="46.48607" lon="5.39121">
        <ele>429.8</ele>
        <time>2022-02-12T14:58:38Z</time>
      </trkpt>
      <trkpt lat="46.48581" lon="5.39102">
        <ele>427.4</ele>
        <time>2022-02-12T14:58:40Z</time>
      </trkpt>
      <trkpt lat="46.48569" lon="5.39093">
        <ele>426.2</ele>
        <time>2022-02-12T14:58:41Z</time>
      </trkpt>
      <trkpt lat="46.48556" lon="5.39084">
        <ele>425.6</ele>
        <time>2022-02-12T14:58:42Z</time>
      </trkpt>
      <trkpt lat="46.48543" lon="5.39076">
        <ele>424</ele>
        <time>2022-02-12T14:58:43Z</time>
      </trkpt>
      <trkpt lat="46.48517" lon="5.39058">
        <ele>422.4</ele>
        <time>2022-02-12T14:58:45Z</time>
      </trkpt>
      <trkpt lat="46.48507" lon="5.39044">
        <ele>421.6</ele>
        <time>2022-02-12T14:58:46Z</time>
      </trkpt>
      <trkpt lat="46.48499" lon="5.39026">
        <ele>419.8</ele>
        <time>2022-02-12T14:58:47Z</time>
      </trkpt>
      <trkpt lat="46.48494" lon="5.39007">
        <ele>419</ele>
        <time>2022-02-12T14:58:48Z</time>
      </trkpt>
      <trkpt lat="46.4849" lon="5.38988">
        <ele>418</ele>
        <time>2022-02-12T14:58:49Z</time>
      </trkpt>
      <trkpt lat="46.48484" lon="5.38971">
        <ele>416</ele>
        <time>2022-02-12T14:58:50Z</time>
      </trkpt>
      <trkpt lat="46.48477" lon="5.38953">
        <ele>415.2</ele>
        <time>2022-02-12T14:58:51Z</time>
      </trkpt>
      <trkpt lat="46.48469" lon="5.38938">
        <ele>413</ele>
        <time>2022-02-12T14:58:52Z</time>
      </trkpt>
      <trkpt lat="46.48456" lon="5.38911">
        <ele>411.2</ele>
        <time>2022-02-12T14:58:54Z</time>
      </trkpt>
      <trkpt lat="46.48452" lon="5.38883">
        <ele>409</ele>
        <time>2022-02-12T14:58:56Z</time>
      </trkpt>
      <trkpt lat="46.48456" lon="5.38871">
        <ele>408.2</ele>
        <time>2022-02-12T14:58:57Z</time>
      </trkpt>
      <trkpt lat="46.48464" lon="5.3886">
        <ele>407.6</ele>
        <time>2022-02-12T14:58:58Z</time>
      </trkpt>
      <trkpt lat="46.48473" lon="5.3885">
        <ele>406.6</ele>
        <time>2022-02-12T14:58:59Z</time>
      </trkpt>
      <trkpt lat="46.48482" lon="5.38842">
        <ele>405.8</ele>
        <time>2022-02-12T14:59:00Z</time>
      </trkpt>
      <trkpt lat="46.48492" lon="5.38835">
        <ele>404.8</ele>
        <time>2022-02-12T14:59:01Z</time>
      </trkpt>
      <trkpt lat="46.48502" lon="5.38828">
        <ele>404.4</ele>
        <time>2022-02-12T14:59:02Z</time>
      </trkpt>
      <trkpt lat="46.48512" lon="5.38821">
        <ele>403.8</ele>
        <time>2022-02-12T14:59:03Z</time>
      </trkpt>
      <trkpt lat="46.48544" lon="5.388">
        <ele>401.6</ele>
        <time>2022-02-12T14:59:06Z</time>
      </trkpt>
      <trkpt lat="46.48564" lon="5.38787">
        <ele>400</ele>
        <time>2022-02-12T14:59:08Z</time>
      </trkpt>
      <trkpt lat="46.48581" lon="5.38777">
        <ele>398</ele>
        <time>2022-02-12T14:59:10Z</time>
      </trkpt>
      <trkpt lat="46.48596" lon="5.38778">
        <ele>396.6</ele>
        <time>2022-02-12T14:59:12Z</time>
      </trkpt>
      <trkpt lat="46.4861" lon="5.38777">
        <ele>394.8</ele>
        <time>2022-02-12T14:59:14Z</time>
      </trkpt>
      <trkpt lat="46.48618" lon="5.38771">
        <ele>393.2</ele>
        <time>2022-02-12T14:59:15Z</time>
      </trkpt>
      <trkpt lat="46.48623" lon="5.38761">
        <ele>392.6</ele>
        <time>2022-02-12T14:59:16Z</time>
      </trkpt>
      <trkpt lat="46.48629" lon="5.38749">
        <ele>391.4</ele>
        <time>2022-02-12T14:59:17Z</time>
      </trkpt>
      <trkpt lat="46.48638" lon="5.38723">
        <ele>389.6</ele>
        <time>2022-02-12T14:59:19Z</time>
      </trkpt>
      <trkpt lat="46.48641" lon="5.38708">
        <ele>388.8</ele>
        <time>2022-02-12T14:59:20Z</time>
      </trkpt>
      <trkpt lat="46.48642" lon="5.38693">
        <ele>388</ele>
        <time>2022-02-12T14:59:21Z</time>
      </trkpt>
      <trkpt lat="46.4864" lon="5.3866">
        <ele>387</ele>
        <time>2022-02-12T14:59:23Z</time>
      </trkpt>
      <trkpt lat="46.48634" lon="5.38629">
        <ele>385.8</ele>
        <time>2022-02-12T14:59:25Z</time>
      </trkpt>
      <trkpt lat="46.48626" lon="5.38599">
        <ele>384.6</ele>
        <time>2022-02-12T14:59:27Z</time>
      </trkpt>
      <trkpt lat="46.48614" lon="5.38552">
        <ele>382.8</ele>
        <time>2022-02-12T14:59:30Z</time>
      </trkpt>
      <trkpt lat="46.4861" lon="5.38536">
        <ele>381.8</ele>
        <time>2022-02-12T14:59:31Z</time>
      </trkpt>
      <trkpt lat="46.48601" lon="5.38505">
        <ele>380.6</ele>
        <time>2022-02-12T14:59:33Z</time>
      </trkpt>
    </trkseg>
  </trk>
</gpx>